<?xml version="1.0" encoding="utf-8"?>
<gpx xmlns:xsi="http://www.w3.org/2001/XMLSchema-instance" xmlns:xsd="http://www.w3.org/2001/XMLSchema" version="1.1" creator="Shapelink.com" xmlns="http://www.topografix.com/GPX/1/1" xmlns:gpxtpx="http://www.garmin.com/xmlschemas/TrackPointExtension/v1">
  <metadata>
    <name>Cykling 115.16 km, 2012-07-27</name>
    <desc></desc>
    <author><name>Alexander Engvall</name></author> 
    <time>2012-07-27T10:33:29Z</time>
  </metadata>
  <trk>
    <name>Cykling 115.16 km, 2012-07-27</name>
    <trkseg>
      <trkpt lat="62.8156443" lon="14.4055637">
        <ele>350.2</ele>
        <time>2012-07-27T10:33:29Z</time>
      </trkpt>
      <trkpt lat="62.8155083" lon="14.406389">
        <ele>350</ele>
        <time>2012-07-27T10:33:34Z</time>
      </trkpt>
      <trkpt lat="62.8153763" lon="14.4073173">
        <ele>350</ele>
        <time>2012-07-27T10:33:39Z</time>
      </trkpt>
      <trkpt lat="62.8152614" lon="14.408101">
        <ele>350.4</ele>
        <time>2012-07-27T10:33:43Z</time>
      </trkpt>
      <trkpt lat="62.8151449" lon="14.4088847">
        <ele>350.8</ele>
        <time>2012-07-27T10:33:47Z</time>
      </trkpt>
      <trkpt lat="62.8149939" lon="14.4097945">
        <ele>351.8</ele>
        <time>2012-07-27T10:33:52Z</time>
      </trkpt>
      <trkpt lat="62.8148546" lon="14.4105746">
        <ele>351</ele>
        <time>2012-07-27T10:33:56Z</time>
      </trkpt>
      <trkpt lat="62.8147005" lon="14.411394">
        <ele>349.8</ele>
        <time>2012-07-27T10:34:00Z</time>
      </trkpt>
      <trkpt lat="62.8145502" lon="14.412191">
        <ele>348.4</ele>
        <time>2012-07-27T10:34:04Z</time>
      </trkpt>
      <trkpt lat="62.8143906" lon="14.4129957">
        <ele>346.6</ele>
        <time>2012-07-27T10:34:08Z</time>
      </trkpt>
      <trkpt lat="62.8142296" lon="14.4138336">
        <ele>345.8</ele>
        <time>2012-07-27T10:34:12Z</time>
      </trkpt>
      <trkpt lat="62.814077" lon="14.4145843">
        <ele>346.4</ele>
        <time>2012-07-27T10:34:16Z</time>
      </trkpt>
      <trkpt lat="62.8139131" lon="14.4153978">
        <ele>347</ele>
        <time>2012-07-27T10:34:21Z</time>
      </trkpt>
      <trkpt lat="62.8137543" lon="14.4161384">
        <ele>346</ele>
        <time>2012-07-27T10:34:26Z</time>
      </trkpt>
      <trkpt lat="62.8136121" lon="14.4168709">
        <ele>345.4</ele>
        <time>2012-07-27T10:34:31Z</time>
      </trkpt>
      <trkpt lat="62.813453" lon="14.4176413">
        <ele>344</ele>
        <time>2012-07-27T10:34:36Z</time>
      </trkpt>
      <trkpt lat="62.8132909" lon="14.4184395">
        <ele>342.2</ele>
        <time>2012-07-27T10:34:41Z</time>
      </trkpt>
      <trkpt lat="62.8131256" lon="14.4192755">
        <ele>341.6</ele>
        <time>2012-07-27T10:34:46Z</time>
      </trkpt>
      <trkpt lat="62.8129563" lon="14.4201117">
        <ele>341.4</ele>
        <time>2012-07-27T10:34:51Z</time>
      </trkpt>
      <trkpt lat="62.8127916" lon="14.4209047">
        <ele>340.2</ele>
        <time>2012-07-27T10:34:56Z</time>
      </trkpt>
      <trkpt lat="62.8126392" lon="14.4216868">
        <ele>340.6</ele>
        <time>2012-07-27T10:35:01Z</time>
      </trkpt>
      <trkpt lat="62.8124838" lon="14.4224509">
        <ele>340</ele>
        <time>2012-07-27T10:35:06Z</time>
      </trkpt>
      <trkpt lat="62.8123197" lon="14.4232648">
        <ele>338.2</ele>
        <time>2012-07-27T10:35:11Z</time>
      </trkpt>
      <trkpt lat="62.8121478" lon="14.4241593">
        <ele>337.2</ele>
        <time>2012-07-27T10:35:16Z</time>
      </trkpt>
      <trkpt lat="62.812" lon="14.4249425">
        <ele>336.4</ele>
        <time>2012-07-27T10:35:20Z</time>
      </trkpt>
      <trkpt lat="62.8118472" lon="14.4257473">
        <ele>335</ele>
        <time>2012-07-27T10:35:24Z</time>
      </trkpt>
      <trkpt lat="62.8116908" lon="14.4265598">
        <ele>334</ele>
        <time>2012-07-27T10:35:28Z</time>
      </trkpt>
      <trkpt lat="62.8115372" lon="14.4273654">
        <ele>332.8</ele>
        <time>2012-07-27T10:35:32Z</time>
      </trkpt>
      <trkpt lat="62.8113769" lon="14.4282253">
        <ele>331.6</ele>
        <time>2012-07-27T10:35:36Z</time>
      </trkpt>
      <trkpt lat="62.8112132" lon="14.4290886">
        <ele>330</ele>
        <time>2012-07-27T10:35:40Z</time>
      </trkpt>
      <trkpt lat="62.8110498" lon="14.4299531">
        <ele>329</ele>
        <time>2012-07-27T10:35:44Z</time>
      </trkpt>
      <trkpt lat="62.8108999" lon="14.4308265">
        <ele>327</ele>
        <time>2012-07-27T10:35:48Z</time>
      </trkpt>
      <trkpt lat="62.810776" lon="14.4317205">
        <ele>325.6</ele>
        <time>2012-07-27T10:35:52Z</time>
      </trkpt>
      <trkpt lat="62.8106652" lon="14.4325591">
        <ele>325.6</ele>
        <time>2012-07-27T10:35:56Z</time>
      </trkpt>
      <trkpt lat="62.8105574" lon="14.4333933">
        <ele>325.8</ele>
        <time>2012-07-27T10:36:00Z</time>
      </trkpt>
      <trkpt lat="62.810401" lon="14.4342216">
        <ele>325.2</ele>
        <time>2012-07-27T10:36:04Z</time>
      </trkpt>
      <trkpt lat="62.8101926" lon="14.4349961">
        <ele>324.8</ele>
        <time>2012-07-27T10:36:08Z</time>
      </trkpt>
      <trkpt lat="62.8099337" lon="14.4357036">
        <ele>322.2</ele>
        <time>2012-07-27T10:36:12Z</time>
      </trkpt>
      <trkpt lat="62.8096525" lon="14.4364085">
        <ele>318.4</ele>
        <time>2012-07-27T10:36:16Z</time>
      </trkpt>
      <trkpt lat="62.8093621" lon="14.4371266">
        <ele>316.4</ele>
        <time>2012-07-27T10:36:20Z</time>
      </trkpt>
      <trkpt lat="62.8092753" lon="14.4372897">
        <ele>315.8</ele>
        <time>2012-07-27T10:36:21Z</time>
      </trkpt>
      <trkpt lat="62.8089656" lon="14.4374741">
        <ele>314.4</ele>
        <time>2012-07-27T10:36:24Z</time>
      </trkpt>
      <trkpt lat="62.8086673" lon="14.4373783">
        <ele>313.8</ele>
        <time>2012-07-27T10:36:27Z</time>
      </trkpt>
      <trkpt lat="62.8085765" lon="14.4373271">
        <ele>313.8</ele>
        <time>2012-07-27T10:36:28Z</time>
      </trkpt>
      <trkpt lat="62.8081874" lon="14.4370862">
        <ele>314</ele>
        <time>2012-07-27T10:36:33Z</time>
      </trkpt>
      <trkpt lat="62.8078345" lon="14.4369101">
        <ele>314.8</ele>
        <time>2012-07-27T10:36:38Z</time>
      </trkpt>
      <trkpt lat="62.8074166" lon="14.436762">
        <ele>315.8</ele>
        <time>2012-07-27T10:36:44Z</time>
      </trkpt>
      <trkpt lat="62.8070437" lon="14.4367738">
        <ele>315.4</ele>
        <time>2012-07-27T10:36:49Z</time>
      </trkpt>
      <trkpt lat="62.8066656" lon="14.4368467">
        <ele>314.4</ele>
        <time>2012-07-27T10:36:54Z</time>
      </trkpt>
      <trkpt lat="62.8062825" lon="14.4369688">
        <ele>314.8</ele>
        <time>2012-07-27T10:36:59Z</time>
      </trkpt>
      <trkpt lat="62.8058917" lon="14.4370644">
        <ele>314</ele>
        <time>2012-07-27T10:37:04Z</time>
      </trkpt>
      <trkpt lat="62.8054798" lon="14.4371851">
        <ele>312.8</ele>
        <time>2012-07-27T10:37:09Z</time>
      </trkpt>
      <trkpt lat="62.8050353" lon="14.4373062">
        <ele>311.8</ele>
        <time>2012-07-27T10:37:14Z</time>
      </trkpt>
      <trkpt lat="62.8045887" lon="14.4374193">
        <ele>311</ele>
        <time>2012-07-27T10:37:19Z</time>
      </trkpt>
      <trkpt lat="62.8041486" lon="14.4375377">
        <ele>310.4</ele>
        <time>2012-07-27T10:37:24Z</time>
      </trkpt>
      <trkpt lat="62.8037195" lon="14.4376461">
        <ele>309.8</ele>
        <time>2012-07-27T10:37:29Z</time>
      </trkpt>
      <trkpt lat="62.8032989" lon="14.4377626">
        <ele>308.8</ele>
        <time>2012-07-27T10:37:34Z</time>
      </trkpt>
      <trkpt lat="62.8028575" lon="14.4378863">
        <ele>306.4</ele>
        <time>2012-07-27T10:37:39Z</time>
      </trkpt>
      <trkpt lat="62.8024826" lon="14.4379889">
        <ele>304.8</ele>
        <time>2012-07-27T10:37:43Z</time>
      </trkpt>
      <trkpt lat="62.8021199" lon="14.4380492">
        <ele>303.2</ele>
        <time>2012-07-27T10:37:47Z</time>
      </trkpt>
      <trkpt lat="62.8017564" lon="14.4380389">
        <ele>301.8</ele>
        <time>2012-07-27T10:37:51Z</time>
      </trkpt>
      <trkpt lat="62.8013787" lon="14.437971">
        <ele>301.2</ele>
        <time>2012-07-27T10:37:55Z</time>
      </trkpt>
      <trkpt lat="62.8010066" lon="14.4379017">
        <ele>301</ele>
        <time>2012-07-27T10:37:59Z</time>
      </trkpt>
      <trkpt lat="62.8005696" lon="14.4378294">
        <ele>301</ele>
        <time>2012-07-27T10:38:04Z</time>
      </trkpt>
      <trkpt lat="62.8001574" lon="14.4378301">
        <ele>300.4</ele>
        <time>2012-07-27T10:38:09Z</time>
      </trkpt>
      <trkpt lat="62.7997486" lon="14.4379643">
        <ele>299.8</ele>
        <time>2012-07-27T10:38:14Z</time>
      </trkpt>
      <trkpt lat="62.7993357" lon="14.4381999">
        <ele>299</ele>
        <time>2012-07-27T10:38:19Z</time>
      </trkpt>
      <trkpt lat="62.7989286" lon="14.4384672">
        <ele>298.6</ele>
        <time>2012-07-27T10:38:24Z</time>
      </trkpt>
      <trkpt lat="62.798528" lon="14.438707">
        <ele>298.6</ele>
        <time>2012-07-27T10:38:29Z</time>
      </trkpt>
      <trkpt lat="62.7981261" lon="14.4388734">
        <ele>298.4</ele>
        <time>2012-07-27T10:38:34Z</time>
      </trkpt>
      <trkpt lat="62.797732" lon="14.438907">
        <ele>300</ele>
        <time>2012-07-27T10:38:39Z</time>
      </trkpt>
      <trkpt lat="62.7973489" lon="14.438792">
        <ele>300.6</ele>
        <time>2012-07-27T10:38:44Z</time>
      </trkpt>
      <trkpt lat="62.7969963" lon="14.4385834">
        <ele>300.6</ele>
        <time>2012-07-27T10:38:49Z</time>
      </trkpt>
      <trkpt lat="62.7966437" lon="14.4383577">
        <ele>300.2</ele>
        <time>2012-07-27T10:38:54Z</time>
      </trkpt>
      <trkpt lat="62.7962914" lon="14.4381165">
        <ele>299.8</ele>
        <time>2012-07-27T10:38:59Z</time>
      </trkpt>
      <trkpt lat="62.7959402" lon="14.4378877">
        <ele>299.8</ele>
        <time>2012-07-27T10:39:04Z</time>
      </trkpt>
      <trkpt lat="62.7955759" lon="14.4376559">
        <ele>299.6</ele>
        <time>2012-07-27T10:39:09Z</time>
      </trkpt>
      <trkpt lat="62.7951966" lon="14.4374043">
        <ele>298</ele>
        <time>2012-07-27T10:39:14Z</time>
      </trkpt>
      <trkpt lat="62.7948176" lon="14.4371499">
        <ele>298.6</ele>
        <time>2012-07-27T10:39:19Z</time>
      </trkpt>
      <trkpt lat="62.7944633" lon="14.436917">
        <ele>301.2</ele>
        <time>2012-07-27T10:39:24Z</time>
      </trkpt>
      <trkpt lat="62.7940525" lon="14.4367261">
        <ele>304</ele>
        <time>2012-07-27T10:39:30Z</time>
      </trkpt>
      <trkpt lat="62.7936251" lon="14.4366038">
        <ele>303.4</ele>
        <time>2012-07-27T10:39:36Z</time>
      </trkpt>
      <trkpt lat="62.7932776" lon="14.4365475">
        <ele>305</ele>
        <time>2012-07-27T10:39:41Z</time>
      </trkpt>
      <trkpt lat="62.7929352" lon="14.4364894">
        <ele>304.6</ele>
        <time>2012-07-27T10:39:46Z</time>
      </trkpt>
      <trkpt lat="62.7925746" lon="14.4364313">
        <ele>301.2</ele>
        <time>2012-07-27T10:39:51Z</time>
      </trkpt>
      <trkpt lat="62.7922068" lon="14.4363648">
        <ele>301.2</ele>
        <time>2012-07-27T10:39:56Z</time>
      </trkpt>
      <trkpt lat="62.7918299" lon="14.4362868">
        <ele>301</ele>
        <time>2012-07-27T10:40:01Z</time>
      </trkpt>
      <trkpt lat="62.7914511" lon="14.4362057">
        <ele>299.4</ele>
        <time>2012-07-27T10:40:06Z</time>
      </trkpt>
      <trkpt lat="62.7910643" lon="14.4361482">
        <ele>299.2</ele>
        <time>2012-07-27T10:40:11Z</time>
      </trkpt>
      <trkpt lat="62.7906767" lon="14.4361242">
        <ele>300</ele>
        <time>2012-07-27T10:40:16Z</time>
      </trkpt>
      <trkpt lat="62.7902958" lon="14.4362026">
        <ele>300.4</ele>
        <time>2012-07-27T10:40:21Z</time>
      </trkpt>
      <trkpt lat="62.789925" lon="14.4363254">
        <ele>301</ele>
        <time>2012-07-27T10:40:26Z</time>
      </trkpt>
      <trkpt lat="62.789557" lon="14.4364557">
        <ele>300.6</ele>
        <time>2012-07-27T10:40:31Z</time>
      </trkpt>
      <trkpt lat="62.7891925" lon="14.4365901">
        <ele>300.8</ele>
        <time>2012-07-27T10:40:36Z</time>
      </trkpt>
      <trkpt lat="62.7888213" lon="14.4367361">
        <ele>300.6</ele>
        <time>2012-07-27T10:40:41Z</time>
      </trkpt>
      <trkpt lat="62.788444" lon="14.43689">
        <ele>299.8</ele>
        <time>2012-07-27T10:40:46Z</time>
      </trkpt>
      <trkpt lat="62.7880329" lon="14.4369861">
        <ele>298.2</ele>
        <time>2012-07-27T10:40:51Z</time>
      </trkpt>
      <trkpt lat="62.7876155" lon="14.4369438">
        <ele>297.4</ele>
        <time>2012-07-27T10:40:56Z</time>
      </trkpt>
      <trkpt lat="62.787217" lon="14.4368028">
        <ele>296.8</ele>
        <time>2012-07-27T10:41:01Z</time>
      </trkpt>
      <trkpt lat="62.7868258" lon="14.4366375">
        <ele>296.2</ele>
        <time>2012-07-27T10:41:06Z</time>
      </trkpt>
      <trkpt lat="62.7864347" lon="14.4364678">
        <ele>296.4</ele>
        <time>2012-07-27T10:41:11Z</time>
      </trkpt>
      <trkpt lat="62.7860249" lon="14.4362779">
        <ele>295.6</ele>
        <time>2012-07-27T10:41:16Z</time>
      </trkpt>
      <trkpt lat="62.7856062" lon="14.4360828">
        <ele>294.2</ele>
        <time>2012-07-27T10:41:21Z</time>
      </trkpt>
      <trkpt lat="62.7851836" lon="14.4358963">
        <ele>294.2</ele>
        <time>2012-07-27T10:41:26Z</time>
      </trkpt>
      <trkpt lat="62.7847724" lon="14.4357209">
        <ele>294.4</ele>
        <time>2012-07-27T10:41:31Z</time>
      </trkpt>
      <trkpt lat="62.7843869" lon="14.4355556">
        <ele>293.6</ele>
        <time>2012-07-27T10:41:36Z</time>
      </trkpt>
      <trkpt lat="62.7839813" lon="14.4353503">
        <ele>292.8</ele>
        <time>2012-07-27T10:41:42Z</time>
      </trkpt>
      <trkpt lat="62.7836219" lon="14.4351204">
        <ele>294.8</ele>
        <time>2012-07-27T10:41:48Z</time>
      </trkpt>
      <trkpt lat="62.7832463" lon="14.4348122">
        <ele>294.6</ele>
        <time>2012-07-27T10:41:54Z</time>
      </trkpt>
      <trkpt lat="62.7828996" lon="14.4345049">
        <ele>293.6</ele>
        <time>2012-07-27T10:41:59Z</time>
      </trkpt>
      <trkpt lat="62.7825382" lon="14.4341807">
        <ele>292.8</ele>
        <time>2012-07-27T10:42:04Z</time>
      </trkpt>
      <trkpt lat="62.7821747" lon="14.4338545">
        <ele>291.8</ele>
        <time>2012-07-27T10:42:09Z</time>
      </trkpt>
      <trkpt lat="62.7818228" lon="14.4335297">
        <ele>291.6</ele>
        <time>2012-07-27T10:42:14Z</time>
      </trkpt>
      <trkpt lat="62.7814671" lon="14.4332079">
        <ele>291.4</ele>
        <time>2012-07-27T10:42:19Z</time>
      </trkpt>
      <trkpt lat="62.7811048" lon="14.4328863">
        <ele>290.6</ele>
        <time>2012-07-27T10:42:24Z</time>
      </trkpt>
      <trkpt lat="62.7807401" lon="14.432555">
        <ele>289.8</ele>
        <time>2012-07-27T10:42:29Z</time>
      </trkpt>
      <trkpt lat="62.7803859" lon="14.4322407">
        <ele>290</ele>
        <time>2012-07-27T10:42:34Z</time>
      </trkpt>
      <trkpt lat="62.7799822" lon="14.4319015">
        <ele>289.6</ele>
        <time>2012-07-27T10:42:40Z</time>
      </trkpt>
      <trkpt lat="62.7795835" lon="14.4316037">
        <ele>290</ele>
        <time>2012-07-27T10:42:46Z</time>
      </trkpt>
      <trkpt lat="62.7792042" lon="14.431389">
        <ele>291.8</ele>
        <time>2012-07-27T10:42:52Z</time>
      </trkpt>
      <trkpt lat="62.7788131" lon="14.4312052">
        <ele>293.4</ele>
        <time>2012-07-27T10:42:58Z</time>
      </trkpt>
      <trkpt lat="62.7784284" lon="14.4310529">
        <ele>294.8</ele>
        <time>2012-07-27T10:43:04Z</time>
      </trkpt>
      <trkpt lat="62.7780292" lon="14.4309007">
        <ele>295.6</ele>
        <time>2012-07-27T10:43:10Z</time>
      </trkpt>
      <trkpt lat="62.7776179" lon="14.4307414">
        <ele>295.4</ele>
        <time>2012-07-27T10:43:16Z</time>
      </trkpt>
      <trkpt lat="62.7772059" lon="14.430579">
        <ele>295</ele>
        <time>2012-07-27T10:43:22Z</time>
      </trkpt>
      <trkpt lat="62.776854" lon="14.4304344">
        <ele>294.6</ele>
        <time>2012-07-27T10:43:27Z</time>
      </trkpt>
      <trkpt lat="62.776474" lon="14.4302955">
        <ele>292.6</ele>
        <time>2012-07-27T10:43:32Z</time>
      </trkpt>
      <trkpt lat="62.776088" lon="14.4301448">
        <ele>291.8</ele>
        <time>2012-07-27T10:43:37Z</time>
      </trkpt>
      <trkpt lat="62.7756932" lon="14.4300002">
        <ele>291.4</ele>
        <time>2012-07-27T10:43:42Z</time>
      </trkpt>
      <trkpt lat="62.7753057" lon="14.4298988">
        <ele>291.8</ele>
        <time>2012-07-27T10:43:47Z</time>
      </trkpt>
      <trkpt lat="62.7749362" lon="14.4298813">
        <ele>293</ele>
        <time>2012-07-27T10:43:52Z</time>
      </trkpt>
      <trkpt lat="62.7745698" lon="14.4299185">
        <ele>293.4</ele>
        <time>2012-07-27T10:43:57Z</time>
      </trkpt>
      <trkpt lat="62.7741877" lon="14.4299456">
        <ele>293.6</ele>
        <time>2012-07-27T10:44:02Z</time>
      </trkpt>
      <trkpt lat="62.773802" lon="14.4299708">
        <ele>293.4</ele>
        <time>2012-07-27T10:44:07Z</time>
      </trkpt>
      <trkpt lat="62.7734087" lon="14.4299698">
        <ele>293.2</ele>
        <time>2012-07-27T10:44:12Z</time>
      </trkpt>
      <trkpt lat="62.7730115" lon="14.4299166">
        <ele>293</ele>
        <time>2012-07-27T10:44:17Z</time>
      </trkpt>
      <trkpt lat="62.7726204" lon="14.4297976">
        <ele>293</ele>
        <time>2012-07-27T10:44:22Z</time>
      </trkpt>
      <trkpt lat="62.7722312" lon="14.429641">
        <ele>293.2</ele>
        <time>2012-07-27T10:44:27Z</time>
      </trkpt>
      <trkpt lat="62.7718575" lon="14.4294863">
        <ele>293</ele>
        <time>2012-07-27T10:44:32Z</time>
      </trkpt>
      <trkpt lat="62.7714346" lon="14.4293145">
        <ele>292.6</ele>
        <time>2012-07-27T10:44:38Z</time>
      </trkpt>
      <trkpt lat="62.7710239" lon="14.4291502">
        <ele>293.6</ele>
        <time>2012-07-27T10:44:44Z</time>
      </trkpt>
      <trkpt lat="62.7706253" lon="14.4289866">
        <ele>294.2</ele>
        <time>2012-07-27T10:44:50Z</time>
      </trkpt>
      <trkpt lat="62.7702316" lon="14.428827">
        <ele>294.6</ele>
        <time>2012-07-27T10:44:56Z</time>
      </trkpt>
      <trkpt lat="62.7698435" lon="14.428681">
        <ele>295.2</ele>
        <time>2012-07-27T10:45:02Z</time>
      </trkpt>
      <trkpt lat="62.7694557" lon="14.428535">
        <ele>295</ele>
        <time>2012-07-27T10:45:08Z</time>
      </trkpt>
      <trkpt lat="62.7690602" lon="14.4283793">
        <ele>294.6</ele>
        <time>2012-07-27T10:45:14Z</time>
      </trkpt>
      <trkpt lat="62.7686572" lon="14.4282299">
        <ele>294.6</ele>
        <time>2012-07-27T10:45:20Z</time>
      </trkpt>
      <trkpt lat="62.768257" lon="14.428076">
        <ele>294.6</ele>
        <time>2012-07-27T10:45:26Z</time>
      </trkpt>
      <trkpt lat="62.7679154" lon="14.4279266">
        <ele>294.2</ele>
        <time>2012-07-27T10:45:31Z</time>
      </trkpt>
      <trkpt lat="62.7678469" lon="14.4279116">
        <ele>294.2</ele>
        <time>2012-07-27T10:45:32Z</time>
      </trkpt>
      <trkpt lat="62.7674572" lon="14.4277755">
        <ele>294.6</ele>
        <time>2012-07-27T10:45:38Z</time>
      </trkpt>
      <trkpt lat="62.7670267" lon="14.4276138">
        <ele>294</ele>
        <time>2012-07-27T10:45:44Z</time>
      </trkpt>
      <trkpt lat="62.7666452" lon="14.427472">
        <ele>293.4</ele>
        <time>2012-07-27T10:45:49Z</time>
      </trkpt>
      <trkpt lat="62.7662666" lon="14.4272731">
        <ele>293.8</ele>
        <time>2012-07-27T10:45:54Z</time>
      </trkpt>
      <trkpt lat="62.7658975" lon="14.4271166">
        <ele>294</ele>
        <time>2012-07-27T10:45:59Z</time>
      </trkpt>
      <trkpt lat="62.7655391" lon="14.4269637">
        <ele>294.4</ele>
        <time>2012-07-27T10:46:04Z</time>
      </trkpt>
      <trkpt lat="62.7651222" lon="14.4267896">
        <ele>295.2</ele>
        <time>2012-07-27T10:46:10Z</time>
      </trkpt>
      <trkpt lat="62.7647606" lon="14.426639">
        <ele>295.4</ele>
        <time>2012-07-27T10:46:15Z</time>
      </trkpt>
      <trkpt lat="62.7643908" lon="14.4264909">
        <ele>294.8</ele>
        <time>2012-07-27T10:46:20Z</time>
      </trkpt>
      <trkpt lat="62.7640198" lon="14.426335">
        <ele>294.6</ele>
        <time>2012-07-27T10:46:25Z</time>
      </trkpt>
      <trkpt lat="62.7636395" lon="14.4261879">
        <ele>294.4</ele>
        <time>2012-07-27T10:46:30Z</time>
      </trkpt>
      <trkpt lat="62.7632677" lon="14.4260301">
        <ele>294.2</ele>
        <time>2012-07-27T10:46:35Z</time>
      </trkpt>
      <trkpt lat="62.7629082" lon="14.4258776">
        <ele>295</ele>
        <time>2012-07-27T10:46:40Z</time>
      </trkpt>
      <trkpt lat="62.7624993" lon="14.4257465">
        <ele>296</ele>
        <time>2012-07-27T10:46:46Z</time>
      </trkpt>
      <trkpt lat="62.7621043" lon="14.4257183">
        <ele>296.6</ele>
        <time>2012-07-27T10:46:52Z</time>
      </trkpt>
      <trkpt lat="62.7617313" lon="14.4257625">
        <ele>298</ele>
        <time>2012-07-27T10:46:58Z</time>
      </trkpt>
      <trkpt lat="62.7613721" lon="14.4258659">
        <ele>298.6</ele>
        <time>2012-07-27T10:47:04Z</time>
      </trkpt>
      <trkpt lat="62.7610008" lon="14.4259915">
        <ele>298.6</ele>
        <time>2012-07-27T10:47:10Z</time>
      </trkpt>
      <trkpt lat="62.7606145" lon="14.4261283">
        <ele>298.4</ele>
        <time>2012-07-27T10:47:16Z</time>
      </trkpt>
      <trkpt lat="62.7602423" lon="14.4262427">
        <ele>298.8</ele>
        <time>2012-07-27T10:47:22Z</time>
      </trkpt>
      <trkpt lat="62.759824" lon="14.4263286">
        <ele>300</ele>
        <time>2012-07-27T10:47:29Z</time>
      </trkpt>
      <trkpt lat="62.7594557" lon="14.4263308">
        <ele>301</ele>
        <time>2012-07-27T10:47:35Z</time>
      </trkpt>
      <trkpt lat="62.7590402" lon="14.4262702">
        <ele>302.6</ele>
        <time>2012-07-27T10:47:42Z</time>
      </trkpt>
      <trkpt lat="62.7586453" lon="14.426218">
        <ele>303.4</ele>
        <time>2012-07-27T10:47:49Z</time>
      </trkpt>
      <trkpt lat="62.7582798" lon="14.4261622">
        <ele>305.6</ele>
        <time>2012-07-27T10:47:56Z</time>
      </trkpt>
      <trkpt lat="62.7578766" lon="14.426163">
        <ele>305.2</ele>
        <time>2012-07-27T10:48:03Z</time>
      </trkpt>
      <trkpt lat="62.7574914" lon="14.4262376">
        <ele>304.4</ele>
        <time>2012-07-27T10:48:09Z</time>
      </trkpt>
      <trkpt lat="62.757091" lon="14.4263179">
        <ele>304.4</ele>
        <time>2012-07-27T10:48:15Z</time>
      </trkpt>
      <trkpt lat="62.7566905" lon="14.426422">
        <ele>304.8</ele>
        <time>2012-07-27T10:48:21Z</time>
      </trkpt>
      <trkpt lat="62.7562679" lon="14.4265145">
        <ele>305.4</ele>
        <time>2012-07-27T10:48:27Z</time>
      </trkpt>
      <trkpt lat="62.7558654" lon="14.4266073">
        <ele>305.6</ele>
        <time>2012-07-27T10:48:33Z</time>
      </trkpt>
      <trkpt lat="62.7554919" lon="14.4266896">
        <ele>306</ele>
        <time>2012-07-27T10:48:39Z</time>
      </trkpt>
      <trkpt lat="62.7551267" lon="14.4267705">
        <ele>305.8</ele>
        <time>2012-07-27T10:48:45Z</time>
      </trkpt>
      <trkpt lat="62.7547304" lon="14.4268732">
        <ele>306.6</ele>
        <time>2012-07-27T10:48:51Z</time>
      </trkpt>
      <trkpt lat="62.7543536" lon="14.4269598">
        <ele>307.6</ele>
        <time>2012-07-27T10:48:57Z</time>
      </trkpt>
      <trkpt lat="62.753988" lon="14.4270467">
        <ele>309</ele>
        <time>2012-07-27T10:49:03Z</time>
      </trkpt>
      <trkpt lat="62.7536255" lon="14.4271338">
        <ele>310</ele>
        <time>2012-07-27T10:49:09Z</time>
      </trkpt>
      <trkpt lat="62.7532629" lon="14.4272149">
        <ele>311</ele>
        <time>2012-07-27T10:49:15Z</time>
      </trkpt>
      <trkpt lat="62.7528987" lon="14.4273035">
        <ele>311.8</ele>
        <time>2012-07-27T10:49:21Z</time>
      </trkpt>
      <trkpt lat="62.7525408" lon="14.4273822">
        <ele>313</ele>
        <time>2012-07-27T10:49:27Z</time>
      </trkpt>
      <trkpt lat="62.7521745" lon="14.4274823">
        <ele>314</ele>
        <time>2012-07-27T10:49:33Z</time>
      </trkpt>
      <trkpt lat="62.7521186" lon="14.4275107">
        <ele>314.4</ele>
        <time>2012-07-27T10:49:34Z</time>
      </trkpt>
      <trkpt lat="62.7519419" lon="14.4277569">
        <ele>315.2</ele>
        <time>2012-07-27T10:49:38Z</time>
      </trkpt>
      <trkpt lat="62.7518633" lon="14.4278966">
        <ele>315.6</ele>
        <time>2012-07-27T10:49:40Z</time>
      </trkpt>
      <trkpt lat="62.7515777" lon="14.4278123">
        <ele>316.8</ele>
        <time>2012-07-27T10:49:46Z</time>
      </trkpt>
      <trkpt lat="62.7514814" lon="14.4277227">
        <ele>317.2</ele>
        <time>2012-07-27T10:49:48Z</time>
      </trkpt>
      <trkpt lat="62.7511332" lon="14.4274259">
        <ele>318.2</ele>
        <time>2012-07-27T10:49:55Z</time>
      </trkpt>
      <trkpt lat="62.750777" lon="14.4271631">
        <ele>319</ele>
        <time>2012-07-27T10:50:02Z</time>
      </trkpt>
      <trkpt lat="62.7504019" lon="14.4269431">
        <ele>319.2</ele>
        <time>2012-07-27T10:50:09Z</time>
      </trkpt>
      <trkpt lat="62.750005" lon="14.4267443">
        <ele>321.6</ele>
        <time>2012-07-27T10:50:16Z</time>
      </trkpt>
      <trkpt lat="62.7496461" lon="14.4265275">
        <ele>323.6</ele>
        <time>2012-07-27T10:50:22Z</time>
      </trkpt>
      <trkpt lat="62.7492759" lon="14.4263026">
        <ele>325.2</ele>
        <time>2012-07-27T10:50:28Z</time>
      </trkpt>
      <trkpt lat="62.7489101" lon="14.4260607">
        <ele>326.6</ele>
        <time>2012-07-27T10:50:34Z</time>
      </trkpt>
      <trkpt lat="62.7485614" lon="14.4258552">
        <ele>327.8</ele>
        <time>2012-07-27T10:50:40Z</time>
      </trkpt>
      <trkpt lat="62.7481642" lon="14.4256293">
        <ele>329.4</ele>
        <time>2012-07-27T10:50:47Z</time>
      </trkpt>
      <trkpt lat="62.7477956" lon="14.4254139">
        <ele>329.8</ele>
        <time>2012-07-27T10:50:54Z</time>
      </trkpt>
      <trkpt lat="62.747415" lon="14.4251864">
        <ele>330.4</ele>
        <time>2012-07-27T10:51:01Z</time>
      </trkpt>
      <trkpt lat="62.7470127" lon="14.4249518">
        <ele>331</ele>
        <time>2012-07-27T10:51:08Z</time>
      </trkpt>
      <trkpt lat="62.7466256" lon="14.4247281">
        <ele>331.6</ele>
        <time>2012-07-27T10:51:15Z</time>
      </trkpt>
      <trkpt lat="62.74624" lon="14.4244937">
        <ele>332.4</ele>
        <time>2012-07-27T10:51:22Z</time>
      </trkpt>
      <trkpt lat="62.7458605" lon="14.4242606">
        <ele>333.2</ele>
        <time>2012-07-27T10:51:29Z</time>
      </trkpt>
      <trkpt lat="62.7454964" lon="14.4240355">
        <ele>333.8</ele>
        <time>2012-07-27T10:51:36Z</time>
      </trkpt>
      <trkpt lat="62.7451525" lon="14.4238091">
        <ele>334.4</ele>
        <time>2012-07-27T10:51:43Z</time>
      </trkpt>
      <trkpt lat="62.7447649" lon="14.423547">
        <ele>334.6</ele>
        <time>2012-07-27T10:51:51Z</time>
      </trkpt>
      <trkpt lat="62.7444081" lon="14.4233071">
        <ele>334</ele>
        <time>2012-07-27T10:51:58Z</time>
      </trkpt>
      <trkpt lat="62.7440589" lon="14.4230491">
        <ele>334.8</ele>
        <time>2012-07-27T10:52:05Z</time>
      </trkpt>
      <trkpt lat="62.7436827" lon="14.4227746">
        <ele>335.8</ele>
        <time>2012-07-27T10:52:12Z</time>
      </trkpt>
      <trkpt lat="62.7432948" lon="14.4224783">
        <ele>336.6</ele>
        <time>2012-07-27T10:52:19Z</time>
      </trkpt>
      <trkpt lat="62.7429299" lon="14.4221938">
        <ele>337.2</ele>
        <time>2012-07-27T10:52:25Z</time>
      </trkpt>
      <trkpt lat="62.7425663" lon="14.4219037">
        <ele>337.4</ele>
        <time>2012-07-27T10:52:31Z</time>
      </trkpt>
      <trkpt lat="62.7422156" lon="14.4216235">
        <ele>338</ele>
        <time>2012-07-27T10:52:37Z</time>
      </trkpt>
      <trkpt lat="62.7418599" lon="14.4213308">
        <ele>338.4</ele>
        <time>2012-07-27T10:52:43Z</time>
      </trkpt>
      <trkpt lat="62.7415045" lon="14.4210523">
        <ele>338.6</ele>
        <time>2012-07-27T10:52:49Z</time>
      </trkpt>
      <trkpt lat="62.7411197" lon="14.4207373">
        <ele>339</ele>
        <time>2012-07-27T10:52:55Z</time>
      </trkpt>
      <trkpt lat="62.7407348" lon="14.4204291">
        <ele>339.2</ele>
        <time>2012-07-27T10:53:01Z</time>
      </trkpt>
      <trkpt lat="62.7403555" lon="14.4201241">
        <ele>339.2</ele>
        <time>2012-07-27T10:53:07Z</time>
      </trkpt>
      <trkpt lat="62.7399739" lon="14.4198235">
        <ele>338</ele>
        <time>2012-07-27T10:53:13Z</time>
      </trkpt>
      <trkpt lat="62.7395734" lon="14.4194977">
        <ele>335.8</ele>
        <time>2012-07-27T10:53:19Z</time>
      </trkpt>
      <trkpt lat="62.7391735" lon="14.4191792">
        <ele>334.6</ele>
        <time>2012-07-27T10:53:25Z</time>
      </trkpt>
      <trkpt lat="62.7388207" lon="14.4188894">
        <ele>335</ele>
        <time>2012-07-27T10:53:30Z</time>
      </trkpt>
      <trkpt lat="62.7384569" lon="14.4185968">
        <ele>335</ele>
        <time>2012-07-27T10:53:35Z</time>
      </trkpt>
      <trkpt lat="62.7380919" lon="14.4183019">
        <ele>334.8</ele>
        <time>2012-07-27T10:53:40Z</time>
      </trkpt>
      <trkpt lat="62.737726" lon="14.4180058">
        <ele>334.8</ele>
        <time>2012-07-27T10:53:45Z</time>
      </trkpt>
      <trkpt lat="62.7373595" lon="14.4177109">
        <ele>333.2</ele>
        <time>2012-07-27T10:53:50Z</time>
      </trkpt>
      <trkpt lat="62.7369985" lon="14.4174214">
        <ele>330.8</ele>
        <time>2012-07-27T10:53:55Z</time>
      </trkpt>
      <trkpt lat="62.7366336" lon="14.417133">
        <ele>328.6</ele>
        <time>2012-07-27T10:54:00Z</time>
      </trkpt>
      <trkpt lat="62.736254" lon="14.4168254">
        <ele>326.4</ele>
        <time>2012-07-27T10:54:05Z</time>
      </trkpt>
      <trkpt lat="62.7358758" lon="14.4165202">
        <ele>326.8</ele>
        <time>2012-07-27T10:54:10Z</time>
      </trkpt>
      <trkpt lat="62.7355027" lon="14.4162285">
        <ele>327.2</ele>
        <time>2012-07-27T10:54:15Z</time>
      </trkpt>
      <trkpt lat="62.7351211" lon="14.4159462">
        <ele>325.2</ele>
        <time>2012-07-27T10:54:20Z</time>
      </trkpt>
      <trkpt lat="62.7347327" lon="14.4156944">
        <ele>322.8</ele>
        <time>2012-07-27T10:54:25Z</time>
      </trkpt>
      <trkpt lat="62.7343452" lon="14.4154692">
        <ele>320.8</ele>
        <time>2012-07-27T10:54:30Z</time>
      </trkpt>
      <trkpt lat="62.7339554" lon="14.4152687">
        <ele>319.2</ele>
        <time>2012-07-27T10:54:35Z</time>
      </trkpt>
      <trkpt lat="62.7335878" lon="14.4150856">
        <ele>322</ele>
        <time>2012-07-27T10:54:40Z</time>
      </trkpt>
      <trkpt lat="62.7332206" lon="14.4149336">
        <ele>323.4</ele>
        <time>2012-07-27T10:54:45Z</time>
      </trkpt>
      <trkpt lat="62.732852" lon="14.4148065">
        <ele>324.8</ele>
        <time>2012-07-27T10:54:50Z</time>
      </trkpt>
      <trkpt lat="62.7324783" lon="14.4147061">
        <ele>326</ele>
        <time>2012-07-27T10:54:55Z</time>
      </trkpt>
      <trkpt lat="62.7321052" lon="14.4146289">
        <ele>327.2</ele>
        <time>2012-07-27T10:55:00Z</time>
      </trkpt>
      <trkpt lat="62.7317323" lon="14.414576">
        <ele>328.2</ele>
        <time>2012-07-27T10:55:05Z</time>
      </trkpt>
      <trkpt lat="62.7313625" lon="14.4145427">
        <ele>329.4</ele>
        <time>2012-07-27T10:55:10Z</time>
      </trkpt>
      <trkpt lat="62.7309925" lon="14.4145408">
        <ele>330.8</ele>
        <time>2012-07-27T10:55:15Z</time>
      </trkpt>
      <trkpt lat="62.7306258" lon="14.4145598">
        <ele>331.8</ele>
        <time>2012-07-27T10:55:20Z</time>
      </trkpt>
      <trkpt lat="62.7302587" lon="14.4145967">
        <ele>333</ele>
        <time>2012-07-27T10:55:25Z</time>
      </trkpt>
      <trkpt lat="62.7298888" lon="14.4146569">
        <ele>333.6</ele>
        <time>2012-07-27T10:55:30Z</time>
      </trkpt>
      <trkpt lat="62.72952" lon="14.4147439">
        <ele>334</ele>
        <time>2012-07-27T10:55:35Z</time>
      </trkpt>
      <trkpt lat="62.7291574" lon="14.414848">
        <ele>334.4</ele>
        <time>2012-07-27T10:55:40Z</time>
      </trkpt>
      <trkpt lat="62.7287992" lon="14.4149501">
        <ele>333.2</ele>
        <time>2012-07-27T10:55:45Z</time>
      </trkpt>
      <trkpt lat="62.7284239" lon="14.4150646">
        <ele>332.6</ele>
        <time>2012-07-27T10:55:50Z</time>
      </trkpt>
      <trkpt lat="62.728044" lon="14.4151837">
        <ele>332.6</ele>
        <time>2012-07-27T10:55:55Z</time>
      </trkpt>
      <trkpt lat="62.7276613" lon="14.415295">
        <ele>332.8</ele>
        <time>2012-07-27T10:56:00Z</time>
      </trkpt>
      <trkpt lat="62.7272806" lon="14.4154123">
        <ele>333</ele>
        <time>2012-07-27T10:56:05Z</time>
      </trkpt>
      <trkpt lat="62.7269103" lon="14.4155207">
        <ele>333.6</ele>
        <time>2012-07-27T10:56:10Z</time>
      </trkpt>
      <trkpt lat="62.7265469" lon="14.4156199">
        <ele>334.4</ele>
        <time>2012-07-27T10:56:15Z</time>
      </trkpt>
      <trkpt lat="62.7261865" lon="14.4156932">
        <ele>334.4</ele>
        <time>2012-07-27T10:56:20Z</time>
      </trkpt>
      <trkpt lat="62.7258203" lon="14.4157364">
        <ele>334.4</ele>
        <time>2012-07-27T10:56:25Z</time>
      </trkpt>
      <trkpt lat="62.7254421" lon="14.4157583">
        <ele>334.4</ele>
        <time>2012-07-27T10:56:30Z</time>
      </trkpt>
      <trkpt lat="62.725079" lon="14.4157511">
        <ele>335</ele>
        <time>2012-07-27T10:56:35Z</time>
      </trkpt>
      <trkpt lat="62.7246558" lon="14.4157129">
        <ele>336.4</ele>
        <time>2012-07-27T10:56:41Z</time>
      </trkpt>
      <trkpt lat="62.7242272" lon="14.4156685">
        <ele>337.4</ele>
        <time>2012-07-27T10:56:47Z</time>
      </trkpt>
      <trkpt lat="62.723804" lon="14.415619">
        <ele>337.6</ele>
        <time>2012-07-27T10:56:53Z</time>
      </trkpt>
      <trkpt lat="62.7233937" lon="14.4155782">
        <ele>337.4</ele>
        <time>2012-07-27T10:56:59Z</time>
      </trkpt>
      <trkpt lat="62.7230028" lon="14.4155291">
        <ele>337.4</ele>
        <time>2012-07-27T10:57:05Z</time>
      </trkpt>
      <trkpt lat="62.7226028" lon="14.4154959">
        <ele>337.8</ele>
        <time>2012-07-27T10:57:11Z</time>
      </trkpt>
      <trkpt lat="62.72219" lon="14.4154517">
        <ele>339.6</ele>
        <time>2012-07-27T10:57:17Z</time>
      </trkpt>
      <trkpt lat="62.7217698" lon="14.415411">
        <ele>341.8</ele>
        <time>2012-07-27T10:57:23Z</time>
      </trkpt>
      <trkpt lat="62.7213504" lon="14.4153676">
        <ele>343.6</ele>
        <time>2012-07-27T10:57:29Z</time>
      </trkpt>
      <trkpt lat="62.7209303" lon="14.415324">
        <ele>345.6</ele>
        <time>2012-07-27T10:57:35Z</time>
      </trkpt>
      <trkpt lat="62.7205333" lon="14.4152872">
        <ele>347.4</ele>
        <time>2012-07-27T10:57:41Z</time>
      </trkpt>
      <trkpt lat="62.7201373" lon="14.4152472">
        <ele>348.6</ele>
        <time>2012-07-27T10:57:47Z</time>
      </trkpt>
      <trkpt lat="62.7197231" lon="14.4151932">
        <ele>347.8</ele>
        <time>2012-07-27T10:57:53Z</time>
      </trkpt>
      <trkpt lat="62.719287" lon="14.4151377">
        <ele>347.6</ele>
        <time>2012-07-27T10:57:59Z</time>
      </trkpt>
      <trkpt lat="62.7189054" lon="14.4150955">
        <ele>347.2</ele>
        <time>2012-07-27T10:58:04Z</time>
      </trkpt>
      <trkpt lat="62.7185407" lon="14.4150481">
        <ele>346.6</ele>
        <time>2012-07-27T10:58:09Z</time>
      </trkpt>
      <trkpt lat="62.7181355" lon="14.4150029">
        <ele>346.2</ele>
        <time>2012-07-27T10:58:15Z</time>
      </trkpt>
      <trkpt lat="62.7177399" lon="14.4149569">
        <ele>347.2</ele>
        <time>2012-07-27T10:58:21Z</time>
      </trkpt>
      <trkpt lat="62.717329" lon="14.4149097">
        <ele>347.8</ele>
        <time>2012-07-27T10:58:27Z</time>
      </trkpt>
      <trkpt lat="62.7169377" lon="14.4148517">
        <ele>348.8</ele>
        <time>2012-07-27T10:58:33Z</time>
      </trkpt>
      <trkpt lat="62.7165615" lon="14.4147617">
        <ele>349.2</ele>
        <time>2012-07-27T10:58:39Z</time>
      </trkpt>
      <trkpt lat="62.7161983" lon="14.4146569">
        <ele>349.4</ele>
        <time>2012-07-27T10:58:45Z</time>
      </trkpt>
      <trkpt lat="62.7157845" lon="14.4145011">
        <ele>349.4</ele>
        <time>2012-07-27T10:58:52Z</time>
      </trkpt>
      <trkpt lat="62.7154309" lon="14.4143446">
        <ele>349.4</ele>
        <time>2012-07-27T10:58:58Z</time>
      </trkpt>
      <trkpt lat="62.7150662" lon="14.414182">
        <ele>349.6</ele>
        <time>2012-07-27T10:59:04Z</time>
      </trkpt>
      <trkpt lat="62.7146611" lon="14.4139984">
        <ele>349.4</ele>
        <time>2012-07-27T10:59:10Z</time>
      </trkpt>
      <trkpt lat="62.7142836" lon="14.4138322">
        <ele>349.4</ele>
        <time>2012-07-27T10:59:15Z</time>
      </trkpt>
      <trkpt lat="62.713887" lon="14.4136551">
        <ele>349.4</ele>
        <time>2012-07-27T10:59:20Z</time>
      </trkpt>
      <trkpt lat="62.71349" lon="14.4134817">
        <ele>349.4</ele>
        <time>2012-07-27T10:59:25Z</time>
      </trkpt>
      <trkpt lat="62.7130958" lon="14.4133038">
        <ele>349.8</ele>
        <time>2012-07-27T10:59:30Z</time>
      </trkpt>
      <trkpt lat="62.7127113" lon="14.4131336">
        <ele>350.2</ele>
        <time>2012-07-27T10:59:35Z</time>
      </trkpt>
      <trkpt lat="62.7123483" lon="14.4129729">
        <ele>350.8</ele>
        <time>2012-07-27T10:59:40Z</time>
      </trkpt>
      <trkpt lat="62.7119427" lon="14.4127895">
        <ele>351.6</ele>
        <time>2012-07-27T10:59:46Z</time>
      </trkpt>
      <trkpt lat="62.7115601" lon="14.412615">
        <ele>351.8</ele>
        <time>2012-07-27T10:59:52Z</time>
      </trkpt>
      <trkpt lat="62.7111767" lon="14.4124453">
        <ele>353</ele>
        <time>2012-07-27T10:59:58Z</time>
      </trkpt>
      <trkpt lat="62.7107796" lon="14.4122684">
        <ele>354.4</ele>
        <time>2012-07-27T11:00:04Z</time>
      </trkpt>
      <trkpt lat="62.7103935" lon="14.412099">
        <ele>356</ele>
        <time>2012-07-27T11:00:10Z</time>
      </trkpt>
      <trkpt lat="62.7100079" lon="14.4119305">
        <ele>357.4</ele>
        <time>2012-07-27T11:00:16Z</time>
      </trkpt>
      <trkpt lat="62.7096092" lon="14.41176">
        <ele>358.6</ele>
        <time>2012-07-27T11:00:22Z</time>
      </trkpt>
      <trkpt lat="62.7092149" lon="14.4115992">
        <ele>359.8</ele>
        <time>2012-07-27T11:00:28Z</time>
      </trkpt>
      <trkpt lat="62.7088186" lon="14.411439">
        <ele>361</ele>
        <time>2012-07-27T11:00:34Z</time>
      </trkpt>
      <trkpt lat="62.708414" lon="14.4112774">
        <ele>361.8</ele>
        <time>2012-07-27T11:00:40Z</time>
      </trkpt>
      <trkpt lat="62.7080132" lon="14.4111211">
        <ele>362.6</ele>
        <time>2012-07-27T11:00:46Z</time>
      </trkpt>
      <trkpt lat="62.707611" lon="14.4109716">
        <ele>363.2</ele>
        <time>2012-07-27T11:00:52Z</time>
      </trkpt>
      <trkpt lat="62.7072097" lon="14.4108179">
        <ele>363.6</ele>
        <time>2012-07-27T11:00:58Z</time>
      </trkpt>
      <trkpt lat="62.706802" lon="14.4106667">
        <ele>363.8</ele>
        <time>2012-07-27T11:01:04Z</time>
      </trkpt>
      <trkpt lat="62.7063851" lon="14.4105158">
        <ele>364</ele>
        <time>2012-07-27T11:01:10Z</time>
      </trkpt>
      <trkpt lat="62.7059598" lon="14.4103547">
        <ele>363.8</ele>
        <time>2012-07-27T11:01:16Z</time>
      </trkpt>
      <trkpt lat="62.7055842" lon="14.4102187">
        <ele>363.6</ele>
        <time>2012-07-27T11:01:21Z</time>
      </trkpt>
      <trkpt lat="62.7052143" lon="14.4100853">
        <ele>363.4</ele>
        <time>2012-07-27T11:01:26Z</time>
      </trkpt>
      <trkpt lat="62.7048466" lon="14.4099468">
        <ele>363.2</ele>
        <time>2012-07-27T11:01:31Z</time>
      </trkpt>
      <trkpt lat="62.7044854" lon="14.4098157">
        <ele>363</ele>
        <time>2012-07-27T11:01:36Z</time>
      </trkpt>
      <trkpt lat="62.7041214" lon="14.4096772">
        <ele>362.8</ele>
        <time>2012-07-27T11:01:41Z</time>
      </trkpt>
      <trkpt lat="62.7037541" lon="14.4095353">
        <ele>362.6</ele>
        <time>2012-07-27T11:01:46Z</time>
      </trkpt>
      <trkpt lat="62.7033783" lon="14.4093779">
        <ele>362.4</ele>
        <time>2012-07-27T11:01:51Z</time>
      </trkpt>
      <trkpt lat="62.7030216" lon="14.4092098">
        <ele>362.4</ele>
        <time>2012-07-27T11:01:56Z</time>
      </trkpt>
      <trkpt lat="62.7026241" lon="14.4090013">
        <ele>362.2</ele>
        <time>2012-07-27T11:02:02Z</time>
      </trkpt>
      <trkpt lat="62.7022411" lon="14.4087878">
        <ele>362.4</ele>
        <time>2012-07-27T11:02:08Z</time>
      </trkpt>
      <trkpt lat="62.7018778" lon="14.4085843">
        <ele>362.6</ele>
        <time>2012-07-27T11:02:14Z</time>
      </trkpt>
      <trkpt lat="62.7015303" lon="14.408379">
        <ele>364.8</ele>
        <time>2012-07-27T11:02:20Z</time>
      </trkpt>
      <trkpt lat="62.7011915" lon="14.408172">
        <ele>367.6</ele>
        <time>2012-07-27T11:02:26Z</time>
      </trkpt>
      <trkpt lat="62.700802" lon="14.4079454">
        <ele>369.8</ele>
        <time>2012-07-27T11:02:33Z</time>
      </trkpt>
      <trkpt lat="62.700407" lon="14.4077296">
        <ele>371.6</ele>
        <time>2012-07-27T11:02:40Z</time>
      </trkpt>
      <trkpt lat="62.7000047" lon="14.4075073">
        <ele>372.8</ele>
        <time>2012-07-27T11:02:47Z</time>
      </trkpt>
      <trkpt lat="62.699601" lon="14.4072846">
        <ele>374</ele>
        <time>2012-07-27T11:02:54Z</time>
      </trkpt>
      <trkpt lat="62.6991871" lon="14.4070508">
        <ele>373.8</ele>
        <time>2012-07-27T11:03:01Z</time>
      </trkpt>
      <trkpt lat="62.6987924" lon="14.4068433">
        <ele>373</ele>
        <time>2012-07-27T11:03:07Z</time>
      </trkpt>
      <trkpt lat="62.6984013" lon="14.4066426">
        <ele>372</ele>
        <time>2012-07-27T11:03:13Z</time>
      </trkpt>
      <trkpt lat="62.6980084" lon="14.406462">
        <ele>371.2</ele>
        <time>2012-07-27T11:03:19Z</time>
      </trkpt>
      <trkpt lat="62.6975955" lon="14.4062915">
        <ele>370.4</ele>
        <time>2012-07-27T11:03:25Z</time>
      </trkpt>
      <trkpt lat="62.6972261" lon="14.4061407">
        <ele>370</ele>
        <time>2012-07-27T11:03:30Z</time>
      </trkpt>
      <trkpt lat="62.6968458" lon="14.4059844">
        <ele>369.6</ele>
        <time>2012-07-27T11:03:35Z</time>
      </trkpt>
      <trkpt lat="62.6964557" lon="14.4058283">
        <ele>369.4</ele>
        <time>2012-07-27T11:03:40Z</time>
      </trkpt>
      <trkpt lat="62.6960569" lon="14.4056663">
        <ele>368.4</ele>
        <time>2012-07-27T11:03:45Z</time>
      </trkpt>
      <trkpt lat="62.6956527" lon="14.4055053">
        <ele>367.2</ele>
        <time>2012-07-27T11:03:50Z</time>
      </trkpt>
      <trkpt lat="62.6952555" lon="14.4053457">
        <ele>366.4</ele>
        <time>2012-07-27T11:03:55Z</time>
      </trkpt>
      <trkpt lat="62.6948467" lon="14.4051819">
        <ele>365.4</ele>
        <time>2012-07-27T11:04:00Z</time>
      </trkpt>
      <trkpt lat="62.6944342" lon="14.4050145">
        <ele>365</ele>
        <time>2012-07-27T11:04:05Z</time>
      </trkpt>
      <trkpt lat="62.6940374" lon="14.404854">
        <ele>364.6</ele>
        <time>2012-07-27T11:04:10Z</time>
      </trkpt>
      <trkpt lat="62.6936482" lon="14.404692">
        <ele>364.8</ele>
        <time>2012-07-27T11:04:15Z</time>
      </trkpt>
      <trkpt lat="62.6932688" lon="14.4045191">
        <ele>364.6</ele>
        <time>2012-07-27T11:04:20Z</time>
      </trkpt>
      <trkpt lat="62.69291" lon="14.4043221">
        <ele>364.8</ele>
        <time>2012-07-27T11:04:25Z</time>
      </trkpt>
      <trkpt lat="62.6925075" lon="14.4040518">
        <ele>365.4</ele>
        <time>2012-07-27T11:04:31Z</time>
      </trkpt>
      <trkpt lat="62.6921388" lon="14.4037377">
        <ele>368</ele>
        <time>2012-07-27T11:04:37Z</time>
      </trkpt>
      <trkpt lat="62.6917713" lon="14.4033833">
        <ele>368.6</ele>
        <time>2012-07-27T11:04:43Z</time>
      </trkpt>
      <trkpt lat="62.6914265" lon="14.4029913">
        <ele>369</ele>
        <time>2012-07-27T11:04:49Z</time>
      </trkpt>
      <trkpt lat="62.6910971" lon="14.4025764">
        <ele>368.8</ele>
        <time>2012-07-27T11:04:55Z</time>
      </trkpt>
      <trkpt lat="62.6907684" lon="14.4020992">
        <ele>368.8</ele>
        <time>2012-07-27T11:05:01Z</time>
      </trkpt>
      <trkpt lat="62.6904473" lon="14.4015802">
        <ele>368.6</ele>
        <time>2012-07-27T11:05:07Z</time>
      </trkpt>
      <trkpt lat="62.690132" lon="14.4010071">
        <ele>368.2</ele>
        <time>2012-07-27T11:05:13Z</time>
      </trkpt>
      <trkpt lat="62.6898199" lon="14.400364">
        <ele>368.2</ele>
        <time>2012-07-27T11:05:19Z</time>
      </trkpt>
      <trkpt lat="62.6895676" lon="14.3997832">
        <ele>367.8</ele>
        <time>2012-07-27T11:05:24Z</time>
      </trkpt>
      <trkpt lat="62.6893195" lon="14.3991626">
        <ele>367.6</ele>
        <time>2012-07-27T11:05:29Z</time>
      </trkpt>
      <trkpt lat="62.6890757" lon="14.3984998">
        <ele>367.2</ele>
        <time>2012-07-27T11:05:34Z</time>
      </trkpt>
      <trkpt lat="62.688827" lon="14.3978188">
        <ele>366.6</ele>
        <time>2012-07-27T11:05:39Z</time>
      </trkpt>
      <trkpt lat="62.6885848" lon="14.3971518">
        <ele>366.4</ele>
        <time>2012-07-27T11:05:44Z</time>
      </trkpt>
      <trkpt lat="62.6883231" lon="14.3964862">
        <ele>366.2</ele>
        <time>2012-07-27T11:05:49Z</time>
      </trkpt>
      <trkpt lat="62.6880562" lon="14.3958427">
        <ele>366</ele>
        <time>2012-07-27T11:05:54Z</time>
      </trkpt>
      <trkpt lat="62.6877774" lon="14.3952284">
        <ele>366</ele>
        <time>2012-07-27T11:05:59Z</time>
      </trkpt>
      <trkpt lat="62.6874948" lon="14.3946623">
        <ele>366</ele>
        <time>2012-07-27T11:06:04Z</time>
      </trkpt>
      <trkpt lat="62.6872202" lon="14.3941515">
        <ele>366.4</ele>
        <time>2012-07-27T11:06:09Z</time>
      </trkpt>
      <trkpt lat="62.6868954" lon="14.3935851">
        <ele>366.8</ele>
        <time>2012-07-27T11:06:15Z</time>
      </trkpt>
      <trkpt lat="62.6865708" lon="14.393059">
        <ele>367.2</ele>
        <time>2012-07-27T11:06:21Z</time>
      </trkpt>
      <trkpt lat="62.6862516" lon="14.3925591">
        <ele>367.6</ele>
        <time>2012-07-27T11:06:27Z</time>
      </trkpt>
      <trkpt lat="62.6859048" lon="14.3920607">
        <ele>368</ele>
        <time>2012-07-27T11:06:33Z</time>
      </trkpt>
      <trkpt lat="62.6855523" lon="14.3915771">
        <ele>368.4</ele>
        <time>2012-07-27T11:06:39Z</time>
      </trkpt>
      <trkpt lat="62.6851953" lon="14.3911201">
        <ele>368.4</ele>
        <time>2012-07-27T11:06:45Z</time>
      </trkpt>
      <trkpt lat="62.6848323" lon="14.3906865">
        <ele>368</ele>
        <time>2012-07-27T11:06:51Z</time>
      </trkpt>
      <trkpt lat="62.6844644" lon="14.3902809">
        <ele>367.8</ele>
        <time>2012-07-27T11:06:57Z</time>
      </trkpt>
      <trkpt lat="62.6840897" lon="14.3898971">
        <ele>367.6</ele>
        <time>2012-07-27T11:07:03Z</time>
      </trkpt>
      <trkpt lat="62.6837105" lon="14.389541">
        <ele>367.2</ele>
        <time>2012-07-27T11:07:09Z</time>
      </trkpt>
      <trkpt lat="62.6833124" lon="14.3891932">
        <ele>366.6</ele>
        <time>2012-07-27T11:07:15Z</time>
      </trkpt>
      <trkpt lat="62.6829602" lon="14.3889139">
        <ele>366</ele>
        <time>2012-07-27T11:07:20Z</time>
      </trkpt>
      <trkpt lat="62.6826057" lon="14.3886378">
        <ele>365.4</ele>
        <time>2012-07-27T11:07:25Z</time>
      </trkpt>
      <trkpt lat="62.6822457" lon="14.3883704">
        <ele>364.6</ele>
        <time>2012-07-27T11:07:30Z</time>
      </trkpt>
      <trkpt lat="62.681863" lon="14.3880921">
        <ele>364</ele>
        <time>2012-07-27T11:07:35Z</time>
      </trkpt>
      <trkpt lat="62.6814673" lon="14.3878083">
        <ele>363.8</ele>
        <time>2012-07-27T11:07:40Z</time>
      </trkpt>
      <trkpt lat="62.6810693" lon="14.3875199">
        <ele>363.8</ele>
        <time>2012-07-27T11:07:45Z</time>
      </trkpt>
      <trkpt lat="62.6806808" lon="14.3872364">
        <ele>363.6</ele>
        <time>2012-07-27T11:07:50Z</time>
      </trkpt>
      <trkpt lat="62.6803006" lon="14.386957">
        <ele>363.8</ele>
        <time>2012-07-27T11:07:55Z</time>
      </trkpt>
      <trkpt lat="62.6799365" lon="14.3866921">
        <ele>363.8</ele>
        <time>2012-07-27T11:08:00Z</time>
      </trkpt>
      <trkpt lat="62.6795858" lon="14.3864389">
        <ele>364.4</ele>
        <time>2012-07-27T11:08:05Z</time>
      </trkpt>
      <trkpt lat="62.6791843" lon="14.3861424">
        <ele>364.8</ele>
        <time>2012-07-27T11:08:11Z</time>
      </trkpt>
      <trkpt lat="62.6787823" lon="14.3858463">
        <ele>365</ele>
        <time>2012-07-27T11:08:17Z</time>
      </trkpt>
      <trkpt lat="62.6783877" lon="14.3855627">
        <ele>365.8</ele>
        <time>2012-07-27T11:08:23Z</time>
      </trkpt>
      <trkpt lat="62.6779818" lon="14.3852655">
        <ele>366.2</ele>
        <time>2012-07-27T11:08:29Z</time>
      </trkpt>
      <trkpt lat="62.6775786" lon="14.3849909">
        <ele>366.6</ele>
        <time>2012-07-27T11:08:35Z</time>
      </trkpt>
      <trkpt lat="62.6771828" lon="14.3847047">
        <ele>366.8</ele>
        <time>2012-07-27T11:08:41Z</time>
      </trkpt>
      <trkpt lat="62.6767797" lon="14.3844077">
        <ele>366.8</ele>
        <time>2012-07-27T11:08:47Z</time>
      </trkpt>
      <trkpt lat="62.6763871" lon="14.3841045">
        <ele>367.4</ele>
        <time>2012-07-27T11:08:53Z</time>
      </trkpt>
      <trkpt lat="62.6759818" lon="14.3838554">
        <ele>367.4</ele>
        <time>2012-07-27T11:08:59Z</time>
      </trkpt>
      <trkpt lat="62.6756313" lon="14.3836343">
        <ele>367.2</ele>
        <time>2012-07-27T11:09:04Z</time>
      </trkpt>
      <trkpt lat="62.6752766" lon="14.3834032">
        <ele>367.2</ele>
        <time>2012-07-27T11:09:09Z</time>
      </trkpt>
      <trkpt lat="62.6749206" lon="14.3832127">
        <ele>367</ele>
        <time>2012-07-27T11:09:14Z</time>
      </trkpt>
      <trkpt lat="62.6745662" lon="14.3830386">
        <ele>366.6</ele>
        <time>2012-07-27T11:09:19Z</time>
      </trkpt>
      <trkpt lat="62.6742134" lon="14.3828815">
        <ele>366.6</ele>
        <time>2012-07-27T11:09:24Z</time>
      </trkpt>
      <trkpt lat="62.6738556" lon="14.3827454">
        <ele>366.8</ele>
        <time>2012-07-27T11:09:29Z</time>
      </trkpt>
      <trkpt lat="62.6734925" lon="14.3826157">
        <ele>366.6</ele>
        <time>2012-07-27T11:09:34Z</time>
      </trkpt>
      <trkpt lat="62.6731353" lon="14.3825073">
        <ele>366</ele>
        <time>2012-07-27T11:09:39Z</time>
      </trkpt>
      <trkpt lat="62.6727749" lon="14.3824122">
        <ele>367</ele>
        <time>2012-07-27T11:09:44Z</time>
      </trkpt>
      <trkpt lat="62.6723932" lon="14.3823368">
        <ele>367.6</ele>
        <time>2012-07-27T11:09:49Z</time>
      </trkpt>
      <trkpt lat="62.6720063" lon="14.3822584">
        <ele>367.8</ele>
        <time>2012-07-27T11:09:54Z</time>
      </trkpt>
      <trkpt lat="62.6716355" lon="14.3821993">
        <ele>367.6</ele>
        <time>2012-07-27T11:09:59Z</time>
      </trkpt>
      <trkpt lat="62.6712588" lon="14.3821367">
        <ele>367</ele>
        <time>2012-07-27T11:10:04Z</time>
      </trkpt>
      <trkpt lat="62.6708765" lon="14.3820736">
        <ele>366.4</ele>
        <time>2012-07-27T11:10:09Z</time>
      </trkpt>
      <trkpt lat="62.6704959" lon="14.3820145">
        <ele>366.4</ele>
        <time>2012-07-27T11:10:14Z</time>
      </trkpt>
      <trkpt lat="62.6701207" lon="14.3819544">
        <ele>366</ele>
        <time>2012-07-27T11:10:19Z</time>
      </trkpt>
      <trkpt lat="62.6697467" lon="14.3818962">
        <ele>365.2</ele>
        <time>2012-07-27T11:10:24Z</time>
      </trkpt>
      <trkpt lat="62.6693722" lon="14.3818327">
        <ele>364.4</ele>
        <time>2012-07-27T11:10:29Z</time>
      </trkpt>
      <trkpt lat="62.6689991" lon="14.3817664">
        <ele>363.6</ele>
        <time>2012-07-27T11:10:34Z</time>
      </trkpt>
      <trkpt lat="62.6686242" lon="14.3817053">
        <ele>362.8</ele>
        <time>2012-07-27T11:10:39Z</time>
      </trkpt>
      <trkpt lat="62.6682612" lon="14.3816348">
        <ele>362.2</ele>
        <time>2012-07-27T11:10:44Z</time>
      </trkpt>
      <trkpt lat="62.6678387" lon="14.3815627">
        <ele>361.2</ele>
        <time>2012-07-27T11:10:50Z</time>
      </trkpt>
      <trkpt lat="62.6674768" lon="14.381507">
        <ele>361.4</ele>
        <time>2012-07-27T11:10:55Z</time>
      </trkpt>
      <trkpt lat="62.6671157" lon="14.3814406">
        <ele>361.2</ele>
        <time>2012-07-27T11:11:00Z</time>
      </trkpt>
      <trkpt lat="62.6667515" lon="14.3813831">
        <ele>360.8</ele>
        <time>2012-07-27T11:11:05Z</time>
      </trkpt>
      <trkpt lat="62.6663909" lon="14.3813352">
        <ele>361.2</ele>
        <time>2012-07-27T11:11:10Z</time>
      </trkpt>
      <trkpt lat="62.6659661" lon="14.3812471">
        <ele>360.8</ele>
        <time>2012-07-27T11:11:16Z</time>
      </trkpt>
      <trkpt lat="62.6656021" lon="14.3811891">
        <ele>361.4</ele>
        <time>2012-07-27T11:11:21Z</time>
      </trkpt>
      <trkpt lat="62.6652416" lon="14.3811219">
        <ele>361.2</ele>
        <time>2012-07-27T11:11:26Z</time>
      </trkpt>
      <trkpt lat="62.6648815" lon="14.3810553">
        <ele>361.8</ele>
        <time>2012-07-27T11:11:31Z</time>
      </trkpt>
      <trkpt lat="62.6645115" lon="14.3809949">
        <ele>362.2</ele>
        <time>2012-07-27T11:11:36Z</time>
      </trkpt>
      <trkpt lat="62.6640843" lon="14.3809213">
        <ele>363</ele>
        <time>2012-07-27T11:11:42Z</time>
      </trkpt>
      <trkpt lat="62.6636679" lon="14.3808452">
        <ele>363</ele>
        <time>2012-07-27T11:11:48Z</time>
      </trkpt>
      <trkpt lat="62.6632617" lon="14.3807755">
        <ele>363.2</ele>
        <time>2012-07-27T11:11:54Z</time>
      </trkpt>
      <trkpt lat="62.6628483" lon="14.380708">
        <ele>364.2</ele>
        <time>2012-07-27T11:12:00Z</time>
      </trkpt>
      <trkpt lat="62.6624402" lon="14.3806642">
        <ele>364.8</ele>
        <time>2012-07-27T11:12:06Z</time>
      </trkpt>
      <trkpt lat="62.6620344" lon="14.380646">
        <ele>365</ele>
        <time>2012-07-27T11:12:12Z</time>
      </trkpt>
      <trkpt lat="62.6616202" lon="14.380651">
        <ele>365</ele>
        <time>2012-07-27T11:12:18Z</time>
      </trkpt>
      <trkpt lat="62.661199" lon="14.3806813">
        <ele>365.4</ele>
        <time>2012-07-27T11:12:24Z</time>
      </trkpt>
      <trkpt lat="62.6607742" lon="14.3807107">
        <ele>365.2</ele>
        <time>2012-07-27T11:12:30Z</time>
      </trkpt>
      <trkpt lat="62.6604096" lon="14.3807324">
        <ele>365</ele>
        <time>2012-07-27T11:12:35Z</time>
      </trkpt>
      <trkpt lat="62.6600408" lon="14.3807398">
        <ele>364.8</ele>
        <time>2012-07-27T11:12:40Z</time>
      </trkpt>
      <trkpt lat="62.6596726" lon="14.3807065">
        <ele>364</ele>
        <time>2012-07-27T11:12:45Z</time>
      </trkpt>
      <trkpt lat="62.6593108" lon="14.3806395">
        <ele>363.8</ele>
        <time>2012-07-27T11:12:50Z</time>
      </trkpt>
      <trkpt lat="62.6589356" lon="14.3805211">
        <ele>364</ele>
        <time>2012-07-27T11:12:55Z</time>
      </trkpt>
      <trkpt lat="62.6585722" lon="14.3803719">
        <ele>364</ele>
        <time>2012-07-27T11:13:00Z</time>
      </trkpt>
      <trkpt lat="62.6582239" lon="14.3801774">
        <ele>364.4</ele>
        <time>2012-07-27T11:13:05Z</time>
      </trkpt>
      <trkpt lat="62.657821" lon="14.379906">
        <ele>365</ele>
        <time>2012-07-27T11:13:11Z</time>
      </trkpt>
      <trkpt lat="62.6574378" lon="14.3795881">
        <ele>366.8</ele>
        <time>2012-07-27T11:13:17Z</time>
      </trkpt>
      <trkpt lat="62.6570833" lon="14.3792458">
        <ele>367.2</ele>
        <time>2012-07-27T11:13:23Z</time>
      </trkpt>
      <trkpt lat="62.657027" lon="14.3791881">
        <ele>367.2</ele>
        <time>2012-07-27T11:13:24Z</time>
      </trkpt>
      <trkpt lat="62.6567411" lon="14.3788565">
        <ele>367</ele>
        <time>2012-07-27T11:13:29Z</time>
      </trkpt>
      <trkpt lat="62.656408" lon="14.3784341">
        <ele>368</ele>
        <time>2012-07-27T11:13:35Z</time>
      </trkpt>
      <trkpt lat="62.6561002" lon="14.3779984">
        <ele>369</ele>
        <time>2012-07-27T11:13:41Z</time>
      </trkpt>
      <trkpt lat="62.655802" lon="14.3775362">
        <ele>370.2</ele>
        <time>2012-07-27T11:13:47Z</time>
      </trkpt>
      <trkpt lat="62.6555072" lon="14.3770721">
        <ele>371.2</ele>
        <time>2012-07-27T11:13:53Z</time>
      </trkpt>
      <trkpt lat="62.6552061" lon="14.3765942">
        <ele>371.8</ele>
        <time>2012-07-27T11:13:59Z</time>
      </trkpt>
      <trkpt lat="62.6549129" lon="14.3761372">
        <ele>372.4</ele>
        <time>2012-07-27T11:14:05Z</time>
      </trkpt>
      <trkpt lat="62.6546038" lon="14.3757217">
        <ele>373.2</ele>
        <time>2012-07-27T11:14:11Z</time>
      </trkpt>
      <trkpt lat="62.6542829" lon="14.375327">
        <ele>374</ele>
        <time>2012-07-27T11:14:17Z</time>
      </trkpt>
      <trkpt lat="62.6539545" lon="14.3749638">
        <ele>374.4</ele>
        <time>2012-07-27T11:14:23Z</time>
      </trkpt>
      <trkpt lat="62.6536184" lon="14.3746458">
        <ele>374.8</ele>
        <time>2012-07-27T11:14:29Z</time>
      </trkpt>
      <trkpt lat="62.6532709" lon="14.3743563">
        <ele>374.8</ele>
        <time>2012-07-27T11:14:35Z</time>
      </trkpt>
      <trkpt lat="62.6528923" lon="14.374089">
        <ele>374.2</ele>
        <time>2012-07-27T11:14:41Z</time>
      </trkpt>
      <trkpt lat="62.6524836" lon="14.3738555">
        <ele>373.4</ele>
        <time>2012-07-27T11:14:47Z</time>
      </trkpt>
      <trkpt lat="62.6520617" lon="14.3736725">
        <ele>373</ele>
        <time>2012-07-27T11:14:53Z</time>
      </trkpt>
      <trkpt lat="62.6516956" lon="14.3735621">
        <ele>372.2</ele>
        <time>2012-07-27T11:14:58Z</time>
      </trkpt>
      <trkpt lat="62.6513217" lon="14.3734927">
        <ele>371.8</ele>
        <time>2012-07-27T11:15:03Z</time>
      </trkpt>
      <trkpt lat="62.6509373" lon="14.3734549">
        <ele>370.6</ele>
        <time>2012-07-27T11:15:08Z</time>
      </trkpt>
      <trkpt lat="62.6505373" lon="14.3734336">
        <ele>369.6</ele>
        <time>2012-07-27T11:15:13Z</time>
      </trkpt>
      <trkpt lat="62.6501324" lon="14.3734176">
        <ele>368.8</ele>
        <time>2012-07-27T11:15:18Z</time>
      </trkpt>
      <trkpt lat="62.6497057" lon="14.37342">
        <ele>368</ele>
        <time>2012-07-27T11:15:23Z</time>
      </trkpt>
      <trkpt lat="62.6492682" lon="14.3734097">
        <ele>367</ele>
        <time>2012-07-27T11:15:28Z</time>
      </trkpt>
      <trkpt lat="62.6488268" lon="14.3733983">
        <ele>366.4</ele>
        <time>2012-07-27T11:15:33Z</time>
      </trkpt>
      <trkpt lat="62.6484064" lon="14.3733875">
        <ele>365</ele>
        <time>2012-07-27T11:15:38Z</time>
      </trkpt>
      <trkpt lat="62.6479929" lon="14.3733674">
        <ele>363.4</ele>
        <time>2012-07-27T11:15:43Z</time>
      </trkpt>
      <trkpt lat="62.6475723" lon="14.373342">
        <ele>362.2</ele>
        <time>2012-07-27T11:15:48Z</time>
      </trkpt>
      <trkpt lat="62.6471195" lon="14.3732373">
        <ele>362</ele>
        <time>2012-07-27T11:15:53Z</time>
      </trkpt>
      <trkpt lat="62.6466995" lon="14.373036">
        <ele>362</ele>
        <time>2012-07-27T11:15:58Z</time>
      </trkpt>
      <trkpt lat="62.6463149" lon="14.3727794">
        <ele>361.4</ele>
        <time>2012-07-27T11:16:03Z</time>
      </trkpt>
      <trkpt lat="62.6459233" lon="14.3725329">
        <ele>361.2</ele>
        <time>2012-07-27T11:16:08Z</time>
      </trkpt>
      <trkpt lat="62.6455251" lon="14.3722863">
        <ele>361.4</ele>
        <time>2012-07-27T11:16:13Z</time>
      </trkpt>
      <trkpt lat="62.6451587" lon="14.3720473">
        <ele>361</ele>
        <time>2012-07-27T11:16:18Z</time>
      </trkpt>
      <trkpt lat="62.6448008" lon="14.3718169">
        <ele>361.2</ele>
        <time>2012-07-27T11:16:23Z</time>
      </trkpt>
      <trkpt lat="62.6444397" lon="14.371588">
        <ele>361.4</ele>
        <time>2012-07-27T11:16:28Z</time>
      </trkpt>
      <trkpt lat="62.6440674" lon="14.3713838">
        <ele>361</ele>
        <time>2012-07-27T11:16:33Z</time>
      </trkpt>
      <trkpt lat="62.6437047" lon="14.3712327">
        <ele>361.2</ele>
        <time>2012-07-27T11:16:38Z</time>
      </trkpt>
      <trkpt lat="62.6433161" lon="14.3710943">
        <ele>362.4</ele>
        <time>2012-07-27T11:16:44Z</time>
      </trkpt>
      <trkpt lat="62.6431511" lon="14.3710504">
        <ele>362.6</ele>
        <time>2012-07-27T11:16:47Z</time>
      </trkpt>
      <trkpt lat="62.6429103" lon="14.3709755">
        <ele>363.4</ele>
        <time>2012-07-27T11:16:51Z</time>
      </trkpt>
      <trkpt lat="62.642519" lon="14.3708561">
        <ele>363.8</ele>
        <time>2012-07-27T11:16:57Z</time>
      </trkpt>
      <trkpt lat="62.641914" lon="14.3707446">
        <ele>376.2</ele>
        <time>2012-07-27T11:19:36Z</time>
      </trkpt>
      <trkpt lat="62.6417874" lon="14.3706126">
        <ele>375.6</ele>
        <time>2012-07-27T11:19:39Z</time>
      </trkpt>
      <trkpt lat="62.6415264" lon="14.3704955">
        <ele>375.2</ele>
        <time>2012-07-27T11:19:43Z</time>
      </trkpt>
      <trkpt lat="62.6411411" lon="14.3703086">
        <ele>374.8</ele>
        <time>2012-07-27T11:19:49Z</time>
      </trkpt>
      <trkpt lat="62.6407664" lon="14.3700902">
        <ele>375</ele>
        <time>2012-07-27T11:19:55Z</time>
      </trkpt>
      <trkpt lat="62.6404124" lon="14.3698633">
        <ele>376</ele>
        <time>2012-07-27T11:20:01Z</time>
      </trkpt>
      <trkpt lat="62.64006" lon="14.3696284">
        <ele>376.6</ele>
        <time>2012-07-27T11:20:07Z</time>
      </trkpt>
      <trkpt lat="62.6396741" lon="14.3693601">
        <ele>376.8</ele>
        <time>2012-07-27T11:20:14Z</time>
      </trkpt>
      <trkpt lat="62.6392789" lon="14.3690994">
        <ele>377</ele>
        <time>2012-07-27T11:20:21Z</time>
      </trkpt>
      <trkpt lat="62.6388821" lon="14.3688579">
        <ele>377.6</ele>
        <time>2012-07-27T11:20:28Z</time>
      </trkpt>
      <trkpt lat="62.63851" lon="14.3686545">
        <ele>378.2</ele>
        <time>2012-07-27T11:20:34Z</time>
      </trkpt>
      <trkpt lat="62.6381298" lon="14.3684659">
        <ele>378.6</ele>
        <time>2012-07-27T11:20:40Z</time>
      </trkpt>
      <trkpt lat="62.6378755" lon="14.3683146">
        <ele>378.4</ele>
        <time>2012-07-27T11:20:44Z</time>
      </trkpt>
      <trkpt lat="62.6377793" lon="14.3681235">
        <ele>378.2</ele>
        <time>2012-07-27T11:20:46Z</time>
      </trkpt>
      <trkpt lat="62.6377255" lon="14.3675734">
        <ele>379.4</ele>
        <time>2012-07-27T11:20:50Z</time>
      </trkpt>
      <trkpt lat="62.6377136" lon="14.3673086">
        <ele>379.6</ele>
        <time>2012-07-27T11:20:52Z</time>
      </trkpt>
      <trkpt lat="62.6376746" lon="14.3664473">
        <ele>379.8</ele>
        <time>2012-07-27T11:20:59Z</time>
      </trkpt>
      <trkpt lat="62.6376431" lon="14.3656155">
        <ele>382.6</ele>
        <time>2012-07-27T11:21:06Z</time>
      </trkpt>
      <trkpt lat="62.637623" lon="14.3647579">
        <ele>384.6</ele>
        <time>2012-07-27T11:21:13Z</time>
      </trkpt>
      <trkpt lat="62.6376099" lon="14.3638919">
        <ele>387</ele>
        <time>2012-07-27T11:21:20Z</time>
      </trkpt>
      <trkpt lat="62.6376218" lon="14.3630471">
        <ele>388.8</ele>
        <time>2012-07-27T11:21:27Z</time>
      </trkpt>
      <trkpt lat="62.6376814" lon="14.3621731">
        <ele>388.8</ele>
        <time>2012-07-27T11:21:35Z</time>
      </trkpt>
      <trkpt lat="62.6376907" lon="14.3620592">
        <ele>388.8</ele>
        <time>2012-07-27T11:21:36Z</time>
      </trkpt>
      <trkpt lat="62.6377114" lon="14.3618183">
        <ele>388.8</ele>
        <time>2012-07-27T11:21:38Z</time>
      </trkpt>
      <trkpt lat="62.6377623" lon="14.3613774">
        <ele>389.2</ele>
        <time>2012-07-27T11:21:42Z</time>
      </trkpt>
      <trkpt lat="62.6378632" lon="14.3605439">
        <ele>391</ele>
        <time>2012-07-27T11:21:50Z</time>
      </trkpt>
      <trkpt lat="62.6379207" lon="14.3601253">
        <ele>392</ele>
        <time>2012-07-27T11:21:54Z</time>
      </trkpt>
      <trkpt lat="62.637978" lon="14.3598223">
        <ele>393</ele>
        <time>2012-07-27T11:21:57Z</time>
      </trkpt>
      <trkpt lat="62.638116" lon="14.3591115">
        <ele>394</ele>
        <time>2012-07-27T11:22:04Z</time>
      </trkpt>
      <trkpt lat="62.6382886" lon="14.3583855">
        <ele>395.2</ele>
        <time>2012-07-27T11:22:11Z</time>
      </trkpt>
      <trkpt lat="62.6384983" lon="14.3576554">
        <ele>396.2</ele>
        <time>2012-07-27T11:22:18Z</time>
      </trkpt>
      <trkpt lat="62.6387415" lon="14.3569404">
        <ele>397.4</ele>
        <time>2012-07-27T11:22:25Z</time>
      </trkpt>
      <trkpt lat="62.6390142" lon="14.356276">
        <ele>398.8</ele>
        <time>2012-07-27T11:22:32Z</time>
      </trkpt>
      <trkpt lat="62.6393074" lon="14.3556463">
        <ele>400</ele>
        <time>2012-07-27T11:22:39Z</time>
      </trkpt>
      <trkpt lat="62.6395778" lon="14.3551262">
        <ele>401.2</ele>
        <time>2012-07-27T11:22:45Z</time>
      </trkpt>
      <trkpt lat="62.6397589" lon="14.3546057">
        <ele>402.2</ele>
        <time>2012-07-27T11:22:50Z</time>
      </trkpt>
      <trkpt lat="62.6397757" lon="14.3544781">
        <ele>402.4</ele>
        <time>2012-07-27T11:22:51Z</time>
      </trkpt>
      <trkpt lat="62.6398063" lon="14.3536579">
        <ele>404.2</ele>
        <time>2012-07-27T11:22:58Z</time>
      </trkpt>
      <trkpt lat="62.6399497" lon="14.3528957">
        <ele>405.4</ele>
        <time>2012-07-27T11:23:05Z</time>
      </trkpt>
      <trkpt lat="62.6400615" lon="14.3523015">
        <ele>406.4</ele>
        <time>2012-07-27T11:23:10Z</time>
      </trkpt>
      <trkpt lat="62.6401005" lon="14.3520479">
        <ele>407</ele>
        <time>2012-07-27T11:23:12Z</time>
      </trkpt>
      <trkpt lat="62.6401998" lon="14.3512799">
        <ele>408</ele>
        <time>2012-07-27T11:23:18Z</time>
      </trkpt>
      <trkpt lat="62.6402833" lon="14.350453">
        <ele>408</ele>
        <time>2012-07-27T11:23:24Z</time>
      </trkpt>
      <trkpt lat="62.6403921" lon="14.349568">
        <ele>405.6</ele>
        <time>2012-07-27T11:23:30Z</time>
      </trkpt>
      <trkpt lat="62.6404836" lon="14.3487753">
        <ele>403.4</ele>
        <time>2012-07-27T11:23:35Z</time>
      </trkpt>
      <trkpt lat="62.6405481" lon="14.3479398">
        <ele>400.6</ele>
        <time>2012-07-27T11:23:40Z</time>
      </trkpt>
      <trkpt lat="62.6405491" lon="14.3477745">
        <ele>399.8</ele>
        <time>2012-07-27T11:23:41Z</time>
      </trkpt>
      <trkpt lat="62.6404507" lon="14.3471031">
        <ele>397.2</ele>
        <time>2012-07-27T11:23:45Z</time>
      </trkpt>
      <trkpt lat="62.6401034" lon="14.3465303">
        <ele>393.2</ele>
        <time>2012-07-27T11:23:50Z</time>
      </trkpt>
      <trkpt lat="62.6397392" lon="14.346452">
        <ele>390</ele>
        <time>2012-07-27T11:23:54Z</time>
      </trkpt>
      <trkpt lat="62.6396389" lon="14.346485">
        <ele>388.8</ele>
        <time>2012-07-27T11:23:55Z</time>
      </trkpt>
      <trkpt lat="62.639323" lon="14.3465562">
        <ele>385.2</ele>
        <time>2012-07-27T11:23:58Z</time>
      </trkpt>
      <trkpt lat="62.6388909" lon="14.3464826">
        <ele>384.2</ele>
        <time>2012-07-27T11:24:02Z</time>
      </trkpt>
      <trkpt lat="62.6384594" lon="14.346362">
        <ele>383.8</ele>
        <time>2012-07-27T11:24:07Z</time>
      </trkpt>
      <trkpt lat="62.6380467" lon="14.3462784">
        <ele>382.8</ele>
        <time>2012-07-27T11:24:12Z</time>
      </trkpt>
      <trkpt lat="62.6378995" lon="14.3462132">
        <ele>383.4</ele>
        <time>2012-07-27T11:24:14Z</time>
      </trkpt>
      <trkpt lat="62.6376715" lon="14.3460382">
        <ele>385.2</ele>
        <time>2012-07-27T11:24:18Z</time>
      </trkpt>
      <trkpt lat="62.637312" lon="14.3458101">
        <ele>390.2</ele>
        <time>2012-07-27T11:24:27Z</time>
      </trkpt>
      <trkpt lat="62.6372345" lon="14.3457652">
        <ele>391</ele>
        <time>2012-07-27T11:24:29Z</time>
      </trkpt>
      <trkpt lat="62.6369534" lon="14.3455777">
        <ele>393.4</ele>
        <time>2012-07-27T11:24:36Z</time>
      </trkpt>
      <trkpt lat="62.6365724" lon="14.3454207">
        <ele>398.4</ele>
        <time>2012-07-27T11:24:45Z</time>
      </trkpt>
      <trkpt lat="62.6364027" lon="14.3453993">
        <ele>400.2</ele>
        <time>2012-07-27T11:24:49Z</time>
      </trkpt>
      <trkpt lat="62.6362166" lon="14.3454268">
        <ele>403</ele>
        <time>2012-07-27T11:24:54Z</time>
      </trkpt>
      <trkpt lat="62.6360555" lon="14.3454636">
        <ele>404.2</ele>
        <time>2012-07-27T11:24:58Z</time>
      </trkpt>
      <trkpt lat="62.6358564" lon="14.3455402">
        <ele>405.8</ele>
        <time>2012-07-27T11:25:03Z</time>
      </trkpt>
      <trkpt lat="62.6354709" lon="14.3456849">
        <ele>405.6</ele>
        <time>2012-07-27T11:25:12Z</time>
      </trkpt>
      <trkpt lat="62.6350767" lon="14.3458558">
        <ele>405.6</ele>
        <time>2012-07-27T11:25:20Z</time>
      </trkpt>
      <trkpt lat="62.6346712" lon="14.3460366">
        <ele>404.8</ele>
        <time>2012-07-27T11:25:27Z</time>
      </trkpt>
      <trkpt lat="62.6342983" lon="14.3461523">
        <ele>404</ele>
        <time>2012-07-27T11:25:33Z</time>
      </trkpt>
      <trkpt lat="62.6338989" lon="14.3461665">
        <ele>404.4</ele>
        <time>2012-07-27T11:25:39Z</time>
      </trkpt>
      <trkpt lat="62.633477" lon="14.3459974">
        <ele>403.4</ele>
        <time>2012-07-27T11:25:45Z</time>
      </trkpt>
      <trkpt lat="62.6331085" lon="14.3457341">
        <ele>402.6</ele>
        <time>2012-07-27T11:25:50Z</time>
      </trkpt>
      <trkpt lat="62.6327368" lon="14.3454139">
        <ele>402</ele>
        <time>2012-07-27T11:25:55Z</time>
      </trkpt>
      <trkpt lat="62.6323593" lon="14.3450763">
        <ele>401.6</ele>
        <time>2012-07-27T11:26:00Z</time>
      </trkpt>
      <trkpt lat="62.6319777" lon="14.3447385">
        <ele>401.2</ele>
        <time>2012-07-27T11:26:05Z</time>
      </trkpt>
      <trkpt lat="62.6315922" lon="14.3443873">
        <ele>400.2</ele>
        <time>2012-07-27T11:26:10Z</time>
      </trkpt>
      <trkpt lat="62.6312175" lon="14.3440413">
        <ele>399.4</ele>
        <time>2012-07-27T11:26:15Z</time>
      </trkpt>
      <trkpt lat="62.6308377" lon="14.3437078">
        <ele>398.8</ele>
        <time>2012-07-27T11:26:20Z</time>
      </trkpt>
      <trkpt lat="62.6304591" lon="14.3433648">
        <ele>398.8</ele>
        <time>2012-07-27T11:26:25Z</time>
      </trkpt>
      <trkpt lat="62.6301008" lon="14.3430363">
        <ele>399.4</ele>
        <time>2012-07-27T11:26:30Z</time>
      </trkpt>
      <trkpt lat="62.6297257" lon="14.3426981">
        <ele>401</ele>
        <time>2012-07-27T11:26:36Z</time>
      </trkpt>
      <trkpt lat="62.6293575" lon="14.3423751">
        <ele>402</ele>
        <time>2012-07-27T11:26:42Z</time>
      </trkpt>
      <trkpt lat="62.6290073" lon="14.3420552">
        <ele>403.8</ele>
        <time>2012-07-27T11:26:48Z</time>
      </trkpt>
      <trkpt lat="62.6286665" lon="14.3417539">
        <ele>405.6</ele>
        <time>2012-07-27T11:26:54Z</time>
      </trkpt>
      <trkpt lat="62.6283313" lon="14.3414636">
        <ele>406</ele>
        <time>2012-07-27T11:27:00Z</time>
      </trkpt>
      <trkpt lat="62.6279816" lon="14.3411845">
        <ele>405.6</ele>
        <time>2012-07-27T11:27:06Z</time>
      </trkpt>
      <trkpt lat="62.6276066" lon="14.3408714">
        <ele>405.2</ele>
        <time>2012-07-27T11:27:12Z</time>
      </trkpt>
      <trkpt lat="62.6272124" lon="14.3405546">
        <ele>404.4</ele>
        <time>2012-07-27T11:27:18Z</time>
      </trkpt>
      <trkpt lat="62.6268168" lon="14.3402271">
        <ele>403.8</ele>
        <time>2012-07-27T11:27:24Z</time>
      </trkpt>
      <trkpt lat="62.6264284" lon="14.3399325">
        <ele>403.8</ele>
        <time>2012-07-27T11:27:30Z</time>
      </trkpt>
      <trkpt lat="62.6260432" lon="14.3396382">
        <ele>405</ele>
        <time>2012-07-27T11:27:36Z</time>
      </trkpt>
      <trkpt lat="62.6256831" lon="14.3393852">
        <ele>407</ele>
        <time>2012-07-27T11:27:42Z</time>
      </trkpt>
      <trkpt lat="62.6253413" lon="14.3391451">
        <ele>408</ele>
        <time>2012-07-27T11:27:48Z</time>
      </trkpt>
      <trkpt lat="62.6249958" lon="14.338898">
        <ele>409.4</ele>
        <time>2012-07-27T11:27:54Z</time>
      </trkpt>
      <trkpt lat="62.6246468" lon="14.3386385">
        <ele>411.8</ele>
        <time>2012-07-27T11:28:00Z</time>
      </trkpt>
      <trkpt lat="62.6242923" lon="14.3384156">
        <ele>413</ele>
        <time>2012-07-27T11:28:07Z</time>
      </trkpt>
      <trkpt lat="62.6239438" lon="14.3381603">
        <ele>413.2</ele>
        <time>2012-07-27T11:28:14Z</time>
      </trkpt>
      <trkpt lat="62.6235721" lon="14.3378775">
        <ele>414.6</ele>
        <time>2012-07-27T11:28:22Z</time>
      </trkpt>
      <trkpt lat="62.6232271" lon="14.3376403">
        <ele>415.2</ele>
        <time>2012-07-27T11:28:29Z</time>
      </trkpt>
      <trkpt lat="62.6228443" lon="14.337375">
        <ele>415.4</ele>
        <time>2012-07-27T11:28:36Z</time>
      </trkpt>
      <trkpt lat="62.6224514" lon="14.3371232">
        <ele>416.2</ele>
        <time>2012-07-27T11:28:43Z</time>
      </trkpt>
      <trkpt lat="62.6220976" lon="14.336926">
        <ele>416.8</ele>
        <time>2012-07-27T11:28:49Z</time>
      </trkpt>
      <trkpt lat="62.6217524" lon="14.3367478">
        <ele>418</ele>
        <time>2012-07-27T11:28:55Z</time>
      </trkpt>
      <trkpt lat="62.6213779" lon="14.3366068">
        <ele>419.2</ele>
        <time>2012-07-27T11:29:01Z</time>
      </trkpt>
      <trkpt lat="62.6209823" lon="14.3364752">
        <ele>420</ele>
        <time>2012-07-27T11:29:07Z</time>
      </trkpt>
      <trkpt lat="62.6205791" lon="14.3363896">
        <ele>419</ele>
        <time>2012-07-27T11:29:13Z</time>
      </trkpt>
      <trkpt lat="62.6201673" lon="14.3363438">
        <ele>417.8</ele>
        <time>2012-07-27T11:29:19Z</time>
      </trkpt>
      <trkpt lat="62.6197585" lon="14.3363277">
        <ele>416.8</ele>
        <time>2012-07-27T11:29:25Z</time>
      </trkpt>
      <trkpt lat="62.6193364" lon="14.336351">
        <ele>416.4</ele>
        <time>2012-07-27T11:29:31Z</time>
      </trkpt>
      <trkpt lat="62.6189165" lon="14.3363799">
        <ele>415.8</ele>
        <time>2012-07-27T11:29:37Z</time>
      </trkpt>
      <trkpt lat="62.6185533" lon="14.3364383">
        <ele>415</ele>
        <time>2012-07-27T11:29:42Z</time>
      </trkpt>
      <trkpt lat="62.6181812" lon="14.3365343">
        <ele>414</ele>
        <time>2012-07-27T11:29:47Z</time>
      </trkpt>
      <trkpt lat="62.617782" lon="14.3366897">
        <ele>412.6</ele>
        <time>2012-07-27T11:29:52Z</time>
      </trkpt>
      <trkpt lat="62.6173604" lon="14.3368632">
        <ele>410.8</ele>
        <time>2012-07-27T11:29:57Z</time>
      </trkpt>
      <trkpt lat="62.6169632" lon="14.3370493">
        <ele>409.4</ele>
        <time>2012-07-27T11:30:02Z</time>
      </trkpt>
      <trkpt lat="62.6165774" lon="14.3372575">
        <ele>409.2</ele>
        <time>2012-07-27T11:30:07Z</time>
      </trkpt>
      <trkpt lat="62.6162021" lon="14.337445">
        <ele>409.6</ele>
        <time>2012-07-27T11:30:12Z</time>
      </trkpt>
      <trkpt lat="62.6158466" lon="14.3376356">
        <ele>409.8</ele>
        <time>2012-07-27T11:30:17Z</time>
      </trkpt>
      <trkpt lat="62.6154945" lon="14.3378151">
        <ele>410.4</ele>
        <time>2012-07-27T11:30:22Z</time>
      </trkpt>
      <trkpt lat="62.6150849" lon="14.3380391">
        <ele>411.6</ele>
        <time>2012-07-27T11:30:28Z</time>
      </trkpt>
      <trkpt lat="62.6146931" lon="14.3382228">
        <ele>412.2</ele>
        <time>2012-07-27T11:30:34Z</time>
      </trkpt>
      <trkpt lat="62.6143051" lon="14.3383593">
        <ele>413</ele>
        <time>2012-07-27T11:30:40Z</time>
      </trkpt>
      <trkpt lat="62.6139161" lon="14.3384546">
        <ele>414.2</ele>
        <time>2012-07-27T11:30:46Z</time>
      </trkpt>
      <trkpt lat="62.6135156" lon="14.3384891">
        <ele>414.2</ele>
        <time>2012-07-27T11:30:52Z</time>
      </trkpt>
      <trkpt lat="62.6131023" lon="14.3384814">
        <ele>413.8</ele>
        <time>2012-07-27T11:30:58Z</time>
      </trkpt>
      <trkpt lat="62.6126765" lon="14.3384001">
        <ele>413</ele>
        <time>2012-07-27T11:31:04Z</time>
      </trkpt>
      <trkpt lat="62.6123124" lon="14.3382991">
        <ele>413.8</ele>
        <time>2012-07-27T11:31:09Z</time>
      </trkpt>
      <trkpt lat="62.611895" lon="14.3381959">
        <ele>414.2</ele>
        <time>2012-07-27T11:31:15Z</time>
      </trkpt>
      <trkpt lat="62.6115208" lon="14.3383311">
        <ele>414</ele>
        <time>2012-07-27T11:31:22Z</time>
      </trkpt>
      <trkpt lat="62.6113593" lon="14.3381052">
        <ele>413.8</ele>
        <time>2012-07-27T11:31:25Z</time>
      </trkpt>
      <trkpt lat="62.6111809" lon="14.3378676">
        <ele>413.8</ele>
        <time>2012-07-27T11:31:28Z</time>
      </trkpt>
      <trkpt lat="62.6107923" lon="14.3374439">
        <ele>415</ele>
        <time>2012-07-27T11:31:34Z</time>
      </trkpt>
      <trkpt lat="62.6104656" lon="14.337093">
        <ele>415.8</ele>
        <time>2012-07-27T11:31:39Z</time>
      </trkpt>
      <trkpt lat="62.6100852" lon="14.336674">
        <ele>416.6</ele>
        <time>2012-07-27T11:31:45Z</time>
      </trkpt>
      <trkpt lat="62.6097211" lon="14.336238">
        <ele>417.6</ele>
        <time>2012-07-27T11:31:51Z</time>
      </trkpt>
      <trkpt lat="62.6093764" lon="14.3357712">
        <ele>419.2</ele>
        <time>2012-07-27T11:31:57Z</time>
      </trkpt>
      <trkpt lat="62.6090313" lon="14.335222">
        <ele>420</ele>
        <time>2012-07-27T11:32:03Z</time>
      </trkpt>
      <trkpt lat="62.6087402" lon="14.3347031">
        <ele>420.4</ele>
        <time>2012-07-27T11:32:08Z</time>
      </trkpt>
      <trkpt lat="62.6084553" lon="14.3341219">
        <ele>419</ele>
        <time>2012-07-27T11:32:13Z</time>
      </trkpt>
      <trkpt lat="62.6081947" lon="14.3335315">
        <ele>418.4</ele>
        <time>2012-07-27T11:32:18Z</time>
      </trkpt>
      <trkpt lat="62.6079253" lon="14.3328993">
        <ele>418.6</ele>
        <time>2012-07-27T11:32:23Z</time>
      </trkpt>
      <trkpt lat="62.6076716" lon="14.3322317">
        <ele>418</ele>
        <time>2012-07-27T11:32:28Z</time>
      </trkpt>
      <trkpt lat="62.607438" lon="14.3315825">
        <ele>417.8</ele>
        <time>2012-07-27T11:32:33Z</time>
      </trkpt>
      <trkpt lat="62.6072079" lon="14.3308988">
        <ele>417.4</ele>
        <time>2012-07-27T11:32:38Z</time>
      </trkpt>
      <trkpt lat="62.6069924" lon="14.330198">
        <ele>417.6</ele>
        <time>2012-07-27T11:32:43Z</time>
      </trkpt>
      <trkpt lat="62.606795" lon="14.3294991">
        <ele>417</ele>
        <time>2012-07-27T11:32:48Z</time>
      </trkpt>
      <trkpt lat="62.6066127" lon="14.3287915">
        <ele>417</ele>
        <time>2012-07-27T11:32:53Z</time>
      </trkpt>
      <trkpt lat="62.6064433" lon="14.328085">
        <ele>416.6</ele>
        <time>2012-07-27T11:32:58Z</time>
      </trkpt>
      <trkpt lat="62.6062748" lon="14.3273893">
        <ele>416.4</ele>
        <time>2012-07-27T11:33:03Z</time>
      </trkpt>
      <trkpt lat="62.606116" lon="14.3266883">
        <ele>415.6</ele>
        <time>2012-07-27T11:33:08Z</time>
      </trkpt>
      <trkpt lat="62.6059393" lon="14.3258612">
        <ele>415.2</ele>
        <time>2012-07-27T11:33:14Z</time>
      </trkpt>
      <trkpt lat="62.6057911" lon="14.3251784">
        <ele>416.8</ele>
        <time>2012-07-27T11:33:19Z</time>
      </trkpt>
      <trkpt lat="62.6057563" lon="14.3250425">
        <ele>417.2</ele>
        <time>2012-07-27T11:33:20Z</time>
      </trkpt>
      <trkpt lat="62.6055533" lon="14.3242384">
        <ele>418.8</ele>
        <time>2012-07-27T11:33:26Z</time>
      </trkpt>
      <trkpt lat="62.6053283" lon="14.3234437">
        <ele>419.2</ele>
        <time>2012-07-27T11:33:32Z</time>
      </trkpt>
      <trkpt lat="62.6050997" lon="14.3226582">
        <ele>419</ele>
        <time>2012-07-27T11:33:38Z</time>
      </trkpt>
      <trkpt lat="62.6048463" lon="14.3219179">
        <ele>419</ele>
        <time>2012-07-27T11:33:44Z</time>
      </trkpt>
      <trkpt lat="62.6045888" lon="14.3212495">
        <ele>420.4</ele>
        <time>2012-07-27T11:33:50Z</time>
      </trkpt>
      <trkpt lat="62.6043443" lon="14.3206044">
        <ele>420.4</ele>
        <time>2012-07-27T11:33:56Z</time>
      </trkpt>
      <trkpt lat="62.6040884" lon="14.3199797">
        <ele>421</ele>
        <time>2012-07-27T11:34:02Z</time>
      </trkpt>
      <trkpt lat="62.6038336" lon="14.3193742">
        <ele>421.8</ele>
        <time>2012-07-27T11:34:08Z</time>
      </trkpt>
      <trkpt lat="62.6035683" lon="14.3187727">
        <ele>423</ele>
        <time>2012-07-27T11:34:14Z</time>
      </trkpt>
      <trkpt lat="62.6033043" lon="14.3181744">
        <ele>423.6</ele>
        <time>2012-07-27T11:34:20Z</time>
      </trkpt>
      <trkpt lat="62.6030346" lon="14.317555">
        <ele>424.2</ele>
        <time>2012-07-27T11:34:26Z</time>
      </trkpt>
      <trkpt lat="62.6027633" lon="14.316971">
        <ele>425.4</ele>
        <time>2012-07-27T11:34:32Z</time>
      </trkpt>
      <trkpt lat="62.6025007" lon="14.3164272">
        <ele>427.2</ele>
        <time>2012-07-27T11:34:38Z</time>
      </trkpt>
      <trkpt lat="62.6021908" lon="14.3158398">
        <ele>428.4</ele>
        <time>2012-07-27T11:34:45Z</time>
      </trkpt>
      <trkpt lat="62.601905" lon="14.3153749">
        <ele>429.8</ele>
        <time>2012-07-27T11:34:51Z</time>
      </trkpt>
      <trkpt lat="62.6015714" lon="14.3148804">
        <ele>431</ele>
        <time>2012-07-27T11:34:58Z</time>
      </trkpt>
      <trkpt lat="62.6012618" lon="14.3144972">
        <ele>432.2</ele>
        <time>2012-07-27T11:35:05Z</time>
      </trkpt>
      <trkpt lat="62.6009503" lon="14.3141407">
        <ele>432.6</ele>
        <time>2012-07-27T11:35:12Z</time>
      </trkpt>
      <trkpt lat="62.6005937" lon="14.3138124">
        <ele>434.4</ele>
        <time>2012-07-27T11:35:20Z</time>
      </trkpt>
      <trkpt lat="62.6002286" lon="14.3135334">
        <ele>436</ele>
        <time>2012-07-27T11:35:28Z</time>
      </trkpt>
      <trkpt lat="62.5998758" lon="14.3133041">
        <ele>437.2</ele>
        <time>2012-07-27T11:35:36Z</time>
      </trkpt>
      <trkpt lat="62.5995161" lon="14.3131027">
        <ele>438.2</ele>
        <time>2012-07-27T11:35:44Z</time>
      </trkpt>
      <trkpt lat="62.599143" lon="14.3129544">
        <ele>438.4</ele>
        <time>2012-07-27T11:35:51Z</time>
      </trkpt>
      <trkpt lat="62.5987597" lon="14.3128476">
        <ele>439</ele>
        <time>2012-07-27T11:35:58Z</time>
      </trkpt>
      <trkpt lat="62.5983518" lon="14.3127338">
        <ele>439.8</ele>
        <time>2012-07-27T11:36:05Z</time>
      </trkpt>
      <trkpt lat="62.5979908" lon="14.312636">
        <ele>440.6</ele>
        <time>2012-07-27T11:36:11Z</time>
      </trkpt>
      <trkpt lat="62.5976259" lon="14.3125311">
        <ele>441.2</ele>
        <time>2012-07-27T11:36:17Z</time>
      </trkpt>
      <trkpt lat="62.5972658" lon="14.3124327">
        <ele>442</ele>
        <time>2012-07-27T11:36:23Z</time>
      </trkpt>
      <trkpt lat="62.5968627" lon="14.3123158">
        <ele>442.8</ele>
        <time>2012-07-27T11:36:30Z</time>
      </trkpt>
      <trkpt lat="62.5964639" lon="14.3122106">
        <ele>443.4</ele>
        <time>2012-07-27T11:36:37Z</time>
      </trkpt>
      <trkpt lat="62.5960805" lon="14.312093">
        <ele>443.8</ele>
        <time>2012-07-27T11:36:44Z</time>
      </trkpt>
      <trkpt lat="62.5956633" lon="14.3119749">
        <ele>444.4</ele>
        <time>2012-07-27T11:36:51Z</time>
      </trkpt>
      <trkpt lat="62.5952513" lon="14.3118537">
        <ele>445</ele>
        <time>2012-07-27T11:36:58Z</time>
      </trkpt>
      <trkpt lat="62.5948482" lon="14.3117339">
        <ele>445.8</ele>
        <time>2012-07-27T11:37:05Z</time>
      </trkpt>
      <trkpt lat="62.5944605" lon="14.3116241">
        <ele>446.8</ele>
        <time>2012-07-27T11:37:12Z</time>
      </trkpt>
      <trkpt lat="62.5940673" lon="14.3115123">
        <ele>448.4</ele>
        <time>2012-07-27T11:37:19Z</time>
      </trkpt>
      <trkpt lat="62.5936977" lon="14.3113938">
        <ele>450.4</ele>
        <time>2012-07-27T11:37:26Z</time>
      </trkpt>
      <trkpt lat="62.5933087" lon="14.311286">
        <ele>452.2</ele>
        <time>2012-07-27T11:37:33Z</time>
      </trkpt>
      <trkpt lat="62.592949" lon="14.3111954">
        <ele>453</ele>
        <time>2012-07-27T11:37:39Z</time>
      </trkpt>
      <trkpt lat="62.5928303" lon="14.3111547">
        <ele>453.4</ele>
        <time>2012-07-27T11:37:41Z</time>
      </trkpt>
      <trkpt lat="62.5925431" lon="14.311077">
        <ele>454.2</ele>
        <time>2012-07-27T11:37:46Z</time>
      </trkpt>
      <trkpt lat="62.5921426" lon="14.3109599">
        <ele>455.2</ele>
        <time>2012-07-27T11:37:53Z</time>
      </trkpt>
      <trkpt lat="62.5917443" lon="14.3108403">
        <ele>456.2</ele>
        <time>2012-07-27T11:38:00Z</time>
      </trkpt>
      <trkpt lat="62.5913501" lon="14.3107284">
        <ele>457</ele>
        <time>2012-07-27T11:38:07Z</time>
      </trkpt>
      <trkpt lat="62.5909522" lon="14.3106063">
        <ele>458.2</ele>
        <time>2012-07-27T11:38:14Z</time>
      </trkpt>
      <trkpt lat="62.5905783" lon="14.3105017">
        <ele>459.2</ele>
        <time>2012-07-27T11:38:21Z</time>
      </trkpt>
      <trkpt lat="62.5901949" lon="14.3103984">
        <ele>459.4</ele>
        <time>2012-07-27T11:38:28Z</time>
      </trkpt>
      <trkpt lat="62.5898308" lon="14.3102938">
        <ele>459.4</ele>
        <time>2012-07-27T11:38:34Z</time>
      </trkpt>
      <trkpt lat="62.5894641" lon="14.3101987">
        <ele>459.6</ele>
        <time>2012-07-27T11:38:40Z</time>
      </trkpt>
      <trkpt lat="62.5890946" lon="14.3101027">
        <ele>459.6</ele>
        <time>2012-07-27T11:38:46Z</time>
      </trkpt>
      <trkpt lat="62.5887269" lon="14.3100102">
        <ele>459.8</ele>
        <time>2012-07-27T11:38:52Z</time>
      </trkpt>
      <trkpt lat="62.5883637" lon="14.3099139">
        <ele>460</ele>
        <time>2012-07-27T11:38:58Z</time>
      </trkpt>
      <trkpt lat="62.5879872" lon="14.3098182">
        <ele>460.2</ele>
        <time>2012-07-27T11:39:04Z</time>
      </trkpt>
      <trkpt lat="62.587627" lon="14.3097174">
        <ele>460.6</ele>
        <time>2012-07-27T11:39:10Z</time>
      </trkpt>
      <trkpt lat="62.5872199" lon="14.3095961">
        <ele>461</ele>
        <time>2012-07-27T11:39:17Z</time>
      </trkpt>
      <trkpt lat="62.5868569" lon="14.3095003">
        <ele>461.4</ele>
        <time>2012-07-27T11:39:23Z</time>
      </trkpt>
      <trkpt lat="62.5864466" lon="14.3093921">
        <ele>461.6</ele>
        <time>2012-07-27T11:39:30Z</time>
      </trkpt>
      <trkpt lat="62.5860503" lon="14.3092958">
        <ele>462</ele>
        <time>2012-07-27T11:39:37Z</time>
      </trkpt>
      <trkpt lat="62.5856512" lon="14.3091857">
        <ele>462.6</ele>
        <time>2012-07-27T11:39:44Z</time>
      </trkpt>
      <trkpt lat="62.5852879" lon="14.309087">
        <ele>463</ele>
        <time>2012-07-27T11:39:50Z</time>
      </trkpt>
      <trkpt lat="62.5848811" lon="14.3089794">
        <ele>463.4</ele>
        <time>2012-07-27T11:39:57Z</time>
      </trkpt>
      <trkpt lat="62.5844796" lon="14.3088724">
        <ele>463.8</ele>
        <time>2012-07-27T11:40:04Z</time>
      </trkpt>
      <trkpt lat="62.584085" lon="14.3087658">
        <ele>463.8</ele>
        <time>2012-07-27T11:40:10Z</time>
      </trkpt>
      <trkpt lat="62.583676" lon="14.308655">
        <ele>463.8</ele>
        <time>2012-07-27T11:40:16Z</time>
      </trkpt>
      <trkpt lat="62.5832808" lon="14.3085538">
        <ele>463.4</ele>
        <time>2012-07-27T11:40:22Z</time>
      </trkpt>
      <trkpt lat="62.5828903" lon="14.3084624">
        <ele>463.4</ele>
        <time>2012-07-27T11:40:28Z</time>
      </trkpt>
      <trkpt lat="62.5825038" lon="14.3083466">
        <ele>463.4</ele>
        <time>2012-07-27T11:40:34Z</time>
      </trkpt>
      <trkpt lat="62.582128" lon="14.3082473">
        <ele>464.2</ele>
        <time>2012-07-27T11:40:40Z</time>
      </trkpt>
      <trkpt lat="62.5817514" lon="14.3081525">
        <ele>465</ele>
        <time>2012-07-27T11:40:46Z</time>
      </trkpt>
      <trkpt lat="62.5813581" lon="14.3080458">
        <ele>465.8</ele>
        <time>2012-07-27T11:40:52Z</time>
      </trkpt>
      <trkpt lat="62.5809924" lon="14.3079541">
        <ele>466.8</ele>
        <time>2012-07-27T11:40:58Z</time>
      </trkpt>
      <trkpt lat="62.5806356" lon="14.3078629">
        <ele>468.2</ele>
        <time>2012-07-27T11:41:04Z</time>
      </trkpt>
      <trkpt lat="62.5802257" lon="14.3077517">
        <ele>470</ele>
        <time>2012-07-27T11:41:11Z</time>
      </trkpt>
      <trkpt lat="62.5798305" lon="14.307647">
        <ele>471.2</ele>
        <time>2012-07-27T11:41:18Z</time>
      </trkpt>
      <trkpt lat="62.57947" lon="14.3075464">
        <ele>473</ele>
        <time>2012-07-27T11:41:25Z</time>
      </trkpt>
      <trkpt lat="62.5791088" lon="14.3074504">
        <ele>474.6</ele>
        <time>2012-07-27T11:41:32Z</time>
      </trkpt>
      <trkpt lat="62.5787485" lon="14.3073517">
        <ele>475.2</ele>
        <time>2012-07-27T11:41:39Z</time>
      </trkpt>
      <trkpt lat="62.5783827" lon="14.3072558">
        <ele>476.2</ele>
        <time>2012-07-27T11:41:46Z</time>
      </trkpt>
      <trkpt lat="62.5779889" lon="14.3071477">
        <ele>477.4</ele>
        <time>2012-07-27T11:41:53Z</time>
      </trkpt>
      <trkpt lat="62.5776093" lon="14.3070605">
        <ele>478.4</ele>
        <time>2012-07-27T11:42:00Z</time>
      </trkpt>
      <trkpt lat="62.5772455" lon="14.3069663">
        <ele>479.6</ele>
        <time>2012-07-27T11:42:07Z</time>
      </trkpt>
      <trkpt lat="62.5768489" lon="14.3068633">
        <ele>480.6</ele>
        <time>2012-07-27T11:42:15Z</time>
      </trkpt>
      <trkpt lat="62.5764845" lon="14.3067662">
        <ele>481.4</ele>
        <time>2012-07-27T11:42:22Z</time>
      </trkpt>
      <trkpt lat="62.5760978" lon="14.3066669">
        <ele>481.6</ele>
        <time>2012-07-27T11:42:29Z</time>
      </trkpt>
      <trkpt lat="62.5756813" lon="14.3065591">
        <ele>482.2</ele>
        <time>2012-07-27T11:42:36Z</time>
      </trkpt>
      <trkpt lat="62.5753094" lon="14.3064597">
        <ele>483.2</ele>
        <time>2012-07-27T11:42:42Z</time>
      </trkpt>
      <trkpt lat="62.5749388" lon="14.3063613">
        <ele>484.2</ele>
        <time>2012-07-27T11:42:48Z</time>
      </trkpt>
      <trkpt lat="62.5745775" lon="14.306274">
        <ele>484.6</ele>
        <time>2012-07-27T11:42:54Z</time>
      </trkpt>
      <trkpt lat="62.5742096" lon="14.3061771">
        <ele>484.4</ele>
        <time>2012-07-27T11:43:00Z</time>
      </trkpt>
      <trkpt lat="62.5738485" lon="14.3060749">
        <ele>484.4</ele>
        <time>2012-07-27T11:43:06Z</time>
      </trkpt>
      <trkpt lat="62.5734892" lon="14.3059787">
        <ele>486.2</ele>
        <time>2012-07-27T11:43:12Z</time>
      </trkpt>
      <trkpt lat="62.5730808" lon="14.3058551">
        <ele>488.4</ele>
        <time>2012-07-27T11:43:19Z</time>
      </trkpt>
      <trkpt lat="62.5727053" lon="14.3057558">
        <ele>490.2</ele>
        <time>2012-07-27T11:43:25Z</time>
      </trkpt>
      <trkpt lat="62.5723368" lon="14.3056712">
        <ele>492.4</ele>
        <time>2012-07-27T11:43:31Z</time>
      </trkpt>
      <trkpt lat="62.5719369" lon="14.3055723">
        <ele>493.6</ele>
        <time>2012-07-27T11:43:38Z</time>
      </trkpt>
      <trkpt lat="62.5715336" lon="14.3054569">
        <ele>494</ele>
        <time>2012-07-27T11:43:45Z</time>
      </trkpt>
      <trkpt lat="62.571142" lon="14.3053566">
        <ele>495.4</ele>
        <time>2012-07-27T11:43:52Z</time>
      </trkpt>
      <trkpt lat="62.5707457" lon="14.3052603">
        <ele>496.2</ele>
        <time>2012-07-27T11:43:59Z</time>
      </trkpt>
      <trkpt lat="62.5703462" lon="14.3051609">
        <ele>497.8</ele>
        <time>2012-07-27T11:44:06Z</time>
      </trkpt>
      <trkpt lat="62.5699825" lon="14.3050745">
        <ele>498.4</ele>
        <time>2012-07-27T11:44:12Z</time>
      </trkpt>
      <trkpt lat="62.5695969" lon="14.3049581">
        <ele>497.8</ele>
        <time>2012-07-27T11:44:18Z</time>
      </trkpt>
      <trkpt lat="62.5692161" lon="14.3048493">
        <ele>496.8</ele>
        <time>2012-07-27T11:44:24Z</time>
      </trkpt>
      <trkpt lat="62.5688413" lon="14.3047507">
        <ele>496.8</ele>
        <time>2012-07-27T11:44:30Z</time>
      </trkpt>
      <trkpt lat="62.568467" lon="14.3046435">
        <ele>496.6</ele>
        <time>2012-07-27T11:44:36Z</time>
      </trkpt>
      <trkpt lat="62.5680912" lon="14.3045435">
        <ele>496.4</ele>
        <time>2012-07-27T11:44:42Z</time>
      </trkpt>
      <trkpt lat="62.567683" lon="14.3044305">
        <ele>496.4</ele>
        <time>2012-07-27T11:44:49Z</time>
      </trkpt>
      <trkpt lat="62.5672758" lon="14.3043284">
        <ele>496.6</ele>
        <time>2012-07-27T11:44:56Z</time>
      </trkpt>
      <trkpt lat="62.5668972" lon="14.3042369">
        <ele>496.6</ele>
        <time>2012-07-27T11:45:03Z</time>
      </trkpt>
      <trkpt lat="62.5665291" lon="14.3041384">
        <ele>496.8</ele>
        <time>2012-07-27T11:45:10Z</time>
      </trkpt>
      <trkpt lat="62.5661539" lon="14.3040399">
        <ele>497.4</ele>
        <time>2012-07-27T11:45:17Z</time>
      </trkpt>
      <trkpt lat="62.5657665" lon="14.3039494">
        <ele>497.8</ele>
        <time>2012-07-27T11:45:24Z</time>
      </trkpt>
      <trkpt lat="62.5653909" lon="14.3038446">
        <ele>499.6</ele>
        <time>2012-07-27T11:45:31Z</time>
      </trkpt>
      <trkpt lat="62.5649956" lon="14.3037394">
        <ele>499.4</ele>
        <time>2012-07-27T11:45:38Z</time>
      </trkpt>
      <trkpt lat="62.5646186" lon="14.303639">
        <ele>500.2</ele>
        <time>2012-07-27T11:45:44Z</time>
      </trkpt>
      <trkpt lat="62.5642351" lon="14.3035369">
        <ele>501.4</ele>
        <time>2012-07-27T11:45:50Z</time>
      </trkpt>
      <trkpt lat="62.5638539" lon="14.3034484">
        <ele>502</ele>
        <time>2012-07-27T11:45:56Z</time>
      </trkpt>
      <trkpt lat="62.5634755" lon="14.3033469">
        <ele>502</ele>
        <time>2012-07-27T11:46:02Z</time>
      </trkpt>
      <trkpt lat="62.5630776" lon="14.3032485">
        <ele>500.6</ele>
        <time>2012-07-27T11:46:08Z</time>
      </trkpt>
      <trkpt lat="62.562656" lon="14.3031444">
        <ele>499.4</ele>
        <time>2012-07-27T11:46:14Z</time>
      </trkpt>
      <trkpt lat="62.5622468" lon="14.3030453">
        <ele>499.6</ele>
        <time>2012-07-27T11:46:20Z</time>
      </trkpt>
      <trkpt lat="62.561842" lon="14.3029381">
        <ele>500.6</ele>
        <time>2012-07-27T11:46:26Z</time>
      </trkpt>
      <trkpt lat="62.5614827" lon="14.3028409">
        <ele>500.6</ele>
        <time>2012-07-27T11:46:31Z</time>
      </trkpt>
      <trkpt lat="62.5611216" lon="14.302745">
        <ele>501.4</ele>
        <time>2012-07-27T11:46:36Z</time>
      </trkpt>
      <trkpt lat="62.5607563" lon="14.3026514">
        <ele>501.2</ele>
        <time>2012-07-27T11:46:41Z</time>
      </trkpt>
      <trkpt lat="62.560318" lon="14.3025482">
        <ele>499.6</ele>
        <time>2012-07-27T11:46:47Z</time>
      </trkpt>
      <trkpt lat="62.5599022" lon="14.3024429">
        <ele>500</ele>
        <time>2012-07-27T11:46:53Z</time>
      </trkpt>
      <trkpt lat="62.559506" lon="14.30234">
        <ele>501</ele>
        <time>2012-07-27T11:46:59Z</time>
      </trkpt>
      <trkpt lat="62.5591319" lon="14.3022204">
        <ele>502.6</ele>
        <time>2012-07-27T11:47:05Z</time>
      </trkpt>
      <trkpt lat="62.5590092" lon="14.3021799">
        <ele>503.2</ele>
        <time>2012-07-27T11:47:07Z</time>
      </trkpt>
      <trkpt lat="62.5587159" lon="14.3020316">
        <ele>504.8</ele>
        <time>2012-07-27T11:47:11Z</time>
      </trkpt>
      <trkpt lat="62.5583942" lon="14.3018432">
        <ele>507.2</ele>
        <time>2012-07-27T11:47:18Z</time>
      </trkpt>
      <trkpt lat="62.5580363" lon="14.301587">
        <ele>510.4</ele>
        <time>2012-07-27T11:47:25Z</time>
      </trkpt>
      <trkpt lat="62.5576591" lon="14.3012578">
        <ele>513.6</ele>
        <time>2012-07-27T11:47:33Z</time>
      </trkpt>
      <trkpt lat="62.5572727" lon="14.3008419">
        <ele>516.6</ele>
        <time>2012-07-27T11:47:41Z</time>
      </trkpt>
      <trkpt lat="62.5569371" lon="14.3004123">
        <ele>519.8</ele>
        <time>2012-07-27T11:47:49Z</time>
      </trkpt>
      <trkpt lat="62.5566393" lon="14.2999942">
        <ele>523.6</ele>
        <time>2012-07-27T11:47:57Z</time>
      </trkpt>
      <trkpt lat="62.556357" lon="14.2994756">
        <ele>528</ele>
        <time>2012-07-27T11:48:06Z</time>
      </trkpt>
      <trkpt lat="62.556087" lon="14.2989371">
        <ele>531.2</ele>
        <time>2012-07-27T11:48:15Z</time>
      </trkpt>
      <trkpt lat="62.5558315" lon="14.2983363">
        <ele>533.4</ele>
        <time>2012-07-27T11:48:24Z</time>
      </trkpt>
      <trkpt lat="62.555597" lon="14.297797">
        <ele>536.6</ele>
        <time>2012-07-27T11:48:32Z</time>
      </trkpt>
      <trkpt lat="62.5554372" lon="14.2974027">
        <ele>539.4</ele>
        <time>2012-07-27T11:48:36Z</time>
      </trkpt>
      <trkpt lat="62.5553096" lon="14.2970946">
        <ele>541.8</ele>
        <time>2012-07-27T11:48:40Z</time>
      </trkpt>
      <trkpt lat="62.5552236" lon="14.2967982">
        <ele>543.2</ele>
        <time>2012-07-27T11:48:43Z</time>
      </trkpt>
      <trkpt lat="62.5550868" lon="14.29638">
        <ele>544.4</ele>
        <time>2012-07-27T11:48:47Z</time>
      </trkpt>
      <trkpt lat="62.554938" lon="14.295884">
        <ele>544.2</ele>
        <time>2012-07-27T11:48:52Z</time>
      </trkpt>
      <trkpt lat="62.5548878" lon="14.2956839">
        <ele>544.4</ele>
        <time>2012-07-27T11:48:54Z</time>
      </trkpt>
      <trkpt lat="62.5547091" lon="14.2949785">
        <ele>543.6</ele>
        <time>2012-07-27T11:49:00Z</time>
      </trkpt>
      <trkpt lat="62.5545818" lon="14.2941981">
        <ele>542</ele>
        <time>2012-07-27T11:49:06Z</time>
      </trkpt>
      <trkpt lat="62.5544694" lon="14.2934031">
        <ele>540.4</ele>
        <time>2012-07-27T11:49:12Z</time>
      </trkpt>
      <trkpt lat="62.5543776" lon="14.2925887">
        <ele>539.8</ele>
        <time>2012-07-27T11:49:18Z</time>
      </trkpt>
      <trkpt lat="62.5543086" lon="14.2917643">
        <ele>540.6</ele>
        <time>2012-07-27T11:49:24Z</time>
      </trkpt>
      <trkpt lat="62.5542632" lon="14.29098">
        <ele>542</ele>
        <time>2012-07-27T11:49:30Z</time>
      </trkpt>
      <trkpt lat="62.55423" lon="14.2901103">
        <ele>544.8</ele>
        <time>2012-07-27T11:49:37Z</time>
      </trkpt>
      <trkpt lat="62.5542248" lon="14.2897103">
        <ele>547</ele>
        <time>2012-07-27T11:49:42Z</time>
      </trkpt>
      <trkpt lat="62.5542227" lon="14.2894157">
        <ele>548.8</ele>
        <time>2012-07-27T11:49:45Z</time>
      </trkpt>
      <trkpt lat="62.5542237" lon="14.2893195">
        <ele>549</ele>
        <time>2012-07-27T11:49:46Z</time>
      </trkpt>
      <trkpt lat="62.5542261" lon="14.2886554">
        <ele>552.2</ele>
        <time>2012-07-27T11:49:53Z</time>
      </trkpt>
      <trkpt lat="62.5542615" lon="14.2878761">
        <ele>555</ele>
        <time>2012-07-27T11:50:01Z</time>
      </trkpt>
      <trkpt lat="62.5543116" lon="14.2870861">
        <ele>557.2</ele>
        <time>2012-07-27T11:50:09Z</time>
      </trkpt>
      <trkpt lat="62.5543724" lon="14.2862493">
        <ele>560</ele>
        <time>2012-07-27T11:50:17Z</time>
      </trkpt>
      <trkpt lat="62.5544331" lon="14.2853923">
        <ele>564.4</ele>
        <time>2012-07-27T11:50:26Z</time>
      </trkpt>
      <trkpt lat="62.5544865" lon="14.2845404">
        <ele>567</ele>
        <time>2012-07-27T11:50:36Z</time>
      </trkpt>
      <trkpt lat="62.554518" lon="14.2837682">
        <ele>567.6</ele>
        <time>2012-07-27T11:50:47Z</time>
      </trkpt>
      <trkpt lat="62.5545305" lon="14.2829622">
        <ele>570.6</ele>
        <time>2012-07-27T11:50:58Z</time>
      </trkpt>
      <trkpt lat="62.5545124" lon="14.2821785">
        <ele>574.2</ele>
        <time>2012-07-27T11:51:07Z</time>
      </trkpt>
      <trkpt lat="62.554475" lon="14.2813574">
        <ele>577.8</ele>
        <time>2012-07-27T11:51:17Z</time>
      </trkpt>
      <trkpt lat="62.5544175" lon="14.2805817">
        <ele>581.2</ele>
        <time>2012-07-27T11:51:26Z</time>
      </trkpt>
      <trkpt lat="62.5543331" lon="14.2797966">
        <ele>583.6</ele>
        <time>2012-07-27T11:51:35Z</time>
      </trkpt>
      <trkpt lat="62.554222" lon="14.2789972">
        <ele>585.6</ele>
        <time>2012-07-27T11:51:46Z</time>
      </trkpt>
      <trkpt lat="62.5540967" lon="14.2782535">
        <ele>587.2</ele>
        <time>2012-07-27T11:51:56Z</time>
      </trkpt>
      <trkpt lat="62.5539397" lon="14.277491">
        <ele>589.2</ele>
        <time>2012-07-27T11:52:05Z</time>
      </trkpt>
      <trkpt lat="62.5537546" lon="14.2766972">
        <ele>589.2</ele>
        <time>2012-07-27T11:52:13Z</time>
      </trkpt>
      <trkpt lat="62.5535926" lon="14.2760683">
        <ele>589.2</ele>
        <time>2012-07-27T11:52:20Z</time>
      </trkpt>
      <trkpt lat="62.5533462" lon="14.2752963">
        <ele>591</ele>
        <time>2012-07-27T11:52:28Z</time>
      </trkpt>
      <trkpt lat="62.5531115" lon="14.2746652">
        <ele>593.2</ele>
        <time>2012-07-27T11:52:36Z</time>
      </trkpt>
      <trkpt lat="62.5528541" lon="14.273999">
        <ele>597.8</ele>
        <time>2012-07-27T11:52:45Z</time>
      </trkpt>
      <trkpt lat="62.5525862" lon="14.2734058">
        <ele>601.4</ele>
        <time>2012-07-27T11:52:53Z</time>
      </trkpt>
      <trkpt lat="62.552347" lon="14.2729388">
        <ele>606.6</ele>
        <time>2012-07-27T11:53:02Z</time>
      </trkpt>
      <trkpt lat="62.5520097" lon="14.2723917">
        <ele>609.2</ele>
        <time>2012-07-27T11:53:10Z</time>
      </trkpt>
      <trkpt lat="62.5516949" lon="14.2719683">
        <ele>611.4</ele>
        <time>2012-07-27T11:53:18Z</time>
      </trkpt>
      <trkpt lat="62.5513668" lon="14.2715846">
        <ele>612.8</ele>
        <time>2012-07-27T11:53:27Z</time>
      </trkpt>
      <trkpt lat="62.551022" lon="14.2711744">
        <ele>614</ele>
        <time>2012-07-27T11:53:36Z</time>
      </trkpt>
      <trkpt lat="62.5506742" lon="14.2707548">
        <ele>615.2</ele>
        <time>2012-07-27T11:53:44Z</time>
      </trkpt>
      <trkpt lat="62.5503238" lon="14.2703288">
        <ele>616.4</ele>
        <time>2012-07-27T11:53:52Z</time>
      </trkpt>
      <trkpt lat="62.5500826" lon="14.2700508">
        <ele>617.6</ele>
        <time>2012-07-27T11:53:57Z</time>
      </trkpt>
      <trkpt lat="62.5499914" lon="14.2699283">
        <ele>618.2</ele>
        <time>2012-07-27T11:53:59Z</time>
      </trkpt>
      <trkpt lat="62.5496426" lon="14.2695412">
        <ele>620.8</ele>
        <time>2012-07-27T11:54:07Z</time>
      </trkpt>
      <trkpt lat="62.5493151" lon="14.2691458">
        <ele>623.2</ele>
        <time>2012-07-27T11:54:15Z</time>
      </trkpt>
      <trkpt lat="62.5489845" lon="14.2687449">
        <ele>624.4</ele>
        <time>2012-07-27T11:54:23Z</time>
      </trkpt>
      <trkpt lat="62.5486415" lon="14.2683508">
        <ele>625.2</ele>
        <time>2012-07-27T11:54:31Z</time>
      </trkpt>
      <trkpt lat="62.5482924" lon="14.2679492">
        <ele>627.8</ele>
        <time>2012-07-27T11:54:39Z</time>
      </trkpt>
      <trkpt lat="62.5479714" lon="14.2675665">
        <ele>630.4</ele>
        <time>2012-07-27T11:54:47Z</time>
      </trkpt>
      <trkpt lat="62.547675" lon="14.2671831">
        <ele>633.6</ele>
        <time>2012-07-27T11:54:58Z</time>
      </trkpt>
      <trkpt lat="62.5473461" lon="14.2667775">
        <ele>636.2</ele>
        <time>2012-07-27T11:55:10Z</time>
      </trkpt>
      <trkpt lat="62.547025" lon="14.2664119">
        <ele>640.4</ele>
        <time>2012-07-27T11:55:22Z</time>
      </trkpt>
      <trkpt lat="62.5466908" lon="14.2660497">
        <ele>646.2</ele>
        <time>2012-07-27T11:55:32Z</time>
      </trkpt>
      <trkpt lat="62.5463485" lon="14.2655997">
        <ele>649</ele>
        <time>2012-07-27T11:55:42Z</time>
      </trkpt>
      <trkpt lat="62.5460238" lon="14.2651298">
        <ele>652.6</ele>
        <time>2012-07-27T11:55:55Z</time>
      </trkpt>
      <trkpt lat="62.5457087" lon="14.2646866">
        <ele>655.4</ele>
        <time>2012-07-27T11:56:06Z</time>
      </trkpt>
      <trkpt lat="62.545406" lon="14.2642587">
        <ele>657</ele>
        <time>2012-07-27T11:56:17Z</time>
      </trkpt>
      <trkpt lat="62.5451136" lon="14.2638311">
        <ele>660.8</ele>
        <time>2012-07-27T11:56:32Z</time>
      </trkpt>
      <trkpt lat="62.5447602" lon="14.2632631">
        <ele>663</ele>
        <time>2012-07-27T11:56:42Z</time>
      </trkpt>
      <trkpt lat="62.5444949" lon="14.2628406">
        <ele>666.2</ele>
        <time>2012-07-27T11:56:50Z</time>
      </trkpt>
      <trkpt lat="62.5441626" lon="14.2622701">
        <ele>667.6</ele>
        <time>2012-07-27T11:57:00Z</time>
      </trkpt>
      <trkpt lat="62.5438717" lon="14.261657">
        <ele>670</ele>
        <time>2012-07-27T11:57:08Z</time>
      </trkpt>
      <trkpt lat="62.54379" lon="14.2614492">
        <ele>671.2</ele>
        <time>2012-07-27T11:57:11Z</time>
      </trkpt>
      <trkpt lat="62.5436267" lon="14.2610193">
        <ele>672.4</ele>
        <time>2012-07-27T11:57:17Z</time>
      </trkpt>
      <trkpt lat="62.5433865" lon="14.2604106">
        <ele>674.2</ele>
        <time>2012-07-27T11:57:25Z</time>
      </trkpt>
      <trkpt lat="62.5431425" lon="14.259815">
        <ele>674.8</ele>
        <time>2012-07-27T11:57:33Z</time>
      </trkpt>
      <trkpt lat="62.5428831" lon="14.2591952">
        <ele>673.4</ele>
        <time>2012-07-27T11:57:40Z</time>
      </trkpt>
      <trkpt lat="62.5426351" lon="14.2586088">
        <ele>672.2</ele>
        <time>2012-07-27T11:57:47Z</time>
      </trkpt>
      <trkpt lat="62.5423961" lon="14.2579827">
        <ele>672</ele>
        <time>2012-07-27T11:57:54Z</time>
      </trkpt>
      <trkpt lat="62.5421956" lon="14.2574783">
        <ele>673.4</ele>
        <time>2012-07-27T11:58:00Z</time>
      </trkpt>
      <trkpt lat="62.5421651" lon="14.2573975">
        <ele>673.6</ele>
        <time>2012-07-27T11:58:02Z</time>
      </trkpt>
      <trkpt lat="62.5419134" lon="14.2567122">
        <ele>674.8</ele>
        <time>2012-07-27T11:58:09Z</time>
      </trkpt>
      <trkpt lat="62.5416544" lon="14.256019">
        <ele>675.6</ele>
        <time>2012-07-27T11:58:17Z</time>
      </trkpt>
      <trkpt lat="62.5413976" lon="14.255346">
        <ele>676.2</ele>
        <time>2012-07-27T11:58:24Z</time>
      </trkpt>
      <trkpt lat="62.5411414" lon="14.2546388">
        <ele>676.4</ele>
        <time>2012-07-27T11:58:31Z</time>
      </trkpt>
      <trkpt lat="62.5409187" lon="14.2539193">
        <ele>676</ele>
        <time>2012-07-27T11:58:38Z</time>
      </trkpt>
      <trkpt lat="62.54071" lon="14.2531487">
        <ele>674.8</ele>
        <time>2012-07-27T11:58:45Z</time>
      </trkpt>
      <trkpt lat="62.5405493" lon="14.2523818">
        <ele>674.4</ele>
        <time>2012-07-27T11:58:51Z</time>
      </trkpt>
      <trkpt lat="62.5404057" lon="14.2515873">
        <ele>673.6</ele>
        <time>2012-07-27T11:58:57Z</time>
      </trkpt>
      <trkpt lat="62.540295" lon="14.2507673">
        <ele>672.4</ele>
        <time>2012-07-27T11:59:03Z</time>
      </trkpt>
      <trkpt lat="62.5402115" lon="14.2499162">
        <ele>670.8</ele>
        <time>2012-07-27T11:59:09Z</time>
      </trkpt>
      <trkpt lat="62.5401607" lon="14.2491214">
        <ele>670.8</ele>
        <time>2012-07-27T11:59:14Z</time>
      </trkpt>
      <trkpt lat="62.5401308" lon="14.2482981">
        <ele>671.8</ele>
        <time>2012-07-27T11:59:19Z</time>
      </trkpt>
      <trkpt lat="62.5401236" lon="14.2475122">
        <ele>671.2</ele>
        <time>2012-07-27T11:59:24Z</time>
      </trkpt>
      <trkpt lat="62.5401265" lon="14.2465704">
        <ele>671.4</ele>
        <time>2012-07-27T11:59:30Z</time>
      </trkpt>
      <trkpt lat="62.5401319" lon="14.2456485">
        <ele>671.4</ele>
        <time>2012-07-27T11:59:36Z</time>
      </trkpt>
      <trkpt lat="62.5401363" lon="14.2447325">
        <ele>672.2</ele>
        <time>2012-07-27T11:59:42Z</time>
      </trkpt>
      <trkpt lat="62.5401421" lon="14.2439208">
        <ele>673.2</ele>
        <time>2012-07-27T11:59:48Z</time>
      </trkpt>
      <trkpt lat="62.5401468" lon="14.2430542">
        <ele>674.4</ele>
        <time>2012-07-27T11:59:55Z</time>
      </trkpt>
      <trkpt lat="62.5401684" lon="14.2421721">
        <ele>676</ele>
        <time>2012-07-27T12:00:02Z</time>
      </trkpt>
      <trkpt lat="62.5402064" lon="14.2412727">
        <ele>676.6</ele>
        <time>2012-07-27T12:00:08Z</time>
      </trkpt>
      <trkpt lat="62.5402655" lon="14.2404015">
        <ele>676.6</ele>
        <time>2012-07-27T12:00:14Z</time>
      </trkpt>
      <trkpt lat="62.5403463" lon="14.2394942">
        <ele>676.6</ele>
        <time>2012-07-27T12:00:20Z</time>
      </trkpt>
      <trkpt lat="62.5404343" lon="14.2387142">
        <ele>676.6</ele>
        <time>2012-07-27T12:00:25Z</time>
      </trkpt>
      <trkpt lat="62.5405416" lon="14.2379218">
        <ele>676.4</ele>
        <time>2012-07-27T12:00:30Z</time>
      </trkpt>
      <trkpt lat="62.5406615" lon="14.2371808">
        <ele>675.4</ele>
        <time>2012-07-27T12:00:35Z</time>
      </trkpt>
      <trkpt lat="62.5408005" lon="14.2364682">
        <ele>673.4</ele>
        <time>2012-07-27T12:00:40Z</time>
      </trkpt>
      <trkpt lat="62.5409405" lon="14.2357373">
        <ele>672</ele>
        <time>2012-07-27T12:00:45Z</time>
      </trkpt>
      <trkpt lat="62.5410569" lon="14.235154">
        <ele>670.8</ele>
        <time>2012-07-27T12:00:50Z</time>
      </trkpt>
      <trkpt lat="62.5412381" lon="14.2343112">
        <ele>669.2</ele>
        <time>2012-07-27T12:00:55Z</time>
      </trkpt>
      <trkpt lat="62.5413936" lon="14.233431">
        <ele>668.4</ele>
        <time>2012-07-27T12:01:01Z</time>
      </trkpt>
      <trkpt lat="62.5415345" lon="14.232696">
        <ele>667.8</ele>
        <time>2012-07-27T12:01:06Z</time>
      </trkpt>
      <trkpt lat="62.5416991" lon="14.2318474">
        <ele>667.2</ele>
        <time>2012-07-27T12:01:11Z</time>
      </trkpt>
      <trkpt lat="62.5418376" lon="14.2311038">
        <ele>666.6</ele>
        <time>2012-07-27T12:01:15Z</time>
      </trkpt>
      <trkpt lat="62.5419828" lon="14.2303252">
        <ele>665.4</ele>
        <time>2012-07-27T12:01:19Z</time>
      </trkpt>
      <trkpt lat="62.542136" lon="14.2295217">
        <ele>664.4</ele>
        <time>2012-07-27T12:01:23Z</time>
      </trkpt>
      <trkpt lat="62.5422865" lon="14.2287234">
        <ele>663.2</ele>
        <time>2012-07-27T12:01:27Z</time>
      </trkpt>
      <trkpt lat="62.5424355" lon="14.22792">
        <ele>662.4</ele>
        <time>2012-07-27T12:01:31Z</time>
      </trkpt>
      <trkpt lat="62.5425825" lon="14.2271321">
        <ele>661.4</ele>
        <time>2012-07-27T12:01:35Z</time>
      </trkpt>
      <trkpt lat="62.5427093" lon="14.2263381">
        <ele>660.4</ele>
        <time>2012-07-27T12:01:39Z</time>
      </trkpt>
      <trkpt lat="62.5427995" lon="14.2254935">
        <ele>659.4</ele>
        <time>2012-07-27T12:01:43Z</time>
      </trkpt>
      <trkpt lat="62.5428343" lon="14.2245284">
        <ele>657.6</ele>
        <time>2012-07-27T12:01:47Z</time>
      </trkpt>
      <trkpt lat="62.5428001" lon="14.2235061">
        <ele>655.2</ele>
        <time>2012-07-27T12:01:51Z</time>
      </trkpt>
      <trkpt lat="62.542726" lon="14.2227428">
        <ele>653</ele>
        <time>2012-07-27T12:01:54Z</time>
      </trkpt>
      <trkpt lat="62.5426031" lon="14.2219919">
        <ele>650.4</ele>
        <time>2012-07-27T12:01:57Z</time>
      </trkpt>
      <trkpt lat="62.5424248" lon="14.2212284">
        <ele>648</ele>
        <time>2012-07-27T12:02:00Z</time>
      </trkpt>
      <trkpt lat="62.5422204" lon="14.2204927">
        <ele>646.2</ele>
        <time>2012-07-27T12:02:03Z</time>
      </trkpt>
      <trkpt lat="62.5419666" lon="14.219823">
        <ele>643.8</ele>
        <time>2012-07-27T12:02:06Z</time>
      </trkpt>
      <trkpt lat="62.5416646" lon="14.2192512">
        <ele>641.2</ele>
        <time>2012-07-27T12:02:09Z</time>
      </trkpt>
      <trkpt lat="62.5413192" lon="14.2187539">
        <ele>637.8</ele>
        <time>2012-07-27T12:02:12Z</time>
      </trkpt>
      <trkpt lat="62.5409403" lon="14.2183265">
        <ele>634.2</ele>
        <time>2012-07-27T12:02:15Z</time>
      </trkpt>
      <trkpt lat="62.5405453" lon="14.2179213">
        <ele>630</ele>
        <time>2012-07-27T12:02:18Z</time>
      </trkpt>
      <trkpt lat="62.5401308" lon="14.2175034">
        <ele>626.8</ele>
        <time>2012-07-27T12:02:21Z</time>
      </trkpt>
      <trkpt lat="62.539721" lon="14.2170832">
        <ele>625</ele>
        <time>2012-07-27T12:02:24Z</time>
      </trkpt>
      <trkpt lat="62.5393299" lon="14.2166683">
        <ele>623.2</ele>
        <time>2012-07-27T12:02:27Z</time>
      </trkpt>
      <trkpt lat="62.5389585" lon="14.2162436">
        <ele>621.6</ele>
        <time>2012-07-27T12:02:30Z</time>
      </trkpt>
      <trkpt lat="62.5386037" lon="14.215794">
        <ele>619.6</ele>
        <time>2012-07-27T12:02:33Z</time>
      </trkpt>
      <trkpt lat="62.5382692" lon="14.2153131">
        <ele>617.6</ele>
        <time>2012-07-27T12:02:36Z</time>
      </trkpt>
      <trkpt lat="62.5379458" lon="14.2148385">
        <ele>615.6</ele>
        <time>2012-07-27T12:02:39Z</time>
      </trkpt>
      <trkpt lat="62.537634" lon="14.2143683">
        <ele>613.6</ele>
        <time>2012-07-27T12:02:42Z</time>
      </trkpt>
      <trkpt lat="62.5373232" lon="14.2139196">
        <ele>612</ele>
        <time>2012-07-27T12:02:45Z</time>
      </trkpt>
      <trkpt lat="62.537014" lon="14.2134661">
        <ele>610</ele>
        <time>2012-07-27T12:02:48Z</time>
      </trkpt>
      <trkpt lat="62.5367005" lon="14.2130143">
        <ele>608.2</ele>
        <time>2012-07-27T12:02:51Z</time>
      </trkpt>
      <trkpt lat="62.5363789" lon="14.2125608">
        <ele>606.2</ele>
        <time>2012-07-27T12:02:54Z</time>
      </trkpt>
      <trkpt lat="62.5360435" lon="14.2121135">
        <ele>604</ele>
        <time>2012-07-27T12:02:57Z</time>
      </trkpt>
      <trkpt lat="62.535698" lon="14.2116861">
        <ele>601.4</ele>
        <time>2012-07-27T12:03:00Z</time>
      </trkpt>
      <trkpt lat="62.5353427" lon="14.2113018">
        <ele>598.4</ele>
        <time>2012-07-27T12:03:03Z</time>
      </trkpt>
      <trkpt lat="62.5349806" lon="14.2109334">
        <ele>595.4</ele>
        <time>2012-07-27T12:03:06Z</time>
      </trkpt>
      <trkpt lat="62.5346098" lon="14.2105776">
        <ele>592.4</ele>
        <time>2012-07-27T12:03:09Z</time>
      </trkpt>
      <trkpt lat="62.5342306" lon="14.2102489">
        <ele>589.4</ele>
        <time>2012-07-27T12:03:12Z</time>
      </trkpt>
      <trkpt lat="62.5338466" lon="14.2099502">
        <ele>586.4</ele>
        <time>2012-07-27T12:03:15Z</time>
      </trkpt>
      <trkpt lat="62.5334583" lon="14.2096636">
        <ele>583.6</ele>
        <time>2012-07-27T12:03:18Z</time>
      </trkpt>
      <trkpt lat="62.533073" lon="14.2093829">
        <ele>581.2</ele>
        <time>2012-07-27T12:03:21Z</time>
      </trkpt>
      <trkpt lat="62.5326992" lon="14.2091117">
        <ele>578.8</ele>
        <time>2012-07-27T12:03:24Z</time>
      </trkpt>
      <trkpt lat="62.532347" lon="14.208847">
        <ele>576.8</ele>
        <time>2012-07-27T12:03:27Z</time>
      </trkpt>
      <trkpt lat="62.5319101" lon="14.208506">
        <ele>574.6</ele>
        <time>2012-07-27T12:03:31Z</time>
      </trkpt>
      <trkpt lat="62.5315184" lon="14.2081163">
        <ele>573</ele>
        <time>2012-07-27T12:03:35Z</time>
      </trkpt>
      <trkpt lat="62.5311727" lon="14.2076441">
        <ele>571.6</ele>
        <time>2012-07-27T12:03:39Z</time>
      </trkpt>
      <trkpt lat="62.5308829" lon="14.2070488">
        <ele>570.2</ele>
        <time>2012-07-27T12:03:43Z</time>
      </trkpt>
      <trkpt lat="62.5306319" lon="14.2063681">
        <ele>568.8</ele>
        <time>2012-07-27T12:03:47Z</time>
      </trkpt>
      <trkpt lat="62.5304216" lon="14.20559">
        <ele>567</ele>
        <time>2012-07-27T12:03:51Z</time>
      </trkpt>
      <trkpt lat="62.5302777" lon="14.2046954">
        <ele>564</ele>
        <time>2012-07-27T12:03:55Z</time>
      </trkpt>
      <trkpt lat="62.5301832" lon="14.2037274">
        <ele>559.4</ele>
        <time>2012-07-27T12:03:59Z</time>
      </trkpt>
      <trkpt lat="62.5301653" lon="14.2031984">
        <ele>555.6</ele>
        <time>2012-07-27T12:04:02Z</time>
      </trkpt>
      <trkpt lat="62.5301737" lon="14.2026473">
        <ele>554</ele>
        <time>2012-07-27T12:04:03Z</time>
      </trkpt>
      <trkpt lat="62.530203" lon="14.2020888">
        <ele>551.6</ele>
        <time>2012-07-27T12:04:05Z</time>
      </trkpt>
      <trkpt lat="62.5302403" lon="14.2015384">
        <ele>548</ele>
        <time>2012-07-27T12:04:08Z</time>
      </trkpt>
      <trkpt lat="62.5303031" lon="14.2004185">
        <ele>545</ele>
        <time>2012-07-27T12:04:11Z</time>
      </trkpt>
      <trkpt lat="62.5303132" lon="14.1998697">
        <ele>542.2</ele>
        <time>2012-07-27T12:04:14Z</time>
      </trkpt>
      <trkpt lat="62.5302918" lon="14.199326">
        <ele>541</ele>
        <time>2012-07-27T12:04:15Z</time>
      </trkpt>
      <trkpt lat="62.5302466" lon="14.1987725">
        <ele>538.8</ele>
        <time>2012-07-27T12:04:17Z</time>
      </trkpt>
      <trkpt lat="62.5301756" lon="14.1982151">
        <ele>535.4</ele>
        <time>2012-07-27T12:04:20Z</time>
      </trkpt>
      <trkpt lat="62.5299631" lon="14.1971222">
        <ele>533.2</ele>
        <time>2012-07-27T12:04:23Z</time>
      </trkpt>
      <trkpt lat="62.5297365" lon="14.1963819">
        <ele>531.2</ele>
        <time>2012-07-27T12:04:26Z</time>
      </trkpt>
      <trkpt lat="62.5294756" lon="14.1957424">
        <ele>530.2</ele>
        <time>2012-07-27T12:04:29Z</time>
      </trkpt>
      <trkpt lat="62.5292819" lon="14.1954005">
        <ele>528.2</ele>
        <time>2012-07-27T12:04:32Z</time>
      </trkpt>
      <trkpt lat="62.528788" lon="14.1947294">
        <ele>526.2</ele>
        <time>2012-07-27T12:04:36Z</time>
      </trkpt>
      <trkpt lat="62.5283923" lon="14.1943909">
        <ele>526</ele>
        <time>2012-07-27T12:04:40Z</time>
      </trkpt>
      <trkpt lat="62.5280068" lon="14.1941405">
        <ele>525.4</ele>
        <time>2012-07-27T12:04:44Z</time>
      </trkpt>
      <trkpt lat="62.5276359" lon="14.193893">
        <ele>525</ele>
        <time>2012-07-27T12:04:48Z</time>
      </trkpt>
      <trkpt lat="62.5272505" lon="14.1936545">
        <ele>524.4</ele>
        <time>2012-07-27T12:04:52Z</time>
      </trkpt>
      <trkpt lat="62.5268707" lon="14.1934139">
        <ele>523.2</ele>
        <time>2012-07-27T12:04:56Z</time>
      </trkpt>
      <trkpt lat="62.5265004" lon="14.1931858">
        <ele>522</ele>
        <time>2012-07-27T12:05:00Z</time>
      </trkpt>
      <trkpt lat="62.5261355" lon="14.1929936">
        <ele>521.4</ele>
        <time>2012-07-27T12:05:04Z</time>
      </trkpt>
      <trkpt lat="62.5258523" lon="14.1929481">
        <ele>519.8</ele>
        <time>2012-07-27T12:05:08Z</time>
      </trkpt>
      <trkpt lat="62.5256597" lon="14.1930021">
        <ele>518.8</ele>
        <time>2012-07-27T12:05:09Z</time>
      </trkpt>
      <trkpt lat="62.5253711" lon="14.1931819">
        <ele>516.6</ele>
        <time>2012-07-27T12:05:12Z</time>
      </trkpt>
      <trkpt lat="62.524982" lon="14.1935438">
        <ele>513.6</ele>
        <time>2012-07-27T12:05:16Z</time>
      </trkpt>
      <trkpt lat="62.5246665" lon="14.1938096">
        <ele>510.2</ele>
        <time>2012-07-27T12:05:20Z</time>
      </trkpt>
      <trkpt lat="62.5241003" lon="14.1941885">
        <ele>506.4</ele>
        <time>2012-07-27T12:05:24Z</time>
      </trkpt>
      <trkpt lat="62.5237299" lon="14.1942813">
        <ele>503</ele>
        <time>2012-07-27T12:05:27Z</time>
      </trkpt>
      <trkpt lat="62.523345" lon="14.19428">
        <ele>499.6</ele>
        <time>2012-07-27T12:05:30Z</time>
      </trkpt>
      <trkpt lat="62.5229624" lon="14.1941275">
        <ele>496.6</ele>
        <time>2012-07-27T12:05:33Z</time>
      </trkpt>
      <trkpt lat="62.5225906" lon="14.1939101">
        <ele>494</ele>
        <time>2012-07-27T12:05:36Z</time>
      </trkpt>
      <trkpt lat="62.5222295" lon="14.1936961">
        <ele>492</ele>
        <time>2012-07-27T12:05:39Z</time>
      </trkpt>
      <trkpt lat="62.5218796" lon="14.1935081">
        <ele>490</ele>
        <time>2012-07-27T12:05:42Z</time>
      </trkpt>
      <trkpt lat="62.5214105" lon="14.1933403">
        <ele>487.4</ele>
        <time>2012-07-27T12:05:46Z</time>
      </trkpt>
      <trkpt lat="62.5210334" lon="14.1933064">
        <ele>485.4</ele>
        <time>2012-07-27T12:05:49Z</time>
      </trkpt>
      <trkpt lat="62.5206464" lon="14.1933242">
        <ele>483.2</ele>
        <time>2012-07-27T12:05:52Z</time>
      </trkpt>
      <trkpt lat="62.5202559" lon="14.1933983">
        <ele>481</ele>
        <time>2012-07-27T12:05:55Z</time>
      </trkpt>
      <trkpt lat="62.5198657" lon="14.1934729">
        <ele>479.4</ele>
        <time>2012-07-27T12:05:58Z</time>
      </trkpt>
      <trkpt lat="62.5194802" lon="14.1935516">
        <ele>478.2</ele>
        <time>2012-07-27T12:06:01Z</time>
      </trkpt>
      <trkpt lat="62.5191016" lon="14.1936239">
        <ele>477.2</ele>
        <time>2012-07-27T12:06:04Z</time>
      </trkpt>
      <trkpt lat="62.5187363" lon="14.1936988">
        <ele>476.2</ele>
        <time>2012-07-27T12:06:07Z</time>
      </trkpt>
      <trkpt lat="62.5182885" lon="14.1937908">
        <ele>474.4</ele>
        <time>2012-07-27T12:06:11Z</time>
      </trkpt>
      <trkpt lat="62.5178774" lon="14.1938784">
        <ele>472.4</ele>
        <time>2012-07-27T12:06:15Z</time>
      </trkpt>
      <trkpt lat="62.517502" lon="14.1939607">
        <ele>471.6</ele>
        <time>2012-07-27T12:06:19Z</time>
      </trkpt>
      <trkpt lat="62.5171185" lon="14.1940354">
        <ele>470.4</ele>
        <time>2012-07-27T12:06:23Z</time>
      </trkpt>
      <trkpt lat="62.5167322" lon="14.1941207">
        <ele>469</ele>
        <time>2012-07-27T12:06:27Z</time>
      </trkpt>
      <trkpt lat="62.5163317" lon="14.1942038">
        <ele>467.2</ele>
        <time>2012-07-27T12:06:31Z</time>
      </trkpt>
      <trkpt lat="62.5159319" lon="14.1942819">
        <ele>465.8</ele>
        <time>2012-07-27T12:06:35Z</time>
      </trkpt>
      <trkpt lat="62.5155368" lon="14.1943665">
        <ele>463.8</ele>
        <time>2012-07-27T12:06:39Z</time>
      </trkpt>
      <trkpt lat="62.5151485" lon="14.1944413">
        <ele>462.6</ele>
        <time>2012-07-27T12:06:43Z</time>
      </trkpt>
      <trkpt lat="62.5147628" lon="14.1945201">
        <ele>462</ele>
        <time>2012-07-27T12:06:47Z</time>
      </trkpt>
      <trkpt lat="62.5143706" lon="14.1945872">
        <ele>461.6</ele>
        <time>2012-07-27T12:06:51Z</time>
      </trkpt>
      <trkpt lat="62.5139758" lon="14.1946656">
        <ele>460.2</ele>
        <time>2012-07-27T12:06:55Z</time>
      </trkpt>
      <trkpt lat="62.5135874" lon="14.1947382">
        <ele>458.4</ele>
        <time>2012-07-27T12:06:59Z</time>
      </trkpt>
      <trkpt lat="62.513203" lon="14.1948214">
        <ele>456.8</ele>
        <time>2012-07-27T12:07:03Z</time>
      </trkpt>
      <trkpt lat="62.5128279" lon="14.1948882">
        <ele>455.4</ele>
        <time>2012-07-27T12:07:07Z</time>
      </trkpt>
      <trkpt lat="62.5124566" lon="14.1949596">
        <ele>454.2</ele>
        <time>2012-07-27T12:07:11Z</time>
      </trkpt>
      <trkpt lat="62.5120824" lon="14.1950386">
        <ele>452.6</ele>
        <time>2012-07-27T12:07:15Z</time>
      </trkpt>
      <trkpt lat="62.5117106" lon="14.1951177">
        <ele>451.6</ele>
        <time>2012-07-27T12:07:19Z</time>
      </trkpt>
      <trkpt lat="62.5113345" lon="14.1952009">
        <ele>450.6</ele>
        <time>2012-07-27T12:07:23Z</time>
      </trkpt>
      <trkpt lat="62.5109611" lon="14.1952745">
        <ele>449.8</ele>
        <time>2012-07-27T12:07:27Z</time>
      </trkpt>
      <trkpt lat="62.5105963" lon="14.1953622">
        <ele>449.2</ele>
        <time>2012-07-27T12:07:31Z</time>
      </trkpt>
      <trkpt lat="62.5101639" lon="14.1954899">
        <ele>448.8</ele>
        <time>2012-07-27T12:07:36Z</time>
      </trkpt>
      <trkpt lat="62.5097873" lon="14.195619">
        <ele>449</ele>
        <time>2012-07-27T12:07:41Z</time>
      </trkpt>
      <trkpt lat="62.5094255" lon="14.1957587">
        <ele>449.4</ele>
        <time>2012-07-27T12:07:46Z</time>
      </trkpt>
      <trkpt lat="62.5090129" lon="14.1959356">
        <ele>450.8</ele>
        <time>2012-07-27T12:07:52Z</time>
      </trkpt>
      <trkpt lat="62.5086405" lon="14.1961166">
        <ele>452.6</ele>
        <time>2012-07-27T12:07:58Z</time>
      </trkpt>
      <trkpt lat="62.5082514" lon="14.1963229">
        <ele>454.8</ele>
        <time>2012-07-27T12:08:05Z</time>
      </trkpt>
      <trkpt lat="62.5080094" lon="14.1964741">
        <ele>456.6</ele>
        <time>2012-07-27T12:08:10Z</time>
      </trkpt>
      <trkpt lat="62.5078749" lon="14.1965461">
        <ele>457.6</ele>
        <time>2012-07-27T12:08:13Z</time>
      </trkpt>
      <trkpt lat="62.5075248" lon="14.1967731">
        <ele>459.4</ele>
        <time>2012-07-27T12:08:21Z</time>
      </trkpt>
      <trkpt lat="62.5071781" lon="14.1970072">
        <ele>461.6</ele>
        <time>2012-07-27T12:08:29Z</time>
      </trkpt>
      <trkpt lat="62.5068502" lon="14.1972382">
        <ele>464.6</ele>
        <time>2012-07-27T12:08:37Z</time>
      </trkpt>
      <trkpt lat="62.5065067" lon="14.1975005">
        <ele>467.6</ele>
        <time>2012-07-27T12:08:46Z</time>
      </trkpt>
      <trkpt lat="62.506166" lon="14.1977945">
        <ele>469.4</ele>
        <time>2012-07-27T12:08:55Z</time>
      </trkpt>
      <trkpt lat="62.5058116" lon="14.1981075">
        <ele>470.4</ele>
        <time>2012-07-27T12:09:04Z</time>
      </trkpt>
      <trkpt lat="62.5054651" lon="14.1984359">
        <ele>471.8</ele>
        <time>2012-07-27T12:09:12Z</time>
      </trkpt>
      <trkpt lat="62.5050939" lon="14.1987992">
        <ele>471.4</ele>
        <time>2012-07-27T12:09:20Z</time>
      </trkpt>
      <trkpt lat="62.5047458" lon="14.1991485">
        <ele>472.2</ele>
        <time>2012-07-27T12:09:27Z</time>
      </trkpt>
      <trkpt lat="62.5043925" lon="14.1995423">
        <ele>473</ele>
        <time>2012-07-27T12:09:34Z</time>
      </trkpt>
      <trkpt lat="62.5040276" lon="14.1999604">
        <ele>472.8</ele>
        <time>2012-07-27T12:09:41Z</time>
      </trkpt>
      <trkpt lat="62.5037126" lon="14.200351">
        <ele>473</ele>
        <time>2012-07-27T12:09:47Z</time>
      </trkpt>
      <trkpt lat="62.5036567" lon="14.2004212">
        <ele>473</ele>
        <time>2012-07-27T12:09:48Z</time>
      </trkpt>
      <trkpt lat="62.5033666" lon="14.2007802">
        <ele>472.6</ele>
        <time>2012-07-27T12:09:53Z</time>
      </trkpt>
      <trkpt lat="62.5030167" lon="14.2012552">
        <ele>471.6</ele>
        <time>2012-07-27T12:09:59Z</time>
      </trkpt>
      <trkpt lat="62.502657" lon="14.2017593">
        <ele>470.8</ele>
        <time>2012-07-27T12:10:05Z</time>
      </trkpt>
      <trkpt lat="62.5023606" lon="14.2022007">
        <ele>470.8</ele>
        <time>2012-07-27T12:10:10Z</time>
      </trkpt>
      <trkpt lat="62.502067" lon="14.2026639">
        <ele>471.8</ele>
        <time>2012-07-27T12:10:15Z</time>
      </trkpt>
      <trkpt lat="62.5017671" lon="14.2031255">
        <ele>472</ele>
        <time>2012-07-27T12:10:20Z</time>
      </trkpt>
      <trkpt lat="62.5014734" lon="14.2035878">
        <ele>471.4</ele>
        <time>2012-07-27T12:10:25Z</time>
      </trkpt>
      <trkpt lat="62.50112" lon="14.2041346">
        <ele>470.8</ele>
        <time>2012-07-27T12:10:31Z</time>
      </trkpt>
      <trkpt lat="62.5008164" lon="14.2046096">
        <ele>470.6</ele>
        <time>2012-07-27T12:10:36Z</time>
      </trkpt>
      <trkpt lat="62.5005144" lon="14.2050833">
        <ele>470.8</ele>
        <time>2012-07-27T12:10:41Z</time>
      </trkpt>
      <trkpt lat="62.5002127" lon="14.2055475">
        <ele>470.8</ele>
        <time>2012-07-27T12:10:46Z</time>
      </trkpt>
      <trkpt lat="62.4999185" lon="14.2060077">
        <ele>470.8</ele>
        <time>2012-07-27T12:10:51Z</time>
      </trkpt>
      <trkpt lat="62.4995792" lon="14.2065442">
        <ele>470.8</ele>
        <time>2012-07-27T12:10:57Z</time>
      </trkpt>
      <trkpt lat="62.4992404" lon="14.2070581">
        <ele>470.6</ele>
        <time>2012-07-27T12:11:03Z</time>
      </trkpt>
      <trkpt lat="62.4988997" lon="14.2075934">
        <ele>470.2</ele>
        <time>2012-07-27T12:11:09Z</time>
      </trkpt>
      <trkpt lat="62.4985552" lon="14.2081268">
        <ele>470.2</ele>
        <time>2012-07-27T12:11:15Z</time>
      </trkpt>
      <trkpt lat="62.4982222" lon="14.2086512">
        <ele>470</ele>
        <time>2012-07-27T12:11:21Z</time>
      </trkpt>
      <trkpt lat="62.4978955" lon="14.2091534">
        <ele>470.2</ele>
        <time>2012-07-27T12:11:27Z</time>
      </trkpt>
      <trkpt lat="62.4975776" lon="14.2096674">
        <ele>470.2</ele>
        <time>2012-07-27T12:11:33Z</time>
      </trkpt>
      <trkpt lat="62.4972674" lon="14.2101479">
        <ele>470</ele>
        <time>2012-07-27T12:11:39Z</time>
      </trkpt>
      <trkpt lat="62.4969547" lon="14.2106315">
        <ele>470.2</ele>
        <time>2012-07-27T12:11:45Z</time>
      </trkpt>
      <trkpt lat="62.496648" lon="14.2111023">
        <ele>470.6</ele>
        <time>2012-07-27T12:11:51Z</time>
      </trkpt>
      <trkpt lat="62.4963549" lon="14.2115722">
        <ele>471</ele>
        <time>2012-07-27T12:11:57Z</time>
      </trkpt>
      <trkpt lat="62.4960521" lon="14.2120495">
        <ele>471.6</ele>
        <time>2012-07-27T12:12:03Z</time>
      </trkpt>
      <trkpt lat="62.4957522" lon="14.2125282">
        <ele>472.2</ele>
        <time>2012-07-27T12:12:09Z</time>
      </trkpt>
      <trkpt lat="62.4954234" lon="14.2130745">
        <ele>472.8</ele>
        <time>2012-07-27T12:12:16Z</time>
      </trkpt>
      <trkpt lat="62.4951038" lon="14.2136085">
        <ele>473.2</ele>
        <time>2012-07-27T12:12:23Z</time>
      </trkpt>
      <trkpt lat="62.4947959" lon="14.2141257">
        <ele>473.8</ele>
        <time>2012-07-27T12:12:30Z</time>
      </trkpt>
      <trkpt lat="62.4944654" lon="14.2146787">
        <ele>472.4</ele>
        <time>2012-07-27T12:12:37Z</time>
      </trkpt>
      <trkpt lat="62.4941694" lon="14.2151903">
        <ele>471.8</ele>
        <time>2012-07-27T12:12:43Z</time>
      </trkpt>
      <trkpt lat="62.4938666" lon="14.2157253">
        <ele>472</ele>
        <time>2012-07-27T12:12:49Z</time>
      </trkpt>
      <trkpt lat="62.4935497" lon="14.2162799">
        <ele>472</ele>
        <time>2012-07-27T12:12:55Z</time>
      </trkpt>
      <trkpt lat="62.4932229" lon="14.2168703">
        <ele>471.8</ele>
        <time>2012-07-27T12:13:01Z</time>
      </trkpt>
      <trkpt lat="62.4928857" lon="14.217478">
        <ele>471.4</ele>
        <time>2012-07-27T12:13:07Z</time>
      </trkpt>
      <trkpt lat="62.4926106" lon="14.2179929">
        <ele>471</ele>
        <time>2012-07-27T12:13:12Z</time>
      </trkpt>
      <trkpt lat="62.4922878" lon="14.2186006">
        <ele>470.6</ele>
        <time>2012-07-27T12:13:18Z</time>
      </trkpt>
      <trkpt lat="62.491975" lon="14.2192108">
        <ele>470.2</ele>
        <time>2012-07-27T12:13:24Z</time>
      </trkpt>
      <trkpt lat="62.4916581" lon="14.2198262">
        <ele>470</ele>
        <time>2012-07-27T12:13:30Z</time>
      </trkpt>
      <trkpt lat="62.4913442" lon="14.2204461">
        <ele>469.4</ele>
        <time>2012-07-27T12:13:36Z</time>
      </trkpt>
      <trkpt lat="62.4910332" lon="14.2210691">
        <ele>469.4</ele>
        <time>2012-07-27T12:13:42Z</time>
      </trkpt>
      <trkpt lat="62.4907681" lon="14.2215882">
        <ele>469.6</ele>
        <time>2012-07-27T12:13:47Z</time>
      </trkpt>
      <trkpt lat="62.4904964" lon="14.2221243">
        <ele>470</ele>
        <time>2012-07-27T12:13:52Z</time>
      </trkpt>
      <trkpt lat="62.4902299" lon="14.2226674">
        <ele>470</ele>
        <time>2012-07-27T12:13:57Z</time>
      </trkpt>
      <trkpt lat="62.4899211" lon="14.2232679">
        <ele>469.8</ele>
        <time>2012-07-27T12:14:03Z</time>
      </trkpt>
      <trkpt lat="62.4896143" lon="14.2238671">
        <ele>469.4</ele>
        <time>2012-07-27T12:14:09Z</time>
      </trkpt>
      <trkpt lat="62.4893181" lon="14.2244495">
        <ele>469.4</ele>
        <time>2012-07-27T12:14:15Z</time>
      </trkpt>
      <trkpt lat="62.4890242" lon="14.2250205">
        <ele>469.2</ele>
        <time>2012-07-27T12:14:21Z</time>
      </trkpt>
      <trkpt lat="62.488729" lon="14.2256143">
        <ele>469.8</ele>
        <time>2012-07-27T12:14:27Z</time>
      </trkpt>
      <trkpt lat="62.4884244" lon="14.2262107">
        <ele>470.4</ele>
        <time>2012-07-27T12:14:33Z</time>
      </trkpt>
      <trkpt lat="62.488105" lon="14.2267996">
        <ele>470.4</ele>
        <time>2012-07-27T12:14:39Z</time>
      </trkpt>
      <trkpt lat="62.487779" lon="14.2273487">
        <ele>469.6</ele>
        <time>2012-07-27T12:14:45Z</time>
      </trkpt>
      <trkpt lat="62.4874435" lon="14.227839">
        <ele>469.2</ele>
        <time>2012-07-27T12:14:51Z</time>
      </trkpt>
      <trkpt lat="62.4871068" lon="14.2283031">
        <ele>469.4</ele>
        <time>2012-07-27T12:14:57Z</time>
      </trkpt>
      <trkpt lat="62.4867581" lon="14.2287193">
        <ele>469.2</ele>
        <time>2012-07-27T12:15:03Z</time>
      </trkpt>
      <trkpt lat="62.486394" lon="14.229102">
        <ele>469.4</ele>
        <time>2012-07-27T12:15:09Z</time>
      </trkpt>
      <trkpt lat="62.4860085" lon="14.229462">
        <ele>469.6</ele>
        <time>2012-07-27T12:15:15Z</time>
      </trkpt>
      <trkpt lat="62.485617" lon="14.2297724">
        <ele>469.8</ele>
        <time>2012-07-27T12:15:21Z</time>
      </trkpt>
      <trkpt lat="62.4852236" lon="14.230048">
        <ele>470.2</ele>
        <time>2012-07-27T12:15:27Z</time>
      </trkpt>
      <trkpt lat="62.4848348" lon="14.2302571">
        <ele>471</ele>
        <time>2012-07-27T12:15:33Z</time>
      </trkpt>
      <trkpt lat="62.4844338" lon="14.2304251">
        <ele>471.6</ele>
        <time>2012-07-27T12:15:39Z</time>
      </trkpt>
      <trkpt lat="62.4840514" lon="14.230565">
        <ele>472.4</ele>
        <time>2012-07-27T12:15:45Z</time>
      </trkpt>
      <trkpt lat="62.4836858" lon="14.230642">
        <ele>473.4</ele>
        <time>2012-07-27T12:15:51Z</time>
      </trkpt>
      <trkpt lat="62.4832824" lon="14.2306922">
        <ele>474.8</ele>
        <time>2012-07-27T12:15:58Z</time>
      </trkpt>
      <trkpt lat="62.48289" lon="14.2306945">
        <ele>476</ele>
        <time>2012-07-27T12:16:05Z</time>
      </trkpt>
      <trkpt lat="62.4824971" lon="14.2306576">
        <ele>477</ele>
        <time>2012-07-27T12:16:12Z</time>
      </trkpt>
      <trkpt lat="62.4820749" lon="14.2305827">
        <ele>475.8</ele>
        <time>2012-07-27T12:16:19Z</time>
      </trkpt>
      <trkpt lat="62.4816655" lon="14.2304736">
        <ele>473.8</ele>
        <time>2012-07-27T12:16:26Z</time>
      </trkpt>
      <trkpt lat="62.4812645" lon="14.2303251">
        <ele>474.8</ele>
        <time>2012-07-27T12:16:33Z</time>
      </trkpt>
      <trkpt lat="62.4809044" lon="14.2301944">
        <ele>476</ele>
        <time>2012-07-27T12:16:39Z</time>
      </trkpt>
      <trkpt lat="62.4805401" lon="14.230059">
        <ele>477</ele>
        <time>2012-07-27T12:16:45Z</time>
      </trkpt>
      <trkpt lat="62.4801277" lon="14.2299138">
        <ele>478.2</ele>
        <time>2012-07-27T12:16:52Z</time>
      </trkpt>
      <trkpt lat="62.4797231" lon="14.2297831">
        <ele>479.4</ele>
        <time>2012-07-27T12:16:59Z</time>
      </trkpt>
      <trkpt lat="62.4793167" lon="14.2296237">
        <ele>481</ele>
        <time>2012-07-27T12:17:06Z</time>
      </trkpt>
      <trkpt lat="62.4789563" lon="14.2294735">
        <ele>482.6</ele>
        <time>2012-07-27T12:17:12Z</time>
      </trkpt>
      <trkpt lat="62.4785726" lon="14.2293352">
        <ele>480</ele>
        <time>2012-07-27T12:17:18Z</time>
      </trkpt>
      <trkpt lat="62.478208" lon="14.2291731">
        <ele>480.8</ele>
        <time>2012-07-27T12:17:24Z</time>
      </trkpt>
      <trkpt lat="62.4778483" lon="14.2289577">
        <ele>480.8</ele>
        <time>2012-07-27T12:17:30Z</time>
      </trkpt>
      <trkpt lat="62.4774972" lon="14.2286953">
        <ele>480</ele>
        <time>2012-07-27T12:17:36Z</time>
      </trkpt>
      <trkpt lat="62.4771501" lon="14.2284028">
        <ele>479.2</ele>
        <time>2012-07-27T12:17:42Z</time>
      </trkpt>
      <trkpt lat="62.4768212" lon="14.228077">
        <ele>479.4</ele>
        <time>2012-07-27T12:17:48Z</time>
      </trkpt>
      <trkpt lat="62.4764617" lon="14.2276577">
        <ele>479.8</ele>
        <time>2012-07-27T12:17:55Z</time>
      </trkpt>
      <trkpt lat="62.4761591" lon="14.227269">
        <ele>480.8</ele>
        <time>2012-07-27T12:18:01Z</time>
      </trkpt>
      <trkpt lat="62.475811" lon="14.2267823">
        <ele>482.4</ele>
        <time>2012-07-27T12:18:08Z</time>
      </trkpt>
      <trkpt lat="62.4754898" lon="14.2262509">
        <ele>484</ele>
        <time>2012-07-27T12:18:15Z</time>
      </trkpt>
      <trkpt lat="62.4752001" lon="14.2257131">
        <ele>486.4</ele>
        <time>2012-07-27T12:18:22Z</time>
      </trkpt>
      <trkpt lat="62.4749062" lon="14.2251039">
        <ele>489.4</ele>
        <time>2012-07-27T12:18:30Z</time>
      </trkpt>
      <trkpt lat="62.4748717" lon="14.2250248">
        <ele>489.6</ele>
        <time>2012-07-27T12:18:31Z</time>
      </trkpt>
      <trkpt lat="62.474744" lon="14.2247203">
        <ele>491.2</ele>
        <time>2012-07-27T12:18:35Z</time>
      </trkpt>
      <trkpt lat="62.4746474" lon="14.2245043">
        <ele>492.2</ele>
        <time>2012-07-27T12:18:38Z</time>
      </trkpt>
      <trkpt lat="62.4745517" lon="14.224308">
        <ele>492.6</ele>
        <time>2012-07-27T12:18:41Z</time>
      </trkpt>
      <trkpt lat="62.47443" lon="14.2240219">
        <ele>495</ele>
        <time>2012-07-27T12:18:45Z</time>
      </trkpt>
      <trkpt lat="62.4744065" lon="14.2239403">
        <ele>495.8</ele>
        <time>2012-07-27T12:18:46Z</time>
      </trkpt>
      <trkpt lat="62.4743838" lon="14.2238555">
        <ele>496.6</ele>
        <time>2012-07-27T12:18:47Z</time>
      </trkpt>
      <trkpt lat="62.4741658" lon="14.2232207">
        <ele>500.6</ele>
        <time>2012-07-27T12:18:55Z</time>
      </trkpt>
      <trkpt lat="62.4740713" lon="14.2228999">
        <ele>504</ele>
        <time>2012-07-27T12:18:59Z</time>
      </trkpt>
      <trkpt lat="62.4739626" lon="14.222483">
        <ele>508.2</ele>
        <time>2012-07-27T12:19:04Z</time>
      </trkpt>
      <trkpt lat="62.4737804" lon="14.2217988">
        <ele>514</ele>
        <time>2012-07-27T12:19:12Z</time>
      </trkpt>
      <trkpt lat="62.4736191" lon="14.2211983">
        <ele>514</ele>
        <time>2012-07-27T12:19:19Z</time>
      </trkpt>
      <trkpt lat="62.4736017" lon="14.2211049">
        <ele>514.4</ele>
        <time>2012-07-27T12:19:20Z</time>
      </trkpt>
      <trkpt lat="62.4734525" lon="14.220381">
        <ele>515.8</ele>
        <time>2012-07-27T12:19:29Z</time>
      </trkpt>
      <trkpt lat="62.4733006" lon="14.2196452">
        <ele>514.8</ele>
        <time>2012-07-27T12:19:40Z</time>
      </trkpt>
      <trkpt lat="62.4731412" lon="14.218932">
        <ele>511.8</ele>
        <time>2012-07-27T12:19:50Z</time>
      </trkpt>
      <trkpt lat="62.4729863" lon="14.2181208">
        <ele>512.4</ele>
        <time>2012-07-27T12:20:02Z</time>
      </trkpt>
      <trkpt lat="62.4728488" lon="14.2173667">
        <ele>513.4</ele>
        <time>2012-07-27T12:20:12Z</time>
      </trkpt>
      <trkpt lat="62.4727044" lon="14.2166181">
        <ele>518</ele>
        <time>2012-07-27T12:20:21Z</time>
      </trkpt>
      <trkpt lat="62.4725767" lon="14.2159033">
        <ele>523.8</ele>
        <time>2012-07-27T12:20:31Z</time>
      </trkpt>
      <trkpt lat="62.4724802" lon="14.2151592">
        <ele>528</ele>
        <time>2012-07-27T12:20:40Z</time>
      </trkpt>
      <trkpt lat="62.4724082" lon="14.2145632">
        <ele>531.4</ele>
        <time>2012-07-27T12:20:47Z</time>
      </trkpt>
      <trkpt lat="62.4723927" lon="14.2143909">
        <ele>532.2</ele>
        <time>2012-07-27T12:20:49Z</time>
      </trkpt>
      <trkpt lat="62.4723169" lon="14.2136245">
        <ele>532.2</ele>
        <time>2012-07-27T12:20:58Z</time>
      </trkpt>
      <trkpt lat="62.472255" lon="14.2128578">
        <ele>532.6</ele>
        <time>2012-07-27T12:21:08Z</time>
      </trkpt>
      <trkpt lat="62.4722409" lon="14.212058">
        <ele>535.2</ele>
        <time>2012-07-27T12:21:18Z</time>
      </trkpt>
      <trkpt lat="62.4722441" lon="14.2115352">
        <ele>537</ele>
        <time>2012-07-27T12:21:24Z</time>
      </trkpt>
      <trkpt lat="62.4722486" lon="14.2112036">
        <ele>538.8</ele>
        <time>2012-07-27T12:21:28Z</time>
      </trkpt>
      <trkpt lat="62.4722813" lon="14.2104175">
        <ele>542.4</ele>
        <time>2012-07-27T12:21:38Z</time>
      </trkpt>
      <trkpt lat="62.4723114" lon="14.2095857">
        <ele>543</ele>
        <time>2012-07-27T12:21:48Z</time>
      </trkpt>
      <trkpt lat="62.472405" lon="14.208808">
        <ele>551.2</ele>
        <time>2012-07-27T12:21:58Z</time>
      </trkpt>
      <trkpt lat="62.472513" lon="14.2080543">
        <ele>557.2</ele>
        <time>2012-07-27T12:22:08Z</time>
      </trkpt>
      <trkpt lat="62.4726175" lon="14.2072763">
        <ele>559</ele>
        <time>2012-07-27T12:22:17Z</time>
      </trkpt>
      <trkpt lat="62.472732" lon="14.2065462">
        <ele>561</ele>
        <time>2012-07-27T12:22:25Z</time>
      </trkpt>
      <trkpt lat="62.4728739" lon="14.2057813">
        <ele>562.6</ele>
        <time>2012-07-27T12:22:35Z</time>
      </trkpt>
      <trkpt lat="62.4730448" lon="14.2050401">
        <ele>562.4</ele>
        <time>2012-07-27T12:22:45Z</time>
      </trkpt>
      <trkpt lat="62.4732115" lon="14.2044503">
        <ele>562.8</ele>
        <time>2012-07-27T12:22:53Z</time>
      </trkpt>
      <trkpt lat="62.4732307" lon="14.2043726">
        <ele>562.8</ele>
        <time>2012-07-27T12:22:54Z</time>
      </trkpt>
      <trkpt lat="62.4734453" lon="14.2036488">
        <ele>563.4</ele>
        <time>2012-07-27T12:23:03Z</time>
      </trkpt>
      <trkpt lat="62.4736515" lon="14.2029851">
        <ele>564.2</ele>
        <time>2012-07-27T12:23:10Z</time>
      </trkpt>
      <trkpt lat="62.4738531" lon="14.2023382">
        <ele>565</ele>
        <time>2012-07-27T12:23:17Z</time>
      </trkpt>
      <trkpt lat="62.4740618" lon="14.2016548">
        <ele>566</ele>
        <time>2012-07-27T12:23:24Z</time>
      </trkpt>
      <trkpt lat="62.474283" lon="14.2009375">
        <ele>566.6</ele>
        <time>2012-07-27T12:23:32Z</time>
      </trkpt>
      <trkpt lat="62.474516" lon="14.2002436">
        <ele>566.4</ele>
        <time>2012-07-27T12:23:40Z</time>
      </trkpt>
      <trkpt lat="62.4747199" lon="14.1995924">
        <ele>568.2</ele>
        <time>2012-07-27T12:23:47Z</time>
      </trkpt>
      <trkpt lat="62.4749288" lon="14.198897">
        <ele>570.2</ele>
        <time>2012-07-27T12:23:55Z</time>
      </trkpt>
      <trkpt lat="62.4751164" lon="14.1982345">
        <ele>573.2</ele>
        <time>2012-07-27T12:24:05Z</time>
      </trkpt>
      <trkpt lat="62.4752708" lon="14.1976776">
        <ele>574</ele>
        <time>2012-07-27T12:24:12Z</time>
      </trkpt>
      <trkpt lat="62.4753121" lon="14.1975416">
        <ele>574.6</ele>
        <time>2012-07-27T12:24:14Z</time>
      </trkpt>
      <trkpt lat="62.4754811" lon="14.196846">
        <ele>576.8</ele>
        <time>2012-07-27T12:24:23Z</time>
      </trkpt>
      <trkpt lat="62.4756458" lon="14.1961371">
        <ele>580</ele>
        <time>2012-07-27T12:24:32Z</time>
      </trkpt>
      <trkpt lat="62.4758022" lon="14.1953924">
        <ele>582.6</ele>
        <time>2012-07-27T12:24:41Z</time>
      </trkpt>
      <trkpt lat="62.4759204" lon="14.1948128">
        <ele>584.6</ele>
        <time>2012-07-27T12:24:48Z</time>
      </trkpt>
      <trkpt lat="62.4759531" lon="14.1946513">
        <ele>585.2</ele>
        <time>2012-07-27T12:24:50Z</time>
      </trkpt>
      <trkpt lat="62.4760823" lon="14.1939182">
        <ele>587.8</ele>
        <time>2012-07-27T12:24:59Z</time>
      </trkpt>
      <trkpt lat="62.4761503" lon="14.1934512">
        <ele>590.4</ele>
        <time>2012-07-27T12:25:05Z</time>
      </trkpt>
      <trkpt lat="62.4761896" lon="14.1931802">
        <ele>591.8</ele>
        <time>2012-07-27T12:25:08Z</time>
      </trkpt>
      <trkpt lat="62.4762953" lon="14.1923494">
        <ele>596.2</ele>
        <time>2012-07-27T12:25:17Z</time>
      </trkpt>
      <trkpt lat="62.476386" lon="14.1915349">
        <ele>600</ele>
        <time>2012-07-27T12:25:26Z</time>
      </trkpt>
      <trkpt lat="62.4764305" lon="14.191076">
        <ele>602.6</ele>
        <time>2012-07-27T12:25:31Z</time>
      </trkpt>
      <trkpt lat="62.4764756" lon="14.1906887">
        <ele>603.8</ele>
        <time>2012-07-27T12:25:35Z</time>
      </trkpt>
      <trkpt lat="62.4765492" lon="14.1898538">
        <ele>603.8</ele>
        <time>2012-07-27T12:25:44Z</time>
      </trkpt>
      <trkpt lat="62.4766253" lon="14.1890278">
        <ele>604</ele>
        <time>2012-07-27T12:25:53Z</time>
      </trkpt>
      <trkpt lat="62.476663" lon="14.1882556">
        <ele>605.6</ele>
        <time>2012-07-27T12:26:01Z</time>
      </trkpt>
      <trkpt lat="62.4766972" lon="14.1873882">
        <ele>608.2</ele>
        <time>2012-07-27T12:26:09Z</time>
      </trkpt>
      <trkpt lat="62.4767067" lon="14.1865615">
        <ele>609.8</ele>
        <time>2012-07-27T12:26:16Z</time>
      </trkpt>
      <trkpt lat="62.4767059" lon="14.1857396">
        <ele>610</ele>
        <time>2012-07-27T12:26:23Z</time>
      </trkpt>
      <trkpt lat="62.476702" lon="14.1849076">
        <ele>611.2</ele>
        <time>2012-07-27T12:26:30Z</time>
      </trkpt>
      <trkpt lat="62.4766739" lon="14.1840834">
        <ele>613</ele>
        <time>2012-07-27T12:26:37Z</time>
      </trkpt>
      <trkpt lat="62.4766248" lon="14.1831808">
        <ele>612</ele>
        <time>2012-07-27T12:26:45Z</time>
      </trkpt>
      <trkpt lat="62.4765548" lon="14.182295">
        <ele>610.2</ele>
        <time>2012-07-27T12:26:52Z</time>
      </trkpt>
      <trkpt lat="62.4764715" lon="14.1814798">
        <ele>609</ele>
        <time>2012-07-27T12:26:58Z</time>
      </trkpt>
      <trkpt lat="62.4763682" lon="14.180638">
        <ele>607.2</ele>
        <time>2012-07-27T12:27:05Z</time>
      </trkpt>
      <trkpt lat="62.4762978" lon="14.1800626">
        <ele>606.4</ele>
        <time>2012-07-27T12:27:10Z</time>
      </trkpt>
      <trkpt lat="62.4762623" lon="14.1798454">
        <ele>606.2</ele>
        <time>2012-07-27T12:27:12Z</time>
      </trkpt>
      <trkpt lat="62.4761462" lon="14.1790446">
        <ele>607.6</ele>
        <time>2012-07-27T12:27:19Z</time>
      </trkpt>
      <trkpt lat="62.4760498" lon="14.1782019">
        <ele>614.4</ele>
        <time>2012-07-27T12:27:26Z</time>
      </trkpt>
      <trkpt lat="62.4759855" lon="14.1777362">
        <ele>617.2</ele>
        <time>2012-07-27T12:27:30Z</time>
      </trkpt>
      <trkpt lat="62.4759522" lon="14.1773822">
        <ele>619.4</ele>
        <time>2012-07-27T12:27:33Z</time>
      </trkpt>
      <trkpt lat="62.4759184" lon="14.1771608">
        <ele>620.4</ele>
        <time>2012-07-27T12:27:35Z</time>
      </trkpt>
      <trkpt lat="62.4758484" lon="14.1765622">
        <ele>623.2</ele>
        <time>2012-07-27T12:27:40Z</time>
      </trkpt>
      <trkpt lat="62.4757568" lon="14.1757028">
        <ele>627.2</ele>
        <time>2012-07-27T12:27:47Z</time>
      </trkpt>
      <trkpt lat="62.4756775" lon="14.1748741">
        <ele>630.6</ele>
        <time>2012-07-27T12:27:53Z</time>
      </trkpt>
      <trkpt lat="62.4756083" lon="14.1740365">
        <ele>633.6</ele>
        <time>2012-07-27T12:28:00Z</time>
      </trkpt>
      <trkpt lat="62.4755411" lon="14.1732327">
        <ele>636.4</ele>
        <time>2012-07-27T12:28:07Z</time>
      </trkpt>
      <trkpt lat="62.4754816" lon="14.1724101">
        <ele>639</ele>
        <time>2012-07-27T12:28:14Z</time>
      </trkpt>
      <trkpt lat="62.4754311" lon="14.1716181">
        <ele>639.8</ele>
        <time>2012-07-27T12:28:20Z</time>
      </trkpt>
      <trkpt lat="62.4753898" lon="14.1707514">
        <ele>640.4</ele>
        <time>2012-07-27T12:28:27Z</time>
      </trkpt>
      <trkpt lat="62.4753547" lon="14.169867">
        <ele>641.4</ele>
        <time>2012-07-27T12:28:34Z</time>
      </trkpt>
      <trkpt lat="62.4753282" lon="14.1689613">
        <ele>641</ele>
        <time>2012-07-27T12:28:41Z</time>
      </trkpt>
      <trkpt lat="62.4753159" lon="14.1681242">
        <ele>641.8</ele>
        <time>2012-07-27T12:28:47Z</time>
      </trkpt>
      <trkpt lat="62.4753143" lon="14.167305">
        <ele>641.8</ele>
        <time>2012-07-27T12:28:52Z</time>
      </trkpt>
      <trkpt lat="62.475327" lon="14.1664944">
        <ele>642</ele>
        <time>2012-07-27T12:28:57Z</time>
      </trkpt>
      <trkpt lat="62.4753343" lon="14.1656988">
        <ele>641.2</ele>
        <time>2012-07-27T12:29:02Z</time>
      </trkpt>
      <trkpt lat="62.4753493" lon="14.1647658">
        <ele>640.6</ele>
        <time>2012-07-27T12:29:08Z</time>
      </trkpt>
      <trkpt lat="62.4753662" lon="14.1639793">
        <ele>639.8</ele>
        <time>2012-07-27T12:29:13Z</time>
      </trkpt>
      <trkpt lat="62.4753724" lon="14.1630253">
        <ele>639</ele>
        <time>2012-07-27T12:29:19Z</time>
      </trkpt>
      <trkpt lat="62.4753833" lon="14.1622097">
        <ele>638.6</ele>
        <time>2012-07-27T12:29:24Z</time>
      </trkpt>
      <trkpt lat="62.4753946" lon="14.1614064">
        <ele>638.6</ele>
        <time>2012-07-27T12:29:29Z</time>
      </trkpt>
      <trkpt lat="62.4754095" lon="14.1605858">
        <ele>638</ele>
        <time>2012-07-27T12:29:34Z</time>
      </trkpt>
      <trkpt lat="62.4754282" lon="14.1597612">
        <ele>638.4</ele>
        <time>2012-07-27T12:29:39Z</time>
      </trkpt>
      <trkpt lat="62.4754573" lon="14.1589654">
        <ele>638.4</ele>
        <time>2012-07-27T12:29:44Z</time>
      </trkpt>
      <trkpt lat="62.4754801" lon="14.1580768">
        <ele>638.4</ele>
        <time>2012-07-27T12:29:50Z</time>
      </trkpt>
      <trkpt lat="62.4755006" lon="14.1571997">
        <ele>638</ele>
        <time>2012-07-27T12:29:56Z</time>
      </trkpt>
      <trkpt lat="62.4755364" lon="14.1563215">
        <ele>637.8</ele>
        <time>2012-07-27T12:30:02Z</time>
      </trkpt>
      <trkpt lat="62.4755763" lon="14.1554452">
        <ele>637.6</ele>
        <time>2012-07-27T12:30:08Z</time>
      </trkpt>
      <trkpt lat="62.4756194" lon="14.154594">
        <ele>637.4</ele>
        <time>2012-07-27T12:30:14Z</time>
      </trkpt>
      <trkpt lat="62.4756694" lon="14.1537258">
        <ele>638.4</ele>
        <time>2012-07-27T12:30:20Z</time>
      </trkpt>
      <trkpt lat="62.4757126" lon="14.1528674">
        <ele>639.2</ele>
        <time>2012-07-27T12:30:26Z</time>
      </trkpt>
      <trkpt lat="62.4757566" lon="14.1520599">
        <ele>639.8</ele>
        <time>2012-07-27T12:30:32Z</time>
      </trkpt>
      <trkpt lat="62.4758136" lon="14.1512046">
        <ele>640</ele>
        <time>2012-07-27T12:30:38Z</time>
      </trkpt>
      <trkpt lat="62.4758746" lon="14.1503844">
        <ele>640.2</ele>
        <time>2012-07-27T12:30:44Z</time>
      </trkpt>
      <trkpt lat="62.4759508" lon="14.1495762">
        <ele>639.8</ele>
        <time>2012-07-27T12:30:50Z</time>
      </trkpt>
      <trkpt lat="62.4760168" lon="14.1487867">
        <ele>640</ele>
        <time>2012-07-27T12:30:56Z</time>
      </trkpt>
      <trkpt lat="62.4760294" lon="14.1486547">
        <ele>640</ele>
        <time>2012-07-27T12:30:57Z</time>
      </trkpt>
      <trkpt lat="62.4760857" lon="14.1479885">
        <ele>640</ele>
        <time>2012-07-27T12:31:02Z</time>
      </trkpt>
      <trkpt lat="62.4761608" lon="14.1471932">
        <ele>640.4</ele>
        <time>2012-07-27T12:31:08Z</time>
      </trkpt>
      <trkpt lat="62.4762398" lon="14.1464163">
        <ele>641</ele>
        <time>2012-07-27T12:31:14Z</time>
      </trkpt>
      <trkpt lat="62.4763301" lon="14.1455552">
        <ele>642.6</ele>
        <time>2012-07-27T12:31:20Z</time>
      </trkpt>
      <trkpt lat="62.4764263" lon="14.1446622">
        <ele>643</ele>
        <time>2012-07-27T12:31:26Z</time>
      </trkpt>
      <trkpt lat="62.4765132" lon="14.1438795">
        <ele>643</ele>
        <time>2012-07-27T12:31:31Z</time>
      </trkpt>
      <trkpt lat="62.4766114" lon="14.1430989">
        <ele>643.2</ele>
        <time>2012-07-27T12:31:36Z</time>
      </trkpt>
      <trkpt lat="62.4767071" lon="14.142324">
        <ele>643.2</ele>
        <time>2012-07-27T12:31:41Z</time>
      </trkpt>
      <trkpt lat="62.476806" lon="14.1415428">
        <ele>643</ele>
        <time>2012-07-27T12:31:46Z</time>
      </trkpt>
      <trkpt lat="62.4769098" lon="14.1407681">
        <ele>642.4</ele>
        <time>2012-07-27T12:31:51Z</time>
      </trkpt>
      <trkpt lat="62.4770289" lon="14.1400092">
        <ele>642.2</ele>
        <time>2012-07-27T12:31:56Z</time>
      </trkpt>
      <trkpt lat="62.4771463" lon="14.1392207">
        <ele>642</ele>
        <time>2012-07-27T12:32:01Z</time>
      </trkpt>
      <trkpt lat="62.4772691" lon="14.138397">
        <ele>642</ele>
        <time>2012-07-27T12:32:06Z</time>
      </trkpt>
      <trkpt lat="62.4774014" lon="14.1375853">
        <ele>642</ele>
        <time>2012-07-27T12:32:11Z</time>
      </trkpt>
      <trkpt lat="62.4775282" lon="14.1367963">
        <ele>642.2</ele>
        <time>2012-07-27T12:32:16Z</time>
      </trkpt>
      <trkpt lat="62.477655" lon="14.1360296">
        <ele>642.8</ele>
        <time>2012-07-27T12:32:21Z</time>
      </trkpt>
      <trkpt lat="62.4777852" lon="14.1352618">
        <ele>643.2</ele>
        <time>2012-07-27T12:32:26Z</time>
      </trkpt>
      <trkpt lat="62.4779112" lon="14.1345056">
        <ele>643.6</ele>
        <time>2012-07-27T12:32:31Z</time>
      </trkpt>
      <trkpt lat="62.4780421" lon="14.1337727">
        <ele>644.2</ele>
        <time>2012-07-27T12:32:36Z</time>
      </trkpt>
      <trkpt lat="62.4781662" lon="14.1330338">
        <ele>645.4</ele>
        <time>2012-07-27T12:32:41Z</time>
      </trkpt>
      <trkpt lat="62.4783118" lon="14.132175">
        <ele>646.8</ele>
        <time>2012-07-27T12:32:47Z</time>
      </trkpt>
      <trkpt lat="62.4784425" lon="14.1313614">
        <ele>648.2</ele>
        <time>2012-07-27T12:32:53Z</time>
      </trkpt>
      <trkpt lat="62.4785651" lon="14.1305538">
        <ele>649</ele>
        <time>2012-07-27T12:32:59Z</time>
      </trkpt>
      <trkpt lat="62.4786632" lon="14.1297494">
        <ele>650</ele>
        <time>2012-07-27T12:33:05Z</time>
      </trkpt>
      <trkpt lat="62.4787372" lon="14.1289224">
        <ele>652</ele>
        <time>2012-07-27T12:33:11Z</time>
      </trkpt>
      <trkpt lat="62.4787744" lon="14.1280388">
        <ele>652.6</ele>
        <time>2012-07-27T12:33:17Z</time>
      </trkpt>
      <trkpt lat="62.4787998" lon="14.1276118">
        <ele>652.8</ele>
        <time>2012-07-27T12:33:20Z</time>
      </trkpt>
      <trkpt lat="62.4788072" lon="14.1271822">
        <ele>653</ele>
        <time>2012-07-27T12:33:23Z</time>
      </trkpt>
      <trkpt lat="62.478816" lon="14.1262962">
        <ele>653.8</ele>
        <time>2012-07-27T12:33:29Z</time>
      </trkpt>
      <trkpt lat="62.4787953" lon="14.125453">
        <ele>655</ele>
        <time>2012-07-27T12:33:35Z</time>
      </trkpt>
      <trkpt lat="62.4787414" lon="14.1246512">
        <ele>655.8</ele>
        <time>2012-07-27T12:33:41Z</time>
      </trkpt>
      <trkpt lat="62.4786765" lon="14.1238751">
        <ele>657</ele>
        <time>2012-07-27T12:33:47Z</time>
      </trkpt>
      <trkpt lat="62.4785917" lon="14.1230851">
        <ele>658.4</ele>
        <time>2012-07-27T12:33:53Z</time>
      </trkpt>
      <trkpt lat="62.4785084" lon="14.1223232">
        <ele>660</ele>
        <time>2012-07-27T12:33:59Z</time>
      </trkpt>
      <trkpt lat="62.4784112" lon="14.1214392">
        <ele>661.6</ele>
        <time>2012-07-27T12:34:06Z</time>
      </trkpt>
      <trkpt lat="62.4783361" lon="14.1205542">
        <ele>662.4</ele>
        <time>2012-07-27T12:34:13Z</time>
      </trkpt>
      <trkpt lat="62.4782914" lon="14.1197854">
        <ele>662.8</ele>
        <time>2012-07-27T12:34:19Z</time>
      </trkpt>
      <trkpt lat="62.4782799" lon="14.1189763">
        <ele>663.2</ele>
        <time>2012-07-27T12:34:26Z</time>
      </trkpt>
      <trkpt lat="62.4782883" lon="14.118132">
        <ele>664.4</ele>
        <time>2012-07-27T12:34:34Z</time>
      </trkpt>
      <trkpt lat="62.4783099" lon="14.1173653">
        <ele>666</ele>
        <time>2012-07-27T12:34:41Z</time>
      </trkpt>
      <trkpt lat="62.4783504" lon="14.1165394">
        <ele>667.8</ele>
        <time>2012-07-27T12:34:48Z</time>
      </trkpt>
      <trkpt lat="62.478419" lon="14.1157794">
        <ele>668.8</ele>
        <time>2012-07-27T12:34:55Z</time>
      </trkpt>
      <trkpt lat="62.4785082" lon="14.115009">
        <ele>670</ele>
        <time>2012-07-27T12:35:02Z</time>
      </trkpt>
      <trkpt lat="62.4785495" lon="14.1146322">
        <ele>670.6</ele>
        <time>2012-07-27T12:35:06Z</time>
      </trkpt>
      <trkpt lat="62.4786089" lon="14.114195">
        <ele>672.8</ele>
        <time>2012-07-27T12:35:11Z</time>
      </trkpt>
      <trkpt lat="62.478677" lon="14.1136972">
        <ele>673.2</ele>
        <time>2012-07-27T12:35:16Z</time>
      </trkpt>
      <trkpt lat="62.4787312" lon="14.1133995">
        <ele>673.2</ele>
        <time>2012-07-27T12:35:19Z</time>
      </trkpt>
      <trkpt lat="62.4788481" lon="14.1126214">
        <ele>675</ele>
        <time>2012-07-27T12:35:27Z</time>
      </trkpt>
      <trkpt lat="62.4789689" lon="14.111805">
        <ele>678.6</ele>
        <time>2012-07-27T12:35:35Z</time>
      </trkpt>
      <trkpt lat="62.4790833" lon="14.1110682">
        <ele>680.8</ele>
        <time>2012-07-27T12:35:42Z</time>
      </trkpt>
      <trkpt lat="62.4792046" lon="14.1103198">
        <ele>681.4</ele>
        <time>2012-07-27T12:35:50Z</time>
      </trkpt>
      <trkpt lat="62.4793318" lon="14.1095061">
        <ele>682</ele>
        <time>2012-07-27T12:35:58Z</time>
      </trkpt>
      <trkpt lat="62.4794532" lon="14.1087532">
        <ele>682.6</ele>
        <time>2012-07-27T12:36:05Z</time>
      </trkpt>
      <trkpt lat="62.4795721" lon="14.1079635">
        <ele>683.8</ele>
        <time>2012-07-27T12:36:13Z</time>
      </trkpt>
      <trkpt lat="62.4796645" lon="14.1073676">
        <ele>684.6</ele>
        <time>2012-07-27T12:36:19Z</time>
      </trkpt>
      <trkpt lat="62.479694" lon="14.1071598">
        <ele>684.8</ele>
        <time>2012-07-27T12:36:21Z</time>
      </trkpt>
      <trkpt lat="62.4798085" lon="14.1063758">
        <ele>685</ele>
        <time>2012-07-27T12:36:28Z</time>
      </trkpt>
      <trkpt lat="62.479929" lon="14.1056132">
        <ele>685.6</ele>
        <time>2012-07-27T12:36:35Z</time>
      </trkpt>
      <trkpt lat="62.4800327" lon="14.1048627">
        <ele>687.6</ele>
        <time>2012-07-27T12:36:42Z</time>
      </trkpt>
      <trkpt lat="62.480158" lon="14.1040207">
        <ele>690.8</ele>
        <time>2012-07-27T12:36:49Z</time>
      </trkpt>
      <trkpt lat="62.4802922" lon="14.1031888">
        <ele>691.2</ele>
        <time>2012-07-27T12:36:56Z</time>
      </trkpt>
      <trkpt lat="62.4804073" lon="14.1023952">
        <ele>692.6</ele>
        <time>2012-07-27T12:37:03Z</time>
      </trkpt>
      <trkpt lat="62.4805097" lon="14.1016012">
        <ele>693.6</ele>
        <time>2012-07-27T12:37:09Z</time>
      </trkpt>
      <trkpt lat="62.4806077" lon="14.1008453">
        <ele>693.6</ele>
        <time>2012-07-27T12:37:15Z</time>
      </trkpt>
      <trkpt lat="62.4807171" lon="14.0999639">
        <ele>693.6</ele>
        <time>2012-07-27T12:37:22Z</time>
      </trkpt>
      <trkpt lat="62.4807962" lon="14.0991868">
        <ele>693.6</ele>
        <time>2012-07-27T12:37:28Z</time>
      </trkpt>
      <trkpt lat="62.4808704" lon="14.0983891">
        <ele>693.6</ele>
        <time>2012-07-27T12:37:34Z</time>
      </trkpt>
      <trkpt lat="62.4809334" lon="14.0975923">
        <ele>693.8</ele>
        <time>2012-07-27T12:37:40Z</time>
      </trkpt>
      <trkpt lat="62.4809917" lon="14.0968189">
        <ele>694.2</ele>
        <time>2012-07-27T12:37:46Z</time>
      </trkpt>
      <trkpt lat="62.481045" lon="14.0959958">
        <ele>695.6</ele>
        <time>2012-07-27T12:37:52Z</time>
      </trkpt>
      <trkpt lat="62.4810899" lon="14.0952013">
        <ele>696.6</ele>
        <time>2012-07-27T12:37:57Z</time>
      </trkpt>
      <trkpt lat="62.4811267" lon="14.0943005">
        <ele>697.2</ele>
        <time>2012-07-27T12:38:03Z</time>
      </trkpt>
      <trkpt lat="62.4811605" lon="14.0934519">
        <ele>698.2</ele>
        <time>2012-07-27T12:38:09Z</time>
      </trkpt>
      <trkpt lat="62.4811728" lon="14.0925846">
        <ele>699</ele>
        <time>2012-07-27T12:38:15Z</time>
      </trkpt>
      <trkpt lat="62.4811754" lon="14.0917496">
        <ele>700.2</ele>
        <time>2012-07-27T12:38:21Z</time>
      </trkpt>
      <trkpt lat="62.4811616" lon="14.0908376">
        <ele>700</ele>
        <time>2012-07-27T12:38:27Z</time>
      </trkpt>
      <trkpt lat="62.4811543" lon="14.0899282">
        <ele>699.4</ele>
        <time>2012-07-27T12:38:33Z</time>
      </trkpt>
      <trkpt lat="62.481135" lon="14.0890277">
        <ele>699.4</ele>
        <time>2012-07-27T12:38:39Z</time>
      </trkpt>
      <trkpt lat="62.4811099" lon="14.088249">
        <ele>699.4</ele>
        <time>2012-07-27T12:38:44Z</time>
      </trkpt>
      <trkpt lat="62.4810752" lon="14.087445">
        <ele>699.4</ele>
        <time>2012-07-27T12:38:49Z</time>
      </trkpt>
      <trkpt lat="62.4810341" lon="14.086653">
        <ele>699</ele>
        <time>2012-07-27T12:38:54Z</time>
      </trkpt>
      <trkpt lat="62.4809837" lon="14.0858602">
        <ele>698.6</ele>
        <time>2012-07-27T12:38:59Z</time>
      </trkpt>
      <trkpt lat="62.4809215" lon="14.085034">
        <ele>697.8</ele>
        <time>2012-07-27T12:39:04Z</time>
      </trkpt>
      <trkpt lat="62.4808461" lon="14.0842023">
        <ele>696.8</ele>
        <time>2012-07-27T12:39:09Z</time>
      </trkpt>
      <trkpt lat="62.4807658" lon="14.0834003">
        <ele>696</ele>
        <time>2012-07-27T12:39:14Z</time>
      </trkpt>
      <trkpt lat="62.4806695" lon="14.0825092">
        <ele>695.6</ele>
        <time>2012-07-27T12:39:20Z</time>
      </trkpt>
      <trkpt lat="62.4805757" lon="14.0816148">
        <ele>695.4</ele>
        <time>2012-07-27T12:39:26Z</time>
      </trkpt>
      <trkpt lat="62.4804814" lon="14.0807208">
        <ele>695.4</ele>
        <time>2012-07-27T12:39:32Z</time>
      </trkpt>
      <trkpt lat="62.4803862" lon="14.0798225">
        <ele>695</ele>
        <time>2012-07-27T12:39:38Z</time>
      </trkpt>
      <trkpt lat="62.4802954" lon="14.0789355">
        <ele>694.6</ele>
        <time>2012-07-27T12:39:44Z</time>
      </trkpt>
      <trkpt lat="62.480209" lon="14.0780473">
        <ele>694.2</ele>
        <time>2012-07-27T12:39:50Z</time>
      </trkpt>
      <trkpt lat="62.4801386" lon="14.0772868">
        <ele>694</ele>
        <time>2012-07-27T12:39:55Z</time>
      </trkpt>
      <trkpt lat="62.4800738" lon="14.0765005">
        <ele>694</ele>
        <time>2012-07-27T12:40:00Z</time>
      </trkpt>
      <trkpt lat="62.4800132" lon="14.0756875">
        <ele>693.4</ele>
        <time>2012-07-27T12:40:05Z</time>
      </trkpt>
      <trkpt lat="62.4799552" lon="14.074846">
        <ele>692.8</ele>
        <time>2012-07-27T12:40:10Z</time>
      </trkpt>
      <trkpt lat="62.4798939" lon="14.0739767">
        <ele>691.4</ele>
        <time>2012-07-27T12:40:15Z</time>
      </trkpt>
      <trkpt lat="62.4798412" lon="14.0730826">
        <ele>689.6</ele>
        <time>2012-07-27T12:40:20Z</time>
      </trkpt>
      <trkpt lat="62.4797952" lon="14.0722253">
        <ele>688.2</ele>
        <time>2012-07-27T12:40:25Z</time>
      </trkpt>
      <trkpt lat="62.4797582" lon="14.0713779">
        <ele>686.2</ele>
        <time>2012-07-27T12:40:30Z</time>
      </trkpt>
      <trkpt lat="62.4797213" lon="14.0704774">
        <ele>684.4</ele>
        <time>2012-07-27T12:40:35Z</time>
      </trkpt>
      <trkpt lat="62.4796955" lon="14.0695297">
        <ele>682.4</ele>
        <time>2012-07-27T12:40:40Z</time>
      </trkpt>
      <trkpt lat="62.4796738" lon="14.0685937">
        <ele>681.8</ele>
        <time>2012-07-27T12:40:45Z</time>
      </trkpt>
      <trkpt lat="62.4796657" lon="14.0676783">
        <ele>681</ele>
        <time>2012-07-27T12:40:50Z</time>
      </trkpt>
      <trkpt lat="62.4796615" lon="14.0667406">
        <ele>680.4</ele>
        <time>2012-07-27T12:40:55Z</time>
      </trkpt>
      <trkpt lat="62.4796682" lon="14.0657917">
        <ele>679.6</ele>
        <time>2012-07-27T12:41:00Z</time>
      </trkpt>
      <trkpt lat="62.4796759" lon="14.0648604">
        <ele>679</ele>
        <time>2012-07-27T12:41:05Z</time>
      </trkpt>
      <trkpt lat="62.4796956" lon="14.0639985">
        <ele>679.8</ele>
        <time>2012-07-27T12:41:10Z</time>
      </trkpt>
      <trkpt lat="62.4797151" lon="14.0631769">
        <ele>680.2</ele>
        <time>2012-07-27T12:41:15Z</time>
      </trkpt>
      <trkpt lat="62.479742" lon="14.0623272">
        <ele>680</ele>
        <time>2012-07-27T12:41:20Z</time>
      </trkpt>
      <trkpt lat="62.4797576" lon="14.0618285">
        <ele>680</ele>
        <time>2012-07-27T12:41:23Z</time>
      </trkpt>
      <trkpt lat="62.4797767" lon="14.0614996">
        <ele>680.6</ele>
        <time>2012-07-27T12:41:25Z</time>
      </trkpt>
      <trkpt lat="62.4798213" lon="14.0606519">
        <ele>681.2</ele>
        <time>2012-07-27T12:41:30Z</time>
      </trkpt>
      <trkpt lat="62.4798675" lon="14.05975">
        <ele>682</ele>
        <time>2012-07-27T12:41:35Z</time>
      </trkpt>
      <trkpt lat="62.479921" lon="14.0588592">
        <ele>682.8</ele>
        <time>2012-07-27T12:41:40Z</time>
      </trkpt>
      <trkpt lat="62.4799775" lon="14.0579795">
        <ele>683.6</ele>
        <time>2012-07-27T12:41:45Z</time>
      </trkpt>
      <trkpt lat="62.4800281" lon="14.0571102">
        <ele>684.4</ele>
        <time>2012-07-27T12:41:50Z</time>
      </trkpt>
      <trkpt lat="62.480085" lon="14.0562772">
        <ele>685</ele>
        <time>2012-07-27T12:41:55Z</time>
      </trkpt>
      <trkpt lat="62.480125" lon="14.0555132">
        <ele>685.8</ele>
        <time>2012-07-27T12:42:00Z</time>
      </trkpt>
      <trkpt lat="62.4801782" lon="14.0546496">
        <ele>687.4</ele>
        <time>2012-07-27T12:42:06Z</time>
      </trkpt>
      <trkpt lat="62.4802239" lon="14.0538868">
        <ele>688.4</ele>
        <time>2012-07-27T12:42:11Z</time>
      </trkpt>
      <trkpt lat="62.4802737" lon="14.0530133">
        <ele>687.8</ele>
        <time>2012-07-27T12:42:17Z</time>
      </trkpt>
      <trkpt lat="62.4803242" lon="14.0521301">
        <ele>686.6</ele>
        <time>2012-07-27T12:42:23Z</time>
      </trkpt>
      <trkpt lat="62.4803628" lon="14.0512126">
        <ele>685.8</ele>
        <time>2012-07-27T12:42:29Z</time>
      </trkpt>
      <trkpt lat="62.4803902" lon="14.0502901">
        <ele>685.4</ele>
        <time>2012-07-27T12:42:35Z</time>
      </trkpt>
      <trkpt lat="62.4804016" lon="14.0493853">
        <ele>686.8</ele>
        <time>2012-07-27T12:42:41Z</time>
      </trkpt>
      <trkpt lat="62.4804155" lon="14.048554">
        <ele>689</ele>
        <time>2012-07-27T12:42:47Z</time>
      </trkpt>
      <trkpt lat="62.4804017" lon="14.0476835">
        <ele>689.8</ele>
        <time>2012-07-27T12:42:53Z</time>
      </trkpt>
      <trkpt lat="62.4803865" lon="14.0469012">
        <ele>690</ele>
        <time>2012-07-27T12:42:59Z</time>
      </trkpt>
      <trkpt lat="62.4803533" lon="14.0461182">
        <ele>689.2</ele>
        <time>2012-07-27T12:43:05Z</time>
      </trkpt>
      <trkpt lat="62.4803084" lon="14.0453763">
        <ele>689.4</ele>
        <time>2012-07-27T12:43:11Z</time>
      </trkpt>
      <trkpt lat="62.4803038" lon="14.0452522">
        <ele>689.4</ele>
        <time>2012-07-27T12:43:12Z</time>
      </trkpt>
      <trkpt lat="62.4802535" lon="14.0444102">
        <ele>690.2</ele>
        <time>2012-07-27T12:43:19Z</time>
      </trkpt>
      <trkpt lat="62.4801935" lon="14.0436051">
        <ele>691.2</ele>
        <time>2012-07-27T12:43:26Z</time>
      </trkpt>
      <trkpt lat="62.4801332" lon="14.0427946">
        <ele>692</ele>
        <time>2012-07-27T12:43:33Z</time>
      </trkpt>
      <trkpt lat="62.4800784" lon="14.0419409">
        <ele>692.8</ele>
        <time>2012-07-27T12:43:40Z</time>
      </trkpt>
      <trkpt lat="62.4800173" lon="14.0410495">
        <ele>693.6</ele>
        <time>2012-07-27T12:43:47Z</time>
      </trkpt>
      <trkpt lat="62.4799593" lon="14.0401771">
        <ele>694.4</ele>
        <time>2012-07-27T12:43:54Z</time>
      </trkpt>
      <trkpt lat="62.4799049" lon="14.0393777">
        <ele>695.2</ele>
        <time>2012-07-27T12:44:01Z</time>
      </trkpt>
      <trkpt lat="62.4798562" lon="14.0385921">
        <ele>696</ele>
        <time>2012-07-27T12:44:08Z</time>
      </trkpt>
      <trkpt lat="62.4798033" lon="14.0377637">
        <ele>696.4</ele>
        <time>2012-07-27T12:44:15Z</time>
      </trkpt>
      <trkpt lat="62.4797505" lon="14.0369902">
        <ele>697.4</ele>
        <time>2012-07-27T12:44:22Z</time>
      </trkpt>
      <trkpt lat="62.4796934" lon="14.0361245">
        <ele>699</ele>
        <time>2012-07-27T12:44:30Z</time>
      </trkpt>
      <trkpt lat="62.4796376" lon="14.0352835">
        <ele>700.2</ele>
        <time>2012-07-27T12:44:37Z</time>
      </trkpt>
      <trkpt lat="62.4795873" lon="14.0345121">
        <ele>701.6</ele>
        <time>2012-07-27T12:44:43Z</time>
      </trkpt>
      <trkpt lat="62.4795568" lon="14.0337581">
        <ele>701.4</ele>
        <time>2012-07-27T12:44:49Z</time>
      </trkpt>
      <trkpt lat="62.4795324" lon="14.0329119">
        <ele>702.2</ele>
        <time>2012-07-27T12:44:56Z</time>
      </trkpt>
      <trkpt lat="62.4795179" lon="14.0320574">
        <ele>702.8</ele>
        <time>2012-07-27T12:45:03Z</time>
      </trkpt>
      <trkpt lat="62.4795118" lon="14.0312095">
        <ele>703.2</ele>
        <time>2012-07-27T12:45:10Z</time>
      </trkpt>
      <trkpt lat="62.4795218" lon="14.0303769">
        <ele>704</ele>
        <time>2012-07-27T12:45:17Z</time>
      </trkpt>
      <trkpt lat="62.4795403" lon="14.029516">
        <ele>705.6</ele>
        <time>2012-07-27T12:45:24Z</time>
      </trkpt>
      <trkpt lat="62.4795604" lon="14.028679">
        <ele>706.6</ele>
        <time>2012-07-27T12:45:31Z</time>
      </trkpt>
      <trkpt lat="62.4796085" lon="14.0278189">
        <ele>709.2</ele>
        <time>2012-07-27T12:45:38Z</time>
      </trkpt>
      <trkpt lat="62.4796675" lon="14.027048">
        <ele>711.2</ele>
        <time>2012-07-27T12:45:45Z</time>
      </trkpt>
      <trkpt lat="62.4797361" lon="14.026193">
        <ele>712.4</ele>
        <time>2012-07-27T12:45:53Z</time>
      </trkpt>
      <trkpt lat="62.4798127" lon="14.0253499">
        <ele>714.8</ele>
        <time>2012-07-27T12:46:01Z</time>
      </trkpt>
      <trkpt lat="62.4798794" lon="14.0245187">
        <ele>717.2</ele>
        <time>2012-07-27T12:46:09Z</time>
      </trkpt>
      <trkpt lat="62.4799551" lon="14.02368">
        <ele>719.4</ele>
        <time>2012-07-27T12:46:17Z</time>
      </trkpt>
      <trkpt lat="62.4800109" lon="14.0228638">
        <ele>721.4</ele>
        <time>2012-07-27T12:46:25Z</time>
      </trkpt>
      <trkpt lat="62.4800784" lon="14.0220923">
        <ele>722.6</ele>
        <time>2012-07-27T12:46:32Z</time>
      </trkpt>
      <trkpt lat="62.4801531" lon="14.0212579">
        <ele>724.4</ele>
        <time>2012-07-27T12:46:40Z</time>
      </trkpt>
      <trkpt lat="62.4802224" lon="14.0204464">
        <ele>726.2</ele>
        <time>2012-07-27T12:46:48Z</time>
      </trkpt>
      <trkpt lat="62.480295" lon="14.0196022">
        <ele>727.8</ele>
        <time>2012-07-27T12:46:56Z</time>
      </trkpt>
      <trkpt lat="62.480325" lon="14.0192504">
        <ele>728.2</ele>
        <time>2012-07-27T12:47:00Z</time>
      </trkpt>
      <trkpt lat="62.4802494" lon="14.0189439">
        <ele>719.8</ele>
        <time>2012-07-27T12:51:34Z</time>
      </trkpt>
      <trkpt lat="62.4802458" lon="14.0191924">
        <ele>721.2</ele>
        <time>2012-07-27T12:51:36Z</time>
      </trkpt>
      <trkpt lat="62.480201" lon="14.0200146">
        <ele>722</ele>
        <time>2012-07-27T12:51:42Z</time>
      </trkpt>
      <trkpt lat="62.4801524" lon="14.0208212">
        <ele>722</ele>
        <time>2012-07-27T12:51:48Z</time>
      </trkpt>
      <trkpt lat="62.480094" lon="14.0216368">
        <ele>721</ele>
        <time>2012-07-27T12:51:53Z</time>
      </trkpt>
      <trkpt lat="62.4800266" lon="14.0225217">
        <ele>719.4</ele>
        <time>2012-07-27T12:51:58Z</time>
      </trkpt>
      <trkpt lat="62.4799535" lon="14.0233834">
        <ele>718.2</ele>
        <time>2012-07-27T12:52:03Z</time>
      </trkpt>
      <trkpt lat="62.4798734" lon="14.0243058">
        <ele>716.6</ele>
        <time>2012-07-27T12:52:08Z</time>
      </trkpt>
      <trkpt lat="62.4798018" lon="14.0250796">
        <ele>715.2</ele>
        <time>2012-07-27T12:52:12Z</time>
      </trkpt>
      <trkpt lat="62.4797412" lon="14.0258708">
        <ele>713.8</ele>
        <time>2012-07-27T12:52:16Z</time>
      </trkpt>
      <trkpt lat="62.4796573" lon="14.026818">
        <ele>711.8</ele>
        <time>2012-07-27T12:52:21Z</time>
      </trkpt>
      <trkpt lat="62.4795936" lon="14.0277878">
        <ele>709.8</ele>
        <time>2012-07-27T12:52:26Z</time>
      </trkpt>
      <trkpt lat="62.479549" lon="14.0286083">
        <ele>708.4</ele>
        <time>2012-07-27T12:52:30Z</time>
      </trkpt>
      <trkpt lat="62.479518" lon="14.0294414">
        <ele>707.2</ele>
        <time>2012-07-27T12:52:34Z</time>
      </trkpt>
      <trkpt lat="62.4794967" lon="14.0302371">
        <ele>705.6</ele>
        <time>2012-07-27T12:52:38Z</time>
      </trkpt>
      <trkpt lat="62.4794837" lon="14.0312027">
        <ele>703.4</ele>
        <time>2012-07-27T12:52:43Z</time>
      </trkpt>
      <trkpt lat="62.4794851" lon="14.0320113">
        <ele>701.6</ele>
        <time>2012-07-27T12:52:47Z</time>
      </trkpt>
      <trkpt lat="62.4794932" lon="14.0328575">
        <ele>700</ele>
        <time>2012-07-27T12:52:51Z</time>
      </trkpt>
      <trkpt lat="62.4795154" lon="14.0337257">
        <ele>698.8</ele>
        <time>2012-07-27T12:52:55Z</time>
      </trkpt>
      <trkpt lat="62.4795325" lon="14.0345954">
        <ele>697.4</ele>
        <time>2012-07-27T12:52:59Z</time>
      </trkpt>
      <trkpt lat="62.4795697" lon="14.0354739">
        <ele>694.6</ele>
        <time>2012-07-27T12:53:03Z</time>
      </trkpt>
      <trkpt lat="62.4796158" lon="14.0363599">
        <ele>690.6</ele>
        <time>2012-07-27T12:53:07Z</time>
      </trkpt>
      <trkpt lat="62.4796671" lon="14.0372267">
        <ele>688.2</ele>
        <time>2012-07-27T12:53:11Z</time>
      </trkpt>
      <trkpt lat="62.4797313" lon="14.0380723">
        <ele>687.8</ele>
        <time>2012-07-27T12:53:15Z</time>
      </trkpt>
      <trkpt lat="62.4797835" lon="14.0389064">
        <ele>686.8</ele>
        <time>2012-07-27T12:53:19Z</time>
      </trkpt>
      <trkpt lat="62.4798537" lon="14.0397988">
        <ele>688.6</ele>
        <time>2012-07-27T12:53:23Z</time>
      </trkpt>
      <trkpt lat="62.4799224" lon="14.0407007">
        <ele>687.8</ele>
        <time>2012-07-27T12:53:27Z</time>
      </trkpt>
      <trkpt lat="62.4799675" lon="14.0415763">
        <ele>685.6</ele>
        <time>2012-07-27T12:53:31Z</time>
      </trkpt>
      <trkpt lat="62.4800328" lon="14.0424847">
        <ele>685.4</ele>
        <time>2012-07-27T12:53:35Z</time>
      </trkpt>
      <trkpt lat="62.4801048" lon="14.0433945">
        <ele>685.8</ele>
        <time>2012-07-27T12:53:39Z</time>
      </trkpt>
      <trkpt lat="62.4801809" lon="14.0442607">
        <ele>685.2</ele>
        <time>2012-07-27T12:53:43Z</time>
      </trkpt>
      <trkpt lat="62.4802422" lon="14.0450973">
        <ele>684.4</ele>
        <time>2012-07-27T12:53:47Z</time>
      </trkpt>
      <trkpt lat="62.4802954" lon="14.0459845">
        <ele>683.8</ele>
        <time>2012-07-27T12:53:51Z</time>
      </trkpt>
      <trkpt lat="62.4803328" lon="14.0468942">
        <ele>683.2</ele>
        <time>2012-07-27T12:53:55Z</time>
      </trkpt>
      <trkpt lat="62.4803545" lon="14.0478033">
        <ele>682.6</ele>
        <time>2012-07-27T12:53:59Z</time>
      </trkpt>
      <trkpt lat="62.4803601" lon="14.0486849">
        <ele>682.6</ele>
        <time>2012-07-27T12:54:03Z</time>
      </trkpt>
      <trkpt lat="62.4803764" lon="14.0495763">
        <ele>682.4</ele>
        <time>2012-07-27T12:54:07Z</time>
      </trkpt>
      <trkpt lat="62.4803747" lon="14.0504156">
        <ele>682.2</ele>
        <time>2012-07-27T12:54:11Z</time>
      </trkpt>
      <trkpt lat="62.480356" lon="14.0512143">
        <ele>682.4</ele>
        <time>2012-07-27T12:54:15Z</time>
      </trkpt>
      <trkpt lat="62.480318" lon="14.052158">
        <ele>682.8</ele>
        <time>2012-07-27T12:54:20Z</time>
      </trkpt>
      <trkpt lat="62.4802741" lon="14.0530599">
        <ele>682.8</ele>
        <time>2012-07-27T12:54:25Z</time>
      </trkpt>
      <trkpt lat="62.4802181" lon="14.0539842">
        <ele>682.6</ele>
        <time>2012-07-27T12:54:30Z</time>
      </trkpt>
      <trkpt lat="62.4801525" lon="14.0548957">
        <ele>682.4</ele>
        <time>2012-07-27T12:54:35Z</time>
      </trkpt>
      <trkpt lat="62.4800862" lon="14.0557852">
        <ele>682.4</ele>
        <time>2012-07-27T12:54:40Z</time>
      </trkpt>
      <trkpt lat="62.4800234" lon="14.0566633">
        <ele>682.6</ele>
        <time>2012-07-27T12:54:45Z</time>
      </trkpt>
      <trkpt lat="62.479965" lon="14.0575415">
        <ele>682.2</ele>
        <time>2012-07-27T12:54:50Z</time>
      </trkpt>
      <trkpt lat="62.479909" lon="14.0584231">
        <ele>681.4</ele>
        <time>2012-07-27T12:54:55Z</time>
      </trkpt>
      <trkpt lat="62.479849" lon="14.0592756">
        <ele>680.2</ele>
        <time>2012-07-27T12:55:00Z</time>
      </trkpt>
      <trkpt lat="62.4797992" lon="14.0601298">
        <ele>679.4</ele>
        <time>2012-07-27T12:55:05Z</time>
      </trkpt>
      <trkpt lat="62.47975" lon="14.0610077">
        <ele>678.8</ele>
        <time>2012-07-27T12:55:10Z</time>
      </trkpt>
      <trkpt lat="62.479714" lon="14.0618678">
        <ele>677.8</ele>
        <time>2012-07-27T12:55:15Z</time>
      </trkpt>
      <trkpt lat="62.4796853" lon="14.0627057">
        <ele>676.6</ele>
        <time>2012-07-27T12:55:20Z</time>
      </trkpt>
      <trkpt lat="62.4796687" lon="14.0635485">
        <ele>676.4</ele>
        <time>2012-07-27T12:55:25Z</time>
      </trkpt>
      <trkpt lat="62.479656" lon="14.0643991">
        <ele>676</ele>
        <time>2012-07-27T12:55:30Z</time>
      </trkpt>
      <trkpt lat="62.4796389" lon="14.0652489">
        <ele>675.4</ele>
        <time>2012-07-27T12:55:35Z</time>
      </trkpt>
      <trkpt lat="62.4796341" lon="14.0660766">
        <ele>675.6</ele>
        <time>2012-07-27T12:55:40Z</time>
      </trkpt>
      <trkpt lat="62.4796334" lon="14.0668815">
        <ele>676.4</ele>
        <time>2012-07-27T12:55:45Z</time>
      </trkpt>
      <trkpt lat="62.4796277" lon="14.0676726">
        <ele>676.8</ele>
        <time>2012-07-27T12:55:50Z</time>
      </trkpt>
      <trkpt lat="62.4796245" lon="14.0685874">
        <ele>677.6</ele>
        <time>2012-07-27T12:55:56Z</time>
      </trkpt>
      <trkpt lat="62.4796432" lon="14.0694255">
        <ele>680</ele>
        <time>2012-07-27T12:56:02Z</time>
      </trkpt>
      <trkpt lat="62.4796914" lon="14.0702417">
        <ele>681.6</ele>
        <time>2012-07-27T12:56:08Z</time>
      </trkpt>
      <trkpt lat="62.4797169" lon="14.0711117">
        <ele>683</ele>
        <time>2012-07-27T12:56:14Z</time>
      </trkpt>
      <trkpt lat="62.4797413" lon="14.0719321">
        <ele>684</ele>
        <time>2012-07-27T12:56:20Z</time>
      </trkpt>
      <trkpt lat="62.4797838" lon="14.0728024">
        <ele>685</ele>
        <time>2012-07-27T12:56:27Z</time>
      </trkpt>
      <trkpt lat="62.4798292" lon="14.0736168">
        <ele>686.2</ele>
        <time>2012-07-27T12:56:34Z</time>
      </trkpt>
      <trkpt lat="62.479877" lon="14.0744444">
        <ele>687.6</ele>
        <time>2012-07-27T12:56:41Z</time>
      </trkpt>
      <trkpt lat="62.4799254" lon="14.0752199">
        <ele>687.6</ele>
        <time>2012-07-27T12:56:47Z</time>
      </trkpt>
      <trkpt lat="62.4799853" lon="14.0760778">
        <ele>687.8</ele>
        <time>2012-07-27T12:56:54Z</time>
      </trkpt>
      <trkpt lat="62.4800635" lon="14.0769456">
        <ele>688.2</ele>
        <time>2012-07-27T12:57:01Z</time>
      </trkpt>
      <trkpt lat="62.4801381" lon="14.0778043">
        <ele>688.4</ele>
        <time>2012-07-27T12:57:08Z</time>
      </trkpt>
      <trkpt lat="62.4802099" lon="14.0785414">
        <ele>688.8</ele>
        <time>2012-07-27T12:57:15Z</time>
      </trkpt>
      <trkpt lat="62.4802924" lon="14.0794046">
        <ele>689.6</ele>
        <time>2012-07-27T12:57:21Z</time>
      </trkpt>
      <trkpt lat="62.4803755" lon="14.0801736">
        <ele>689</ele>
        <time>2012-07-27T12:57:26Z</time>
      </trkpt>
      <trkpt lat="62.4804548" lon="14.080974">
        <ele>688.2</ele>
        <time>2012-07-27T12:57:31Z</time>
      </trkpt>
      <trkpt lat="62.4805429" lon="14.0817757">
        <ele>687.6</ele>
        <time>2012-07-27T12:57:36Z</time>
      </trkpt>
      <trkpt lat="62.4806266" lon="14.0825887">
        <ele>687</ele>
        <time>2012-07-27T12:57:41Z</time>
      </trkpt>
      <trkpt lat="62.4807093" lon="14.0834191">
        <ele>686.4</ele>
        <time>2012-07-27T12:57:46Z</time>
      </trkpt>
      <trkpt lat="62.480789" lon="14.084235">
        <ele>686.6</ele>
        <time>2012-07-27T12:57:51Z</time>
      </trkpt>
      <trkpt lat="62.4808611" lon="14.0850706">
        <ele>686.8</ele>
        <time>2012-07-27T12:57:56Z</time>
      </trkpt>
      <trkpt lat="62.4809251" lon="14.0859568">
        <ele>686.8</ele>
        <time>2012-07-27T12:58:01Z</time>
      </trkpt>
      <trkpt lat="62.4809792" lon="14.0868225">
        <ele>687.2</ele>
        <time>2012-07-27T12:58:06Z</time>
      </trkpt>
      <trkpt lat="62.4810248" lon="14.087673">
        <ele>687.8</ele>
        <time>2012-07-27T12:58:11Z</time>
      </trkpt>
      <trkpt lat="62.4810668" lon="14.0885571">
        <ele>689.4</ele>
        <time>2012-07-27T12:58:16Z</time>
      </trkpt>
      <trkpt lat="62.4811025" lon="14.0894212">
        <ele>691</ele>
        <time>2012-07-27T12:58:21Z</time>
      </trkpt>
      <trkpt lat="62.4811213" lon="14.090278">
        <ele>691.8</ele>
        <time>2012-07-27T12:58:26Z</time>
      </trkpt>
      <trkpt lat="62.4811247" lon="14.0911285">
        <ele>692.2</ele>
        <time>2012-07-27T12:58:31Z</time>
      </trkpt>
      <trkpt lat="62.4811277" lon="14.0919776">
        <ele>692.8</ele>
        <time>2012-07-27T12:58:36Z</time>
      </trkpt>
      <trkpt lat="62.4811148" lon="14.0928285">
        <ele>692.8</ele>
        <time>2012-07-27T12:58:41Z</time>
      </trkpt>
      <trkpt lat="62.4811087" lon="14.093684">
        <ele>693.2</ele>
        <time>2012-07-27T12:58:46Z</time>
      </trkpt>
      <trkpt lat="62.4810849" lon="14.0945407">
        <ele>693.6</ele>
        <time>2012-07-27T12:58:51Z</time>
      </trkpt>
      <trkpt lat="62.4810456" lon="14.0954062">
        <ele>694</ele>
        <time>2012-07-27T12:58:56Z</time>
      </trkpt>
      <trkpt lat="62.4809887" lon="14.0962718">
        <ele>693.4</ele>
        <time>2012-07-27T12:59:01Z</time>
      </trkpt>
      <trkpt lat="62.480928" lon="14.0971405">
        <ele>692.6</ele>
        <time>2012-07-27T12:59:06Z</time>
      </trkpt>
      <trkpt lat="62.4808596" lon="14.0980283">
        <ele>692</ele>
        <time>2012-07-27T12:59:11Z</time>
      </trkpt>
      <trkpt lat="62.4807823" lon="14.0989089">
        <ele>691</ele>
        <time>2012-07-27T12:59:16Z</time>
      </trkpt>
      <trkpt lat="62.4806977" lon="14.0997918">
        <ele>690.2</ele>
        <time>2012-07-27T12:59:21Z</time>
      </trkpt>
      <trkpt lat="62.4805998" lon="14.1006967">
        <ele>689.4</ele>
        <time>2012-07-27T12:59:26Z</time>
      </trkpt>
      <trkpt lat="62.4804999" lon="14.1016204">
        <ele>688.6</ele>
        <time>2012-07-27T12:59:31Z</time>
      </trkpt>
      <trkpt lat="62.480412" lon="14.1023725">
        <ele>687.6</ele>
        <time>2012-07-27T12:59:35Z</time>
      </trkpt>
      <trkpt lat="62.4803088" lon="14.1031381">
        <ele>686.2</ele>
        <time>2012-07-27T12:59:39Z</time>
      </trkpt>
      <trkpt lat="62.4801996" lon="14.1039004">
        <ele>684.4</ele>
        <time>2012-07-27T12:59:43Z</time>
      </trkpt>
      <trkpt lat="62.48007" lon="14.1047901">
        <ele>682</ele>
        <time>2012-07-27T12:59:48Z</time>
      </trkpt>
      <trkpt lat="62.4799402" lon="14.1056801">
        <ele>679.6</ele>
        <time>2012-07-27T12:59:53Z</time>
      </trkpt>
      <trkpt lat="62.4798278" lon="14.1064135">
        <ele>678.2</ele>
        <time>2012-07-27T12:59:57Z</time>
      </trkpt>
      <trkpt lat="62.4797167" lon="14.1071569">
        <ele>676.6</ele>
        <time>2012-07-27T13:00:01Z</time>
      </trkpt>
      <trkpt lat="62.4795996" lon="14.1079264">
        <ele>675.2</ele>
        <time>2012-07-27T13:00:05Z</time>
      </trkpt>
      <trkpt lat="62.47948" lon="14.1087156">
        <ele>674</ele>
        <time>2012-07-27T13:00:09Z</time>
      </trkpt>
      <trkpt lat="62.4793568" lon="14.1095348">
        <ele>672.8</ele>
        <time>2012-07-27T13:00:13Z</time>
      </trkpt>
      <trkpt lat="62.4792245" lon="14.1103924">
        <ele>671.6</ele>
        <time>2012-07-27T13:00:17Z</time>
      </trkpt>
      <trkpt lat="62.4790888" lon="14.111256">
        <ele>670.2</ele>
        <time>2012-07-27T13:00:21Z</time>
      </trkpt>
      <trkpt lat="62.4789629" lon="14.1121101">
        <ele>668.8</ele>
        <time>2012-07-27T13:00:25Z</time>
      </trkpt>
      <trkpt lat="62.4788315" lon="14.1129402">
        <ele>667.2</ele>
        <time>2012-07-27T13:00:29Z</time>
      </trkpt>
      <trkpt lat="62.4786998" lon="14.1137869">
        <ele>665.6</ele>
        <time>2012-07-27T13:00:33Z</time>
      </trkpt>
      <trkpt lat="62.4785684" lon="14.1146635">
        <ele>664.2</ele>
        <time>2012-07-27T13:00:37Z</time>
      </trkpt>
      <trkpt lat="62.478455" lon="14.115575">
        <ele>662.8</ele>
        <time>2012-07-27T13:00:41Z</time>
      </trkpt>
      <trkpt lat="62.4783651" lon="14.1164826">
        <ele>661.2</ele>
        <time>2012-07-27T13:00:45Z</time>
      </trkpt>
      <trkpt lat="62.4783089" lon="14.1173763">
        <ele>660.2</ele>
        <time>2012-07-27T13:00:49Z</time>
      </trkpt>
      <trkpt lat="62.4782862" lon="14.1182712">
        <ele>659.2</ele>
        <time>2012-07-27T13:00:53Z</time>
      </trkpt>
      <trkpt lat="62.4782869" lon="14.1191978">
        <ele>658.2</ele>
        <time>2012-07-27T13:00:57Z</time>
      </trkpt>
      <trkpt lat="62.4783131" lon="14.1201294">
        <ele>656.6</ele>
        <time>2012-07-27T13:01:01Z</time>
      </trkpt>
      <trkpt lat="62.4783498" lon="14.1210095">
        <ele>655</ele>
        <time>2012-07-27T13:01:05Z</time>
      </trkpt>
      <trkpt lat="62.4784209" lon="14.1218544">
        <ele>653</ele>
        <time>2012-07-27T13:01:09Z</time>
      </trkpt>
      <trkpt lat="62.4785151" lon="14.1226789">
        <ele>651.2</ele>
        <time>2012-07-27T13:01:13Z</time>
      </trkpt>
      <trkpt lat="62.4786148" lon="14.1235121">
        <ele>649.6</ele>
        <time>2012-07-27T13:01:17Z</time>
      </trkpt>
      <trkpt lat="62.4786979" lon="14.1243544">
        <ele>648</ele>
        <time>2012-07-27T13:01:21Z</time>
      </trkpt>
      <trkpt lat="62.4787554" lon="14.1251961">
        <ele>647.2</ele>
        <time>2012-07-27T13:01:25Z</time>
      </trkpt>
      <trkpt lat="62.47877" lon="14.1259991">
        <ele>644.2</ele>
        <time>2012-07-27T13:01:29Z</time>
      </trkpt>
      <trkpt lat="62.4787839" lon="14.1268217">
        <ele>645.6</ele>
        <time>2012-07-27T13:01:33Z</time>
      </trkpt>
      <trkpt lat="62.4787791" lon="14.1276324">
        <ele>645.4</ele>
        <time>2012-07-27T13:01:37Z</time>
      </trkpt>
      <trkpt lat="62.4787564" lon="14.1284755">
        <ele>646.8</ele>
        <time>2012-07-27T13:01:41Z</time>
      </trkpt>
      <trkpt lat="62.478706" lon="14.1292909">
        <ele>647.8</ele>
        <time>2012-07-27T13:01:45Z</time>
      </trkpt>
      <trkpt lat="62.4786283" lon="14.1300734">
        <ele>647.8</ele>
        <time>2012-07-27T13:01:49Z</time>
      </trkpt>
      <trkpt lat="62.4785341" lon="14.1308396">
        <ele>647.2</ele>
        <time>2012-07-27T13:01:53Z</time>
      </trkpt>
      <trkpt lat="62.4784125" lon="14.1315727">
        <ele>645.2</ele>
        <time>2012-07-27T13:01:57Z</time>
      </trkpt>
      <trkpt lat="62.4782665" lon="14.132458">
        <ele>643.6</ele>
        <time>2012-07-27T13:02:02Z</time>
      </trkpt>
      <trkpt lat="62.4781201" lon="14.133312">
        <ele>642.4</ele>
        <time>2012-07-27T13:02:07Z</time>
      </trkpt>
      <trkpt lat="62.4779706" lon="14.1341527">
        <ele>641.2</ele>
        <time>2012-07-27T13:02:12Z</time>
      </trkpt>
      <trkpt lat="62.4778254" lon="14.1349973">
        <ele>640.6</ele>
        <time>2012-07-27T13:02:17Z</time>
      </trkpt>
      <trkpt lat="62.4776856" lon="14.135825">
        <ele>640.2</ele>
        <time>2012-07-27T13:02:22Z</time>
      </trkpt>
      <trkpt lat="62.4775547" lon="14.1366209">
        <ele>640</ele>
        <time>2012-07-27T13:02:27Z</time>
      </trkpt>
      <trkpt lat="62.4774168" lon="14.1374454">
        <ele>639.6</ele>
        <time>2012-07-27T13:02:32Z</time>
      </trkpt>
      <trkpt lat="62.477276" lon="14.1383172">
        <ele>639.6</ele>
        <time>2012-07-27T13:02:37Z</time>
      </trkpt>
      <trkpt lat="62.4771514" lon="14.1391229">
        <ele>639.4</ele>
        <time>2012-07-27T13:02:42Z</time>
      </trkpt>
      <trkpt lat="62.4770349" lon="14.1399004">
        <ele>639.2</ele>
        <time>2012-07-27T13:02:47Z</time>
      </trkpt>
      <trkpt lat="62.4769209" lon="14.1406867">
        <ele>639.2</ele>
        <time>2012-07-27T13:02:52Z</time>
      </trkpt>
      <trkpt lat="62.4768051" lon="14.1414709">
        <ele>639</ele>
        <time>2012-07-27T13:02:57Z</time>
      </trkpt>
      <trkpt lat="62.4767034" lon="14.1422549">
        <ele>638.8</ele>
        <time>2012-07-27T13:03:02Z</time>
      </trkpt>
      <trkpt lat="62.476599" lon="14.1431161">
        <ele>640</ele>
        <time>2012-07-27T13:03:07Z</time>
      </trkpt>
      <trkpt lat="62.4764922" lon="14.1440059">
        <ele>640.2</ele>
        <time>2012-07-27T13:03:12Z</time>
      </trkpt>
      <trkpt lat="62.4763858" lon="14.1448963">
        <ele>640.6</ele>
        <time>2012-07-27T13:03:17Z</time>
      </trkpt>
      <trkpt lat="62.4762845" lon="14.145774">
        <ele>640.8</ele>
        <time>2012-07-27T13:03:22Z</time>
      </trkpt>
      <trkpt lat="62.4761881" lon="14.1466392">
        <ele>640.8</ele>
        <time>2012-07-27T13:03:27Z</time>
      </trkpt>
      <trkpt lat="62.4761083" lon="14.1475128">
        <ele>641.4</ele>
        <time>2012-07-27T13:03:32Z</time>
      </trkpt>
      <trkpt lat="62.4760281" lon="14.1483998">
        <ele>641.8</ele>
        <time>2012-07-27T13:03:37Z</time>
      </trkpt>
      <trkpt lat="62.4759529" lon="14.1492955">
        <ele>642.2</ele>
        <time>2012-07-27T13:03:42Z</time>
      </trkpt>
      <trkpt lat="62.4758818" lon="14.1501988">
        <ele>643</ele>
        <time>2012-07-27T13:03:47Z</time>
      </trkpt>
      <trkpt lat="62.4758178" lon="14.1511047">
        <ele>643.6</ele>
        <time>2012-07-27T13:03:52Z</time>
      </trkpt>
      <trkpt lat="62.4757509" lon="14.1520199">
        <ele>642.8</ele>
        <time>2012-07-27T13:03:57Z</time>
      </trkpt>
      <trkpt lat="62.4756909" lon="14.1529645">
        <ele>642.6</ele>
        <time>2012-07-27T13:04:02Z</time>
      </trkpt>
      <trkpt lat="62.4756348" lon="14.153921">
        <ele>642.4</ele>
        <time>2012-07-27T13:04:07Z</time>
      </trkpt>
      <trkpt lat="62.4755888" lon="14.1547137">
        <ele>642</ele>
        <time>2012-07-27T13:04:11Z</time>
      </trkpt>
      <trkpt lat="62.4755466" lon="14.1555148">
        <ele>642.8</ele>
        <time>2012-07-27T13:04:15Z</time>
      </trkpt>
      <trkpt lat="62.4755153" lon="14.156313">
        <ele>644</ele>
        <time>2012-07-27T13:04:19Z</time>
      </trkpt>
      <trkpt lat="62.4754882" lon="14.1570897">
        <ele>644.8</ele>
        <time>2012-07-27T13:04:23Z</time>
      </trkpt>
      <trkpt lat="62.4754527" lon="14.1580466">
        <ele>644.4</ele>
        <time>2012-07-27T13:04:28Z</time>
      </trkpt>
      <trkpt lat="62.4754219" lon="14.158987">
        <ele>643.4</ele>
        <time>2012-07-27T13:04:33Z</time>
      </trkpt>
      <trkpt lat="62.4753971" lon="14.1599032">
        <ele>643</ele>
        <time>2012-07-27T13:04:38Z</time>
      </trkpt>
      <trkpt lat="62.4753759" lon="14.1608227">
        <ele>642.8</ele>
        <time>2012-07-27T13:04:43Z</time>
      </trkpt>
      <trkpt lat="62.4753578" lon="14.161766">
        <ele>642.8</ele>
        <time>2012-07-27T13:04:48Z</time>
      </trkpt>
      <trkpt lat="62.4753365" lon="14.1626954">
        <ele>642</ele>
        <time>2012-07-27T13:04:53Z</time>
      </trkpt>
      <trkpt lat="62.4753199" lon="14.1636285">
        <ele>641.8</ele>
        <time>2012-07-27T13:04:58Z</time>
      </trkpt>
      <trkpt lat="62.4753023" lon="14.1645518">
        <ele>641</ele>
        <time>2012-07-27T13:05:03Z</time>
      </trkpt>
      <trkpt lat="62.4752848" lon="14.1654393">
        <ele>640</ele>
        <time>2012-07-27T13:05:08Z</time>
      </trkpt>
      <trkpt lat="62.4752635" lon="14.1662721">
        <ele>638.2</ele>
        <time>2012-07-27T13:05:13Z</time>
      </trkpt>
      <trkpt lat="62.4752556" lon="14.1671994">
        <ele>638.6</ele>
        <time>2012-07-27T13:05:18Z</time>
      </trkpt>
      <trkpt lat="62.4752547" lon="14.1681044">
        <ele>637.8</ele>
        <time>2012-07-27T13:05:23Z</time>
      </trkpt>
      <trkpt lat="62.4752464" lon="14.1689787">
        <ele>636.8</ele>
        <time>2012-07-27T13:05:28Z</time>
      </trkpt>
      <trkpt lat="62.4752424" lon="14.1698077">
        <ele>632.8</ele>
        <time>2012-07-27T13:05:33Z</time>
      </trkpt>
      <trkpt lat="62.4752625" lon="14.1706502">
        <ele>630.6</ele>
        <time>2012-07-27T13:05:38Z</time>
      </trkpt>
      <trkpt lat="62.475317" lon="14.1716197">
        <ele>632.2</ele>
        <time>2012-07-27T13:05:43Z</time>
      </trkpt>
      <trkpt lat="62.4753727" lon="14.1725399">
        <ele>630</ele>
        <time>2012-07-27T13:05:48Z</time>
      </trkpt>
      <trkpt lat="62.475454" lon="14.1734672">
        <ele>628.4</ele>
        <time>2012-07-27T13:05:53Z</time>
      </trkpt>
      <trkpt lat="62.4755374" lon="14.1743899">
        <ele>629.8</ele>
        <time>2012-07-27T13:05:58Z</time>
      </trkpt>
      <trkpt lat="62.475634" lon="14.1753415">
        <ele>626.8</ele>
        <time>2012-07-27T13:06:03Z</time>
      </trkpt>
      <trkpt lat="62.4757229" lon="14.1761298">
        <ele>625</ele>
        <time>2012-07-27T13:06:07Z</time>
      </trkpt>
      <trkpt lat="62.4758224" lon="14.1769358">
        <ele>622.8</ele>
        <time>2012-07-27T13:06:11Z</time>
      </trkpt>
      <trkpt lat="62.4759312" lon="14.1777659">
        <ele>619.8</ele>
        <time>2012-07-27T13:06:15Z</time>
      </trkpt>
      <trkpt lat="62.4760493" lon="14.1786402">
        <ele>617</ele>
        <time>2012-07-27T13:06:19Z</time>
      </trkpt>
      <trkpt lat="62.4761683" lon="14.1795461">
        <ele>615.2</ele>
        <time>2012-07-27T13:06:23Z</time>
      </trkpt>
      <trkpt lat="62.4762897" lon="14.1804492">
        <ele>613.8</ele>
        <time>2012-07-27T13:06:27Z</time>
      </trkpt>
      <trkpt lat="62.4763952" lon="14.1813528">
        <ele>611.8</ele>
        <time>2012-07-27T13:06:31Z</time>
      </trkpt>
      <trkpt lat="62.47649" lon="14.1822643">
        <ele>611.8</ele>
        <time>2012-07-27T13:06:35Z</time>
      </trkpt>
      <trkpt lat="62.476573" lon="14.1832012">
        <ele>615.4</ele>
        <time>2012-07-27T13:06:39Z</time>
      </trkpt>
      <trkpt lat="62.4766259" lon="14.184189">
        <ele>616.4</ele>
        <time>2012-07-27T13:06:43Z</time>
      </trkpt>
      <trkpt lat="62.4766383" lon="14.1851738">
        <ele>612.6</ele>
        <time>2012-07-27T13:06:47Z</time>
      </trkpt>
      <trkpt lat="62.4766396" lon="14.1861415">
        <ele>609.6</ele>
        <time>2012-07-27T13:06:51Z</time>
      </trkpt>
      <trkpt lat="62.4766129" lon="14.1870792">
        <ele>606</ele>
        <time>2012-07-27T13:06:55Z</time>
      </trkpt>
      <trkpt lat="62.4765782" lon="14.1880437">
        <ele>602.4</ele>
        <time>2012-07-27T13:06:59Z</time>
      </trkpt>
      <trkpt lat="62.4765206" lon="14.1890465">
        <ele>599.2</ele>
        <time>2012-07-27T13:07:03Z</time>
      </trkpt>
      <trkpt lat="62.476472" lon="14.1898448">
        <ele>602.4</ele>
        <time>2012-07-27T13:07:06Z</time>
      </trkpt>
      <trkpt lat="62.4764135" lon="14.190669">
        <ele>605</ele>
        <time>2012-07-27T13:07:09Z</time>
      </trkpt>
      <trkpt lat="62.4763486" lon="14.1915222">
        <ele>606.4</ele>
        <time>2012-07-27T13:07:12Z</time>
      </trkpt>
      <trkpt lat="62.4762523" lon="14.192384">
        <ele>606</ele>
        <time>2012-07-27T13:07:15Z</time>
      </trkpt>
      <trkpt lat="62.4761335" lon="14.1932411">
        <ele>603.6</ele>
        <time>2012-07-27T13:07:18Z</time>
      </trkpt>
      <trkpt lat="62.4760016" lon="14.1940898">
        <ele>601</ele>
        <time>2012-07-27T13:07:21Z</time>
      </trkpt>
      <trkpt lat="62.4758546" lon="14.1949171">
        <ele>599</ele>
        <time>2012-07-27T13:07:24Z</time>
      </trkpt>
      <trkpt lat="62.4756967" lon="14.1957224">
        <ele>596.8</ele>
        <time>2012-07-27T13:07:27Z</time>
      </trkpt>
      <trkpt lat="62.4755209" lon="14.1965368">
        <ele>594.2</ele>
        <time>2012-07-27T13:07:30Z</time>
      </trkpt>
      <trkpt lat="62.4753286" lon="14.1973396">
        <ele>591.8</ele>
        <time>2012-07-27T13:07:33Z</time>
      </trkpt>
      <trkpt lat="62.4751273" lon="14.1981086">
        <ele>589.8</ele>
        <time>2012-07-27T13:07:36Z</time>
      </trkpt>
      <trkpt lat="62.4749144" lon="14.1988515">
        <ele>587.4</ele>
        <time>2012-07-27T13:07:39Z</time>
      </trkpt>
      <trkpt lat="62.4746959" lon="14.199576">
        <ele>584.6</ele>
        <time>2012-07-27T13:07:42Z</time>
      </trkpt>
      <trkpt lat="62.4744654" lon="14.2003059">
        <ele>582</ele>
        <time>2012-07-27T13:07:45Z</time>
      </trkpt>
      <trkpt lat="62.4742356" lon="14.2010421">
        <ele>579.4</ele>
        <time>2012-07-27T13:07:48Z</time>
      </trkpt>
      <trkpt lat="62.474013" lon="14.2017517">
        <ele>577.4</ele>
        <time>2012-07-27T13:07:51Z</time>
      </trkpt>
      <trkpt lat="62.4737996" lon="14.2024478">
        <ele>575.6</ele>
        <time>2012-07-27T13:07:54Z</time>
      </trkpt>
      <trkpt lat="62.4735887" lon="14.2031358">
        <ele>574.2</ele>
        <time>2012-07-27T13:07:57Z</time>
      </trkpt>
      <trkpt lat="62.473383" lon="14.2038057">
        <ele>573.2</ele>
        <time>2012-07-27T13:08:00Z</time>
      </trkpt>
      <trkpt lat="62.473194" lon="14.2044565">
        <ele>572</ele>
        <time>2012-07-27T13:08:03Z</time>
      </trkpt>
      <trkpt lat="62.4729613" lon="14.2052939">
        <ele>568.8</ele>
        <time>2012-07-27T13:08:07Z</time>
      </trkpt>
      <trkpt lat="62.4727614" lon="14.2061789">
        <ele>565.4</ele>
        <time>2012-07-27T13:08:11Z</time>
      </trkpt>
      <trkpt lat="62.4725863" lon="14.207131">
        <ele>561.4</ele>
        <time>2012-07-27T13:08:15Z</time>
      </trkpt>
      <trkpt lat="62.4724704" lon="14.2078942">
        <ele>558.2</ele>
        <time>2012-07-27T13:08:18Z</time>
      </trkpt>
      <trkpt lat="62.4723751" lon="14.2086837">
        <ele>555.2</ele>
        <time>2012-07-27T13:08:21Z</time>
      </trkpt>
      <trkpt lat="62.4723052" lon="14.209497">
        <ele>552.4</ele>
        <time>2012-07-27T13:08:24Z</time>
      </trkpt>
      <trkpt lat="62.4722627" lon="14.2103372">
        <ele>550.2</ele>
        <time>2012-07-27T13:08:27Z</time>
      </trkpt>
      <trkpt lat="62.4722407" lon="14.2111912">
        <ele>547.8</ele>
        <time>2012-07-27T13:08:30Z</time>
      </trkpt>
      <trkpt lat="62.4722434" lon="14.2120429">
        <ele>545</ele>
        <time>2012-07-27T13:08:33Z</time>
      </trkpt>
      <trkpt lat="62.4722642" lon="14.2129051">
        <ele>542</ele>
        <time>2012-07-27T13:08:36Z</time>
      </trkpt>
      <trkpt lat="62.472316" lon="14.2138125">
        <ele>539</ele>
        <time>2012-07-27T13:08:39Z</time>
      </trkpt>
      <trkpt lat="62.4723957" lon="14.2147413">
        <ele>535.6</ele>
        <time>2012-07-27T13:08:42Z</time>
      </trkpt>
      <trkpt lat="62.4725011" lon="14.2156602">
        <ele>532.2</ele>
        <time>2012-07-27T13:08:45Z</time>
      </trkpt>
      <trkpt lat="62.472638" lon="14.2165476">
        <ele>528.8</ele>
        <time>2012-07-27T13:08:48Z</time>
      </trkpt>
      <trkpt lat="62.4727973" lon="14.2173931">
        <ele>525.4</ele>
        <time>2012-07-27T13:08:51Z</time>
      </trkpt>
      <trkpt lat="62.4729587" lon="14.218219">
        <ele>521.8</ele>
        <time>2012-07-27T13:08:54Z</time>
      </trkpt>
      <trkpt lat="62.4731167" lon="14.2190427">
        <ele>518</ele>
        <time>2012-07-27T13:08:57Z</time>
      </trkpt>
      <trkpt lat="62.4732753" lon="14.2198623">
        <ele>514.6</ele>
        <time>2012-07-27T13:09:00Z</time>
      </trkpt>
      <trkpt lat="62.4734363" lon="14.2206754">
        <ele>511.6</ele>
        <time>2012-07-27T13:09:03Z</time>
      </trkpt>
      <trkpt lat="62.4736112" lon="14.2214673">
        <ele>508.4</ele>
        <time>2012-07-27T13:09:06Z</time>
      </trkpt>
      <trkpt lat="62.4738046" lon="14.2222499">
        <ele>505.4</ele>
        <time>2012-07-27T13:09:09Z</time>
      </trkpt>
      <trkpt lat="62.4740291" lon="14.223018">
        <ele>502.2</ele>
        <time>2012-07-27T13:09:12Z</time>
      </trkpt>
      <trkpt lat="62.4742793" lon="14.2237698">
        <ele>501.6</ele>
        <time>2012-07-27T13:09:15Z</time>
      </trkpt>
      <trkpt lat="62.474544" lon="14.224473">
        <ele>499.2</ele>
        <time>2012-07-27T13:09:18Z</time>
      </trkpt>
      <trkpt lat="62.4748227" lon="14.2251114">
        <ele>496.4</ele>
        <time>2012-07-27T13:09:21Z</time>
      </trkpt>
      <trkpt lat="62.4751091" lon="14.2257131">
        <ele>494.8</ele>
        <time>2012-07-27T13:09:24Z</time>
      </trkpt>
      <trkpt lat="62.4753977" lon="14.2262468">
        <ele>493.6</ele>
        <time>2012-07-27T13:09:27Z</time>
      </trkpt>
      <trkpt lat="62.4756913" lon="14.2267415">
        <ele>492</ele>
        <time>2012-07-27T13:09:30Z</time>
      </trkpt>
      <trkpt lat="62.4760105" lon="14.227219">
        <ele>491.2</ele>
        <time>2012-07-27T13:09:33Z</time>
      </trkpt>
      <trkpt lat="62.4763423" lon="14.2276606">
        <ele>490.2</ele>
        <time>2012-07-27T13:09:36Z</time>
      </trkpt>
      <trkpt lat="62.4766813" lon="14.2280364">
        <ele>489</ele>
        <time>2012-07-27T13:09:39Z</time>
      </trkpt>
      <trkpt lat="62.4770113" lon="14.2283812">
        <ele>488</ele>
        <time>2012-07-27T13:09:42Z</time>
      </trkpt>
      <trkpt lat="62.4774318" lon="14.2287702">
        <ele>486.6</ele>
        <time>2012-07-27T13:09:46Z</time>
      </trkpt>
      <trkpt lat="62.4778509" lon="14.2290783">
        <ele>485.8</ele>
        <time>2012-07-27T13:09:50Z</time>
      </trkpt>
      <trkpt lat="62.4782675" lon="14.229329">
        <ele>485.4</ele>
        <time>2012-07-27T13:09:54Z</time>
      </trkpt>
      <trkpt lat="62.4786787" lon="14.2295148">
        <ele>485.4</ele>
        <time>2012-07-27T13:09:58Z</time>
      </trkpt>
      <trkpt lat="62.4790912" lon="14.2296612">
        <ele>485.2</ele>
        <time>2012-07-27T13:10:02Z</time>
      </trkpt>
      <trkpt lat="62.4795149" lon="14.2298149">
        <ele>485</ele>
        <time>2012-07-27T13:10:06Z</time>
      </trkpt>
      <trkpt lat="62.4799326" lon="14.2299697">
        <ele>485.4</ele>
        <time>2012-07-27T13:10:10Z</time>
      </trkpt>
      <trkpt lat="62.4803271" lon="14.2300977">
        <ele>485.8</ele>
        <time>2012-07-27T13:10:14Z</time>
      </trkpt>
      <trkpt lat="62.4807072" lon="14.2302405">
        <ele>485.6</ele>
        <time>2012-07-27T13:10:18Z</time>
      </trkpt>
      <trkpt lat="62.4811154" lon="14.2303978">
        <ele>484.2</ele>
        <time>2012-07-27T13:10:22Z</time>
      </trkpt>
      <trkpt lat="62.481519" lon="14.2305587">
        <ele>483.2</ele>
        <time>2012-07-27T13:10:26Z</time>
      </trkpt>
      <trkpt lat="62.4819194" lon="14.2306912">
        <ele>483.4</ele>
        <time>2012-07-27T13:10:30Z</time>
      </trkpt>
      <trkpt lat="62.4823219" lon="14.2307857">
        <ele>483.6</ele>
        <time>2012-07-27T13:10:34Z</time>
      </trkpt>
      <trkpt lat="62.4827244" lon="14.2308466">
        <ele>483</ele>
        <time>2012-07-27T13:10:38Z</time>
      </trkpt>
      <trkpt lat="62.4831274" lon="14.2308502">
        <ele>481.8</ele>
        <time>2012-07-27T13:10:42Z</time>
      </trkpt>
      <trkpt lat="62.4835382" lon="14.230817">
        <ele>480.8</ele>
        <time>2012-07-27T13:10:46Z</time>
      </trkpt>
      <trkpt lat="62.4839643" lon="14.2307317">
        <ele>479.6</ele>
        <time>2012-07-27T13:10:50Z</time>
      </trkpt>
      <trkpt lat="62.4843912" lon="14.2305991">
        <ele>478.2</ele>
        <time>2012-07-27T13:10:54Z</time>
      </trkpt>
      <trkpt lat="62.4848053" lon="14.2304223">
        <ele>477</ele>
        <time>2012-07-27T13:10:58Z</time>
      </trkpt>
      <trkpt lat="62.4851958" lon="14.2302055">
        <ele>477.4</ele>
        <time>2012-07-27T13:11:02Z</time>
      </trkpt>
      <trkpt lat="62.4855677" lon="14.2299593">
        <ele>477.4</ele>
        <time>2012-07-27T13:11:06Z</time>
      </trkpt>
      <trkpt lat="62.4859333" lon="14.2296792">
        <ele>477</ele>
        <time>2012-07-27T13:11:10Z</time>
      </trkpt>
      <trkpt lat="62.48629" lon="14.2293714">
        <ele>477.8</ele>
        <time>2012-07-27T13:11:14Z</time>
      </trkpt>
      <trkpt lat="62.48664" lon="14.229018">
        <ele>478.4</ele>
        <time>2012-07-27T13:11:18Z</time>
      </trkpt>
      <trkpt lat="62.4869861" lon="14.2286307">
        <ele>479</ele>
        <time>2012-07-27T13:11:22Z</time>
      </trkpt>
      <trkpt lat="62.4873091" lon="14.2282115">
        <ele>479.8</ele>
        <time>2012-07-27T13:11:26Z</time>
      </trkpt>
      <trkpt lat="62.4876339" lon="14.2277536">
        <ele>479</ele>
        <time>2012-07-27T13:11:30Z</time>
      </trkpt>
      <trkpt lat="62.4879424" lon="14.2272568">
        <ele>477.4</ele>
        <time>2012-07-27T13:11:34Z</time>
      </trkpt>
      <trkpt lat="62.4882196" lon="14.2267662">
        <ele>475.8</ele>
        <time>2012-07-27T13:11:38Z</time>
      </trkpt>
      <trkpt lat="62.4885449" lon="14.2261467">
        <ele>474.2</ele>
        <time>2012-07-27T13:11:43Z</time>
      </trkpt>
      <trkpt lat="62.4888752" lon="14.2254827">
        <ele>473.4</ele>
        <time>2012-07-27T13:11:48Z</time>
      </trkpt>
      <trkpt lat="62.4891458" lon="14.2249569">
        <ele>472.6</ele>
        <time>2012-07-27T13:11:52Z</time>
      </trkpt>
      <trkpt lat="62.4894778" lon="14.2243043">
        <ele>472.4</ele>
        <time>2012-07-27T13:11:57Z</time>
      </trkpt>
      <trkpt lat="62.4897953" lon="14.2236787">
        <ele>472.4</ele>
        <time>2012-07-27T13:12:02Z</time>
      </trkpt>
      <trkpt lat="62.49008" lon="14.2230928">
        <ele>472.4</ele>
        <time>2012-07-27T13:12:07Z</time>
      </trkpt>
      <trkpt lat="62.4903797" lon="14.2224783">
        <ele>471.4</ele>
        <time>2012-07-27T13:12:12Z</time>
      </trkpt>
      <trkpt lat="62.4906946" lon="14.2218521">
        <ele>472.2</ele>
        <time>2012-07-27T13:12:17Z</time>
      </trkpt>
      <trkpt lat="62.491018" lon="14.2212309">
        <ele>472.6</ele>
        <time>2012-07-27T13:12:22Z</time>
      </trkpt>
      <trkpt lat="62.4913239" lon="14.2206255">
        <ele>473.2</ele>
        <time>2012-07-27T13:12:27Z</time>
      </trkpt>
      <trkpt lat="62.4916269" lon="14.2200372">
        <ele>473.8</ele>
        <time>2012-07-27T13:12:32Z</time>
      </trkpt>
      <trkpt lat="62.4919382" lon="14.21944">
        <ele>474.4</ele>
        <time>2012-07-27T13:12:37Z</time>
      </trkpt>
      <trkpt lat="62.4922497" lon="14.2188515">
        <ele>474.2</ele>
        <time>2012-07-27T13:12:42Z</time>
      </trkpt>
      <trkpt lat="62.4925557" lon="14.218267">
        <ele>474.4</ele>
        <time>2012-07-27T13:12:47Z</time>
      </trkpt>
      <trkpt lat="62.4928525" lon="14.2177209">
        <ele>474.8</ele>
        <time>2012-07-27T13:12:52Z</time>
      </trkpt>
      <trkpt lat="62.4931398" lon="14.2172015">
        <ele>475.4</ele>
        <time>2012-07-27T13:12:57Z</time>
      </trkpt>
      <trkpt lat="62.4934021" lon="14.2167206">
        <ele>476.4</ele>
        <time>2012-07-27T13:13:02Z</time>
      </trkpt>
      <trkpt lat="62.4934529" lon="14.2166388">
        <ele>476.6</ele>
        <time>2012-07-27T13:13:03Z</time>
      </trkpt>
      <trkpt lat="62.4937873" lon="14.2160753">
        <ele>481.2</ele>
        <time>2012-07-27T13:13:09Z</time>
      </trkpt>
      <trkpt lat="62.4941043" lon="14.2155075">
        <ele>479.6</ele>
        <time>2012-07-27T13:13:15Z</time>
      </trkpt>
      <trkpt lat="62.4943844" lon="14.2150143">
        <ele>478.8</ele>
        <time>2012-07-27T13:13:20Z</time>
      </trkpt>
      <trkpt lat="62.4946801" lon="14.214519">
        <ele>478.2</ele>
        <time>2012-07-27T13:13:25Z</time>
      </trkpt>
      <trkpt lat="62.4949803" lon="14.2140035">
        <ele>477.2</ele>
        <time>2012-07-27T13:13:30Z</time>
      </trkpt>
      <trkpt lat="62.495287" lon="14.2134823">
        <ele>476.4</ele>
        <time>2012-07-27T13:13:35Z</time>
      </trkpt>
      <trkpt lat="62.4956078" lon="14.2129522">
        <ele>475.4</ele>
        <time>2012-07-27T13:13:40Z</time>
      </trkpt>
      <trkpt lat="62.4959443" lon="14.2124108">
        <ele>474.8</ele>
        <time>2012-07-27T13:13:45Z</time>
      </trkpt>
      <trkpt lat="62.4962884" lon="14.2118596">
        <ele>474.4</ele>
        <time>2012-07-27T13:13:50Z</time>
      </trkpt>
      <trkpt lat="62.4966414" lon="14.2113064">
        <ele>474</ele>
        <time>2012-07-27T13:13:55Z</time>
      </trkpt>
      <trkpt lat="62.4970059" lon="14.21073">
        <ele>473.8</ele>
        <time>2012-07-27T13:14:00Z</time>
      </trkpt>
      <trkpt lat="62.4973552" lon="14.2101795">
        <ele>473.8</ele>
        <time>2012-07-27T13:14:05Z</time>
      </trkpt>
      <trkpt lat="62.4976918" lon="14.2096482">
        <ele>473.6</ele>
        <time>2012-07-27T13:14:10Z</time>
      </trkpt>
      <trkpt lat="62.4980306" lon="14.209123">
        <ele>473</ele>
        <time>2012-07-27T13:14:15Z</time>
      </trkpt>
      <trkpt lat="62.4983933" lon="14.2085583">
        <ele>472.8</ele>
        <time>2012-07-27T13:14:20Z</time>
      </trkpt>
      <trkpt lat="62.4987641" lon="14.2079859">
        <ele>473.2</ele>
        <time>2012-07-27T13:14:25Z</time>
      </trkpt>
      <trkpt lat="62.4991317" lon="14.2074213">
        <ele>473.4</ele>
        <time>2012-07-27T13:14:30Z</time>
      </trkpt>
      <trkpt lat="62.4994945" lon="14.2068634">
        <ele>473.8</ele>
        <time>2012-07-27T13:14:35Z</time>
      </trkpt>
      <trkpt lat="62.4998447" lon="14.2063112">
        <ele>474</ele>
        <time>2012-07-27T13:14:40Z</time>
      </trkpt>
      <trkpt lat="62.5001916" lon="14.2057609">
        <ele>474.6</ele>
        <time>2012-07-27T13:14:45Z</time>
      </trkpt>
      <trkpt lat="62.5005448" lon="14.205211">
        <ele>475</ele>
        <time>2012-07-27T13:14:50Z</time>
      </trkpt>
      <trkpt lat="62.5009044" lon="14.2046633">
        <ele>475.4</ele>
        <time>2012-07-27T13:14:55Z</time>
      </trkpt>
      <trkpt lat="62.5012561" lon="14.2041158">
        <ele>474.6</ele>
        <time>2012-07-27T13:15:00Z</time>
      </trkpt>
      <trkpt lat="62.5015458" lon="14.2036513">
        <ele>474.6</ele>
        <time>2012-07-27T13:15:04Z</time>
      </trkpt>
      <trkpt lat="62.5018971" lon="14.2031085">
        <ele>475</ele>
        <time>2012-07-27T13:15:09Z</time>
      </trkpt>
      <trkpt lat="62.5022451" lon="14.2025653">
        <ele>475.2</ele>
        <time>2012-07-27T13:15:14Z</time>
      </trkpt>
      <trkpt lat="62.5025937" lon="14.2020471">
        <ele>475.4</ele>
        <time>2012-07-27T13:15:19Z</time>
      </trkpt>
      <trkpt lat="62.5029351" lon="14.2015371">
        <ele>476.2</ele>
        <time>2012-07-27T13:15:24Z</time>
      </trkpt>
      <trkpt lat="62.503277" lon="14.201074">
        <ele>476.8</ele>
        <time>2012-07-27T13:15:29Z</time>
      </trkpt>
      <trkpt lat="62.5035965" lon="14.2006509">
        <ele>476</ele>
        <time>2012-07-27T13:15:34Z</time>
      </trkpt>
      <trkpt lat="62.5039312" lon="14.2002221">
        <ele>476.4</ele>
        <time>2012-07-27T13:15:39Z</time>
      </trkpt>
      <trkpt lat="62.5042643" lon="14.1998242">
        <ele>476.8</ele>
        <time>2012-07-27T13:15:44Z</time>
      </trkpt>
      <trkpt lat="62.5045804" lon="14.199443">
        <ele>477</ele>
        <time>2012-07-27T13:15:49Z</time>
      </trkpt>
      <trkpt lat="62.5049217" lon="14.1990942">
        <ele>476.2</ele>
        <time>2012-07-27T13:15:54Z</time>
      </trkpt>
      <trkpt lat="62.5052786" lon="14.1987458">
        <ele>474.2</ele>
        <time>2012-07-27T13:15:59Z</time>
      </trkpt>
      <trkpt lat="62.5056637" lon="14.1983894">
        <ele>472.6</ele>
        <time>2012-07-27T13:16:04Z</time>
      </trkpt>
      <trkpt lat="62.5059932" lon="14.198093">
        <ele>471.2</ele>
        <time>2012-07-27T13:16:08Z</time>
      </trkpt>
      <trkpt lat="62.506331" lon="14.1978014">
        <ele>469.4</ele>
        <time>2012-07-27T13:16:12Z</time>
      </trkpt>
      <trkpt lat="62.5067091" lon="14.1975124">
        <ele>467.8</ele>
        <time>2012-07-27T13:16:16Z</time>
      </trkpt>
      <trkpt lat="62.5071021" lon="14.1972042">
        <ele>465.4</ele>
        <time>2012-07-27T13:16:20Z</time>
      </trkpt>
      <trkpt lat="62.5075221" lon="14.1969327">
        <ele>463.4</ele>
        <time>2012-07-27T13:16:24Z</time>
      </trkpt>
      <trkpt lat="62.5079738" lon="14.1966634">
        <ele>461.2</ele>
        <time>2012-07-27T13:16:28Z</time>
      </trkpt>
      <trkpt lat="62.5084363" lon="14.1963893">
        <ele>458.8</ele>
        <time>2012-07-27T13:16:32Z</time>
      </trkpt>
      <trkpt lat="62.5088983" lon="14.1961622">
        <ele>457.2</ele>
        <time>2012-07-27T13:16:36Z</time>
      </trkpt>
      <trkpt lat="62.5093361" lon="14.1959686">
        <ele>456.6</ele>
        <time>2012-07-27T13:16:40Z</time>
      </trkpt>
      <trkpt lat="62.5097526" lon="14.1957966">
        <ele>456.2</ele>
        <time>2012-07-27T13:16:44Z</time>
      </trkpt>
      <trkpt lat="62.5101624" lon="14.195655">
        <ele>456.6</ele>
        <time>2012-07-27T13:16:48Z</time>
      </trkpt>
      <trkpt lat="62.5105494" lon="14.1955466">
        <ele>456.8</ele>
        <time>2012-07-27T13:16:52Z</time>
      </trkpt>
      <trkpt lat="62.5109112" lon="14.1954578">
        <ele>457.6</ele>
        <time>2012-07-27T13:16:56Z</time>
      </trkpt>
      <trkpt lat="62.5113424" lon="14.1953667">
        <ele>459</ele>
        <time>2012-07-27T13:17:01Z</time>
      </trkpt>
      <trkpt lat="62.5117431" lon="14.1952833">
        <ele>460.6</ele>
        <time>2012-07-27T13:17:06Z</time>
      </trkpt>
      <trkpt lat="62.5121386" lon="14.1951994">
        <ele>461.4</ele>
        <time>2012-07-27T13:17:11Z</time>
      </trkpt>
      <trkpt lat="62.5125297" lon="14.1951234">
        <ele>462.8</ele>
        <time>2012-07-27T13:17:16Z</time>
      </trkpt>
      <trkpt lat="62.5128952" lon="14.1950439">
        <ele>464.2</ele>
        <time>2012-07-27T13:17:21Z</time>
      </trkpt>
      <trkpt lat="62.5133133" lon="14.1949519">
        <ele>465.4</ele>
        <time>2012-07-27T13:17:27Z</time>
      </trkpt>
      <trkpt lat="62.5137222" lon="14.1948394">
        <ele>465.6</ele>
        <time>2012-07-27T13:17:33Z</time>
      </trkpt>
      <trkpt lat="62.5141304" lon="14.1947625">
        <ele>467</ele>
        <time>2012-07-27T13:17:39Z</time>
      </trkpt>
      <trkpt lat="62.514521" lon="14.1946813">
        <ele>466.8</ele>
        <time>2012-07-27T13:17:45Z</time>
      </trkpt>
      <trkpt lat="62.5149047" lon="14.194612">
        <ele>467.2</ele>
        <time>2012-07-27T13:17:51Z</time>
      </trkpt>
      <trkpt lat="62.5152859" lon="14.1945406">
        <ele>468.6</ele>
        <time>2012-07-27T13:17:57Z</time>
      </trkpt>
      <trkpt lat="62.5156622" lon="14.1944638">
        <ele>468.6</ele>
        <time>2012-07-27T13:18:03Z</time>
      </trkpt>
      <trkpt lat="62.5160635" lon="14.1943913">
        <ele>468</ele>
        <time>2012-07-27T13:18:09Z</time>
      </trkpt>
      <trkpt lat="62.5164396" lon="14.1943136">
        <ele>469</ele>
        <time>2012-07-27T13:18:15Z</time>
      </trkpt>
      <trkpt lat="62.5168142" lon="14.1942369">
        <ele>469.8</ele>
        <time>2012-07-27T13:18:21Z</time>
      </trkpt>
      <trkpt lat="62.5171846" lon="14.1941697">
        <ele>471</ele>
        <time>2012-07-27T13:18:27Z</time>
      </trkpt>
      <trkpt lat="62.517589" lon="14.1940903">
        <ele>472</ele>
        <time>2012-07-27T13:18:34Z</time>
      </trkpt>
      <trkpt lat="62.5179894" lon="14.1940121">
        <ele>472.8</ele>
        <time>2012-07-27T13:18:41Z</time>
      </trkpt>
      <trkpt lat="62.5183904" lon="14.1939361">
        <ele>473.6</ele>
        <time>2012-07-27T13:18:47Z</time>
      </trkpt>
      <trkpt lat="62.5188017" lon="14.1938526">
        <ele>474.6</ele>
        <time>2012-07-27T13:18:53Z</time>
      </trkpt>
      <trkpt lat="62.5191963" lon="14.1937768">
        <ele>475.8</ele>
        <time>2012-07-27T13:18:59Z</time>
      </trkpt>
      <trkpt lat="62.519588" lon="14.1936869">
        <ele>477</ele>
        <time>2012-07-27T13:19:05Z</time>
      </trkpt>
      <trkpt lat="62.5199936" lon="14.1935954">
        <ele>478.4</ele>
        <time>2012-07-27T13:19:11Z</time>
      </trkpt>
      <trkpt lat="62.5203728" lon="14.1935392">
        <ele>479.4</ele>
        <time>2012-07-27T13:19:17Z</time>
      </trkpt>
      <trkpt lat="62.5207788" lon="14.1934614">
        <ele>480.8</ele>
        <time>2012-07-27T13:19:24Z</time>
      </trkpt>
      <trkpt lat="62.5211671" lon="14.1934527">
        <ele>482.8</ele>
        <time>2012-07-27T13:19:31Z</time>
      </trkpt>
      <trkpt lat="62.5215516" lon="14.19351">
        <ele>485.2</ele>
        <time>2012-07-27T13:19:38Z</time>
      </trkpt>
      <trkpt lat="62.5219032" lon="14.1936655">
        <ele>487</ele>
        <time>2012-07-27T13:19:45Z</time>
      </trkpt>
      <trkpt lat="62.5222805" lon="14.1938975">
        <ele>488.6</ele>
        <time>2012-07-27T13:19:53Z</time>
      </trkpt>
      <trkpt lat="62.5226511" lon="14.1941246">
        <ele>491.4</ele>
        <time>2012-07-27T13:20:01Z</time>
      </trkpt>
      <trkpt lat="62.5230354" lon="14.194343">
        <ele>495</ele>
        <time>2012-07-27T13:20:10Z</time>
      </trkpt>
      <trkpt lat="62.5234207" lon="14.1944657">
        <ele>499.2</ele>
        <time>2012-07-27T13:20:19Z</time>
      </trkpt>
      <trkpt lat="62.5237993" lon="14.1944617">
        <ele>502.4</ele>
        <time>2012-07-27T13:20:29Z</time>
      </trkpt>
      <trkpt lat="62.5241776" lon="14.1943452">
        <ele>506.2</ele>
        <time>2012-07-27T13:20:39Z</time>
      </trkpt>
      <trkpt lat="62.5245488" lon="14.194114">
        <ele>507.2</ele>
        <time>2012-07-27T13:20:50Z</time>
      </trkpt>
      <trkpt lat="62.5249079" lon="14.1937883">
        <ele>509.4</ele>
        <time>2012-07-27T13:21:01Z</time>
      </trkpt>
      <trkpt lat="62.5252452" lon="14.1934738">
        <ele>512.4</ele>
        <time>2012-07-27T13:21:10Z</time>
      </trkpt>
      <trkpt lat="62.5255949" lon="14.1932194">
        <ele>515.4</ele>
        <time>2012-07-27T13:21:19Z</time>
      </trkpt>
      <trkpt lat="62.5259729" lon="14.1931403">
        <ele>517.8</ele>
        <time>2012-07-27T13:21:28Z</time>
      </trkpt>
      <trkpt lat="62.5261512" lon="14.1931904">
        <ele>518.8</ele>
        <time>2012-07-27T13:21:32Z</time>
      </trkpt>
      <trkpt lat="62.526329" lon="14.1932702">
        <ele>519.8</ele>
        <time>2012-07-27T13:21:36Z</time>
      </trkpt>
      <trkpt lat="62.5267297" lon="14.1935076">
        <ele>520.6</ele>
        <time>2012-07-27T13:21:43Z</time>
      </trkpt>
      <trkpt lat="62.5271022" lon="14.1937355">
        <ele>521.2</ele>
        <time>2012-07-27T13:21:49Z</time>
      </trkpt>
      <trkpt lat="62.5274767" lon="14.1939717">
        <ele>522</ele>
        <time>2012-07-27T13:21:55Z</time>
      </trkpt>
      <trkpt lat="62.5278511" lon="14.1942021">
        <ele>523.2</ele>
        <time>2012-07-27T13:22:01Z</time>
      </trkpt>
      <trkpt lat="62.5282409" lon="14.1944503">
        <ele>523</ele>
        <time>2012-07-27T13:22:07Z</time>
      </trkpt>
      <trkpt lat="62.5286352" lon="14.1947607">
        <ele>524.6</ele>
        <time>2012-07-27T13:22:13Z</time>
      </trkpt>
      <trkpt lat="62.5290054" lon="14.1951583">
        <ele>525.6</ele>
        <time>2012-07-27T13:22:19Z</time>
      </trkpt>
      <trkpt lat="62.5293159" lon="14.1956438">
        <ele>526</ele>
        <time>2012-07-27T13:22:25Z</time>
      </trkpt>
      <trkpt lat="62.5295767" lon="14.1961825">
        <ele>526.2</ele>
        <time>2012-07-27T13:22:31Z</time>
      </trkpt>
      <trkpt lat="62.5297927" lon="14.1967866">
        <ele>526.6</ele>
        <time>2012-07-27T13:22:37Z</time>
      </trkpt>
      <trkpt lat="62.5299758" lon="14.1974766">
        <ele>527.6</ele>
        <time>2012-07-27T13:22:44Z</time>
      </trkpt>
      <trkpt lat="62.5300727" lon="14.197966">
        <ele>529.2</ele>
        <time>2012-07-27T13:22:49Z</time>
      </trkpt>
      <trkpt lat="62.5301082" lon="14.1982207">
        <ele>530</ele>
        <time>2012-07-27T13:22:52Z</time>
      </trkpt>
      <trkpt lat="62.5302006" lon="14.1990616">
        <ele>536</ele>
        <time>2012-07-27T13:23:02Z</time>
      </trkpt>
      <trkpt lat="62.5302364" lon="14.1998724">
        <ele>540</ele>
        <time>2012-07-27T13:23:12Z</time>
      </trkpt>
      <trkpt lat="62.5302145" lon="14.2006509">
        <ele>541.6</ele>
        <time>2012-07-27T13:23:22Z</time>
      </trkpt>
      <trkpt lat="62.5301694" lon="14.20147">
        <ele>544.2</ele>
        <time>2012-07-27T13:23:33Z</time>
      </trkpt>
      <trkpt lat="62.5301202" lon="14.2022918">
        <ele>547.8</ele>
        <time>2012-07-27T13:23:45Z</time>
      </trkpt>
      <trkpt lat="62.5300983" lon="14.203139">
        <ele>551.8</ele>
        <time>2012-07-27T13:23:57Z</time>
      </trkpt>
      <trkpt lat="62.5301254" lon="14.2039937">
        <ele>555.2</ele>
        <time>2012-07-27T13:24:07Z</time>
      </trkpt>
      <trkpt lat="62.5302118" lon="14.2048018">
        <ele>557.8</ele>
        <time>2012-07-27T13:24:17Z</time>
      </trkpt>
      <trkpt lat="62.5302407" lon="14.2050437">
        <ele>558.8</ele>
        <time>2012-07-27T13:24:20Z</time>
      </trkpt>
      <trkpt lat="62.5303502" lon="14.2055628">
        <ele>560.6</ele>
        <time>2012-07-27T13:24:27Z</time>
      </trkpt>
      <trkpt lat="62.5305687" lon="14.206333">
        <ele>564.2</ele>
        <time>2012-07-27T13:24:37Z</time>
      </trkpt>
      <trkpt lat="62.5308131" lon="14.2070248">
        <ele>567.6</ele>
        <time>2012-07-27T13:24:45Z</time>
      </trkpt>
      <trkpt lat="62.5310771" lon="14.2075744">
        <ele>570.2</ele>
        <time>2012-07-27T13:24:52Z</time>
      </trkpt>
      <trkpt lat="62.5314039" lon="14.2080901">
        <ele>572.6</ele>
        <time>2012-07-27T13:25:00Z</time>
      </trkpt>
      <trkpt lat="62.5317607" lon="14.2084949">
        <ele>574.2</ele>
        <time>2012-07-27T13:25:08Z</time>
      </trkpt>
      <trkpt lat="62.532101" lon="14.2087763">
        <ele>575.2</ele>
        <time>2012-07-27T13:25:15Z</time>
      </trkpt>
      <trkpt lat="62.5324371" lon="14.2090412">
        <ele>573.2</ele>
        <time>2012-07-27T13:25:22Z</time>
      </trkpt>
      <trkpt lat="62.5328148" lon="14.2093163">
        <ele>574.2</ele>
        <time>2012-07-27T13:25:30Z</time>
      </trkpt>
      <trkpt lat="62.533154" lon="14.2095491">
        <ele>576.6</ele>
        <time>2012-07-27T13:25:37Z</time>
      </trkpt>
      <trkpt lat="62.5335323" lon="14.2098112">
        <ele>580.8</ele>
        <time>2012-07-27T13:25:45Z</time>
      </trkpt>
      <trkpt lat="62.5338897" lon="14.2100605">
        <ele>583.8</ele>
        <time>2012-07-27T13:25:53Z</time>
      </trkpt>
      <trkpt lat="62.5342444" lon="14.2103334">
        <ele>585.4</ele>
        <time>2012-07-27T13:26:01Z</time>
      </trkpt>
      <trkpt lat="62.5346105" lon="14.2106414">
        <ele>588</ele>
        <time>2012-07-27T13:26:10Z</time>
      </trkpt>
      <trkpt lat="62.5349657" lon="14.2109888">
        <ele>590.6</ele>
        <time>2012-07-27T13:26:18Z</time>
      </trkpt>
      <trkpt lat="62.5353132" lon="14.2113595">
        <ele>594</ele>
        <time>2012-07-27T13:26:28Z</time>
      </trkpt>
      <trkpt lat="62.535648" lon="14.2117415">
        <ele>597.4</ele>
        <time>2012-07-27T13:26:38Z</time>
      </trkpt>
      <trkpt lat="62.53598" lon="14.2121516">
        <ele>599</ele>
        <time>2012-07-27T13:26:48Z</time>
      </trkpt>
      <trkpt lat="62.5363005" lon="14.2125811">
        <ele>602</ele>
        <time>2012-07-27T13:26:58Z</time>
      </trkpt>
      <trkpt lat="62.5366171" lon="14.2130314">
        <ele>605.4</ele>
        <time>2012-07-27T13:27:08Z</time>
      </trkpt>
      <trkpt lat="62.5369435" lon="14.2134912">
        <ele>608.2</ele>
        <time>2012-07-27T13:27:18Z</time>
      </trkpt>
      <trkpt lat="62.5372653" lon="14.213972">
        <ele>610.4</ele>
        <time>2012-07-27T13:27:27Z</time>
      </trkpt>
      <trkpt lat="62.5375903" lon="14.2144606">
        <ele>612.4</ele>
        <time>2012-07-27T13:27:35Z</time>
      </trkpt>
      <trkpt lat="62.5379249" lon="14.2149583">
        <ele>615</ele>
        <time>2012-07-27T13:27:44Z</time>
      </trkpt>
      <trkpt lat="62.5382303" lon="14.2154048">
        <ele>618.2</ele>
        <time>2012-07-27T13:27:52Z</time>
      </trkpt>
      <trkpt lat="62.5385441" lon="14.2158357">
        <ele>621.2</ele>
        <time>2012-07-27T13:28:01Z</time>
      </trkpt>
      <trkpt lat="62.538886" lon="14.2162983">
        <ele>623</ele>
        <time>2012-07-27T13:28:10Z</time>
      </trkpt>
      <trkpt lat="62.5392263" lon="14.2166814">
        <ele>624.2</ele>
        <time>2012-07-27T13:28:18Z</time>
      </trkpt>
      <trkpt lat="62.5395584" lon="14.2170483">
        <ele>625</ele>
        <time>2012-07-27T13:28:25Z</time>
      </trkpt>
      <trkpt lat="62.5399302" lon="14.2174375">
        <ele>625.6</ele>
        <time>2012-07-27T13:28:33Z</time>
      </trkpt>
      <trkpt lat="62.5402883" lon="14.2178002">
        <ele>625.4</ele>
        <time>2012-07-27T13:28:41Z</time>
      </trkpt>
      <trkpt lat="62.5406136" lon="14.2181404">
        <ele>627.2</ele>
        <time>2012-07-27T13:28:50Z</time>
      </trkpt>
      <trkpt lat="62.5409606" lon="14.2185108">
        <ele>631</ele>
        <time>2012-07-27T13:29:01Z</time>
      </trkpt>
      <trkpt lat="62.5412884" lon="14.2189">
        <ele>634.4</ele>
        <time>2012-07-27T13:29:10Z</time>
      </trkpt>
      <trkpt lat="62.5415961" lon="14.2193324">
        <ele>637.2</ele>
        <time>2012-07-27T13:29:21Z</time>
      </trkpt>
      <trkpt lat="62.5418915" lon="14.219896">
        <ele>640.2</ele>
        <time>2012-07-27T13:29:32Z</time>
      </trkpt>
      <trkpt lat="62.5421359" lon="14.2204747">
        <ele>641.6</ele>
        <time>2012-07-27T13:29:42Z</time>
      </trkpt>
      <trkpt lat="62.5423318" lon="14.221118">
        <ele>643.6</ele>
        <time>2012-07-27T13:29:54Z</time>
      </trkpt>
      <trkpt lat="62.5425029" lon="14.221853">
        <ele>647.4</ele>
        <time>2012-07-27T13:30:05Z</time>
      </trkpt>
      <trkpt lat="62.5425218" lon="14.2219386">
        <ele>648</ele>
        <time>2012-07-27T13:30:06Z</time>
      </trkpt>
      <trkpt lat="62.5426083" lon="14.2224084">
        <ele>648.8</ele>
        <time>2012-07-27T13:30:12Z</time>
      </trkpt>
      <trkpt lat="62.5426301" lon="14.2225903">
        <ele>649.2</ele>
        <time>2012-07-27T13:30:14Z</time>
      </trkpt>
      <trkpt lat="62.5426996" lon="14.2233442">
        <ele>650.2</ele>
        <time>2012-07-27T13:30:24Z</time>
      </trkpt>
      <trkpt lat="62.5427374" lon="14.224123">
        <ele>651</ele>
        <time>2012-07-27T13:30:35Z</time>
      </trkpt>
      <trkpt lat="62.5427328" lon="14.2250088">
        <ele>653.6</ele>
        <time>2012-07-27T13:30:45Z</time>
      </trkpt>
      <trkpt lat="62.5426798" lon="14.2258594">
        <ele>655.4</ele>
        <time>2012-07-27T13:30:53Z</time>
      </trkpt>
      <trkpt lat="62.5425865" lon="14.2266354">
        <ele>656.8</ele>
        <time>2012-07-27T13:31:00Z</time>
      </trkpt>
      <trkpt lat="62.5425114" lon="14.2270518">
        <ele>657.6</ele>
        <time>2012-07-27T13:31:04Z</time>
      </trkpt>
      <trkpt lat="62.5424488" lon="14.2273736">
        <ele>658.2</ele>
        <time>2012-07-27T13:31:07Z</time>
      </trkpt>
      <trkpt lat="62.5423164" lon="14.2281597">
        <ele>660.6</ele>
        <time>2012-07-27T13:31:15Z</time>
      </trkpt>
      <trkpt lat="62.5421882" lon="14.228927">
        <ele>663</ele>
        <time>2012-07-27T13:31:23Z</time>
      </trkpt>
      <trkpt lat="62.5421689" lon="14.2290252">
        <ele>663</ele>
        <time>2012-07-27T13:31:24Z</time>
      </trkpt>
      <trkpt lat="62.5420588" lon="14.2296824">
        <ele>664</ele>
        <time>2012-07-27T13:31:30Z</time>
      </trkpt>
      <trkpt lat="62.5419286" lon="14.2303987">
        <ele>666.4</ele>
        <time>2012-07-27T13:31:37Z</time>
      </trkpt>
      <trkpt lat="62.541787" lon="14.2311383">
        <ele>668.2</ele>
        <time>2012-07-27T13:31:44Z</time>
      </trkpt>
      <trkpt lat="62.5416418" lon="14.2319501">
        <ele>669</ele>
        <time>2012-07-27T13:31:51Z</time>
      </trkpt>
      <trkpt lat="62.5414889" lon="14.2327446">
        <ele>671</ele>
        <time>2012-07-27T13:31:58Z</time>
      </trkpt>
      <trkpt lat="62.541328" lon="14.2336084">
        <ele>672.6</ele>
        <time>2012-07-27T13:32:05Z</time>
      </trkpt>
      <trkpt lat="62.5411833" lon="14.2344272">
        <ele>674.2</ele>
        <time>2012-07-27T13:32:11Z</time>
      </trkpt>
      <trkpt lat="62.5410461" lon="14.235197">
        <ele>676</ele>
        <time>2012-07-27T13:32:17Z</time>
      </trkpt>
      <trkpt lat="62.5408952" lon="14.2360107">
        <ele>676</ele>
        <time>2012-07-27T13:32:24Z</time>
      </trkpt>
      <trkpt lat="62.5407488" lon="14.2368132">
        <ele>675.8</ele>
        <time>2012-07-27T13:32:31Z</time>
      </trkpt>
      <trkpt lat="62.5406503" lon="14.2373665">
        <ele>676</ele>
        <time>2012-07-27T13:32:36Z</time>
      </trkpt>
      <trkpt lat="62.5406167" lon="14.2375943">
        <ele>676.4</ele>
        <time>2012-07-27T13:32:38Z</time>
      </trkpt>
      <trkpt lat="62.5404986" lon="14.2384361">
        <ele>676.4</ele>
        <time>2012-07-27T13:32:45Z</time>
      </trkpt>
      <trkpt lat="62.540401" lon="14.2392116">
        <ele>676.4</ele>
        <time>2012-07-27T13:32:51Z</time>
      </trkpt>
      <trkpt lat="62.540308" lon="14.2401244">
        <ele>676.6</ele>
        <time>2012-07-27T13:32:57Z</time>
      </trkpt>
      <trkpt lat="62.5402451" lon="14.2409395">
        <ele>676.4</ele>
        <time>2012-07-27T13:33:02Z</time>
      </trkpt>
      <trkpt lat="62.5401933" lon="14.2417398">
        <ele>676</ele>
        <time>2012-07-27T13:33:07Z</time>
      </trkpt>
      <trkpt lat="62.5401515" lon="14.2425733">
        <ele>675.6</ele>
        <time>2012-07-27T13:33:12Z</time>
      </trkpt>
      <trkpt lat="62.5401277" lon="14.2434582">
        <ele>675.2</ele>
        <time>2012-07-27T13:33:17Z</time>
      </trkpt>
      <trkpt lat="62.540119" lon="14.2443291">
        <ele>674.8</ele>
        <time>2012-07-27T13:33:22Z</time>
      </trkpt>
      <trkpt lat="62.5401096" lon="14.2451965">
        <ele>674.2</ele>
        <time>2012-07-27T13:33:27Z</time>
      </trkpt>
      <trkpt lat="62.5401021" lon="14.2460545">
        <ele>674.4</ele>
        <time>2012-07-27T13:33:32Z</time>
      </trkpt>
      <trkpt lat="62.540093" lon="14.2468434">
        <ele>674.8</ele>
        <time>2012-07-27T13:33:37Z</time>
      </trkpt>
      <trkpt lat="62.5400889" lon="14.2473179">
        <ele>675.2</ele>
        <time>2012-07-27T13:33:40Z</time>
      </trkpt>
      <trkpt lat="62.5400843" lon="14.2476382">
        <ele>675.8</ele>
        <time>2012-07-27T13:33:42Z</time>
      </trkpt>
      <trkpt lat="62.5400979" lon="14.2485133">
        <ele>676.8</ele>
        <time>2012-07-27T13:33:48Z</time>
      </trkpt>
      <trkpt lat="62.5401273" lon="14.2492903">
        <ele>676.6</ele>
        <time>2012-07-27T13:33:54Z</time>
      </trkpt>
      <trkpt lat="62.5401893" lon="14.2501135">
        <ele>677</ele>
        <time>2012-07-27T13:34:01Z</time>
      </trkpt>
      <trkpt lat="62.5402708" lon="14.2509067">
        <ele>677.8</ele>
        <time>2012-07-27T13:34:08Z</time>
      </trkpt>
      <trkpt lat="62.5403844" lon="14.2517044">
        <ele>678.4</ele>
        <time>2012-07-27T13:34:15Z</time>
      </trkpt>
      <trkpt lat="62.5405359" lon="14.2525422">
        <ele>678.6</ele>
        <time>2012-07-27T13:34:22Z</time>
      </trkpt>
      <trkpt lat="62.5407076" lon="14.2533025">
        <ele>679.2</ele>
        <time>2012-07-27T13:34:28Z</time>
      </trkpt>
      <trkpt lat="62.5408995" lon="14.2540168">
        <ele>679</ele>
        <time>2012-07-27T13:34:34Z</time>
      </trkpt>
      <trkpt lat="62.5411198" lon="14.2547269">
        <ele>678.8</ele>
        <time>2012-07-27T13:34:40Z</time>
      </trkpt>
      <trkpt lat="62.5413842" lon="14.2554465">
        <ele>677.8</ele>
        <time>2012-07-27T13:34:46Z</time>
      </trkpt>
      <trkpt lat="62.5416268" lon="14.2560749">
        <ele>676.8</ele>
        <time>2012-07-27T13:34:51Z</time>
      </trkpt>
      <trkpt lat="62.5418728" lon="14.2567079">
        <ele>676.6</ele>
        <time>2012-07-27T13:34:56Z</time>
      </trkpt>
      <trkpt lat="62.5421091" lon="14.2573331">
        <ele>676.2</ele>
        <time>2012-07-27T13:35:01Z</time>
      </trkpt>
      <trkpt lat="62.5423612" lon="14.2579838">
        <ele>675.4</ele>
        <time>2012-07-27T13:35:06Z</time>
      </trkpt>
      <trkpt lat="62.5426209" lon="14.2586608">
        <ele>674</ele>
        <time>2012-07-27T13:35:11Z</time>
      </trkpt>
      <trkpt lat="62.542883" lon="14.2593332">
        <ele>672.6</ele>
        <time>2012-07-27T13:35:16Z</time>
      </trkpt>
      <trkpt lat="62.543145" lon="14.2599837">
        <ele>671.2</ele>
        <time>2012-07-27T13:35:21Z</time>
      </trkpt>
      <trkpt lat="62.5434264" lon="14.2606622">
        <ele>670</ele>
        <time>2012-07-27T13:35:26Z</time>
      </trkpt>
      <trkpt lat="62.5437315" lon="14.2613283">
        <ele>669.2</ele>
        <time>2012-07-27T13:35:31Z</time>
      </trkpt>
      <trkpt lat="62.5440541" lon="14.2619869">
        <ele>668.4</ele>
        <time>2012-07-27T13:35:36Z</time>
      </trkpt>
      <trkpt lat="62.5443282" lon="14.262524">
        <ele>667.6</ele>
        <time>2012-07-27T13:35:40Z</time>
      </trkpt>
      <trkpt lat="62.5449151" lon="14.2635436">
        <ele>665.6</ele>
        <time>2012-07-27T13:37:52Z</time>
      </trkpt>
      <trkpt lat="62.5452854" lon="14.2641512">
        <ele>661.6</ele>
        <time>2012-07-27T13:37:57Z</time>
      </trkpt>
      <trkpt lat="62.5456444" lon="14.264705">
        <ele>658</ele>
        <time>2012-07-27T13:38:01Z</time>
      </trkpt>
      <trkpt lat="62.5460437" lon="14.2652541">
        <ele>653.8</ele>
        <time>2012-07-27T13:38:05Z</time>
      </trkpt>
      <trkpt lat="62.5463665" lon="14.265686">
        <ele>650.4</ele>
        <time>2012-07-27T13:38:09Z</time>
      </trkpt>
      <trkpt lat="62.5467248" lon="14.2661264">
        <ele>647</ele>
        <time>2012-07-27T13:38:12Z</time>
      </trkpt>
      <trkpt lat="62.5471035" lon="14.2665884">
        <ele>643.6</ele>
        <time>2012-07-27T13:38:14Z</time>
      </trkpt>
      <trkpt lat="62.5474906" lon="14.2670577">
        <ele>640</ele>
        <time>2012-07-27T13:38:17Z</time>
      </trkpt>
      <trkpt lat="62.5478853" lon="14.2675187">
        <ele>636.2</ele>
        <time>2012-07-27T13:38:20Z</time>
      </trkpt>
      <trkpt lat="62.5482764" lon="14.2680096">
        <ele>631.8</ele>
        <time>2012-07-27T13:38:23Z</time>
      </trkpt>
      <trkpt lat="62.5486812" lon="14.2685055">
        <ele>627.2</ele>
        <time>2012-07-27T13:38:26Z</time>
      </trkpt>
      <trkpt lat="62.5491046" lon="14.269021">
        <ele>623.2</ele>
        <time>2012-07-27T13:38:29Z</time>
      </trkpt>
      <trkpt lat="62.5495265" lon="14.2695319">
        <ele>619.2</ele>
        <time>2012-07-27T13:38:32Z</time>
      </trkpt>
      <trkpt lat="62.549948" lon="14.2700405">
        <ele>615.6</ele>
        <time>2012-07-27T13:38:35Z</time>
      </trkpt>
      <trkpt lat="62.5503673" lon="14.2705441">
        <ele>613.2</ele>
        <time>2012-07-27T13:38:38Z</time>
      </trkpt>
      <trkpt lat="62.5507717" lon="14.2710323">
        <ele>611.6</ele>
        <time>2012-07-27T13:38:41Z</time>
      </trkpt>
      <trkpt lat="62.5511528" lon="14.2714962">
        <ele>610.2</ele>
        <time>2012-07-27T13:38:44Z</time>
      </trkpt>
      <trkpt lat="62.5515108" lon="14.2719321">
        <ele>608.4</ele>
        <time>2012-07-27T13:38:47Z</time>
      </trkpt>
      <trkpt lat="62.5518517" lon="14.2723742">
        <ele>606.4</ele>
        <time>2012-07-27T13:38:50Z</time>
      </trkpt>
      <trkpt lat="62.5521719" lon="14.2728592">
        <ele>603.8</ele>
        <time>2012-07-27T13:38:53Z</time>
      </trkpt>
      <trkpt lat="62.552482" lon="14.2733884">
        <ele>601.2</ele>
        <time>2012-07-27T13:38:56Z</time>
      </trkpt>
      <trkpt lat="62.5527862" lon="14.2740054">
        <ele>597.8</ele>
        <time>2012-07-27T13:39:00Z</time>
      </trkpt>
      <trkpt lat="62.5530733" lon="14.2747078">
        <ele>594</ele>
        <time>2012-07-27T13:39:03Z</time>
      </trkpt>
      <trkpt lat="62.5533416" lon="14.2754436">
        <ele>591</ele>
        <time>2012-07-27T13:39:06Z</time>
      </trkpt>
      <trkpt lat="62.553601" lon="14.276183">
        <ele>588.6</ele>
        <time>2012-07-27T13:39:09Z</time>
      </trkpt>
      <trkpt lat="62.5538182" lon="14.2769425">
        <ele>587</ele>
        <time>2012-07-27T13:39:11Z</time>
      </trkpt>
      <trkpt lat="62.5539965" lon="14.2777251">
        <ele>586</ele>
        <time>2012-07-27T13:39:14Z</time>
      </trkpt>
      <trkpt lat="62.5541522" lon="14.278527">
        <ele>584.4</ele>
        <time>2012-07-27T13:39:17Z</time>
      </trkpt>
      <trkpt lat="62.5542828" lon="14.2793556">
        <ele>582.6</ele>
        <time>2012-07-27T13:39:20Z</time>
      </trkpt>
      <trkpt lat="62.5543885" lon="14.2802188">
        <ele>579.6</ele>
        <time>2012-07-27T13:39:23Z</time>
      </trkpt>
      <trkpt lat="62.5544667" lon="14.2811084">
        <ele>576.8</ele>
        <time>2012-07-27T13:39:26Z</time>
      </trkpt>
      <trkpt lat="62.5545107" lon="14.2820153">
        <ele>573.4</ele>
        <time>2012-07-27T13:39:29Z</time>
      </trkpt>
      <trkpt lat="62.5545293" lon="14.2829399">
        <ele>570</ele>
        <time>2012-07-27T13:39:32Z</time>
      </trkpt>
      <trkpt lat="62.5545139" lon="14.2838683">
        <ele>566.8</ele>
        <time>2012-07-27T13:39:35Z</time>
      </trkpt>
      <trkpt lat="62.5544681" lon="14.2847947">
        <ele>563.6</ele>
        <time>2012-07-27T13:39:38Z</time>
      </trkpt>
      <trkpt lat="62.5544117" lon="14.2857129">
        <ele>560.4</ele>
        <time>2012-07-27T13:39:41Z</time>
      </trkpt>
      <trkpt lat="62.554346" lon="14.286638">
        <ele>557.2</ele>
        <time>2012-07-27T13:39:44Z</time>
      </trkpt>
      <trkpt lat="62.5542718" lon="14.2876006">
        <ele>553.6</ele>
        <time>2012-07-27T13:39:47Z</time>
      </trkpt>
      <trkpt lat="62.5542128" lon="14.2886152">
        <ele>549.8</ele>
        <time>2012-07-27T13:39:50Z</time>
      </trkpt>
      <trkpt lat="62.5541895" lon="14.2896394">
        <ele>546.6</ele>
        <time>2012-07-27T13:39:53Z</time>
      </trkpt>
      <trkpt lat="62.5542059" lon="14.290648">
        <ele>543.8</ele>
        <time>2012-07-27T13:39:56Z</time>
      </trkpt>
      <trkpt lat="62.5542511" lon="14.2916073">
        <ele>542</ele>
        <time>2012-07-27T13:39:59Z</time>
      </trkpt>
      <trkpt lat="62.5543237" lon="14.2924858">
        <ele>540.8</ele>
        <time>2012-07-27T13:40:02Z</time>
      </trkpt>
      <trkpt lat="62.5544132" lon="14.2932748">
        <ele>540</ele>
        <time>2012-07-27T13:40:05Z</time>
      </trkpt>
      <trkpt lat="62.5545595" lon="14.2942472">
        <ele>539.8</ele>
        <time>2012-07-27T13:40:09Z</time>
      </trkpt>
      <trkpt lat="62.5547329" lon="14.2951302">
        <ele>539.8</ele>
        <time>2012-07-27T13:40:13Z</time>
      </trkpt>
      <trkpt lat="62.5549227" lon="14.2959299">
        <ele>540</ele>
        <time>2012-07-27T13:40:17Z</time>
      </trkpt>
      <trkpt lat="62.5551469" lon="14.2966888">
        <ele>539.4</ele>
        <time>2012-07-27T13:40:21Z</time>
      </trkpt>
      <trkpt lat="62.5553919" lon="14.2974443">
        <ele>538.8</ele>
        <time>2012-07-27T13:40:26Z</time>
      </trkpt>
      <trkpt lat="62.5556727" lon="14.2981678">
        <ele>537.4</ele>
        <time>2012-07-27T13:40:29Z</time>
      </trkpt>
      <trkpt lat="62.5559844" lon="14.2988314">
        <ele>535.4</ele>
        <time>2012-07-27T13:40:33Z</time>
      </trkpt>
      <trkpt lat="62.556316" lon="14.2994941">
        <ele>532.6</ele>
        <time>2012-07-27T13:40:37Z</time>
      </trkpt>
      <trkpt lat="62.5566844" lon="14.3001208">
        <ele>529</ele>
        <time>2012-07-27T13:40:41Z</time>
      </trkpt>
      <trkpt lat="62.5569875" lon="14.3005687">
        <ele>524.4</ele>
        <time>2012-07-27T13:40:44Z</time>
      </trkpt>
      <trkpt lat="62.5573164" lon="14.3009837">
        <ele>521</ele>
        <time>2012-07-27T13:40:47Z</time>
      </trkpt>
      <trkpt lat="62.5576649" lon="14.3013535">
        <ele>517.2</ele>
        <time>2012-07-27T13:40:50Z</time>
      </trkpt>
      <trkpt lat="62.5580307" lon="14.3016832">
        <ele>514</ele>
        <time>2012-07-27T13:40:53Z</time>
      </trkpt>
      <trkpt lat="62.5584248" lon="14.3019717">
        <ele>510.4</ele>
        <time>2012-07-27T13:40:56Z</time>
      </trkpt>
      <trkpt lat="62.5588403" lon="14.3022037">
        <ele>507.8</ele>
        <time>2012-07-27T13:40:59Z</time>
      </trkpt>
      <trkpt lat="62.5592593" lon="14.3023689">
        <ele>506</ele>
        <time>2012-07-27T13:41:02Z</time>
      </trkpt>
      <trkpt lat="62.559667" lon="14.3024932">
        <ele>504.6</ele>
        <time>2012-07-27T13:41:05Z</time>
      </trkpt>
      <trkpt lat="62.5600512" lon="14.3026051">
        <ele>502.6</ele>
        <time>2012-07-27T13:41:08Z</time>
      </trkpt>
      <trkpt lat="62.5604243" lon="14.3027169">
        <ele>500.4</ele>
        <time>2012-07-27T13:41:11Z</time>
      </trkpt>
      <trkpt lat="62.5608004" lon="14.3028025">
        <ele>499.4</ele>
        <time>2012-07-27T13:41:14Z</time>
      </trkpt>
      <trkpt lat="62.5611494" lon="14.3029056">
        <ele>498.2</ele>
        <time>2012-07-27T13:41:17Z</time>
      </trkpt>
      <trkpt lat="62.5615824" lon="14.3030076">
        <ele>497.4</ele>
        <time>2012-07-27T13:41:21Z</time>
      </trkpt>
      <trkpt lat="62.5619918" lon="14.3031103">
        <ele>497.8</ele>
        <time>2012-07-27T13:41:26Z</time>
      </trkpt>
      <trkpt lat="62.5623793" lon="14.3031889">
        <ele>499.6</ele>
        <time>2012-07-27T13:41:30Z</time>
      </trkpt>
      <trkpt lat="62.5627584" lon="14.3031851">
        <ele>501.6</ele>
        <time>2012-07-27T13:41:33Z</time>
      </trkpt>
      <trkpt lat="62.5631315" lon="14.3032811">
        <ele>502.2</ele>
        <time>2012-07-27T13:41:37Z</time>
      </trkpt>
      <trkpt lat="62.5635048" lon="14.303404">
        <ele>502.6</ele>
        <time>2012-07-27T13:41:41Z</time>
      </trkpt>
      <trkpt lat="62.5638436" lon="14.3035399">
        <ele>499.8</ele>
        <time>2012-07-27T13:41:45Z</time>
      </trkpt>
      <trkpt lat="62.5641831" lon="14.3036495">
        <ele>498.8</ele>
        <time>2012-07-27T13:41:49Z</time>
      </trkpt>
      <trkpt lat="62.5646219" lon="14.3037689">
        <ele>498.4</ele>
        <time>2012-07-27T13:41:54Z</time>
      </trkpt>
      <trkpt lat="62.5650448" lon="14.303877">
        <ele>497.4</ele>
        <time>2012-07-27T13:41:59Z</time>
      </trkpt>
      <trkpt lat="62.565403" lon="14.3039525">
        <ele>497</ele>
        <time>2012-07-27T13:42:03Z</time>
      </trkpt>
      <trkpt lat="62.565771" lon="14.3040491">
        <ele>496.8</ele>
        <time>2012-07-27T13:42:08Z</time>
      </trkpt>
      <trkpt lat="62.5661381" lon="14.3041548">
        <ele>495.4</ele>
        <time>2012-07-27T13:42:12Z</time>
      </trkpt>
      <trkpt lat="62.5665207" lon="14.3042286">
        <ele>494.4</ele>
        <time>2012-07-27T13:42:16Z</time>
      </trkpt>
      <trkpt lat="62.5669036" lon="14.3043397">
        <ele>493</ele>
        <time>2012-07-27T13:42:19Z</time>
      </trkpt>
      <trkpt lat="62.5673056" lon="14.3044651">
        <ele>491</ele>
        <time>2012-07-27T13:42:24Z</time>
      </trkpt>
      <trkpt lat="62.5677236" lon="14.3045793">
        <ele>490.2</ele>
        <time>2012-07-27T13:42:27Z</time>
      </trkpt>
      <trkpt lat="62.568129" lon="14.3046917">
        <ele>489.6</ele>
        <time>2012-07-27T13:42:31Z</time>
      </trkpt>
      <trkpt lat="62.5685194" lon="14.3047972">
        <ele>489.4</ele>
        <time>2012-07-27T13:42:35Z</time>
      </trkpt>
      <trkpt lat="62.5689099" lon="14.3049046">
        <ele>489.2</ele>
        <time>2012-07-27T13:42:39Z</time>
      </trkpt>
      <trkpt lat="62.5693175" lon="14.3050109">
        <ele>489.2</ele>
        <time>2012-07-27T13:42:44Z</time>
      </trkpt>
      <trkpt lat="62.5697221" lon="14.3051235">
        <ele>489</ele>
        <time>2012-07-27T13:42:47Z</time>
      </trkpt>
      <trkpt lat="62.5701377" lon="14.3052308">
        <ele>489.2</ele>
        <time>2012-07-27T13:42:51Z</time>
      </trkpt>
      <trkpt lat="62.5705566" lon="14.305335">
        <ele>489.4</ele>
        <time>2012-07-27T13:42:55Z</time>
      </trkpt>
      <trkpt lat="62.5709747" lon="14.305448">
        <ele>489.2</ele>
        <time>2012-07-27T13:42:59Z</time>
      </trkpt>
      <trkpt lat="62.5713645" lon="14.3055614">
        <ele>488.4</ele>
        <time>2012-07-27T13:43:03Z</time>
      </trkpt>
      <trkpt lat="62.5717393" lon="14.3056639">
        <ele>487.6</ele>
        <time>2012-07-27T13:43:07Z</time>
      </trkpt>
      <trkpt lat="62.5721319" lon="14.3057691">
        <ele>485.8</ele>
        <time>2012-07-27T13:43:11Z</time>
      </trkpt>
      <trkpt lat="62.5725483" lon="14.3058753">
        <ele>484.2</ele>
        <time>2012-07-27T13:43:15Z</time>
      </trkpt>
      <trkpt lat="62.5729783" lon="14.3059867">
        <ele>482.8</ele>
        <time>2012-07-27T13:43:19Z</time>
      </trkpt>
      <trkpt lat="62.5734041" lon="14.3060974">
        <ele>480.8</ele>
        <time>2012-07-27T13:43:24Z</time>
      </trkpt>
      <trkpt lat="62.5738222" lon="14.3062074">
        <ele>478.8</ele>
        <time>2012-07-27T13:43:27Z</time>
      </trkpt>
      <trkpt lat="62.5742291" lon="14.3063151">
        <ele>477.8</ele>
        <time>2012-07-27T13:43:31Z</time>
      </trkpt>
      <trkpt lat="62.5746256" lon="14.3064209">
        <ele>477.4</ele>
        <time>2012-07-27T13:43:35Z</time>
      </trkpt>
      <trkpt lat="62.5750116" lon="14.3065232">
        <ele>477</ele>
        <time>2012-07-27T13:43:39Z</time>
      </trkpt>
      <trkpt lat="62.5753965" lon="14.3066237">
        <ele>476.8</ele>
        <time>2012-07-27T13:43:43Z</time>
      </trkpt>
      <trkpt lat="62.5757821" lon="14.3067242">
        <ele>476.6</ele>
        <time>2012-07-27T13:43:47Z</time>
      </trkpt>
      <trkpt lat="62.5761678" lon="14.3068273">
        <ele>476.4</ele>
        <time>2012-07-27T13:43:51Z</time>
      </trkpt>
      <trkpt lat="62.5765515" lon="14.3069324">
        <ele>476.2</ele>
        <time>2012-07-27T13:43:55Z</time>
      </trkpt>
      <trkpt lat="62.5769427" lon="14.3070308">
        <ele>475.6</ele>
        <time>2012-07-27T13:43:59Z</time>
      </trkpt>
      <trkpt lat="62.5773431" lon="14.3071386">
        <ele>474.8</ele>
        <time>2012-07-27T13:44:03Z</time>
      </trkpt>
      <trkpt lat="62.5777523" lon="14.3072424">
        <ele>473.8</ele>
        <time>2012-07-27T13:44:07Z</time>
      </trkpt>
      <trkpt lat="62.5781739" lon="14.3073537">
        <ele>472.8</ele>
        <time>2012-07-27T13:44:11Z</time>
      </trkpt>
      <trkpt lat="62.5786032" lon="14.3074651">
        <ele>471.8</ele>
        <time>2012-07-27T13:44:15Z</time>
      </trkpt>
      <trkpt lat="62.579038" lon="14.3075838">
        <ele>470.6</ele>
        <time>2012-07-27T13:44:19Z</time>
      </trkpt>
      <trkpt lat="62.5794519" lon="14.3076872">
        <ele>469.8</ele>
        <time>2012-07-27T13:44:23Z</time>
      </trkpt>
      <trkpt lat="62.5798391" lon="14.3077945">
        <ele>468.8</ele>
        <time>2012-07-27T13:44:27Z</time>
      </trkpt>
      <trkpt lat="62.5802371" lon="14.3078976">
        <ele>468</ele>
        <time>2012-07-27T13:44:31Z</time>
      </trkpt>
      <trkpt lat="62.5806568" lon="14.3080068">
        <ele>467.4</ele>
        <time>2012-07-27T13:44:35Z</time>
      </trkpt>
      <trkpt lat="62.5810827" lon="14.3081147">
        <ele>466.4</ele>
        <time>2012-07-27T13:44:39Z</time>
      </trkpt>
      <trkpt lat="62.5815155" lon="14.3082269">
        <ele>465.8</ele>
        <time>2012-07-27T13:44:43Z</time>
      </trkpt>
      <trkpt lat="62.5819487" lon="14.3083343">
        <ele>465</ele>
        <time>2012-07-27T13:44:47Z</time>
      </trkpt>
      <trkpt lat="62.5823803" lon="14.3084525">
        <ele>464.4</ele>
        <time>2012-07-27T13:44:51Z</time>
      </trkpt>
      <trkpt lat="62.5828044" lon="14.3085624">
        <ele>464.4</ele>
        <time>2012-07-27T13:44:55Z</time>
      </trkpt>
      <trkpt lat="62.5832095" lon="14.308662">
        <ele>464.8</ele>
        <time>2012-07-27T13:44:59Z</time>
      </trkpt>
      <trkpt lat="62.5835928" lon="14.3087672">
        <ele>465</ele>
        <time>2012-07-27T13:45:03Z</time>
      </trkpt>
      <trkpt lat="62.5839592" lon="14.3088746">
        <ele>464.8</ele>
        <time>2012-07-27T13:45:07Z</time>
      </trkpt>
      <trkpt lat="62.5843116" lon="14.3089702">
        <ele>464.6</ele>
        <time>2012-07-27T13:45:11Z</time>
      </trkpt>
      <trkpt lat="62.5846626" lon="14.3090725">
        <ele>464</ele>
        <time>2012-07-27T13:45:15Z</time>
      </trkpt>
      <trkpt lat="62.5850757" lon="14.3091795">
        <ele>463.6</ele>
        <time>2012-07-27T13:45:20Z</time>
      </trkpt>
      <trkpt lat="62.5854731" lon="14.3092828">
        <ele>462.6</ele>
        <time>2012-07-27T13:45:25Z</time>
      </trkpt>
      <trkpt lat="62.5858308" lon="14.3093732">
        <ele>462</ele>
        <time>2012-07-27T13:45:29Z</time>
      </trkpt>
      <trkpt lat="62.5861897" lon="14.309467">
        <ele>460.8</ele>
        <time>2012-07-27T13:45:33Z</time>
      </trkpt>
      <trkpt lat="62.5865516" lon="14.309559">
        <ele>460.2</ele>
        <time>2012-07-27T13:45:38Z</time>
      </trkpt>
      <trkpt lat="62.5869812" lon="14.309661">
        <ele>459.8</ele>
        <time>2012-07-27T13:45:43Z</time>
      </trkpt>
      <trkpt lat="62.5874097" lon="14.3097657">
        <ele>460.4</ele>
        <time>2012-07-27T13:45:47Z</time>
      </trkpt>
      <trkpt lat="62.5878462" lon="14.3098972">
        <ele>460</ele>
        <time>2012-07-27T13:45:52Z</time>
      </trkpt>
      <trkpt lat="62.5882027" lon="14.3099871">
        <ele>459.4</ele>
        <time>2012-07-27T13:45:57Z</time>
      </trkpt>
      <trkpt lat="62.5886422" lon="14.3101069">
        <ele>459</ele>
        <time>2012-07-27T13:46:01Z</time>
      </trkpt>
      <trkpt lat="62.5890651" lon="14.3102116">
        <ele>458.8</ele>
        <time>2012-07-27T13:46:07Z</time>
      </trkpt>
      <trkpt lat="62.5894926" lon="14.3103209">
        <ele>458.4</ele>
        <time>2012-07-27T13:46:11Z</time>
      </trkpt>
      <trkpt lat="62.5899244" lon="14.3104367">
        <ele>458</ele>
        <time>2012-07-27T13:46:16Z</time>
      </trkpt>
      <trkpt lat="62.590344" lon="14.3105453">
        <ele>457.6</ele>
        <time>2012-07-27T13:46:21Z</time>
      </trkpt>
      <trkpt lat="62.5907451" lon="14.3106493">
        <ele>457.2</ele>
        <time>2012-07-27T13:46:26Z</time>
      </trkpt>
      <trkpt lat="62.5911569" lon="14.310783">
        <ele>455.4</ele>
        <time>2012-07-27T13:46:31Z</time>
      </trkpt>
      <trkpt lat="62.5915166" lon="14.3108949">
        <ele>454.2</ele>
        <time>2012-07-27T13:46:35Z</time>
      </trkpt>
      <trkpt lat="62.5918984" lon="14.3110231">
        <ele>453</ele>
        <time>2012-07-27T13:46:39Z</time>
      </trkpt>
      <trkpt lat="62.592297" lon="14.3111409">
        <ele>452.4</ele>
        <time>2012-07-27T13:46:43Z</time>
      </trkpt>
      <trkpt lat="62.5927044" lon="14.3112557">
        <ele>451.6</ele>
        <time>2012-07-27T13:46:47Z</time>
      </trkpt>
      <trkpt lat="62.5931097" lon="14.3113689">
        <ele>451</ele>
        <time>2012-07-27T13:46:51Z</time>
      </trkpt>
      <trkpt lat="62.5935208" lon="14.3114833">
        <ele>450.4</ele>
        <time>2012-07-27T13:46:55Z</time>
      </trkpt>
      <trkpt lat="62.5939265" lon="14.3116062">
        <ele>449.2</ele>
        <time>2012-07-27T13:46:59Z</time>
      </trkpt>
      <trkpt lat="62.5943334" lon="14.3117251">
        <ele>448.2</ele>
        <time>2012-07-27T13:47:03Z</time>
      </trkpt>
      <trkpt lat="62.594732" lon="14.3118434">
        <ele>447.4</ele>
        <time>2012-07-27T13:47:07Z</time>
      </trkpt>
      <trkpt lat="62.5951217" lon="14.3119485">
        <ele>447</ele>
        <time>2012-07-27T13:47:11Z</time>
      </trkpt>
      <trkpt lat="62.5955276" lon="14.3120576">
        <ele>446.6</ele>
        <time>2012-07-27T13:47:15Z</time>
      </trkpt>
      <trkpt lat="62.5959484" lon="14.312182">
        <ele>446</ele>
        <time>2012-07-27T13:47:19Z</time>
      </trkpt>
      <trkpt lat="62.596372" lon="14.3122997">
        <ele>445.4</ele>
        <time>2012-07-27T13:47:23Z</time>
      </trkpt>
      <trkpt lat="62.5967985" lon="14.312414">
        <ele>444.6</ele>
        <time>2012-07-27T13:47:27Z</time>
      </trkpt>
      <trkpt lat="62.597227" lon="14.3125207">
        <ele>443.4</ele>
        <time>2012-07-27T13:47:31Z</time>
      </trkpt>
      <trkpt lat="62.5976521" lon="14.3126437">
        <ele>443</ele>
        <time>2012-07-27T13:47:35Z</time>
      </trkpt>
      <trkpt lat="62.5980659" lon="14.3127678">
        <ele>442.6</ele>
        <time>2012-07-27T13:47:39Z</time>
      </trkpt>
      <trkpt lat="62.5984898" lon="14.312885">
        <ele>442.2</ele>
        <time>2012-07-27T13:47:43Z</time>
      </trkpt>
      <trkpt lat="62.5989093" lon="14.3129989">
        <ele>441.8</ele>
        <time>2012-07-27T13:47:47Z</time>
      </trkpt>
      <trkpt lat="62.5993104" lon="14.3131185">
        <ele>440.8</ele>
        <time>2012-07-27T13:47:52Z</time>
      </trkpt>
      <trkpt lat="62.599708" lon="14.3132948">
        <ele>439.6</ele>
        <time>2012-07-27T13:47:55Z</time>
      </trkpt>
      <trkpt lat="62.600112" lon="14.3135427">
        <ele>438</ele>
        <time>2012-07-27T13:47:59Z</time>
      </trkpt>
      <trkpt lat="62.6005295" lon="14.3138444">
        <ele>436</ele>
        <time>2012-07-27T13:48:03Z</time>
      </trkpt>
      <trkpt lat="62.600938" lon="14.314217">
        <ele>434</ele>
        <time>2012-07-27T13:48:07Z</time>
      </trkpt>
      <trkpt lat="62.601342" lon="14.3146355">
        <ele>432.4</ele>
        <time>2012-07-27T13:48:12Z</time>
      </trkpt>
      <trkpt lat="62.6017362" lon="14.315153">
        <ele>430</ele>
        <time>2012-07-27T13:48:15Z</time>
      </trkpt>
      <trkpt lat="62.6021128" lon="14.3157325">
        <ele>427</ele>
        <time>2012-07-27T13:48:20Z</time>
      </trkpt>
      <trkpt lat="62.6024587" lon="14.3163504">
        <ele>424.8</ele>
        <time>2012-07-27T13:48:23Z</time>
      </trkpt>
      <trkpt lat="62.602771" lon="14.3170132">
        <ele>422.6</ele>
        <time>2012-07-27T13:48:27Z</time>
      </trkpt>
      <trkpt lat="62.6030778" lon="14.3176865">
        <ele>422</ele>
        <time>2012-07-27T13:48:32Z</time>
      </trkpt>
      <trkpt lat="62.6033661" lon="14.3183661">
        <ele>420.4</ele>
        <time>2012-07-27T13:48:35Z</time>
      </trkpt>
      <trkpt lat="62.6036699" lon="14.3190323">
        <ele>420.8</ele>
        <time>2012-07-27T13:48:39Z</time>
      </trkpt>
      <trkpt lat="62.6039548" lon="14.3197067">
        <ele>420.2</ele>
        <time>2012-07-27T13:48:43Z</time>
      </trkpt>
      <trkpt lat="62.6042281" lon="14.3203335">
        <ele>418.8</ele>
        <time>2012-07-27T13:48:48Z</time>
      </trkpt>
      <trkpt lat="62.6044964" lon="14.3209883">
        <ele>417.2</ele>
        <time>2012-07-27T13:48:52Z</time>
      </trkpt>
      <trkpt lat="62.6047712" lon="14.321696">
        <ele>416.6</ele>
        <time>2012-07-27T13:48:56Z</time>
      </trkpt>
      <trkpt lat="62.6050188" lon="14.322418">
        <ele>415.4</ele>
        <time>2012-07-27T13:49:00Z</time>
      </trkpt>
      <trkpt lat="62.6052434" lon="14.3231433">
        <ele>415</ele>
        <time>2012-07-27T13:49:04Z</time>
      </trkpt>
      <trkpt lat="62.6054341" lon="14.3238517">
        <ele>415.6</ele>
        <time>2012-07-27T13:49:08Z</time>
      </trkpt>
      <trkpt lat="62.6055978" lon="14.3245645">
        <ele>417.2</ele>
        <time>2012-07-27T13:49:12Z</time>
      </trkpt>
      <trkpt lat="62.6057669" lon="14.3252997">
        <ele>418.4</ele>
        <time>2012-07-27T13:49:16Z</time>
      </trkpt>
      <trkpt lat="62.6059315" lon="14.3260321">
        <ele>419.6</ele>
        <time>2012-07-27T13:49:19Z</time>
      </trkpt>
      <trkpt lat="62.6060983" lon="14.326776">
        <ele>419.8</ele>
        <time>2012-07-27T13:49:24Z</time>
      </trkpt>
      <trkpt lat="62.6062551" lon="14.3274821">
        <ele>420.4</ele>
        <time>2012-07-27T13:49:28Z</time>
      </trkpt>
      <trkpt lat="62.6064825" lon="14.328336">
        <ele>422</ele>
        <time>2012-07-27T13:49:32Z</time>
      </trkpt>
      <trkpt lat="62.6066572" lon="14.3290554">
        <ele>422</ele>
        <time>2012-07-27T13:49:37Z</time>
      </trkpt>
      <trkpt lat="62.6068266" lon="14.3297603">
        <ele>421.4</ele>
        <time>2012-07-27T13:49:41Z</time>
      </trkpt>
      <trkpt lat="62.6070171" lon="14.3304307">
        <ele>421</ele>
        <time>2012-07-27T13:49:45Z</time>
      </trkpt>
      <trkpt lat="62.607275" lon="14.3312144">
        <ele>420</ele>
        <time>2012-07-27T13:49:50Z</time>
      </trkpt>
      <trkpt lat="62.6075414" lon="14.3319721">
        <ele>418.4</ele>
        <time>2012-07-27T13:49:55Z</time>
      </trkpt>
      <trkpt lat="62.6078222" lon="14.3326969">
        <ele>418</ele>
        <time>2012-07-27T13:50:00Z</time>
      </trkpt>
      <trkpt lat="62.6080888" lon="14.3333462">
        <ele>418</ele>
        <time>2012-07-27T13:50:05Z</time>
      </trkpt>
      <trkpt lat="62.6083475" lon="14.3339416">
        <ele>418.2</ele>
        <time>2012-07-27T13:50:10Z</time>
      </trkpt>
      <trkpt lat="62.6086282" lon="14.3345255">
        <ele>419.2</ele>
        <time>2012-07-27T13:50:15Z</time>
      </trkpt>
      <trkpt lat="62.6088959" lon="14.3350527">
        <ele>419</ele>
        <time>2012-07-27T13:50:20Z</time>
      </trkpt>
      <trkpt lat="62.6091728" lon="14.3355551">
        <ele>419.6</ele>
        <time>2012-07-27T13:50:25Z</time>
      </trkpt>
      <trkpt lat="62.6094622" lon="14.3360329">
        <ele>421.2</ele>
        <time>2012-07-27T13:50:30Z</time>
      </trkpt>
      <trkpt lat="62.6097879" lon="14.3364597">
        <ele>422.2</ele>
        <time>2012-07-27T13:50:35Z</time>
      </trkpt>
      <trkpt lat="62.6101358" lon="14.3368741">
        <ele>422.8</ele>
        <time>2012-07-27T13:50:40Z</time>
      </trkpt>
      <trkpt lat="62.610508" lon="14.3373014">
        <ele>421.6</ele>
        <time>2012-07-27T13:50:45Z</time>
      </trkpt>
      <trkpt lat="62.610885" lon="14.3377077">
        <ele>420.2</ele>
        <time>2012-07-27T13:50:50Z</time>
      </trkpt>
      <trkpt lat="62.6112839" lon="14.3381658">
        <ele>418.8</ele>
        <time>2012-07-27T13:50:55Z</time>
      </trkpt>
      <trkpt lat="62.6115933" lon="14.3385809">
        <ele>417.6</ele>
        <time>2012-07-27T13:50:59Z</time>
      </trkpt>
      <trkpt lat="62.6118887" lon="14.339046">
        <ele>416.4</ele>
        <time>2012-07-27T13:51:02Z</time>
      </trkpt>
      <trkpt lat="62.6121612" lon="14.3395676">
        <ele>415.6</ele>
        <time>2012-07-27T13:51:07Z</time>
      </trkpt>
      <trkpt lat="62.6124166" lon="14.3401272">
        <ele>415</ele>
        <time>2012-07-27T13:51:11Z</time>
      </trkpt>
      <trkpt lat="62.612646" lon="14.3407346">
        <ele>414.2</ele>
        <time>2012-07-27T13:51:14Z</time>
      </trkpt>
      <trkpt lat="62.6128562" lon="14.3413844">
        <ele>413.4</ele>
        <time>2012-07-27T13:51:19Z</time>
      </trkpt>
      <trkpt lat="62.613039" lon="14.3420701">
        <ele>413</ele>
        <time>2012-07-27T13:51:23Z</time>
      </trkpt>
      <trkpt lat="62.613221" lon="14.3429188">
        <ele>412.4</ele>
        <time>2012-07-27T13:51:28Z</time>
      </trkpt>
      <trkpt lat="62.6133656" lon="14.3438139">
        <ele>412</ele>
        <time>2012-07-27T13:51:33Z</time>
      </trkpt>
      <trkpt lat="62.6134748" lon="14.3447188">
        <ele>412</ele>
        <time>2012-07-27T13:51:38Z</time>
      </trkpt>
      <trkpt lat="62.6135337" lon="14.3456339">
        <ele>412</ele>
        <time>2012-07-27T13:51:43Z</time>
      </trkpt>
      <trkpt lat="62.6135525" lon="14.346551">
        <ele>412</ele>
        <time>2012-07-27T13:51:48Z</time>
      </trkpt>
      <trkpt lat="62.6135338" lon="14.347483">
        <ele>411.8</ele>
        <time>2012-07-27T13:51:52Z</time>
      </trkpt>
      <trkpt lat="62.6134863" lon="14.3482606">
        <ele>412</ele>
        <time>2012-07-27T13:51:56Z</time>
      </trkpt>
      <trkpt lat="62.6134316" lon="14.3490395">
        <ele>412.2</ele>
        <time>2012-07-27T13:52:00Z</time>
      </trkpt>
      <trkpt lat="62.6133761" lon="14.3498315">
        <ele>412.4</ele>
        <time>2012-07-27T13:52:04Z</time>
      </trkpt>
      <trkpt lat="62.6133205" lon="14.3506258">
        <ele>412.8</ele>
        <time>2012-07-27T13:52:08Z</time>
      </trkpt>
      <trkpt lat="62.6132736" lon="14.3513981">
        <ele>413</ele>
        <time>2012-07-27T13:52:12Z</time>
      </trkpt>
      <trkpt lat="62.6132437" lon="14.3523237">
        <ele>413.8</ele>
        <time>2012-07-27T13:52:17Z</time>
      </trkpt>
      <trkpt lat="62.6132451" lon="14.3530981">
        <ele>414.4</ele>
        <time>2012-07-27T13:52:21Z</time>
      </trkpt>
      <trkpt lat="62.6132845" lon="14.3539916">
        <ele>414.8</ele>
        <time>2012-07-27T13:52:26Z</time>
      </trkpt>
      <trkpt lat="62.6133555" lon="14.3548667">
        <ele>414.2</ele>
        <time>2012-07-27T13:52:31Z</time>
      </trkpt>
      <trkpt lat="62.613469" lon="14.355732">
        <ele>413.4</ele>
        <time>2012-07-27T13:52:36Z</time>
      </trkpt>
      <trkpt lat="62.6136295" lon="14.3565797">
        <ele>412.2</ele>
        <time>2012-07-27T13:52:41Z</time>
      </trkpt>
      <trkpt lat="62.6138001" lon="14.3573256">
        <ele>410.6</ele>
        <time>2012-07-27T13:52:45Z</time>
      </trkpt>
      <trkpt lat="62.6140174" lon="14.3580983">
        <ele>409</ele>
        <time>2012-07-27T13:52:49Z</time>
      </trkpt>
      <trkpt lat="62.6142764" lon="14.3588729">
        <ele>406.8</ele>
        <time>2012-07-27T13:52:53Z</time>
      </trkpt>
      <trkpt lat="62.6145718" lon="14.3596437">
        <ele>403.8</ele>
        <time>2012-07-27T13:52:57Z</time>
      </trkpt>
      <trkpt lat="62.6148087" lon="14.3602467">
        <ele>401.2</ele>
        <time>2012-07-27T13:53:00Z</time>
      </trkpt>
      <trkpt lat="62.6150595" lon="14.3608677">
        <ele>398.8</ele>
        <time>2012-07-27T13:53:03Z</time>
      </trkpt>
      <trkpt lat="62.6153158" lon="14.3615241">
        <ele>395.8</ele>
        <time>2012-07-27T13:53:06Z</time>
      </trkpt>
      <trkpt lat="62.6155821" lon="14.3622012">
        <ele>392.8</ele>
        <time>2012-07-27T13:53:09Z</time>
      </trkpt>
      <trkpt lat="62.6158576" lon="14.3628943">
        <ele>390</ele>
        <time>2012-07-27T13:53:12Z</time>
      </trkpt>
      <trkpt lat="62.616138" lon="14.3636033">
        <ele>387</ele>
        <time>2012-07-27T13:53:15Z</time>
      </trkpt>
      <trkpt lat="62.6164202" lon="14.3643111">
        <ele>384.4</ele>
        <time>2012-07-27T13:53:18Z</time>
      </trkpt>
      <trkpt lat="62.6166932" lon="14.3650067">
        <ele>382.6</ele>
        <time>2012-07-27T13:53:21Z</time>
      </trkpt>
      <trkpt lat="62.6169635" lon="14.3656828">
        <ele>381.6</ele>
        <time>2012-07-27T13:53:24Z</time>
      </trkpt>
      <trkpt lat="62.6172266" lon="14.3663476">
        <ele>381.2</ele>
        <time>2012-07-27T13:53:27Z</time>
      </trkpt>
      <trkpt lat="62.6174762" lon="14.3669766">
        <ele>381.2</ele>
        <time>2012-07-27T13:53:30Z</time>
      </trkpt>
      <trkpt lat="62.6177748" lon="14.3677419">
        <ele>381.8</ele>
        <time>2012-07-27T13:53:34Z</time>
      </trkpt>
      <trkpt lat="62.6180115" lon="14.3683788">
        <ele>382.8</ele>
        <time>2012-07-27T13:53:38Z</time>
      </trkpt>
      <trkpt lat="62.6182549" lon="14.3690884">
        <ele>384.2</ele>
        <time>2012-07-27T13:53:43Z</time>
      </trkpt>
      <trkpt lat="62.6184993" lon="14.3698336">
        <ele>385.4</ele>
        <time>2012-07-27T13:53:48Z</time>
      </trkpt>
      <trkpt lat="62.6186946" lon="14.3704811">
        <ele>385.8</ele>
        <time>2012-07-27T13:53:53Z</time>
      </trkpt>
      <trkpt lat="62.6189311" lon="14.3712606">
        <ele>386.4</ele>
        <time>2012-07-27T13:53:57Z</time>
      </trkpt>
      <trkpt lat="62.6191589" lon="14.3720044">
        <ele>387.2</ele>
        <time>2012-07-27T13:54:02Z</time>
      </trkpt>
      <trkpt lat="62.6193567" lon="14.372767">
        <ele>388.8</ele>
        <time>2012-07-27T13:54:07Z</time>
      </trkpt>
      <trkpt lat="62.6195592" lon="14.373526">
        <ele>389.4</ele>
        <time>2012-07-27T13:54:12Z</time>
      </trkpt>
      <trkpt lat="62.6197742" lon="14.3742936">
        <ele>388.4</ele>
        <time>2012-07-27T13:54:17Z</time>
      </trkpt>
      <trkpt lat="62.619939" lon="14.3749421">
        <ele>388</ele>
        <time>2012-07-27T13:54:22Z</time>
      </trkpt>
      <trkpt lat="62.6199831" lon="14.3750198">
        <ele>387.6</ele>
        <time>2012-07-27T13:54:23Z</time>
      </trkpt>
      <trkpt lat="62.6203487" lon="14.3748679">
        <ele>385.6</ele>
        <time>2012-07-27T13:54:28Z</time>
      </trkpt>
      <trkpt lat="62.6206763" lon="14.3744804">
        <ele>384.6</ele>
        <time>2012-07-27T13:54:32Z</time>
      </trkpt>
      <trkpt lat="62.6209978" lon="14.374119">
        <ele>383.6</ele>
        <time>2012-07-27T13:54:36Z</time>
      </trkpt>
      <trkpt lat="62.6213958" lon="14.3737253">
        <ele>384.2</ele>
        <time>2012-07-27T13:54:41Z</time>
      </trkpt>
      <trkpt lat="62.6217917" lon="14.3733928">
        <ele>384</ele>
        <time>2012-07-27T13:54:46Z</time>
      </trkpt>
      <trkpt lat="62.6221995" lon="14.3730975">
        <ele>383.4</ele>
        <time>2012-07-27T13:54:51Z</time>
      </trkpt>
      <trkpt lat="62.622625" lon="14.3728302">
        <ele>382</ele>
        <time>2012-07-27T13:54:56Z</time>
      </trkpt>
      <trkpt lat="62.6229714" lon="14.3726297">
        <ele>381</ele>
        <time>2012-07-27T13:55:00Z</time>
      </trkpt>
      <trkpt lat="62.6234038" lon="14.3723733">
        <ele>380.6</ele>
        <time>2012-07-27T13:55:05Z</time>
      </trkpt>
      <trkpt lat="62.623754" lon="14.3721789">
        <ele>380</ele>
        <time>2012-07-27T13:55:09Z</time>
      </trkpt>
      <trkpt lat="62.62411" lon="14.3719751">
        <ele>380</ele>
        <time>2012-07-27T13:55:13Z</time>
      </trkpt>
      <trkpt lat="62.6245406" lon="14.3717237">
        <ele>379.8</ele>
        <time>2012-07-27T13:55:18Z</time>
      </trkpt>
      <trkpt lat="62.6249518" lon="14.371486">
        <ele>379.6</ele>
        <time>2012-07-27T13:55:23Z</time>
      </trkpt>
      <trkpt lat="62.6253525" lon="14.3712517">
        <ele>379.8</ele>
        <time>2012-07-27T13:55:28Z</time>
      </trkpt>
      <trkpt lat="62.6257571" lon="14.3710111">
        <ele>380.2</ele>
        <time>2012-07-27T13:55:33Z</time>
      </trkpt>
      <trkpt lat="62.6261561" lon="14.3707784">
        <ele>379.8</ele>
        <time>2012-07-27T13:55:38Z</time>
      </trkpt>
      <trkpt lat="62.6265479" lon="14.3705489">
        <ele>379.8</ele>
        <time>2012-07-27T13:55:43Z</time>
      </trkpt>
      <trkpt lat="62.6269565" lon="14.3703012">
        <ele>380.6</ele>
        <time>2012-07-27T13:55:48Z</time>
      </trkpt>
      <trkpt lat="62.6273703" lon="14.3700453">
        <ele>381.8</ele>
        <time>2012-07-27T13:55:53Z</time>
      </trkpt>
      <trkpt lat="62.6277737" lon="14.3697991">
        <ele>382.6</ele>
        <time>2012-07-27T13:55:58Z</time>
      </trkpt>
      <trkpt lat="62.628149" lon="14.3695678">
        <ele>383</ele>
        <time>2012-07-27T13:56:03Z</time>
      </trkpt>
      <trkpt lat="62.6285317" lon="14.3693756">
        <ele>384</ele>
        <time>2012-07-27T13:56:08Z</time>
      </trkpt>
      <trkpt lat="62.6288996" lon="14.3691358">
        <ele>384.2</ele>
        <time>2012-07-27T13:56:14Z</time>
      </trkpt>
      <trkpt lat="62.6292915" lon="14.3689264">
        <ele>383.8</ele>
        <time>2012-07-27T13:56:18Z</time>
      </trkpt>
      <trkpt lat="62.6296902" lon="14.3687025">
        <ele>383.4</ele>
        <time>2012-07-27T13:56:24Z</time>
      </trkpt>
      <trkpt lat="62.6300951" lon="14.3684845">
        <ele>383.2</ele>
        <time>2012-07-27T13:56:28Z</time>
      </trkpt>
      <trkpt lat="62.6305181" lon="14.3683013">
        <ele>383.4</ele>
        <time>2012-07-27T13:56:34Z</time>
      </trkpt>
      <trkpt lat="62.6309457" lon="14.3681453">
        <ele>383.4</ele>
        <time>2012-07-27T13:56:38Z</time>
      </trkpt>
      <trkpt lat="62.63136" lon="14.3680091">
        <ele>383.6</ele>
        <time>2012-07-27T13:56:44Z</time>
      </trkpt>
      <trkpt lat="62.6317828" lon="14.3678805">
        <ele>384</ele>
        <time>2012-07-27T13:56:49Z</time>
      </trkpt>
      <trkpt lat="62.6322226" lon="14.3677484">
        <ele>384.4</ele>
        <time>2012-07-27T13:56:54Z</time>
      </trkpt>
      <trkpt lat="62.6325832" lon="14.3676604">
        <ele>384</ele>
        <time>2012-07-27T13:56:58Z</time>
      </trkpt>
      <trkpt lat="62.6329416" lon="14.3675883">
        <ele>383.6</ele>
        <time>2012-07-27T13:57:02Z</time>
      </trkpt>
      <trkpt lat="62.6333028" lon="14.3675387">
        <ele>383.2</ele>
        <time>2012-07-27T13:57:06Z</time>
      </trkpt>
      <trkpt lat="62.6336663" lon="14.3675055">
        <ele>382.6</ele>
        <time>2012-07-27T13:57:10Z</time>
      </trkpt>
      <trkpt lat="62.6340377" lon="14.3675132">
        <ele>382</ele>
        <time>2012-07-27T13:57:14Z</time>
      </trkpt>
      <trkpt lat="62.634402" lon="14.367545">
        <ele>380.6</ele>
        <time>2012-07-27T13:57:18Z</time>
      </trkpt>
      <trkpt lat="62.6348457" lon="14.3675883">
        <ele>379.2</ele>
        <time>2012-07-27T13:57:23Z</time>
      </trkpt>
      <trkpt lat="62.6352649" lon="14.3676447">
        <ele>377.4</ele>
        <time>2012-07-27T13:57:28Z</time>
      </trkpt>
      <trkpt lat="62.6356628" lon="14.3677168">
        <ele>376.6</ele>
        <time>2012-07-27T13:57:32Z</time>
      </trkpt>
      <trkpt lat="62.636057" lon="14.3677997">
        <ele>375.6</ele>
        <time>2012-07-27T13:57:38Z</time>
      </trkpt>
      <trkpt lat="62.6364408" lon="14.3679008">
        <ele>375</ele>
        <time>2012-07-27T13:57:43Z</time>
      </trkpt>
      <trkpt lat="62.6368188" lon="14.3680218">
        <ele>375</ele>
        <time>2012-07-27T13:57:48Z</time>
      </trkpt>
      <trkpt lat="62.6372063" lon="14.3681599">
        <ele>374.6</ele>
        <time>2012-07-27T13:57:53Z</time>
      </trkpt>
      <trkpt lat="62.6376017" lon="14.3683339">
        <ele>374.2</ele>
        <time>2012-07-27T13:57:58Z</time>
      </trkpt>
      <trkpt lat="62.6380077" lon="14.3685198">
        <ele>374</ele>
        <time>2012-07-27T13:58:03Z</time>
      </trkpt>
      <trkpt lat="62.6384232" lon="14.3687346">
        <ele>373.8</ele>
        <time>2012-07-27T13:58:08Z</time>
      </trkpt>
      <trkpt lat="62.6388376" lon="14.3689779">
        <ele>373.2</ele>
        <time>2012-07-27T13:58:13Z</time>
      </trkpt>
      <trkpt lat="62.6392566" lon="14.3692379">
        <ele>372.4</ele>
        <time>2012-07-27T13:58:18Z</time>
      </trkpt>
      <trkpt lat="62.6396822" lon="14.3695266">
        <ele>371.2</ele>
        <time>2012-07-27T13:58:23Z</time>
      </trkpt>
      <trkpt lat="62.6400979" lon="14.369801">
        <ele>369.6</ele>
        <time>2012-07-27T13:58:28Z</time>
      </trkpt>
      <trkpt lat="62.6405096" lon="14.370091">
        <ele>368.2</ele>
        <time>2012-07-27T13:58:32Z</time>
      </trkpt>
      <trkpt lat="62.6409361" lon="14.3703558">
        <ele>366.6</ele>
        <time>2012-07-27T13:58:38Z</time>
      </trkpt>
      <trkpt lat="62.6413021" lon="14.3705487">
        <ele>365.2</ele>
        <time>2012-07-27T13:58:42Z</time>
      </trkpt>
      <trkpt lat="62.6416795" lon="14.3707064">
        <ele>364</ele>
        <time>2012-07-27T13:58:46Z</time>
      </trkpt>
      <trkpt lat="62.642058" lon="14.370847">
        <ele>363</ele>
        <time>2012-07-27T13:58:50Z</time>
      </trkpt>
      <trkpt lat="62.6424191" lon="14.3709556">
        <ele>362.2</ele>
        <time>2012-07-27T13:58:54Z</time>
      </trkpt>
      <trkpt lat="62.6428511" lon="14.3710762">
        <ele>361.8</ele>
        <time>2012-07-27T13:58:59Z</time>
      </trkpt>
      <trkpt lat="62.6432724" lon="14.3712322">
        <ele>361</ele>
        <time>2012-07-27T13:59:04Z</time>
      </trkpt>
      <trkpt lat="62.6437047" lon="14.3713574">
        <ele>360.2</ele>
        <time>2012-07-27T13:59:09Z</time>
      </trkpt>
      <trkpt lat="62.644127" lon="14.3715316">
        <ele>360</ele>
        <time>2012-07-27T13:59:14Z</time>
      </trkpt>
      <trkpt lat="62.6445383" lon="14.3717641">
        <ele>360.6</ele>
        <time>2012-07-27T13:59:19Z</time>
      </trkpt>
      <trkpt lat="62.6449501" lon="14.3720335">
        <ele>360.8</ele>
        <time>2012-07-27T13:59:24Z</time>
      </trkpt>
      <trkpt lat="62.6453645" lon="14.3722925">
        <ele>361.2</ele>
        <time>2012-07-27T13:59:29Z</time>
      </trkpt>
      <trkpt lat="62.6457722" lon="14.3725601">
        <ele>361.4</ele>
        <time>2012-07-27T13:59:34Z</time>
      </trkpt>
      <trkpt lat="62.646168" lon="14.3728223">
        <ele>361.8</ele>
        <time>2012-07-27T13:59:38Z</time>
      </trkpt>
      <trkpt lat="62.646558" lon="14.3730592">
        <ele>362</ele>
        <time>2012-07-27T13:59:44Z</time>
      </trkpt>
      <trkpt lat="62.6469357" lon="14.3732789">
        <ele>362.8</ele>
        <time>2012-07-27T13:59:49Z</time>
      </trkpt>
      <trkpt lat="62.6473204" lon="14.3734176">
        <ele>362.2</ele>
        <time>2012-07-27T13:59:54Z</time>
      </trkpt>
      <trkpt lat="62.6477528" lon="14.3734631">
        <ele>363</ele>
        <time>2012-07-27T14:00:00Z</time>
      </trkpt>
      <trkpt lat="62.6481079" lon="14.373477">
        <ele>363.2</ele>
        <time>2012-07-27T14:00:05Z</time>
      </trkpt>
      <trkpt lat="62.6484684" lon="14.3734964">
        <ele>364.2</ele>
        <time>2012-07-27T14:00:10Z</time>
      </trkpt>
      <trkpt lat="62.6488761" lon="14.3735352">
        <ele>367</ele>
        <time>2012-07-27T14:00:16Z</time>
      </trkpt>
      <trkpt lat="62.6492878" lon="14.3735548">
        <ele>368.8</ele>
        <time>2012-07-27T14:00:22Z</time>
      </trkpt>
      <trkpt lat="62.6496799" lon="14.3735662">
        <ele>370.4</ele>
        <time>2012-07-27T14:00:28Z</time>
      </trkpt>
      <trkpt lat="62.6500904" lon="14.3735797">
        <ele>371.8</ele>
        <time>2012-07-27T14:00:34Z</time>
      </trkpt>
      <trkpt lat="62.650494" lon="14.3735887">
        <ele>373.2</ele>
        <time>2012-07-27T14:00:40Z</time>
      </trkpt>
      <trkpt lat="62.6508984" lon="14.3735985">
        <ele>373.8</ele>
        <time>2012-07-27T14:00:46Z</time>
      </trkpt>
      <trkpt lat="62.6513132" lon="14.3736481">
        <ele>374.2</ele>
        <time>2012-07-27T14:00:52Z</time>
      </trkpt>
      <trkpt lat="62.6517303" lon="14.3737249">
        <ele>374.6</ele>
        <time>2012-07-27T14:00:58Z</time>
      </trkpt>
      <trkpt lat="62.6521053" lon="14.3738393">
        <ele>374.4</ele>
        <time>2012-07-27T14:01:03Z</time>
      </trkpt>
      <trkpt lat="62.6524799" lon="14.374003">
        <ele>373.4</ele>
        <time>2012-07-27T14:01:08Z</time>
      </trkpt>
      <trkpt lat="62.6528913" lon="14.3742266">
        <ele>372.2</ele>
        <time>2012-07-27T14:01:13Z</time>
      </trkpt>
      <trkpt lat="62.6532947" lon="14.3745058">
        <ele>371.6</ele>
        <time>2012-07-27T14:01:18Z</time>
      </trkpt>
      <trkpt lat="62.6536585" lon="14.3748111">
        <ele>371</ele>
        <time>2012-07-27T14:01:23Z</time>
      </trkpt>
      <trkpt lat="62.6540273" lon="14.3751742">
        <ele>370.2</ele>
        <time>2012-07-27T14:01:28Z</time>
      </trkpt>
      <trkpt lat="62.654397" lon="14.3756104">
        <ele>369.6</ele>
        <time>2012-07-27T14:01:33Z</time>
      </trkpt>
      <trkpt lat="62.6547622" lon="14.3761003">
        <ele>370.2</ele>
        <time>2012-07-27T14:01:38Z</time>
      </trkpt>
      <trkpt lat="62.6551275" lon="14.3766353">
        <ele>370.6</ele>
        <time>2012-07-27T14:01:43Z</time>
      </trkpt>
      <trkpt lat="62.6554166" lon="14.3770908">
        <ele>371.2</ele>
        <time>2012-07-27T14:01:47Z</time>
      </trkpt>
      <trkpt lat="62.6557091" lon="14.377573">
        <ele>371.2</ele>
        <time>2012-07-27T14:01:51Z</time>
      </trkpt>
      <trkpt lat="62.6560074" lon="14.3780526">
        <ele>370.8</ele>
        <time>2012-07-27T14:01:55Z</time>
      </trkpt>
      <trkpt lat="62.6563871" lon="14.3785783">
        <ele>369.8</ele>
        <time>2012-07-27T14:02:00Z</time>
      </trkpt>
      <trkpt lat="62.6567136" lon="14.3789891">
        <ele>368.6</ele>
        <time>2012-07-27T14:02:04Z</time>
      </trkpt>
      <trkpt lat="62.6570519" lon="14.3793628">
        <ele>368</ele>
        <time>2012-07-27T14:02:08Z</time>
      </trkpt>
      <trkpt lat="62.6574036" lon="14.3797026">
        <ele>367.4</ele>
        <time>2012-07-27T14:02:12Z</time>
      </trkpt>
      <trkpt lat="62.6577614" lon="14.3799999">
        <ele>367</ele>
        <time>2012-07-27T14:02:16Z</time>
      </trkpt>
      <trkpt lat="62.6581221" lon="14.3802486">
        <ele>366.8</ele>
        <time>2012-07-27T14:02:20Z</time>
      </trkpt>
      <trkpt lat="62.6584817" lon="14.3804598">
        <ele>366.8</ele>
        <time>2012-07-27T14:02:24Z</time>
      </trkpt>
      <trkpt lat="62.6589219" lon="14.38066">
        <ele>366.8</ele>
        <time>2012-07-27T14:02:29Z</time>
      </trkpt>
      <trkpt lat="62.65937" lon="14.3808132">
        <ele>367</ele>
        <time>2012-07-27T14:02:34Z</time>
      </trkpt>
      <trkpt lat="62.6598051" lon="14.3809007">
        <ele>367.8</ele>
        <time>2012-07-27T14:02:39Z</time>
      </trkpt>
      <trkpt lat="62.6602303" lon="14.38092">
        <ele>367.6</ele>
        <time>2012-07-27T14:02:44Z</time>
      </trkpt>
      <trkpt lat="62.6606703" lon="14.380907">
        <ele>367.6</ele>
        <time>2012-07-27T14:02:49Z</time>
      </trkpt>
      <trkpt lat="62.6611115" lon="14.3808729">
        <ele>367.4</ele>
        <time>2012-07-27T14:02:54Z</time>
      </trkpt>
      <trkpt lat="62.6615416" lon="14.38084">
        <ele>367.4</ele>
        <time>2012-07-27T14:02:59Z</time>
      </trkpt>
      <trkpt lat="62.6619585" lon="14.3808252">
        <ele>367.2</ele>
        <time>2012-07-27T14:03:04Z</time>
      </trkpt>
      <trkpt lat="62.662377" lon="14.3808297">
        <ele>366.4</ele>
        <time>2012-07-27T14:03:09Z</time>
      </trkpt>
      <trkpt lat="62.6628003" lon="14.3808697">
        <ele>365.2</ele>
        <time>2012-07-27T14:03:14Z</time>
      </trkpt>
      <trkpt lat="62.6632261" lon="14.3809226">
        <ele>364.4</ele>
        <time>2012-07-27T14:03:19Z</time>
      </trkpt>
      <trkpt lat="62.663643" lon="14.3809946">
        <ele>363.8</ele>
        <time>2012-07-27T14:03:24Z</time>
      </trkpt>
      <trkpt lat="62.6640451" lon="14.3810598">
        <ele>363.6</ele>
        <time>2012-07-27T14:03:29Z</time>
      </trkpt>
      <trkpt lat="62.6644811" lon="14.3811318">
        <ele>363.2</ele>
        <time>2012-07-27T14:03:34Z</time>
      </trkpt>
      <trkpt lat="62.6649264" lon="14.3812081">
        <ele>363.2</ele>
        <time>2012-07-27T14:03:39Z</time>
      </trkpt>
      <trkpt lat="62.6653627" lon="14.3812844">
        <ele>362.8</ele>
        <time>2012-07-27T14:03:44Z</time>
      </trkpt>
      <trkpt lat="62.6657874" lon="14.3813554">
        <ele>362.6</ele>
        <time>2012-07-27T14:03:49Z</time>
      </trkpt>
      <trkpt lat="62.6662061" lon="14.3814173">
        <ele>362.6</ele>
        <time>2012-07-27T14:03:54Z</time>
      </trkpt>
      <trkpt lat="62.6666122" lon="14.3814966">
        <ele>362.4</ele>
        <time>2012-07-27T14:03:59Z</time>
      </trkpt>
      <trkpt lat="62.6670189" lon="14.3815654">
        <ele>362.6</ele>
        <time>2012-07-27T14:04:04Z</time>
      </trkpt>
      <trkpt lat="62.6674162" lon="14.3816378">
        <ele>363.2</ele>
        <time>2012-07-27T14:04:09Z</time>
      </trkpt>
      <trkpt lat="62.6678315" lon="14.3817032">
        <ele>364</ele>
        <time>2012-07-27T14:04:14Z</time>
      </trkpt>
      <trkpt lat="62.6682391" lon="14.3817726">
        <ele>364.2</ele>
        <time>2012-07-27T14:04:19Z</time>
      </trkpt>
      <trkpt lat="62.668632" lon="14.3818384">
        <ele>364.8</ele>
        <time>2012-07-27T14:04:24Z</time>
      </trkpt>
      <trkpt lat="62.6690571" lon="14.3819045">
        <ele>364.8</ele>
        <time>2012-07-27T14:04:30Z</time>
      </trkpt>
      <trkpt lat="62.6694226" lon="14.3819674">
        <ele>364</ele>
        <time>2012-07-27T14:04:35Z</time>
      </trkpt>
      <trkpt lat="62.669783" lon="14.3820393">
        <ele>363.8</ele>
        <time>2012-07-27T14:04:40Z</time>
      </trkpt>
      <trkpt lat="62.6702039" lon="14.3821102">
        <ele>363.8</ele>
        <time>2012-07-27T14:04:46Z</time>
      </trkpt>
      <trkpt lat="62.6705693" lon="14.3821735">
        <ele>364.4</ele>
        <time>2012-07-27T14:04:51Z</time>
      </trkpt>
      <trkpt lat="62.6709836" lon="14.3822399">
        <ele>365.4</ele>
        <time>2012-07-27T14:04:57Z</time>
      </trkpt>
      <trkpt lat="62.6713715" lon="14.3823049">
        <ele>366.2</ele>
        <time>2012-07-27T14:05:03Z</time>
      </trkpt>
      <trkpt lat="62.6717488" lon="14.3823793">
        <ele>366.2</ele>
        <time>2012-07-27T14:05:09Z</time>
      </trkpt>
      <trkpt lat="62.6721796" lon="14.3824507">
        <ele>366.6</ele>
        <time>2012-07-27T14:05:15Z</time>
      </trkpt>
      <trkpt lat="62.6725754" lon="14.3825212">
        <ele>366.6</ele>
        <time>2012-07-27T14:05:20Z</time>
      </trkpt>
      <trkpt lat="62.6729603" lon="14.3826091">
        <ele>367</ele>
        <time>2012-07-27T14:05:25Z</time>
      </trkpt>
      <trkpt lat="62.6733334" lon="14.3827158">
        <ele>367.2</ele>
        <time>2012-07-27T14:05:30Z</time>
      </trkpt>
      <trkpt lat="62.673694" lon="14.3828278">
        <ele>367.6</ele>
        <time>2012-07-27T14:05:35Z</time>
      </trkpt>
      <trkpt lat="62.6740551" lon="14.3829672">
        <ele>367.8</ele>
        <time>2012-07-27T14:05:40Z</time>
      </trkpt>
      <trkpt lat="62.6744268" lon="14.3831224">
        <ele>368.2</ele>
        <time>2012-07-27T14:05:45Z</time>
      </trkpt>
      <trkpt lat="62.6748139" lon="14.3832992">
        <ele>367.8</ele>
        <time>2012-07-27T14:05:50Z</time>
      </trkpt>
      <trkpt lat="62.6752074" lon="14.3835065">
        <ele>368</ele>
        <time>2012-07-27T14:05:55Z</time>
      </trkpt>
      <trkpt lat="62.6755944" lon="14.3837305">
        <ele>367.8</ele>
        <time>2012-07-27T14:06:00Z</time>
      </trkpt>
      <trkpt lat="62.6759814" lon="14.3839691">
        <ele>367.6</ele>
        <time>2012-07-27T14:06:05Z</time>
      </trkpt>
      <trkpt lat="62.6763627" lon="14.3842272">
        <ele>367.6</ele>
        <time>2012-07-27T14:06:10Z</time>
      </trkpt>
      <trkpt lat="62.6767456" lon="14.3844984">
        <ele>367.6</ele>
        <time>2012-07-27T14:06:15Z</time>
      </trkpt>
      <trkpt lat="62.6771263" lon="14.3847847">
        <ele>367.2</ele>
        <time>2012-07-27T14:06:20Z</time>
      </trkpt>
      <trkpt lat="62.6775056" lon="14.3850646">
        <ele>367.2</ele>
        <time>2012-07-27T14:06:25Z</time>
      </trkpt>
      <trkpt lat="62.677895" lon="14.3853453">
        <ele>367.2</ele>
        <time>2012-07-27T14:06:30Z</time>
      </trkpt>
      <trkpt lat="62.6782866" lon="14.3856373">
        <ele>366.8</ele>
        <time>2012-07-27T14:06:35Z</time>
      </trkpt>
      <trkpt lat="62.6786942" lon="14.3859343">
        <ele>366.6</ele>
        <time>2012-07-27T14:06:40Z</time>
      </trkpt>
      <trkpt lat="62.6791101" lon="14.3862402">
        <ele>366.8</ele>
        <time>2012-07-27T14:06:45Z</time>
      </trkpt>
      <trkpt lat="62.6795222" lon="14.3865471">
        <ele>366.8</ele>
        <time>2012-07-27T14:06:50Z</time>
      </trkpt>
      <trkpt lat="62.679934" lon="14.386844">
        <ele>366.6</ele>
        <time>2012-07-27T14:06:55Z</time>
      </trkpt>
      <trkpt lat="62.6803447" lon="14.3871478">
        <ele>366.8</ele>
        <time>2012-07-27T14:07:00Z</time>
      </trkpt>
      <trkpt lat="62.6807534" lon="14.3874489">
        <ele>366.6</ele>
        <time>2012-07-27T14:07:05Z</time>
      </trkpt>
      <trkpt lat="62.6811656" lon="14.3877479">
        <ele>366.6</ele>
        <time>2012-07-27T14:07:10Z</time>
      </trkpt>
      <trkpt lat="62.6815879" lon="14.3880544">
        <ele>366.8</ele>
        <time>2012-07-27T14:07:15Z</time>
      </trkpt>
      <trkpt lat="62.6820031" lon="14.3883608">
        <ele>367</ele>
        <time>2012-07-27T14:07:20Z</time>
      </trkpt>
      <trkpt lat="62.6824037" lon="14.388641">
        <ele>367.4</ele>
        <time>2012-07-27T14:07:25Z</time>
      </trkpt>
      <trkpt lat="62.6827958" lon="14.3889346">
        <ele>368</ele>
        <time>2012-07-27T14:07:30Z</time>
      </trkpt>
      <trkpt lat="62.6831725" lon="14.3892329">
        <ele>368.6</ele>
        <time>2012-07-27T14:07:35Z</time>
      </trkpt>
      <trkpt lat="62.6835356" lon="14.3895382">
        <ele>368.8</ele>
        <time>2012-07-27T14:07:40Z</time>
      </trkpt>
      <trkpt lat="62.68389" lon="14.389856">
        <ele>368.8</ele>
        <time>2012-07-27T14:07:45Z</time>
      </trkpt>
      <trkpt lat="62.6842421" lon="14.3901949">
        <ele>369</ele>
        <time>2012-07-27T14:07:50Z</time>
      </trkpt>
      <trkpt lat="62.6845898" lon="14.3905658">
        <ele>369.4</ele>
        <time>2012-07-27T14:07:55Z</time>
      </trkpt>
      <trkpt lat="62.6849639" lon="14.3909904">
        <ele>369.4</ele>
        <time>2012-07-27T14:08:00Z</time>
      </trkpt>
      <trkpt lat="62.6853324" lon="14.3914458">
        <ele>369.2</ele>
        <time>2012-07-27T14:08:05Z</time>
      </trkpt>
      <trkpt lat="62.6856964" lon="14.3919189">
        <ele>368.8</ele>
        <time>2012-07-27T14:08:10Z</time>
      </trkpt>
      <trkpt lat="62.6860713" lon="14.3924482">
        <ele>368.2</ele>
        <time>2012-07-27T14:08:15Z</time>
      </trkpt>
      <trkpt lat="62.6863713" lon="14.3929022">
        <ele>367.6</ele>
        <time>2012-07-27T14:08:19Z</time>
      </trkpt>
      <trkpt lat="62.6866702" lon="14.3933801">
        <ele>367</ele>
        <time>2012-07-27T14:08:23Z</time>
      </trkpt>
      <trkpt lat="62.686968" lon="14.3938853">
        <ele>366</ele>
        <time>2012-07-27T14:08:27Z</time>
      </trkpt>
      <trkpt lat="62.6872638" lon="14.3944129">
        <ele>365.4</ele>
        <time>2012-07-27T14:08:31Z</time>
      </trkpt>
      <trkpt lat="62.6875527" lon="14.3949732">
        <ele>365.2</ele>
        <time>2012-07-27T14:08:35Z</time>
      </trkpt>
      <trkpt lat="62.6878218" lon="14.3955364">
        <ele>365.2</ele>
        <time>2012-07-27T14:08:39Z</time>
      </trkpt>
      <trkpt lat="62.6880776" lon="14.3961156">
        <ele>365.4</ele>
        <time>2012-07-27T14:08:43Z</time>
      </trkpt>
      <trkpt lat="62.6883665" lon="14.3968254">
        <ele>366.4</ele>
        <time>2012-07-27T14:08:48Z</time>
      </trkpt>
      <trkpt lat="62.6886498" lon="14.3975718">
        <ele>367.4</ele>
        <time>2012-07-27T14:08:53Z</time>
      </trkpt>
      <trkpt lat="62.6889018" lon="14.3982758">
        <ele>368.6</ele>
        <time>2012-07-27T14:08:58Z</time>
      </trkpt>
      <trkpt lat="62.6891593" lon="14.3989887">
        <ele>369.4</ele>
        <time>2012-07-27T14:09:03Z</time>
      </trkpt>
      <trkpt lat="62.6894216" lon="14.3996647">
        <ele>370.6</ele>
        <time>2012-07-27T14:09:08Z</time>
      </trkpt>
      <trkpt lat="62.6897023" lon="14.4003463">
        <ele>370.4</ele>
        <time>2012-07-27T14:09:13Z</time>
      </trkpt>
      <trkpt lat="62.6899895" lon="14.4009538">
        <ele>370.8</ele>
        <time>2012-07-27T14:09:18Z</time>
      </trkpt>
      <trkpt lat="62.690277" lon="14.4015171">
        <ele>370.4</ele>
        <time>2012-07-27T14:09:23Z</time>
      </trkpt>
      <trkpt lat="62.6905837" lon="14.4020563">
        <ele>369.8</ele>
        <time>2012-07-27T14:09:28Z</time>
      </trkpt>
      <trkpt lat="62.6909028" lon="14.4025762">
        <ele>369.6</ele>
        <time>2012-07-27T14:09:33Z</time>
      </trkpt>
      <trkpt lat="62.6912502" lon="14.4030534">
        <ele>369.4</ele>
        <time>2012-07-27T14:09:38Z</time>
      </trkpt>
      <trkpt lat="62.6916154" lon="14.4034855">
        <ele>368.8</ele>
        <time>2012-07-27T14:09:43Z</time>
      </trkpt>
      <trkpt lat="62.6920067" lon="14.4038513">
        <ele>368.2</ele>
        <time>2012-07-27T14:09:48Z</time>
      </trkpt>
      <trkpt lat="62.6924273" lon="14.4041763">
        <ele>367.6</ele>
        <time>2012-07-27T14:09:53Z</time>
      </trkpt>
      <trkpt lat="62.6927816" lon="14.4044193">
        <ele>367.2</ele>
        <time>2012-07-27T14:09:57Z</time>
      </trkpt>
      <trkpt lat="62.6932152" lon="14.4046576">
        <ele>367</ele>
        <time>2012-07-27T14:10:02Z</time>
      </trkpt>
      <trkpt lat="62.6936503" lon="14.4048572">
        <ele>367</ele>
        <time>2012-07-27T14:10:07Z</time>
      </trkpt>
      <trkpt lat="62.694084" lon="14.4050482">
        <ele>367</ele>
        <time>2012-07-27T14:10:12Z</time>
      </trkpt>
      <trkpt lat="62.6945245" lon="14.4052136">
        <ele>367.4</ele>
        <time>2012-07-27T14:10:17Z</time>
      </trkpt>
      <trkpt lat="62.6949629" lon="14.4053917">
        <ele>367.6</ele>
        <time>2012-07-27T14:10:22Z</time>
      </trkpt>
      <trkpt lat="62.6953975" lon="14.4055648">
        <ele>368.6</ele>
        <time>2012-07-27T14:10:27Z</time>
      </trkpt>
      <trkpt lat="62.6958372" lon="14.4057373">
        <ele>369</ele>
        <time>2012-07-27T14:10:32Z</time>
      </trkpt>
      <trkpt lat="62.6961962" lon="14.4058799">
        <ele>369.4</ele>
        <time>2012-07-27T14:10:36Z</time>
      </trkpt>
      <trkpt lat="62.6965558" lon="14.4060305">
        <ele>370.4</ele>
        <time>2012-07-27T14:10:40Z</time>
      </trkpt>
      <trkpt lat="62.6969178" lon="14.4061813">
        <ele>370.8</ele>
        <time>2012-07-27T14:10:44Z</time>
      </trkpt>
      <trkpt lat="62.697279" lon="14.4063307">
        <ele>370.8</ele>
        <time>2012-07-27T14:10:48Z</time>
      </trkpt>
      <trkpt lat="62.6976512" lon="14.4064734">
        <ele>370.4</ele>
        <time>2012-07-27T14:10:52Z</time>
      </trkpt>
      <trkpt lat="62.6980093" lon="14.4066276">
        <ele>370.2</ele>
        <time>2012-07-27T14:10:56Z</time>
      </trkpt>
      <trkpt lat="62.6984475" lon="14.4068303">
        <ele>370</ele>
        <time>2012-07-27T14:11:01Z</time>
      </trkpt>
      <trkpt lat="62.6988089" lon="14.4070133">
        <ele>369.4</ele>
        <time>2012-07-27T14:11:05Z</time>
      </trkpt>
      <trkpt lat="62.6991667" lon="14.40721">
        <ele>368.4</ele>
        <time>2012-07-27T14:11:09Z</time>
      </trkpt>
      <trkpt lat="62.6995256" lon="14.4074146">
        <ele>367.4</ele>
        <time>2012-07-27T14:11:13Z</time>
      </trkpt>
      <trkpt lat="62.69989" lon="14.4076221">
        <ele>366.4</ele>
        <time>2012-07-27T14:11:17Z</time>
      </trkpt>
      <trkpt lat="62.7002617" lon="14.4078377">
        <ele>365.2</ele>
        <time>2012-07-27T14:11:21Z</time>
      </trkpt>
      <trkpt lat="62.7006371" lon="14.4080508">
        <ele>364</ele>
        <time>2012-07-27T14:11:25Z</time>
      </trkpt>
      <trkpt lat="62.7010051" lon="14.4082552">
        <ele>363.2</ele>
        <time>2012-07-27T14:11:29Z</time>
      </trkpt>
      <trkpt lat="62.7013987" lon="14.4084761">
        <ele>362.4</ele>
        <time>2012-07-27T14:11:33Z</time>
      </trkpt>
      <trkpt lat="62.7018136" lon="14.4087076">
        <ele>361.6</ele>
        <time>2012-07-27T14:11:37Z</time>
      </trkpt>
      <trkpt lat="62.7022383" lon="14.4089608">
        <ele>361.2</ele>
        <time>2012-07-27T14:11:41Z</time>
      </trkpt>
      <trkpt lat="62.7026621" lon="14.4091996">
        <ele>361.2</ele>
        <time>2012-07-27T14:11:45Z</time>
      </trkpt>
      <trkpt lat="62.703087" lon="14.4094258">
        <ele>361.4</ele>
        <time>2012-07-27T14:11:49Z</time>
      </trkpt>
      <trkpt lat="62.7035106" lon="14.4096251">
        <ele>361.6</ele>
        <time>2012-07-27T14:11:53Z</time>
      </trkpt>
      <trkpt lat="62.7039318" lon="14.4097998">
        <ele>361.8</ele>
        <time>2012-07-27T14:11:57Z</time>
      </trkpt>
      <trkpt lat="62.7043565" lon="14.4099549">
        <ele>362</ele>
        <time>2012-07-27T14:12:01Z</time>
      </trkpt>
      <trkpt lat="62.7047771" lon="14.4101167">
        <ele>362.2</ele>
        <time>2012-07-27T14:12:05Z</time>
      </trkpt>
      <trkpt lat="62.705175" lon="14.4102637">
        <ele>362.2</ele>
        <time>2012-07-27T14:12:09Z</time>
      </trkpt>
      <trkpt lat="62.7055682" lon="14.4103973">
        <ele>362.4</ele>
        <time>2012-07-27T14:12:13Z</time>
      </trkpt>
      <trkpt lat="62.7059619" lon="14.4105486">
        <ele>362.4</ele>
        <time>2012-07-27T14:12:17Z</time>
      </trkpt>
      <trkpt lat="62.7063607" lon="14.4107001">
        <ele>362.2</ele>
        <time>2012-07-27T14:12:21Z</time>
      </trkpt>
      <trkpt lat="62.7067625" lon="14.4108485">
        <ele>362</ele>
        <time>2012-07-27T14:12:25Z</time>
      </trkpt>
      <trkpt lat="62.7071415" lon="14.4109904">
        <ele>361.8</ele>
        <time>2012-07-27T14:12:29Z</time>
      </trkpt>
      <trkpt lat="62.7075785" lon="14.4111453">
        <ele>361.6</ele>
        <time>2012-07-27T14:12:34Z</time>
      </trkpt>
      <trkpt lat="62.7079293" lon="14.4112772">
        <ele>361.4</ele>
        <time>2012-07-27T14:12:38Z</time>
      </trkpt>
      <trkpt lat="62.7082834" lon="14.4114111">
        <ele>361</ele>
        <time>2012-07-27T14:12:42Z</time>
      </trkpt>
      <trkpt lat="62.7086441" lon="14.4115497">
        <ele>360.6</ele>
        <time>2012-07-27T14:12:46Z</time>
      </trkpt>
      <trkpt lat="62.7090088" lon="14.4116958">
        <ele>360.2</ele>
        <time>2012-07-27T14:12:50Z</time>
      </trkpt>
      <trkpt lat="62.7093826" lon="14.4118551">
        <ele>360</ele>
        <time>2012-07-27T14:12:54Z</time>
      </trkpt>
      <trkpt lat="62.7097744" lon="14.4120166">
        <ele>359.4</ele>
        <time>2012-07-27T14:12:58Z</time>
      </trkpt>
      <trkpt lat="62.7101744" lon="14.4121859">
        <ele>358.6</ele>
        <time>2012-07-27T14:13:02Z</time>
      </trkpt>
      <trkpt lat="62.7105804" lon="14.4123619">
        <ele>357.8</ele>
        <time>2012-07-27T14:13:06Z</time>
      </trkpt>
      <trkpt lat="62.7109804" lon="14.4125422">
        <ele>357.2</ele>
        <time>2012-07-27T14:13:10Z</time>
      </trkpt>
      <trkpt lat="62.7113689" lon="14.4127113">
        <ele>356.2</ele>
        <time>2012-07-27T14:13:14Z</time>
      </trkpt>
      <trkpt lat="62.7117479" lon="14.4128828">
        <ele>355.4</ele>
        <time>2012-07-27T14:13:18Z</time>
      </trkpt>
      <trkpt lat="62.7121448" lon="14.4130573">
        <ele>354.8</ele>
        <time>2012-07-27T14:13:22Z</time>
      </trkpt>
      <trkpt lat="62.7125514" lon="14.4132372">
        <ele>354</ele>
        <time>2012-07-27T14:13:26Z</time>
      </trkpt>
      <trkpt lat="62.7129415" lon="14.4134083">
        <ele>353.4</ele>
        <time>2012-07-27T14:13:30Z</time>
      </trkpt>
      <trkpt lat="62.7133155" lon="14.4135757">
        <ele>353</ele>
        <time>2012-07-27T14:13:34Z</time>
      </trkpt>
      <trkpt lat="62.7136942" lon="14.413741">
        <ele>352.8</ele>
        <time>2012-07-27T14:13:38Z</time>
      </trkpt>
      <trkpt lat="62.7140737" lon="14.4139087">
        <ele>352.8</ele>
        <time>2012-07-27T14:13:42Z</time>
      </trkpt>
      <trkpt lat="62.7144448" lon="14.414076">
        <ele>353</ele>
        <time>2012-07-27T14:13:46Z</time>
      </trkpt>
      <trkpt lat="62.7148087" lon="14.4142361">
        <ele>353</ele>
        <time>2012-07-27T14:13:50Z</time>
      </trkpt>
      <trkpt lat="62.7151718" lon="14.4143996">
        <ele>353</ele>
        <time>2012-07-27T14:13:54Z</time>
      </trkpt>
      <trkpt lat="62.7155363" lon="14.4145583">
        <ele>353.2</ele>
        <time>2012-07-27T14:13:58Z</time>
      </trkpt>
      <trkpt lat="62.7159041" lon="14.4147217">
        <ele>353</ele>
        <time>2012-07-27T14:14:02Z</time>
      </trkpt>
      <trkpt lat="62.7162583" lon="14.4148435">
        <ele>352.8</ele>
        <time>2012-07-27T14:14:06Z</time>
      </trkpt>
      <trkpt lat="62.7166934" lon="14.4149688">
        <ele>352.2</ele>
        <time>2012-07-27T14:14:11Z</time>
      </trkpt>
      <trkpt lat="62.7170588" lon="14.4150382">
        <ele>350.8</ele>
        <time>2012-07-27T14:14:15Z</time>
      </trkpt>
      <trkpt lat="62.7174312" lon="14.4150941">
        <ele>349.4</ele>
        <time>2012-07-27T14:14:19Z</time>
      </trkpt>
      <trkpt lat="62.7178217" lon="14.4151279">
        <ele>347.2</ele>
        <time>2012-07-27T14:14:23Z</time>
      </trkpt>
      <trkpt lat="62.7182179" lon="14.4151836">
        <ele>345</ele>
        <time>2012-07-27T14:14:27Z</time>
      </trkpt>
      <trkpt lat="62.7186235" lon="14.4152224">
        <ele>344</ele>
        <time>2012-07-27T14:14:31Z</time>
      </trkpt>
      <trkpt lat="62.719027" lon="14.4152853">
        <ele>342</ele>
        <time>2012-07-27T14:14:35Z</time>
      </trkpt>
      <trkpt lat="62.7194371" lon="14.415333">
        <ele>340</ele>
        <time>2012-07-27T14:14:39Z</time>
      </trkpt>
      <trkpt lat="62.719816" lon="14.4153682">
        <ele>338.2</ele>
        <time>2012-07-27T14:14:43Z</time>
      </trkpt>
      <trkpt lat="62.7202118" lon="14.4154106">
        <ele>338</ele>
        <time>2012-07-27T14:14:47Z</time>
      </trkpt>
      <trkpt lat="62.7206188" lon="14.4154511">
        <ele>338.8</ele>
        <time>2012-07-27T14:14:51Z</time>
      </trkpt>
      <trkpt lat="62.7210219" lon="14.4154976">
        <ele>339.2</ele>
        <time>2012-07-27T14:14:55Z</time>
      </trkpt>
      <trkpt lat="62.7214227" lon="14.4155282">
        <ele>339.6</ele>
        <time>2012-07-27T14:14:59Z</time>
      </trkpt>
      <trkpt lat="62.7218185" lon="14.4155846">
        <ele>339.6</ele>
        <time>2012-07-27T14:15:03Z</time>
      </trkpt>
      <trkpt lat="62.7222087" lon="14.4156353">
        <ele>339.2</ele>
        <time>2012-07-27T14:15:07Z</time>
      </trkpt>
      <trkpt lat="62.7225982" lon="14.4156818">
        <ele>339.2</ele>
        <time>2012-07-27T14:15:11Z</time>
      </trkpt>
      <trkpt lat="62.7229774" lon="14.4157234">
        <ele>339.2</ele>
        <time>2012-07-27T14:15:15Z</time>
      </trkpt>
      <trkpt lat="62.7233556" lon="14.4157664">
        <ele>338.6</ele>
        <time>2012-07-27T14:15:19Z</time>
      </trkpt>
      <trkpt lat="62.7237425" lon="14.4158089">
        <ele>338.4</ele>
        <time>2012-07-27T14:15:23Z</time>
      </trkpt>
      <trkpt lat="62.7241274" lon="14.4158502">
        <ele>338.2</ele>
        <time>2012-07-27T14:15:27Z</time>
      </trkpt>
      <trkpt lat="62.7245133" lon="14.4158981">
        <ele>338</ele>
        <time>2012-07-27T14:15:31Z</time>
      </trkpt>
      <trkpt lat="62.7249009" lon="14.4159415">
        <ele>338.2</ele>
        <time>2012-07-27T14:15:35Z</time>
      </trkpt>
      <trkpt lat="62.7252852" lon="14.4159609">
        <ele>338.2</ele>
        <time>2012-07-27T14:15:39Z</time>
      </trkpt>
      <trkpt lat="62.7256533" lon="14.4159504">
        <ele>338.2</ele>
        <time>2012-07-27T14:15:43Z</time>
      </trkpt>
      <trkpt lat="62.7260684" lon="14.415911">
        <ele>338.4</ele>
        <time>2012-07-27T14:15:48Z</time>
      </trkpt>
      <trkpt lat="62.7264885" lon="14.4158448">
        <ele>338.2</ele>
        <time>2012-07-27T14:15:53Z</time>
      </trkpt>
      <trkpt lat="62.7269224" lon="14.415743">
        <ele>338.6</ele>
        <time>2012-07-27T14:15:58Z</time>
      </trkpt>
      <trkpt lat="62.7273484" lon="14.4156189">
        <ele>338.6</ele>
        <time>2012-07-27T14:16:03Z</time>
      </trkpt>
      <trkpt lat="62.7277799" lon="14.4154784">
        <ele>338.8</ele>
        <time>2012-07-27T14:16:08Z</time>
      </trkpt>
      <trkpt lat="62.7281384" lon="14.4153749">
        <ele>339.4</ele>
        <time>2012-07-27T14:16:12Z</time>
      </trkpt>
      <trkpt lat="62.7284959" lon="14.4152537">
        <ele>339.8</ele>
        <time>2012-07-27T14:16:16Z</time>
      </trkpt>
      <trkpt lat="62.7288535" lon="14.4151561">
        <ele>339.8</ele>
        <time>2012-07-27T14:16:20Z</time>
      </trkpt>
      <trkpt lat="62.7292904" lon="14.4150276">
        <ele>340.2</ele>
        <time>2012-07-27T14:16:25Z</time>
      </trkpt>
      <trkpt lat="62.7297214" lon="14.4149185">
        <ele>340.4</ele>
        <time>2012-07-27T14:16:30Z</time>
      </trkpt>
      <trkpt lat="62.7301326" lon="14.4148262">
        <ele>341</ele>
        <time>2012-07-27T14:16:35Z</time>
      </trkpt>
      <trkpt lat="62.7305524" lon="14.4147753">
        <ele>341.6</ele>
        <time>2012-07-27T14:16:40Z</time>
      </trkpt>
      <trkpt lat="62.7309109" lon="14.4147537">
        <ele>341.6</ele>
        <time>2012-07-27T14:16:44Z</time>
      </trkpt>
      <trkpt lat="62.7313454" lon="14.4147567">
        <ele>340.6</ele>
        <time>2012-07-27T14:16:49Z</time>
      </trkpt>
      <trkpt lat="62.7317658" lon="14.4147869">
        <ele>340</ele>
        <time>2012-07-27T14:16:54Z</time>
      </trkpt>
      <trkpt lat="62.7321865" lon="14.414851">
        <ele>339.8</ele>
        <time>2012-07-27T14:16:59Z</time>
      </trkpt>
      <trkpt lat="62.7326092" lon="14.4149398">
        <ele>339.8</ele>
        <time>2012-07-27T14:17:04Z</time>
      </trkpt>
      <trkpt lat="62.733033" lon="14.4150573">
        <ele>339.8</ele>
        <time>2012-07-27T14:17:09Z</time>
      </trkpt>
      <trkpt lat="62.7334582" lon="14.4151994">
        <ele>340.2</ele>
        <time>2012-07-27T14:17:14Z</time>
      </trkpt>
      <trkpt lat="62.7338681" lon="14.415377">
        <ele>340.4</ele>
        <time>2012-07-27T14:17:19Z</time>
      </trkpt>
      <trkpt lat="62.7342633" lon="14.4155694">
        <ele>340.6</ele>
        <time>2012-07-27T14:17:24Z</time>
      </trkpt>
      <trkpt lat="62.7346513" lon="14.4157851">
        <ele>341.2</ele>
        <time>2012-07-27T14:17:29Z</time>
      </trkpt>
      <trkpt lat="62.7350567" lon="14.4160394">
        <ele>342</ele>
        <time>2012-07-27T14:17:34Z</time>
      </trkpt>
      <trkpt lat="62.7354478" lon="14.4163187">
        <ele>343.2</ele>
        <time>2012-07-27T14:17:39Z</time>
      </trkpt>
      <trkpt lat="62.7358215" lon="14.416616">
        <ele>344</ele>
        <time>2012-07-27T14:17:44Z</time>
      </trkpt>
      <trkpt lat="62.7361986" lon="14.416933">
        <ele>343.8</ele>
        <time>2012-07-27T14:17:49Z</time>
      </trkpt>
      <trkpt lat="62.7365657" lon="14.4172308">
        <ele>344</ele>
        <time>2012-07-27T14:17:54Z</time>
      </trkpt>
      <trkpt lat="62.7369309" lon="14.417525">
        <ele>344.4</ele>
        <time>2012-07-27T14:17:59Z</time>
      </trkpt>
      <trkpt lat="62.7372937" lon="14.4178186">
        <ele>345</ele>
        <time>2012-07-27T14:18:04Z</time>
      </trkpt>
      <trkpt lat="62.7376516" lon="14.4181067">
        <ele>345.4</ele>
        <time>2012-07-27T14:18:09Z</time>
      </trkpt>
      <trkpt lat="62.7380096" lon="14.4183964">
        <ele>345.6</ele>
        <time>2012-07-27T14:18:14Z</time>
      </trkpt>
      <trkpt lat="62.7383955" lon="14.4187151">
        <ele>347</ele>
        <time>2012-07-27T14:18:19Z</time>
      </trkpt>
      <trkpt lat="62.738788" lon="14.4190306">
        <ele>348.2</ele>
        <time>2012-07-27T14:18:24Z</time>
      </trkpt>
      <trkpt lat="62.7391681" lon="14.4193471">
        <ele>347.2</ele>
        <time>2012-07-27T14:18:29Z</time>
      </trkpt>
      <trkpt lat="62.7395041" lon="14.419626">
        <ele>346.4</ele>
        <time>2012-07-27T14:18:33Z</time>
      </trkpt>
      <trkpt lat="62.7399107" lon="14.4199515">
        <ele>345.2</ele>
        <time>2012-07-27T14:18:38Z</time>
      </trkpt>
      <trkpt lat="62.7403127" lon="14.42028">
        <ele>344.2</ele>
        <time>2012-07-27T14:18:43Z</time>
      </trkpt>
      <trkpt lat="62.740729" lon="14.4206151">
        <ele>344</ele>
        <time>2012-07-27T14:18:48Z</time>
      </trkpt>
      <trkpt lat="62.7411466" lon="14.4209477">
        <ele>343.8</ele>
        <time>2012-07-27T14:18:53Z</time>
      </trkpt>
      <trkpt lat="62.7415636" lon="14.4212906">
        <ele>344.2</ele>
        <time>2012-07-27T14:18:58Z</time>
      </trkpt>
      <trkpt lat="62.7419639" lon="14.4216048">
        <ele>344.4</ele>
        <time>2012-07-27T14:19:03Z</time>
      </trkpt>
      <trkpt lat="62.7423594" lon="14.4219111">
        <ele>344</ele>
        <time>2012-07-27T14:19:08Z</time>
      </trkpt>
      <trkpt lat="62.742774" lon="14.4222524">
        <ele>343.4</ele>
        <time>2012-07-27T14:19:13Z</time>
      </trkpt>
      <trkpt lat="62.7431825" lon="14.4225753">
        <ele>342.8</ele>
        <time>2012-07-27T14:19:18Z</time>
      </trkpt>
      <trkpt lat="62.7435844" lon="14.4228834">
        <ele>342.6</ele>
        <time>2012-07-27T14:19:23Z</time>
      </trkpt>
      <trkpt lat="62.7439428" lon="14.4231549">
        <ele>342</ele>
        <time>2012-07-27T14:19:27Z</time>
      </trkpt>
      <trkpt lat="62.744321" lon="14.4234285">
        <ele>341</ele>
        <time>2012-07-27T14:19:31Z</time>
      </trkpt>
      <trkpt lat="62.7447073" lon="14.423703">
        <ele>339.2</ele>
        <time>2012-07-27T14:19:35Z</time>
      </trkpt>
      <trkpt lat="62.7451116" lon="14.423978">
        <ele>337.4</ele>
        <time>2012-07-27T14:19:39Z</time>
      </trkpt>
      <trkpt lat="62.7455319" lon="14.4242619">
        <ele>335.6</ele>
        <time>2012-07-27T14:19:43Z</time>
      </trkpt>
      <trkpt lat="62.745962" lon="14.4245287">
        <ele>333.8</ele>
        <time>2012-07-27T14:19:47Z</time>
      </trkpt>
      <trkpt lat="62.7463911" lon="14.4247861">
        <ele>330.8</ele>
        <time>2012-07-27T14:19:51Z</time>
      </trkpt>
      <trkpt lat="62.7468202" lon="14.425043">
        <ele>329</ele>
        <time>2012-07-27T14:19:55Z</time>
      </trkpt>
      <trkpt lat="62.7472501" lon="14.4253015">
        <ele>327.4</ele>
        <time>2012-07-27T14:19:59Z</time>
      </trkpt>
      <trkpt lat="62.7476799" lon="14.4255594">
        <ele>326.4</ele>
        <time>2012-07-27T14:20:03Z</time>
      </trkpt>
      <trkpt lat="62.7481041" lon="14.4258061">
        <ele>325.2</ele>
        <time>2012-07-27T14:20:07Z</time>
      </trkpt>
      <trkpt lat="62.7485169" lon="14.4260446">
        <ele>323.8</ele>
        <time>2012-07-27T14:20:11Z</time>
      </trkpt>
      <trkpt lat="62.7489142" lon="14.4262939">
        <ele>322.8</ele>
        <time>2012-07-27T14:20:15Z</time>
      </trkpt>
      <trkpt lat="62.7493149" lon="14.4265275">
        <ele>321.8</ele>
        <time>2012-07-27T14:20:19Z</time>
      </trkpt>
      <trkpt lat="62.7497119" lon="14.4267633">
        <ele>321.2</ele>
        <time>2012-07-27T14:20:23Z</time>
      </trkpt>
      <trkpt lat="62.750109" lon="14.4269758">
        <ele>320.4</ele>
        <time>2012-07-27T14:20:27Z</time>
      </trkpt>
      <trkpt lat="62.7505045" lon="14.4271856">
        <ele>319.6</ele>
        <time>2012-07-27T14:20:31Z</time>
      </trkpt>
      <trkpt lat="62.750889" lon="14.4274586">
        <ele>318.4</ele>
        <time>2012-07-27T14:20:35Z</time>
      </trkpt>
      <trkpt lat="62.7512591" lon="14.4277888">
        <ele>317</ele>
        <time>2012-07-27T14:20:39Z</time>
      </trkpt>
      <trkpt lat="62.7516119" lon="14.4281126">
        <ele>315.2</ele>
        <time>2012-07-27T14:20:43Z</time>
      </trkpt>
      <trkpt lat="62.7517746" lon="14.4282543">
        <ele>314.6</ele>
        <time>2012-07-27T14:20:45Z</time>
      </trkpt>
      <trkpt lat="62.7519761" lon="14.428049">
        <ele>314.4</ele>
        <time>2012-07-27T14:20:48Z</time>
      </trkpt>
      <trkpt lat="62.7520311" lon="14.4279019">
        <ele>314.4</ele>
        <time>2012-07-27T14:20:49Z</time>
      </trkpt>
      <trkpt lat="62.7521775" lon="14.4276454">
        <ele>314</ele>
        <time>2012-07-27T14:20:51Z</time>
      </trkpt>
      <trkpt lat="62.7522691" lon="14.4275864">
        <ele>314</ele>
        <time>2012-07-27T14:20:52Z</time>
      </trkpt>
      <trkpt lat="62.7526495" lon="14.4274906">
        <ele>312.8</ele>
        <time>2012-07-27T14:20:56Z</time>
      </trkpt>
      <trkpt lat="62.753024" lon="14.4274029">
        <ele>312</ele>
        <time>2012-07-27T14:21:00Z</time>
      </trkpt>
      <trkpt lat="62.7533953" lon="14.4273262">
        <ele>311.6</ele>
        <time>2012-07-27T14:21:04Z</time>
      </trkpt>
      <trkpt lat="62.7537638" lon="14.4272393">
        <ele>311.4</ele>
        <time>2012-07-27T14:21:08Z</time>
      </trkpt>
      <trkpt lat="62.7541298" lon="14.4271683">
        <ele>310.6</ele>
        <time>2012-07-27T14:21:12Z</time>
      </trkpt>
      <trkpt lat="62.7545008" lon="14.4270762">
        <ele>309.4</ele>
        <time>2012-07-27T14:21:16Z</time>
      </trkpt>
      <trkpt lat="62.7548714" lon="14.4269843">
        <ele>308.6</ele>
        <time>2012-07-27T14:21:20Z</time>
      </trkpt>
      <trkpt lat="62.7553093" lon="14.4268871">
        <ele>307.6</ele>
        <time>2012-07-27T14:21:25Z</time>
      </trkpt>
      <trkpt lat="62.755753" lon="14.4267918">
        <ele>306.4</ele>
        <time>2012-07-27T14:21:30Z</time>
      </trkpt>
      <trkpt lat="62.7561254" lon="14.4266934">
        <ele>305.2</ele>
        <time>2012-07-27T14:21:34Z</time>
      </trkpt>
      <trkpt lat="62.7564919" lon="14.4265986">
        <ele>304.8</ele>
        <time>2012-07-27T14:21:38Z</time>
      </trkpt>
      <trkpt lat="62.7568501" lon="14.4265199">
        <ele>304.4</ele>
        <time>2012-07-27T14:21:42Z</time>
      </trkpt>
      <trkpt lat="62.7572781" lon="14.4264172">
        <ele>304.4</ele>
        <time>2012-07-27T14:21:47Z</time>
      </trkpt>
      <trkpt lat="62.7577048" lon="14.4263276">
        <ele>304.2</ele>
        <time>2012-07-27T14:21:52Z</time>
      </trkpt>
      <trkpt lat="62.7581406" lon="14.426293">
        <ele>303.8</ele>
        <time>2012-07-27T14:21:57Z</time>
      </trkpt>
      <trkpt lat="62.7585823" lon="14.4263318">
        <ele>303</ele>
        <time>2012-07-27T14:22:02Z</time>
      </trkpt>
      <trkpt lat="62.7589536" lon="14.4263991">
        <ele>301.6</ele>
        <time>2012-07-27T14:22:06Z</time>
      </trkpt>
      <trkpt lat="62.7593251" lon="14.4264603">
        <ele>300.4</ele>
        <time>2012-07-27T14:22:10Z</time>
      </trkpt>
      <trkpt lat="62.7596902" lon="14.4264832">
        <ele>299.6</ele>
        <time>2012-07-27T14:22:14Z</time>
      </trkpt>
      <trkpt lat="62.7600592" lon="14.4264394">
        <ele>298</ele>
        <time>2012-07-27T14:22:18Z</time>
      </trkpt>
      <trkpt lat="62.7604537" lon="14.4263298">
        <ele>296.6</ele>
        <time>2012-07-27T14:22:22Z</time>
      </trkpt>
      <trkpt lat="62.7608429" lon="14.4261956">
        <ele>296</ele>
        <time>2012-07-27T14:22:26Z</time>
      </trkpt>
      <trkpt lat="62.7612274" lon="14.42607">
        <ele>295.6</ele>
        <time>2012-07-27T14:22:30Z</time>
      </trkpt>
      <trkpt lat="62.7616167" lon="14.4259576">
        <ele>295</ele>
        <time>2012-07-27T14:22:34Z</time>
      </trkpt>
      <trkpt lat="62.762014" lon="14.4258915">
        <ele>293.6</ele>
        <time>2012-07-27T14:22:38Z</time>
      </trkpt>
      <trkpt lat="62.7624197" lon="14.4259022">
        <ele>292.8</ele>
        <time>2012-07-27T14:22:42Z</time>
      </trkpt>
      <trkpt lat="62.7628272" lon="14.4260064">
        <ele>292.4</ele>
        <time>2012-07-27T14:22:46Z</time>
      </trkpt>
      <trkpt lat="62.7632227" lon="14.4261563">
        <ele>292.2</ele>
        <time>2012-07-27T14:22:50Z</time>
      </trkpt>
      <trkpt lat="62.763595" lon="14.4263084">
        <ele>292.4</ele>
        <time>2012-07-27T14:22:54Z</time>
      </trkpt>
      <trkpt lat="62.7640231" lon="14.4264849">
        <ele>292.8</ele>
        <time>2012-07-27T14:22:59Z</time>
      </trkpt>
      <trkpt lat="62.7644301" lon="14.4266531">
        <ele>292.6</ele>
        <time>2012-07-27T14:23:04Z</time>
      </trkpt>
      <trkpt lat="62.7648601" lon="14.4268375">
        <ele>292.6</ele>
        <time>2012-07-27T14:23:09Z</time>
      </trkpt>
      <trkpt lat="62.7652335" lon="14.4269898">
        <ele>292.6</ele>
        <time>2012-07-27T14:23:13Z</time>
      </trkpt>
      <trkpt lat="62.7656211" lon="14.4271542">
        <ele>292.8</ele>
        <time>2012-07-27T14:23:17Z</time>
      </trkpt>
      <trkpt lat="62.7659831" lon="14.4272913">
        <ele>292.8</ele>
        <time>2012-07-27T14:23:21Z</time>
      </trkpt>
      <trkpt lat="62.7664108" lon="14.4274612">
        <ele>293.6</ele>
        <time>2012-07-27T14:23:26Z</time>
      </trkpt>
      <trkpt lat="62.7665667" lon="14.427507">
        <ele>293.8</ele>
        <time>2012-07-27T14:23:28Z</time>
      </trkpt>
      <trkpt lat="62.766761" lon="14.4275775">
        <ele>294.4</ele>
        <time>2012-07-27T14:23:31Z</time>
      </trkpt>
      <trkpt lat="62.7670977" lon="14.4277266">
        <ele>295.4</ele>
        <time>2012-07-27T14:23:38Z</time>
      </trkpt>
      <trkpt lat="62.767266" lon="14.4277901">
        <ele>297.2</ele>
        <time>2012-07-27T14:23:42Z</time>
      </trkpt>
      <trkpt lat="62.7674761" lon="14.4278717">
        <ele>297.4</ele>
        <time>2012-07-27T14:23:47Z</time>
      </trkpt>
      <trkpt lat="62.767669" lon="14.4280012">
        <ele>299</ele>
        <time>2012-07-27T14:23:52Z</time>
      </trkpt>
      <trkpt lat="62.7677284" lon="14.428026">
        <ele>299.2</ele>
        <time>2012-07-27T14:23:53Z</time>
      </trkpt>
      <trkpt lat="62.7678618" lon="14.4280749">
        <ele>300</ele>
        <time>2012-07-27T14:23:55Z</time>
      </trkpt>
      <trkpt lat="62.7682612" lon="14.4282267">
        <ele>299.8</ele>
        <time>2012-07-27T14:24:01Z</time>
      </trkpt>
      <trkpt lat="62.7686659" lon="14.4283737">
        <ele>298.8</ele>
        <time>2012-07-27T14:24:06Z</time>
      </trkpt>
      <trkpt lat="62.7690986" lon="14.4285371">
        <ele>298</ele>
        <time>2012-07-27T14:24:11Z</time>
      </trkpt>
      <trkpt lat="62.7694745" lon="14.4286855">
        <ele>297.2</ele>
        <time>2012-07-27T14:24:15Z</time>
      </trkpt>
      <trkpt lat="62.769851" lon="14.4288365">
        <ele>296.2</ele>
        <time>2012-07-27T14:24:19Z</time>
      </trkpt>
      <trkpt lat="62.7702171" lon="14.4289721">
        <ele>295.4</ele>
        <time>2012-07-27T14:24:23Z</time>
      </trkpt>
      <trkpt lat="62.7705754" lon="14.4291142">
        <ele>293.8</ele>
        <time>2012-07-27T14:24:27Z</time>
      </trkpt>
      <trkpt lat="62.7710165" lon="14.4292983">
        <ele>292.6</ele>
        <time>2012-07-27T14:24:32Z</time>
      </trkpt>
      <trkpt lat="62.7713764" lon="14.4294467">
        <ele>291.8</ele>
        <time>2012-07-27T14:24:36Z</time>
      </trkpt>
      <trkpt lat="62.7717393" lon="14.4295958">
        <ele>290.2</ele>
        <time>2012-07-27T14:24:40Z</time>
      </trkpt>
      <trkpt lat="62.7721788" lon="14.4297724">
        <ele>289.4</ele>
        <time>2012-07-27T14:24:45Z</time>
      </trkpt>
      <trkpt lat="62.7726101" lon="14.4299533">
        <ele>288</ele>
        <time>2012-07-27T14:24:50Z</time>
      </trkpt>
      <trkpt lat="62.773033" lon="14.4300931">
        <ele>288.4</ele>
        <time>2012-07-27T14:24:55Z</time>
      </trkpt>
      <trkpt lat="62.7734573" lon="14.4301468">
        <ele>289</ele>
        <time>2012-07-27T14:25:00Z</time>
      </trkpt>
      <trkpt lat="62.7738565" lon="14.4301325">
        <ele>288.6</ele>
        <time>2012-07-27T14:25:05Z</time>
      </trkpt>
      <trkpt lat="62.7742562" lon="14.4301039">
        <ele>288</ele>
        <time>2012-07-27T14:25:10Z</time>
      </trkpt>
      <trkpt lat="62.7746541" lon="14.4300758">
        <ele>287.6</ele>
        <time>2012-07-27T14:25:15Z</time>
      </trkpt>
      <trkpt lat="62.775067" lon="14.4300569">
        <ele>287.6</ele>
        <time>2012-07-27T14:25:20Z</time>
      </trkpt>
      <trkpt lat="62.7754791" lon="14.430107">
        <ele>287.4</ele>
        <time>2012-07-27T14:25:25Z</time>
      </trkpt>
      <trkpt lat="62.7758849" lon="14.4302407">
        <ele>289.2</ele>
        <time>2012-07-27T14:25:30Z</time>
      </trkpt>
      <trkpt lat="62.7762656" lon="14.430392">
        <ele>291</ele>
        <time>2012-07-27T14:25:35Z</time>
      </trkpt>
      <trkpt lat="62.7766376" lon="14.4305306">
        <ele>292.6</ele>
        <time>2012-07-27T14:25:40Z</time>
      </trkpt>
      <trkpt lat="62.777009" lon="14.4306655">
        <ele>295</ele>
        <time>2012-07-27T14:25:45Z</time>
      </trkpt>
      <trkpt lat="62.7774351" lon="14.4308338">
        <ele>294.6</ele>
        <time>2012-07-27T14:25:51Z</time>
      </trkpt>
      <trkpt lat="62.7777891" lon="14.4309732">
        <ele>293.8</ele>
        <time>2012-07-27T14:25:56Z</time>
      </trkpt>
      <trkpt lat="62.7781616" lon="14.431115">
        <ele>292.2</ele>
        <time>2012-07-27T14:26:01Z</time>
      </trkpt>
      <trkpt lat="62.7785561" lon="14.4312866">
        <ele>292</ele>
        <time>2012-07-27T14:26:06Z</time>
      </trkpt>
      <trkpt lat="62.7789505" lon="14.4314342">
        <ele>292</ele>
        <time>2012-07-27T14:26:11Z</time>
      </trkpt>
      <trkpt lat="62.7793374" lon="14.4316122">
        <ele>292.4</ele>
        <time>2012-07-27T14:26:16Z</time>
      </trkpt>
      <trkpt lat="62.779727" lon="14.4318538">
        <ele>291.4</ele>
        <time>2012-07-27T14:26:21Z</time>
      </trkpt>
      <trkpt lat="62.7801068" lon="14.4321521">
        <ele>291</ele>
        <time>2012-07-27T14:26:26Z</time>
      </trkpt>
      <trkpt lat="62.7804785" lon="14.4324695">
        <ele>292</ele>
        <time>2012-07-27T14:26:31Z</time>
      </trkpt>
      <trkpt lat="62.7808463" lon="14.432795">
        <ele>293.4</ele>
        <time>2012-07-27T14:26:36Z</time>
      </trkpt>
      <trkpt lat="62.781194" lon="14.4331116">
        <ele>294.2</ele>
        <time>2012-07-27T14:26:41Z</time>
      </trkpt>
      <trkpt lat="62.7815582" lon="14.4334309">
        <ele>295</ele>
        <time>2012-07-27T14:26:46Z</time>
      </trkpt>
      <trkpt lat="62.7819236" lon="14.4337186">
        <ele>295.6</ele>
        <time>2012-07-27T14:26:51Z</time>
      </trkpt>
      <trkpt lat="62.7822904" lon="14.4340805">
        <ele>296.2</ele>
        <time>2012-07-27T14:26:56Z</time>
      </trkpt>
      <trkpt lat="62.7826285" lon="14.4343875">
        <ele>297</ele>
        <time>2012-07-27T14:27:01Z</time>
      </trkpt>
      <trkpt lat="62.7829858" lon="14.4347038">
        <ele>297.8</ele>
        <time>2012-07-27T14:27:06Z</time>
      </trkpt>
      <trkpt lat="62.783383" lon="14.4350536">
        <ele>298.6</ele>
        <time>2012-07-27T14:27:12Z</time>
      </trkpt>
      <trkpt lat="62.7837824" lon="14.4353597">
        <ele>298.6</ele>
        <time>2012-07-27T14:27:18Z</time>
      </trkpt>
      <trkpt lat="62.7840073" lon="14.435487">
        <ele>297.8</ele>
        <time>2012-07-27T14:27:21Z</time>
      </trkpt>
      <trkpt lat="62.7841719" lon="14.4355538">
        <ele>297</ele>
        <time>2012-07-27T14:27:23Z</time>
      </trkpt>
      <trkpt lat="62.784601" lon="14.4357478">
        <ele>295.8</ele>
        <time>2012-07-27T14:27:28Z</time>
      </trkpt>
      <trkpt lat="62.7850015" lon="14.4359311">
        <ele>295.2</ele>
        <time>2012-07-27T14:27:33Z</time>
      </trkpt>
      <trkpt lat="62.7853857" lon="14.4361111">
        <ele>295</ele>
        <time>2012-07-27T14:27:38Z</time>
      </trkpt>
      <trkpt lat="62.7857623" lon="14.436291">
        <ele>295.4</ele>
        <time>2012-07-27T14:27:43Z</time>
      </trkpt>
      <trkpt lat="62.7861162" lon="14.4364605">
        <ele>295.6</ele>
        <time>2012-07-27T14:27:48Z</time>
      </trkpt>
      <trkpt lat="62.7864636" lon="14.4366291">
        <ele>297.4</ele>
        <time>2012-07-27T14:27:53Z</time>
      </trkpt>
      <trkpt lat="62.7868097" lon="14.4368158">
        <ele>298.6</ele>
        <time>2012-07-27T14:27:58Z</time>
      </trkpt>
      <trkpt lat="62.7871734" lon="14.4369982">
        <ele>299</ele>
        <time>2012-07-27T14:28:03Z</time>
      </trkpt>
      <trkpt lat="62.787536" lon="14.4371347">
        <ele>298.4</ele>
        <time>2012-07-27T14:28:08Z</time>
      </trkpt>
      <trkpt lat="62.7879001" lon="14.4371852">
        <ele>298.6</ele>
        <time>2012-07-27T14:28:13Z</time>
      </trkpt>
      <trkpt lat="62.7882726" lon="14.4371464">
        <ele>298.6</ele>
        <time>2012-07-27T14:28:18Z</time>
      </trkpt>
      <trkpt lat="62.7886588" lon="14.4370019">
        <ele>299.4</ele>
        <time>2012-07-27T14:28:23Z</time>
      </trkpt>
      <trkpt lat="62.7890214" lon="14.4368465">
        <ele>300</ele>
        <time>2012-07-27T14:28:28Z</time>
      </trkpt>
      <trkpt lat="62.7893972" lon="14.4367068">
        <ele>300.8</ele>
        <time>2012-07-27T14:28:33Z</time>
      </trkpt>
      <trkpt lat="62.7897784" lon="14.4365668">
        <ele>301.2</ele>
        <time>2012-07-27T14:28:38Z</time>
      </trkpt>
      <trkpt lat="62.790169" lon="14.4364232">
        <ele>300.6</ele>
        <time>2012-07-27T14:28:43Z</time>
      </trkpt>
      <trkpt lat="62.7905746" lon="14.4363108">
        <ele>299.2</ele>
        <time>2012-07-27T14:28:48Z</time>
      </trkpt>
      <trkpt lat="62.7909857" lon="14.4363121">
        <ele>298.8</ele>
        <time>2012-07-27T14:28:53Z</time>
      </trkpt>
      <trkpt lat="62.7913926" lon="14.4363749">
        <ele>299.2</ele>
        <time>2012-07-27T14:28:58Z</time>
      </trkpt>
      <trkpt lat="62.7917817" lon="14.4364532">
        <ele>299.4</ele>
        <time>2012-07-27T14:29:03Z</time>
      </trkpt>
      <trkpt lat="62.7921621" lon="14.4365274">
        <ele>299.4</ele>
        <time>2012-07-27T14:29:08Z</time>
      </trkpt>
      <trkpt lat="62.7925415" lon="14.4365949">
        <ele>299.6</ele>
        <time>2012-07-27T14:29:13Z</time>
      </trkpt>
      <trkpt lat="62.7929248" lon="14.4366578">
        <ele>299.6</ele>
        <time>2012-07-27T14:29:18Z</time>
      </trkpt>
      <trkpt lat="62.7933247" lon="14.4367379">
        <ele>299.6</ele>
        <time>2012-07-27T14:29:23Z</time>
      </trkpt>
      <trkpt lat="62.7937371" lon="14.4368188">
        <ele>300.2</ele>
        <time>2012-07-27T14:29:28Z</time>
      </trkpt>
      <trkpt lat="62.7941587" lon="14.4369427">
        <ele>300</ele>
        <time>2012-07-27T14:29:33Z</time>
      </trkpt>
      <trkpt lat="62.7945797" lon="14.4371615">
        <ele>300.6</ele>
        <time>2012-07-27T14:29:38Z</time>
      </trkpt>
      <trkpt lat="62.7949984" lon="14.4374183">
        <ele>300.8</ele>
        <time>2012-07-27T14:29:43Z</time>
      </trkpt>
      <trkpt lat="62.7954017" lon="14.4376722">
        <ele>301</ele>
        <time>2012-07-27T14:29:48Z</time>
      </trkpt>
      <trkpt lat="62.7957973" lon="14.4379223">
        <ele>300.4</ele>
        <time>2012-07-27T14:29:53Z</time>
      </trkpt>
      <trkpt lat="62.7961774" lon="14.4381906">
        <ele>299.2</ele>
        <time>2012-07-27T14:29:58Z</time>
      </trkpt>
      <trkpt lat="62.7965642" lon="14.4384443">
        <ele>298.4</ele>
        <time>2012-07-27T14:30:03Z</time>
      </trkpt>
      <trkpt lat="62.7969551" lon="14.4387041">
        <ele>297.4</ele>
        <time>2012-07-27T14:30:08Z</time>
      </trkpt>
      <trkpt lat="62.7973581" lon="14.4389355">
        <ele>296.6</ele>
        <time>2012-07-27T14:30:13Z</time>
      </trkpt>
      <trkpt lat="62.7977844" lon="14.4390472">
        <ele>296.4</ele>
        <time>2012-07-27T14:30:18Z</time>
      </trkpt>
      <trkpt lat="62.7982106" lon="14.4390081">
        <ele>297.2</ele>
        <time>2012-07-27T14:30:23Z</time>
      </trkpt>
      <trkpt lat="62.7986303" lon="14.4388106">
        <ele>297.6</ele>
        <time>2012-07-27T14:30:28Z</time>
      </trkpt>
      <trkpt lat="62.7990404" lon="14.4385729">
        <ele>297.6</ele>
        <time>2012-07-27T14:30:33Z</time>
      </trkpt>
      <trkpt lat="62.7994461" lon="14.4382978">
        <ele>298</ele>
        <time>2012-07-27T14:30:38Z</time>
      </trkpt>
      <trkpt lat="62.7998497" lon="14.4380715">
        <ele>297.8</ele>
        <time>2012-07-27T14:30:43Z</time>
      </trkpt>
      <trkpt lat="62.8002397" lon="14.4379677">
        <ele>298.2</ele>
        <time>2012-07-27T14:30:48Z</time>
      </trkpt>
      <trkpt lat="62.8006204" lon="14.4379746">
        <ele>298.6</ele>
        <time>2012-07-27T14:30:53Z</time>
      </trkpt>
      <trkpt lat="62.8009883" lon="14.438034">
        <ele>298.4</ele>
        <time>2012-07-27T14:30:58Z</time>
      </trkpt>
      <trkpt lat="62.8013642" lon="14.4381014">
        <ele>298.8</ele>
        <time>2012-07-27T14:31:03Z</time>
      </trkpt>
      <trkpt lat="62.8017714" lon="14.4381738">
        <ele>299.8</ele>
        <time>2012-07-27T14:31:09Z</time>
      </trkpt>
      <trkpt lat="62.8021718" lon="14.4381787">
        <ele>301.6</ele>
        <time>2012-07-27T14:31:15Z</time>
      </trkpt>
      <trkpt lat="62.8025759" lon="14.4381015">
        <ele>303.2</ele>
        <time>2012-07-27T14:31:22Z</time>
      </trkpt>
      <trkpt lat="62.8029514" lon="14.437996">
        <ele>304.8</ele>
        <time>2012-07-27T14:31:29Z</time>
      </trkpt>
      <trkpt lat="62.8033104" lon="14.4378907">
        <ele>306.6</ele>
        <time>2012-07-27T14:31:35Z</time>
      </trkpt>
      <trkpt lat="62.8037073" lon="14.4377907">
        <ele>305.8</ele>
        <time>2012-07-27T14:31:41Z</time>
      </trkpt>
      <trkpt lat="62.8041169" lon="14.4376918">
        <ele>305.6</ele>
        <time>2012-07-27T14:31:47Z</time>
      </trkpt>
      <trkpt lat="62.8045091" lon="14.4375861">
        <ele>306.2</ele>
        <time>2012-07-27T14:31:53Z</time>
      </trkpt>
      <trkpt lat="62.8049344" lon="14.4374777">
        <ele>307.2</ele>
        <time>2012-07-27T14:31:59Z</time>
      </trkpt>
      <trkpt lat="62.805352" lon="14.4373581">
        <ele>308.2</ele>
        <time>2012-07-27T14:32:05Z</time>
      </trkpt>
      <trkpt lat="62.8057491" lon="14.4372593">
        <ele>309</ele>
        <time>2012-07-27T14:32:11Z</time>
      </trkpt>
      <trkpt lat="62.8061631" lon="14.4371375">
        <ele>308.8</ele>
        <time>2012-07-27T14:32:17Z</time>
      </trkpt>
      <trkpt lat="62.8065703" lon="14.4369949">
        <ele>308.4</ele>
        <time>2012-07-27T14:32:23Z</time>
      </trkpt>
      <trkpt lat="62.806865" lon="14.4369339">
        <ele>308.2</ele>
        <time>2012-07-27T14:32:27Z</time>
      </trkpt>
      <trkpt lat="62.8069409" lon="14.4369333">
        <ele>308.4</ele>
        <time>2012-07-27T14:32:28Z</time>
      </trkpt>
      <trkpt lat="62.8073077" lon="14.4369008">
        <ele>308.2</ele>
        <time>2012-07-27T14:32:33Z</time>
      </trkpt>
      <trkpt lat="62.8077337" lon="14.4369677">
        <ele>307.8</ele>
        <time>2012-07-27T14:32:39Z</time>
      </trkpt>
      <trkpt lat="62.8081072" lon="14.4371691">
        <ele>305.4</ele>
        <time>2012-07-27T14:32:44Z</time>
      </trkpt>
      <trkpt lat="62.8085268" lon="14.4374233">
        <ele>303</ele>
        <time>2012-07-27T14:32:49Z</time>
      </trkpt>
      <trkpt lat="62.8088817" lon="14.4376198">
        <ele>301.8</ele>
        <time>2012-07-27T14:32:53Z</time>
      </trkpt>
      <trkpt lat="62.8092282" lon="14.4375203">
        <ele>301.6</ele>
        <time>2012-07-27T14:32:57Z</time>
      </trkpt>
      <trkpt lat="62.8094229" lon="14.4371599">
        <ele>302.2</ele>
        <time>2012-07-27T14:33:00Z</time>
      </trkpt>
      <trkpt lat="62.8095275" lon="14.4369032">
        <ele>303.4</ele>
        <time>2012-07-27T14:33:02Z</time>
      </trkpt>
      <trkpt lat="62.8097695" lon="14.4362832">
        <ele>305.6</ele>
        <time>2012-07-27T14:33:07Z</time>
      </trkpt>
      <trkpt lat="62.8100276" lon="14.4356302">
        <ele>307.2</ele>
        <time>2012-07-27T14:33:13Z</time>
      </trkpt>
      <trkpt lat="62.8102637" lon="14.434981">
        <ele>310</ele>
        <time>2012-07-27T14:33:19Z</time>
      </trkpt>
      <trkpt lat="62.8104729" lon="14.4342562">
        <ele>312</ele>
        <time>2012-07-27T14:33:26Z</time>
      </trkpt>
      <trkpt lat="62.8106201" lon="14.4335361">
        <ele>314</ele>
        <time>2012-07-27T14:33:33Z</time>
      </trkpt>
      <trkpt lat="62.8106696" lon="14.4332189">
        <ele>315</ele>
        <time>2012-07-27T14:33:36Z</time>
      </trkpt>
      <trkpt lat="62.8107098" lon="14.4327896">
        <ele>316</ele>
        <time>2012-07-27T14:33:40Z</time>
      </trkpt>
      <trkpt lat="62.8107906" lon="14.4320406">
        <ele>316.2</ele>
        <time>2012-07-27T14:33:46Z</time>
      </trkpt>
      <trkpt lat="62.8108827" lon="14.4312891">
        <ele>316.6</ele>
        <time>2012-07-27T14:33:52Z</time>
      </trkpt>
      <trkpt lat="62.8109962" lon="14.430475">
        <ele>317.4</ele>
        <time>2012-07-27T14:33:59Z</time>
      </trkpt>
      <trkpt lat="62.8111375" lon="14.4296831">
        <ele>318.6</ele>
        <time>2012-07-27T14:34:06Z</time>
      </trkpt>
      <trkpt lat="62.8112303" lon="14.429196">
        <ele>319.2</ele>
        <time>2012-07-27T14:34:11Z</time>
      </trkpt>
      <trkpt lat="62.8112887" lon="14.4289077">
        <ele>320</ele>
        <time>2012-07-27T14:34:14Z</time>
      </trkpt>
      <trkpt lat="62.8114549" lon="14.4280973">
        <ele>322.4</ele>
        <time>2012-07-27T14:34:23Z</time>
      </trkpt>
      <trkpt lat="62.8116008" lon="14.42735">
        <ele>324.2</ele>
        <time>2012-07-27T14:34:31Z</time>
      </trkpt>
      <trkpt lat="62.811745" lon="14.4266199">
        <ele>324.6</ele>
        <time>2012-07-27T14:34:38Z</time>
      </trkpt>
      <trkpt lat="62.8118998" lon="14.4258343">
        <ele>325.2</ele>
        <time>2012-07-27T14:34:45Z</time>
      </trkpt>
      <trkpt lat="62.8120473" lon="14.4250896">
        <ele>327.4</ele>
        <time>2012-07-27T14:34:52Z</time>
      </trkpt>
      <trkpt lat="62.8121958" lon="14.4243428">
        <ele>329</ele>
        <time>2012-07-27T14:34:59Z</time>
      </trkpt>
      <trkpt lat="62.8123434" lon="14.4235672">
        <ele>330.4</ele>
        <time>2012-07-27T14:35:06Z</time>
      </trkpt>
      <trkpt lat="62.8124905" lon="14.4228534">
        <ele>331.2</ele>
        <time>2012-07-27T14:35:13Z</time>
      </trkpt>
      <trkpt lat="62.8126399" lon="14.4221012">
        <ele>331.8</ele>
        <time>2012-07-27T14:35:19Z</time>
      </trkpt>
      <trkpt lat="62.8127947" lon="14.4213114">
        <ele>332.2</ele>
        <time>2012-07-27T14:35:25Z</time>
      </trkpt>
      <trkpt lat="62.8129641" lon="14.4204567">
        <ele>333</ele>
        <time>2012-07-27T14:35:31Z</time>
      </trkpt>
      <trkpt lat="62.8131086" lon="14.4196988">
        <ele>333.2</ele>
        <time>2012-07-27T14:35:36Z</time>
      </trkpt>
      <trkpt lat="62.8132493" lon="14.4189656">
        <ele>333.6</ele>
        <time>2012-07-27T14:35:41Z</time>
      </trkpt>
      <trkpt lat="62.8134124" lon="14.4181239">
        <ele>334.2</ele>
        <time>2012-07-27T14:35:47Z</time>
      </trkpt>
      <trkpt lat="62.8135731" lon="14.4173129">
        <ele>334.6</ele>
        <time>2012-07-27T14:35:53Z</time>
      </trkpt>
      <trkpt lat="62.8137255" lon="14.4165197">
        <ele>335</ele>
        <time>2012-07-27T14:35:59Z</time>
      </trkpt>
      <trkpt lat="62.8139011" lon="14.4156468">
        <ele>334.6</ele>
        <time>2012-07-27T14:36:05Z</time>
      </trkpt>
      <trkpt lat="62.8140722" lon="14.4147751">
        <ele>332.6</ele>
        <time>2012-07-27T14:36:10Z</time>
      </trkpt>
      <trkpt lat="62.8142192" lon="14.4140305">
        <ele>331.6</ele>
        <time>2012-07-27T14:36:14Z</time>
      </trkpt>
      <trkpt lat="62.8143884" lon="14.4131566">
        <ele>332.4</ele>
        <time>2012-07-27T14:36:19Z</time>
      </trkpt>
      <trkpt lat="62.814542" lon="14.4123797">
        <ele>334</ele>
        <time>2012-07-27T14:36:24Z</time>
      </trkpt>
      <trkpt lat="62.814703" lon="14.4115416">
        <ele>334.8</ele>
        <time>2012-07-27T14:36:29Z</time>
      </trkpt>
      <trkpt lat="62.8148589" lon="14.4107287">
        <ele>335.8</ele>
        <time>2012-07-27T14:36:34Z</time>
      </trkpt>
      <trkpt lat="62.8150054" lon="14.4099563">
        <ele>337</ele>
        <time>2012-07-27T14:36:39Z</time>
      </trkpt>
      <trkpt lat="62.8151436" lon="14.4091965">
        <ele>337.8</ele>
        <time>2012-07-27T14:36:44Z</time>
      </trkpt>
      <trkpt lat="62.8152504" lon="14.4084763">
        <ele>339.2</ele>
        <time>2012-07-27T14:36:49Z</time>
      </trkpt>
      <trkpt lat="62.8153565" lon="14.4076866">
        <ele>339</ele>
        <time>2012-07-27T14:36:55Z</time>
      </trkpt>
      <trkpt lat="62.8154622" lon="14.4069477">
        <ele>339.4</ele>
        <time>2012-07-27T14:37:01Z</time>
      </trkpt>
      <trkpt lat="62.815594" lon="14.4061217">
        <ele>340.6</ele>
        <time>2012-07-27T14:37:08Z</time>
      </trkpt>
    </trkseg>
  </trk>
</gpx>